<?xml version="1.0" encoding="UTF-8" standalone="no" ?>
<gpx xmlns="http://www.topografix.com/GPX/1/1" xmlns:xsi="http://www.w3.org/2001/XMLSchema-instance" xsi:schemaLocation="http://www.topografix.com/GPX/1/1 http://www.topografix.com/GPX/1/1/gpx.xsd" version="1.1" creator="VisuGPX - https://www.visugpx.com">
  <metadata>
    <name>Malmontagne </name>
    <desc><![CDATA[Boucle au départ de la croix du grand Maître en grande partie sur GR.]]></desc>
  </metadata>
  <trk>
    <name><![CDATA[Malmontagne 19-11-22]]></name>
    <trkseg>
      <trkpt lat="48.37622" lon="2.73959">
        <ele>72.400001525879</ele>
        <time>2022-11-19T12:42:00Z</time>
      </trkpt>
      <trkpt lat="48.37623" lon="2.73958">
        <ele>72.400001525879</ele>
        <time>2022-11-19T12:42:04Z</time>
      </trkpt>
      <trkpt lat="48.37624" lon="2.73958">
        <ele>72.400001525879</ele>
        <time>2022-11-19T12:42:08Z</time>
      </trkpt>
      <trkpt lat="48.37624" lon="2.73957">
        <ele>72.400001525879</ele>
        <time>2022-11-19T12:42:12Z</time>
      </trkpt>
      <trkpt lat="48.37625" lon="2.73957">
        <ele>72.400001525879</ele>
        <time>2022-11-19T12:42:16Z</time>
      </trkpt>
      <trkpt lat="48.37626" lon="2.73956">
        <ele>72.199996948242</ele>
        <time>2022-11-19T12:42:20Z</time>
      </trkpt>
      <trkpt lat="48.37626" lon="2.73955">
        <ele>72.199996948242</ele>
        <time>2022-11-19T12:42:24Z</time>
      </trkpt>
      <trkpt lat="48.37626" lon="2.73954">
        <ele>72</ele>
        <time>2022-11-19T12:42:28Z</time>
      </trkpt>
      <trkpt lat="48.37626" lon="2.73954">
        <ele>72</ele>
        <time>2022-11-19T12:42:32Z</time>
      </trkpt>
      <trkpt lat="48.37626" lon="2.73952">
        <ele>72.199996948242</ele>
        <time>2022-11-19T12:42:36Z</time>
      </trkpt>
      <trkpt lat="48.37626" lon="2.73952">
        <ele>72.199996948242</ele>
        <time>2022-11-19T12:42:40Z</time>
      </trkpt>
      <trkpt lat="48.37626" lon="2.73952">
        <ele>72.199996948242</ele>
        <time>2022-11-19T12:42:44Z</time>
      </trkpt>
      <trkpt lat="48.37626" lon="2.7395">
        <ele>72.199996948242</ele>
        <time>2022-11-19T12:42:48Z</time>
      </trkpt>
      <trkpt lat="48.37627" lon="2.73946">
        <ele>72.199996948242</ele>
        <time>2022-11-19T12:42:52Z</time>
      </trkpt>
      <trkpt lat="48.37629" lon="2.73942">
        <ele>72.199996948242</ele>
        <time>2022-11-19T12:42:56Z</time>
      </trkpt>
      <trkpt lat="48.37631" lon="2.73936">
        <ele>72.199996948242</ele>
        <time>2022-11-19T12:43:00Z</time>
      </trkpt>
      <trkpt lat="48.37634" lon="2.73933">
        <ele>72.199996948242</ele>
        <time>2022-11-19T12:43:04Z</time>
      </trkpt>
      <trkpt lat="48.37638" lon="2.7393">
        <ele>72.199996948242</ele>
        <time>2022-11-19T12:43:08Z</time>
      </trkpt>
      <trkpt lat="48.37643" lon="2.73927">
        <ele>71.800003051758</ele>
        <time>2022-11-19T12:43:12Z</time>
      </trkpt>
      <trkpt lat="48.37647" lon="2.73925">
        <ele>71.800003051758</ele>
        <time>2022-11-19T12:43:16Z</time>
      </trkpt>
      <trkpt lat="48.37651" lon="2.73923">
        <ele>72</ele>
        <time>2022-11-19T12:43:20Z</time>
      </trkpt>
      <trkpt lat="48.37653" lon="2.7392">
        <ele>72.199996948242</ele>
        <time>2022-11-19T12:43:24Z</time>
      </trkpt>
      <trkpt lat="48.37654" lon="2.73915">
        <ele>72.199996948242</ele>
        <time>2022-11-19T12:43:28Z</time>
      </trkpt>
      <trkpt lat="48.37657" lon="2.7391">
        <ele>72.199996948242</ele>
        <time>2022-11-19T12:43:32Z</time>
      </trkpt>
      <trkpt lat="48.37659" lon="2.73906">
        <ele>72.199996948242</ele>
        <time>2022-11-19T12:43:36Z</time>
      </trkpt>
      <trkpt lat="48.37662" lon="2.739">
        <ele>72</ele>
        <time>2022-11-19T12:43:40Z</time>
      </trkpt>
      <trkpt lat="48.37665" lon="2.73896">
        <ele>72</ele>
        <time>2022-11-19T12:43:44Z</time>
      </trkpt>
      <trkpt lat="48.37666" lon="2.73893">
        <ele>72</ele>
        <time>2022-11-19T12:43:48Z</time>
      </trkpt>
      <trkpt lat="48.37666" lon="2.7389">
        <ele>72</ele>
        <time>2022-11-19T12:43:52Z</time>
      </trkpt>
      <trkpt lat="48.37665" lon="2.73884">
        <ele>72</ele>
        <time>2022-11-19T12:43:56Z</time>
      </trkpt>
      <trkpt lat="48.37665" lon="2.73877">
        <ele>72</ele>
        <time>2022-11-19T12:44:00Z</time>
      </trkpt>
      <trkpt lat="48.37666" lon="2.73872">
        <ele>72</ele>
        <time>2022-11-19T12:44:04Z</time>
      </trkpt>
      <trkpt lat="48.37666" lon="2.73864">
        <ele>72</ele>
        <time>2022-11-19T12:44:08Z</time>
      </trkpt>
      <trkpt lat="48.37668" lon="2.73858">
        <ele>72</ele>
        <time>2022-11-19T12:44:12Z</time>
      </trkpt>
      <trkpt lat="48.37672" lon="2.73853">
        <ele>72</ele>
        <time>2022-11-19T12:44:16Z</time>
      </trkpt>
      <trkpt lat="48.37674" lon="2.73847">
        <ele>72</ele>
        <time>2022-11-19T12:44:20Z</time>
      </trkpt>
      <trkpt lat="48.37675" lon="2.73843">
        <ele>72.199996948242</ele>
        <time>2022-11-19T12:44:24Z</time>
      </trkpt>
      <trkpt lat="48.37676" lon="2.73838">
        <ele>72.199996948242</ele>
        <time>2022-11-19T12:44:28Z</time>
      </trkpt>
      <trkpt lat="48.37677" lon="2.73831">
        <ele>72.199996948242</ele>
        <time>2022-11-19T12:44:32Z</time>
      </trkpt>
      <trkpt lat="48.3768" lon="2.73825">
        <ele>72.199996948242</ele>
        <time>2022-11-19T12:44:36Z</time>
      </trkpt>
      <trkpt lat="48.37681" lon="2.73818">
        <ele>72.199996948242</ele>
        <time>2022-11-19T12:44:40Z</time>
      </trkpt>
      <trkpt lat="48.37682" lon="2.73812">
        <ele>72.199996948242</ele>
        <time>2022-11-19T12:44:44Z</time>
      </trkpt>
      <trkpt lat="48.37682" lon="2.73806">
        <ele>72.400001525879</ele>
        <time>2022-11-19T12:44:48Z</time>
      </trkpt>
      <trkpt lat="48.37682" lon="2.73801">
        <ele>72.400001525879</ele>
        <time>2022-11-19T12:44:52Z</time>
      </trkpt>
      <trkpt lat="48.37683" lon="2.73795">
        <ele>72.400001525879</ele>
        <time>2022-11-19T12:44:56Z</time>
      </trkpt>
      <trkpt lat="48.37683" lon="2.73787">
        <ele>72.599998474121</ele>
        <time>2022-11-19T12:45:00Z</time>
      </trkpt>
      <trkpt lat="48.37683" lon="2.73778">
        <ele>72.199996948242</ele>
        <time>2022-11-19T12:45:04Z</time>
      </trkpt>
      <trkpt lat="48.37683" lon="2.73769">
        <ele>72.199996948242</ele>
        <time>2022-11-19T12:45:08Z</time>
      </trkpt>
      <trkpt lat="48.37681" lon="2.73761">
        <ele>72.199996948242</ele>
        <time>2022-11-19T12:45:12Z</time>
      </trkpt>
      <trkpt lat="48.3768" lon="2.73753">
        <ele>72.199996948242</ele>
        <time>2022-11-19T12:45:16Z</time>
      </trkpt>
      <trkpt lat="48.37681" lon="2.73746">
        <ele>72.199996948242</ele>
        <time>2022-11-19T12:45:20Z</time>
      </trkpt>
      <trkpt lat="48.37681" lon="2.7374">
        <ele>72.199996948242</ele>
        <time>2022-11-19T12:45:24Z</time>
      </trkpt>
      <trkpt lat="48.37681" lon="2.73734">
        <ele>72.400001525879</ele>
        <time>2022-11-19T12:45:28Z</time>
      </trkpt>
      <trkpt lat="48.37681" lon="2.73725">
        <ele>72.599998474121</ele>
        <time>2022-11-19T12:45:32Z</time>
      </trkpt>
      <trkpt lat="48.37682" lon="2.73718">
        <ele>72.599998474121</ele>
        <time>2022-11-19T12:45:36Z</time>
      </trkpt>
      <trkpt lat="48.37684" lon="2.73711">
        <ele>72.599998474121</ele>
        <time>2022-11-19T12:45:40Z</time>
      </trkpt>
      <trkpt lat="48.37685" lon="2.73703">
        <ele>72.599998474121</ele>
        <time>2022-11-19T12:45:44Z</time>
      </trkpt>
      <trkpt lat="48.37686" lon="2.73696">
        <ele>72.800003051758</ele>
        <time>2022-11-19T12:45:48Z</time>
      </trkpt>
      <trkpt lat="48.37688" lon="2.73688">
        <ele>72.599998474121</ele>
        <time>2022-11-19T12:45:52Z</time>
      </trkpt>
      <trkpt lat="48.3769" lon="2.73683">
        <ele>72.599998474121</ele>
        <time>2022-11-19T12:45:56Z</time>
      </trkpt>
      <trkpt lat="48.3769" lon="2.73676">
        <ele>72.599998474121</ele>
        <time>2022-11-19T12:46:00Z</time>
      </trkpt>
      <trkpt lat="48.37692" lon="2.73669">
        <ele>72.599998474121</ele>
        <time>2022-11-19T12:46:04Z</time>
      </trkpt>
      <trkpt lat="48.37692" lon="2.73653">
        <ele>72.800003051758</ele>
        <time>2022-11-19T12:46:08Z</time>
      </trkpt>
      <trkpt lat="48.37693" lon="2.73647">
        <ele>72.800003051758</ele>
        <time>2022-11-19T12:46:12Z</time>
      </trkpt>
      <trkpt lat="48.37695" lon="2.73641">
        <ele>72.599998474121</ele>
        <time>2022-11-19T12:46:16Z</time>
      </trkpt>
      <trkpt lat="48.37696" lon="2.73636">
        <ele>72.599998474121</ele>
        <time>2022-11-19T12:46:20Z</time>
      </trkpt>
      <trkpt lat="48.37697" lon="2.73632">
        <ele>72.599998474121</ele>
        <time>2022-11-19T12:46:24Z</time>
      </trkpt>
      <trkpt lat="48.37699" lon="2.73627">
        <ele>72.599998474121</ele>
        <time>2022-11-19T12:46:28Z</time>
      </trkpt>
      <trkpt lat="48.37702" lon="2.7362">
        <ele>72.599998474121</ele>
        <time>2022-11-19T12:46:32Z</time>
      </trkpt>
      <trkpt lat="48.37704" lon="2.73614">
        <ele>72.400001525879</ele>
        <time>2022-11-19T12:46:36Z</time>
      </trkpt>
      <trkpt lat="48.37706" lon="2.73608">
        <ele>72.400001525879</ele>
        <time>2022-11-19T12:46:40Z</time>
      </trkpt>
      <trkpt lat="48.37707" lon="2.73602">
        <ele>72.400001525879</ele>
        <time>2022-11-19T12:46:44Z</time>
      </trkpt>
      <trkpt lat="48.37709" lon="2.73595">
        <ele>72.400001525879</ele>
        <time>2022-11-19T12:46:48Z</time>
      </trkpt>
      <trkpt lat="48.37711" lon="2.73589">
        <ele>72.400001525879</ele>
        <time>2022-11-19T12:46:52Z</time>
      </trkpt>
      <trkpt lat="48.37712" lon="2.73585">
        <ele>72.199996948242</ele>
        <time>2022-11-19T12:46:56Z</time>
      </trkpt>
      <trkpt lat="48.37714" lon="2.73582">
        <ele>72.199996948242</ele>
        <time>2022-11-19T12:47:00Z</time>
      </trkpt>
      <trkpt lat="48.37715" lon="2.73577">
        <ele>72.400001525879</ele>
        <time>2022-11-19T12:47:04Z</time>
      </trkpt>
      <trkpt lat="48.37715" lon="2.73565">
        <ele>72.400001525879</ele>
        <time>2022-11-19T12:47:08Z</time>
      </trkpt>
      <trkpt lat="48.37715" lon="2.73553">
        <ele>72.199996948242</ele>
        <time>2022-11-19T12:47:12Z</time>
      </trkpt>
      <trkpt lat="48.37714" lon="2.73543">
        <ele>72.199996948242</ele>
        <time>2022-11-19T12:47:16Z</time>
      </trkpt>
      <trkpt lat="48.37713" lon="2.73535">
        <ele>72.400001525879</ele>
        <time>2022-11-19T12:47:20Z</time>
      </trkpt>
      <trkpt lat="48.37713" lon="2.73528">
        <ele>72.400001525879</ele>
        <time>2022-11-19T12:47:24Z</time>
      </trkpt>
      <trkpt lat="48.37714" lon="2.73522">
        <ele>72.400001525879</ele>
        <time>2022-11-19T12:47:28Z</time>
      </trkpt>
      <trkpt lat="48.37714" lon="2.73517">
        <ele>72.400001525879</ele>
        <time>2022-11-19T12:47:32Z</time>
      </trkpt>
      <trkpt lat="48.37715" lon="2.7351">
        <ele>72.199996948242</ele>
        <time>2022-11-19T12:47:36Z</time>
      </trkpt>
      <trkpt lat="48.37714" lon="2.73506">
        <ele>72.199996948242</ele>
        <time>2022-11-19T12:47:40Z</time>
      </trkpt>
      <trkpt lat="48.37715" lon="2.73502">
        <ele>72.199996948242</ele>
        <time>2022-11-19T12:47:44Z</time>
      </trkpt>
      <trkpt lat="48.37718" lon="2.73495">
        <ele>72</ele>
        <time>2022-11-19T12:47:48Z</time>
      </trkpt>
      <trkpt lat="48.3772" lon="2.73487">
        <ele>72</ele>
        <time>2022-11-19T12:47:52Z</time>
      </trkpt>
      <trkpt lat="48.37723" lon="2.73481">
        <ele>72</ele>
        <time>2022-11-19T12:47:56Z</time>
      </trkpt>
      <trkpt lat="48.37725" lon="2.73472">
        <ele>72</ele>
        <time>2022-11-19T12:48:00Z</time>
      </trkpt>
      <trkpt lat="48.37725" lon="2.73463">
        <ele>71.800003051758</ele>
        <time>2022-11-19T12:48:04Z</time>
      </trkpt>
      <trkpt lat="48.37726" lon="2.73454">
        <ele>71.800003051758</ele>
        <time>2022-11-19T12:48:08Z</time>
      </trkpt>
      <trkpt lat="48.37726" lon="2.73445">
        <ele>71.800003051758</ele>
        <time>2022-11-19T12:48:12Z</time>
      </trkpt>
      <trkpt lat="48.37728" lon="2.73438">
        <ele>71.800003051758</ele>
        <time>2022-11-19T12:48:16Z</time>
      </trkpt>
      <trkpt lat="48.37728" lon="2.73434">
        <ele>71.800003051758</ele>
        <time>2022-11-19T12:48:20Z</time>
      </trkpt>
      <trkpt lat="48.37728" lon="2.73426">
        <ele>71.800003051758</ele>
        <time>2022-11-19T12:48:24Z</time>
      </trkpt>
      <trkpt lat="48.37727" lon="2.73419">
        <ele>71.800003051758</ele>
        <time>2022-11-19T12:48:28Z</time>
      </trkpt>
      <trkpt lat="48.37726" lon="2.73415">
        <ele>71.599998474121</ele>
        <time>2022-11-19T12:48:32Z</time>
      </trkpt>
      <trkpt lat="48.37726" lon="2.73408">
        <ele>71.599998474121</ele>
        <time>2022-11-19T12:48:36Z</time>
      </trkpt>
      <trkpt lat="48.37725" lon="2.73402">
        <ele>71.599998474121</ele>
        <time>2022-11-19T12:48:40Z</time>
      </trkpt>
      <trkpt lat="48.37726" lon="2.73394">
        <ele>71.599998474121</ele>
        <time>2022-11-19T12:48:44Z</time>
      </trkpt>
      <trkpt lat="48.37727" lon="2.73388">
        <ele>71.400001525879</ele>
        <time>2022-11-19T12:48:48Z</time>
      </trkpt>
      <trkpt lat="48.37731" lon="2.73379">
        <ele>71.800003051758</ele>
        <time>2022-11-19T12:48:52Z</time>
      </trkpt>
      <trkpt lat="48.37733" lon="2.73373">
        <ele>71.800003051758</ele>
        <time>2022-11-19T12:48:56Z</time>
      </trkpt>
      <trkpt lat="48.37736" lon="2.73365">
        <ele>71.800003051758</ele>
        <time>2022-11-19T12:49:00Z</time>
      </trkpt>
      <trkpt lat="48.37738" lon="2.73359">
        <ele>71.400001525879</ele>
        <time>2022-11-19T12:49:04Z</time>
      </trkpt>
      <trkpt lat="48.37742" lon="2.73355">
        <ele>71.400001525879</ele>
        <time>2022-11-19T12:49:08Z</time>
      </trkpt>
      <trkpt lat="48.37744" lon="2.73352">
        <ele>71.400001525879</ele>
        <time>2022-11-19T12:49:12Z</time>
      </trkpt>
      <trkpt lat="48.37745" lon="2.73346">
        <ele>71.400001525879</ele>
        <time>2022-11-19T12:49:16Z</time>
      </trkpt>
      <trkpt lat="48.37745" lon="2.73336">
        <ele>71.400001525879</ele>
        <time>2022-11-19T12:49:20Z</time>
      </trkpt>
      <trkpt lat="48.37744" lon="2.73328">
        <ele>71.400001525879</ele>
        <time>2022-11-19T12:49:24Z</time>
      </trkpt>
      <trkpt lat="48.37744" lon="2.73319">
        <ele>71.400001525879</ele>
        <time>2022-11-19T12:49:28Z</time>
      </trkpt>
      <trkpt lat="48.37744" lon="2.73312">
        <ele>71.400001525879</ele>
        <time>2022-11-19T12:49:32Z</time>
      </trkpt>
      <trkpt lat="48.37744" lon="2.73305">
        <ele>71.199996948242</ele>
        <time>2022-11-19T12:49:36Z</time>
      </trkpt>
      <trkpt lat="48.37743" lon="2.73295">
        <ele>71.199996948242</ele>
        <time>2022-11-19T12:49:40Z</time>
      </trkpt>
      <trkpt lat="48.37742" lon="2.73286">
        <ele>71.199996948242</ele>
        <time>2022-11-19T12:49:44Z</time>
      </trkpt>
      <trkpt lat="48.37744" lon="2.73278">
        <ele>71.199996948242</ele>
        <time>2022-11-19T12:49:48Z</time>
      </trkpt>
      <trkpt lat="48.37744" lon="2.73271">
        <ele>71.400001525879</ele>
        <time>2022-11-19T12:49:52Z</time>
      </trkpt>
      <trkpt lat="48.37745" lon="2.73263">
        <ele>71.400001525879</ele>
        <time>2022-11-19T12:49:56Z</time>
      </trkpt>
      <trkpt lat="48.37746" lon="2.73255">
        <ele>71.199996948242</ele>
        <time>2022-11-19T12:50:00Z</time>
      </trkpt>
      <trkpt lat="48.37744" lon="2.73247">
        <ele>71.199996948242</ele>
        <time>2022-11-19T12:50:04Z</time>
      </trkpt>
      <trkpt lat="48.37745" lon="2.73241">
        <ele>71.199996948242</ele>
        <time>2022-11-19T12:50:08Z</time>
      </trkpt>
      <trkpt lat="48.37745" lon="2.73234">
        <ele>71.199996948242</ele>
        <time>2022-11-19T12:50:12Z</time>
      </trkpt>
      <trkpt lat="48.37745" lon="2.73228">
        <ele>71.199996948242</ele>
        <time>2022-11-19T12:50:16Z</time>
      </trkpt>
      <trkpt lat="48.37744" lon="2.7322">
        <ele>71.400001525879</ele>
        <time>2022-11-19T12:50:20Z</time>
      </trkpt>
      <trkpt lat="48.37746" lon="2.73211">
        <ele>71.199996948242</ele>
        <time>2022-11-19T12:50:24Z</time>
      </trkpt>
      <trkpt lat="48.37747" lon="2.73204">
        <ele>71</ele>
        <time>2022-11-19T12:50:28Z</time>
      </trkpt>
      <trkpt lat="48.37749" lon="2.73195">
        <ele>71.199996948242</ele>
        <time>2022-11-19T12:50:32Z</time>
      </trkpt>
      <trkpt lat="48.37751" lon="2.73186">
        <ele>71</ele>
        <time>2022-11-19T12:50:36Z</time>
      </trkpt>
      <trkpt lat="48.37753" lon="2.73179">
        <ele>71</ele>
        <time>2022-11-19T12:50:40Z</time>
      </trkpt>
      <trkpt lat="48.37753" lon="2.73172">
        <ele>70.800003051758</ele>
        <time>2022-11-19T12:50:44Z</time>
      </trkpt>
      <trkpt lat="48.37754" lon="2.73166">
        <ele>70.800003051758</ele>
        <time>2022-11-19T12:50:48Z</time>
      </trkpt>
      <trkpt lat="48.37752" lon="2.73157">
        <ele>70.800003051758</ele>
        <time>2022-11-19T12:50:52Z</time>
      </trkpt>
      <trkpt lat="48.37752" lon="2.73148">
        <ele>71</ele>
        <time>2022-11-19T12:50:56Z</time>
      </trkpt>
      <trkpt lat="48.37751" lon="2.7314">
        <ele>71</ele>
        <time>2022-11-19T12:51:00Z</time>
      </trkpt>
      <trkpt lat="48.37752" lon="2.73131">
        <ele>70.800003051758</ele>
        <time>2022-11-19T12:51:04Z</time>
      </trkpt>
      <trkpt lat="48.37752" lon="2.73125">
        <ele>70.800003051758</ele>
        <time>2022-11-19T12:51:08Z</time>
      </trkpt>
      <trkpt lat="48.37753" lon="2.73119">
        <ele>71</ele>
        <time>2022-11-19T12:51:12Z</time>
      </trkpt>
      <trkpt lat="48.37753" lon="2.73114">
        <ele>70.800003051758</ele>
        <time>2022-11-19T12:51:16Z</time>
      </trkpt>
      <trkpt lat="48.37754" lon="2.73108">
        <ele>70.800003051758</ele>
        <time>2022-11-19T12:51:20Z</time>
      </trkpt>
      <trkpt lat="48.37755" lon="2.73102">
        <ele>71</ele>
        <time>2022-11-19T12:51:24Z</time>
      </trkpt>
      <trkpt lat="48.37758" lon="2.73098">
        <ele>71</ele>
        <time>2022-11-19T12:51:28Z</time>
      </trkpt>
      <trkpt lat="48.37758" lon="2.73091">
        <ele>70.800003051758</ele>
        <time>2022-11-19T12:51:32Z</time>
      </trkpt>
      <trkpt lat="48.37757" lon="2.73084">
        <ele>70.800003051758</ele>
        <time>2022-11-19T12:51:36Z</time>
      </trkpt>
      <trkpt lat="48.37757" lon="2.73075">
        <ele>70.800003051758</ele>
        <time>2022-11-19T12:51:40Z</time>
      </trkpt>
      <trkpt lat="48.37757" lon="2.73068">
        <ele>70.800003051758</ele>
        <time>2022-11-19T12:51:44Z</time>
      </trkpt>
      <trkpt lat="48.37756" lon="2.7306">
        <ele>70.599998474121</ele>
        <time>2022-11-19T12:51:48Z</time>
      </trkpt>
      <trkpt lat="48.37757" lon="2.73053">
        <ele>70.599998474121</ele>
        <time>2022-11-19T12:51:52Z</time>
      </trkpt>
      <trkpt lat="48.37758" lon="2.73047">
        <ele>70.599998474121</ele>
        <time>2022-11-19T12:51:56Z</time>
      </trkpt>
      <trkpt lat="48.37757" lon="2.73041">
        <ele>70.599998474121</ele>
        <time>2022-11-19T12:52:00Z</time>
      </trkpt>
      <trkpt lat="48.3776" lon="2.73035">
        <ele>70.599998474121</ele>
        <time>2022-11-19T12:52:04Z</time>
      </trkpt>
      <trkpt lat="48.37762" lon="2.73028">
        <ele>70.599998474121</ele>
        <time>2022-11-19T12:52:08Z</time>
      </trkpt>
      <trkpt lat="48.37765" lon="2.73021">
        <ele>70.400001525879</ele>
        <time>2022-11-19T12:52:12Z</time>
      </trkpt>
      <trkpt lat="48.3777" lon="2.73013">
        <ele>70.400001525879</ele>
        <time>2022-11-19T12:52:16Z</time>
      </trkpt>
      <trkpt lat="48.37773" lon="2.73005">
        <ele>70.199996948242</ele>
        <time>2022-11-19T12:52:20Z</time>
      </trkpt>
      <trkpt lat="48.37775" lon="2.72997">
        <ele>70</ele>
        <time>2022-11-19T12:52:24Z</time>
      </trkpt>
      <trkpt lat="48.37777" lon="2.72991">
        <ele>70</ele>
        <time>2022-11-19T12:52:28Z</time>
      </trkpt>
      <trkpt lat="48.37778" lon="2.72985">
        <ele>69.800003051758</ele>
        <time>2022-11-19T12:52:32Z</time>
      </trkpt>
      <trkpt lat="48.37779" lon="2.72977">
        <ele>69.800003051758</ele>
        <time>2022-11-19T12:52:36Z</time>
      </trkpt>
      <trkpt lat="48.37781" lon="2.72969">
        <ele>69.800003051758</ele>
        <time>2022-11-19T12:52:40Z</time>
      </trkpt>
      <trkpt lat="48.37783" lon="2.7296">
        <ele>69.800003051758</ele>
        <time>2022-11-19T12:52:44Z</time>
      </trkpt>
      <trkpt lat="48.37783" lon="2.72951">
        <ele>69.599998474121</ele>
        <time>2022-11-19T12:52:48Z</time>
      </trkpt>
      <trkpt lat="48.37783" lon="2.72944">
        <ele>69.599998474121</ele>
        <time>2022-11-19T12:52:52Z</time>
      </trkpt>
      <trkpt lat="48.37783" lon="2.7294">
        <ele>69.599998474121</ele>
        <time>2022-11-19T12:52:56Z</time>
      </trkpt>
      <trkpt lat="48.3778" lon="2.72935">
        <ele>70</ele>
        <time>2022-11-19T12:53:00Z</time>
      </trkpt>
      <trkpt lat="48.37779" lon="2.72936">
        <ele>70.199996948242</ele>
        <time>2022-11-19T12:53:04Z</time>
      </trkpt>
      <trkpt lat="48.37782" lon="2.72935">
        <ele>69.800003051758</ele>
        <time>2022-11-19T12:53:08Z</time>
      </trkpt>
      <trkpt lat="48.37783" lon="2.72932">
        <ele>69.599998474121</ele>
        <time>2022-11-19T12:53:12Z</time>
      </trkpt>
      <trkpt lat="48.37784" lon="2.72925">
        <ele>69.800003051758</ele>
        <time>2022-11-19T12:53:16Z</time>
      </trkpt>
      <trkpt lat="48.37784" lon="2.72918">
        <ele>69.800003051758</ele>
        <time>2022-11-19T12:53:20Z</time>
      </trkpt>
      <trkpt lat="48.37785" lon="2.72916">
        <ele>69.599998474121</ele>
        <time>2022-11-19T12:53:24Z</time>
      </trkpt>
      <trkpt lat="48.37784" lon="2.72909">
        <ele>69.400001525879</ele>
        <time>2022-11-19T12:53:28Z</time>
      </trkpt>
      <trkpt lat="48.37784" lon="2.729">
        <ele>69.599998474121</ele>
        <time>2022-11-19T12:53:32Z</time>
      </trkpt>
      <trkpt lat="48.37783" lon="2.7289">
        <ele>69.599998474121</ele>
        <time>2022-11-19T12:53:36Z</time>
      </trkpt>
      <trkpt lat="48.37784" lon="2.72884">
        <ele>69.599998474121</ele>
        <time>2022-11-19T12:53:40Z</time>
      </trkpt>
      <trkpt lat="48.37787" lon="2.72879">
        <ele>69.599998474121</ele>
        <time>2022-11-19T12:53:44Z</time>
      </trkpt>
      <trkpt lat="48.37789" lon="2.72876">
        <ele>69.800003051758</ele>
        <time>2022-11-19T12:53:48Z</time>
      </trkpt>
      <trkpt lat="48.37791" lon="2.72875">
        <ele>69.800003051758</ele>
        <time>2022-11-19T12:53:52Z</time>
      </trkpt>
      <trkpt lat="48.37794" lon="2.72874">
        <ele>69.800003051758</ele>
        <time>2022-11-19T12:53:56Z</time>
      </trkpt>
      <trkpt lat="48.37798" lon="2.72871">
        <ele>69.800003051758</ele>
        <time>2022-11-19T12:54:00Z</time>
      </trkpt>
      <trkpt lat="48.37803" lon="2.72871">
        <ele>69.800003051758</ele>
        <time>2022-11-19T12:54:04Z</time>
      </trkpt>
      <trkpt lat="48.37808" lon="2.72871">
        <ele>69.800003051758</ele>
        <time>2022-11-19T12:54:08Z</time>
      </trkpt>
      <trkpt lat="48.37811" lon="2.72869">
        <ele>69.800003051758</ele>
        <time>2022-11-19T12:54:12Z</time>
      </trkpt>
      <trkpt lat="48.37812" lon="2.72867">
        <ele>69.800003051758</ele>
        <time>2022-11-19T12:54:16Z</time>
      </trkpt>
      <trkpt lat="48.37815" lon="2.72864">
        <ele>69.800003051758</ele>
        <time>2022-11-19T12:54:20Z</time>
      </trkpt>
      <trkpt lat="48.37818" lon="2.72859">
        <ele>69.800003051758</ele>
        <time>2022-11-19T12:54:24Z</time>
      </trkpt>
      <trkpt lat="48.37822" lon="2.72859">
        <ele>69.800003051758</ele>
        <time>2022-11-19T12:54:28Z</time>
      </trkpt>
      <trkpt lat="48.37824" lon="2.72859">
        <ele>69.800003051758</ele>
        <time>2022-11-19T12:54:32Z</time>
      </trkpt>
      <trkpt lat="48.37829" lon="2.72856">
        <ele>70</ele>
        <time>2022-11-19T12:54:36Z</time>
      </trkpt>
      <trkpt lat="48.37836" lon="2.72853">
        <ele>69.800003051758</ele>
        <time>2022-11-19T12:54:40Z</time>
      </trkpt>
      <trkpt lat="48.37842" lon="2.72849">
        <ele>69.800003051758</ele>
        <time>2022-11-19T12:54:44Z</time>
      </trkpt>
      <trkpt lat="48.37846" lon="2.72845">
        <ele>69.800003051758</ele>
        <time>2022-11-19T12:54:48Z</time>
      </trkpt>
      <trkpt lat="48.3785" lon="2.72841">
        <ele>69.800003051758</ele>
        <time>2022-11-19T12:54:52Z</time>
      </trkpt>
      <trkpt lat="48.37856" lon="2.72838">
        <ele>69.800003051758</ele>
        <time>2022-11-19T12:54:56Z</time>
      </trkpt>
      <trkpt lat="48.37861" lon="2.72837">
        <ele>70.199996948242</ele>
        <time>2022-11-19T12:55:00Z</time>
      </trkpt>
      <trkpt lat="48.37866" lon="2.72835">
        <ele>70.199996948242</ele>
        <time>2022-11-19T12:55:04Z</time>
      </trkpt>
      <trkpt lat="48.37873" lon="2.72832">
        <ele>70.199996948242</ele>
        <time>2022-11-19T12:55:08Z</time>
      </trkpt>
      <trkpt lat="48.37879" lon="2.72829">
        <ele>70.199996948242</ele>
        <time>2022-11-19T12:55:12Z</time>
      </trkpt>
      <trkpt lat="48.37882" lon="2.72828">
        <ele>70.400001525879</ele>
        <time>2022-11-19T12:55:16Z</time>
      </trkpt>
      <trkpt lat="48.37885" lon="2.72825">
        <ele>70.400001525879</ele>
        <time>2022-11-19T12:55:20Z</time>
      </trkpt>
      <trkpt lat="48.37889" lon="2.72825">
        <ele>70.400001525879</ele>
        <time>2022-11-19T12:55:24Z</time>
      </trkpt>
      <trkpt lat="48.37891" lon="2.72825">
        <ele>70.400001525879</ele>
        <time>2022-11-19T12:55:28Z</time>
      </trkpt>
      <trkpt lat="48.37896" lon="2.72826">
        <ele>70.599998474121</ele>
        <time>2022-11-19T12:55:32Z</time>
      </trkpt>
      <trkpt lat="48.37901" lon="2.72823">
        <ele>70.400001525879</ele>
        <time>2022-11-19T12:55:36Z</time>
      </trkpt>
      <trkpt lat="48.37905" lon="2.72819">
        <ele>70.400001525879</ele>
        <time>2022-11-19T12:55:40Z</time>
      </trkpt>
      <trkpt lat="48.37911" lon="2.72815">
        <ele>70.400001525879</ele>
        <time>2022-11-19T12:55:44Z</time>
      </trkpt>
      <trkpt lat="48.37915" lon="2.72813">
        <ele>70.599998474121</ele>
        <time>2022-11-19T12:55:48Z</time>
      </trkpt>
      <trkpt lat="48.37919" lon="2.72811">
        <ele>70.599998474121</ele>
        <time>2022-11-19T12:55:52Z</time>
      </trkpt>
      <trkpt lat="48.37924" lon="2.7281">
        <ele>70.800003051758</ele>
        <time>2022-11-19T12:55:56Z</time>
      </trkpt>
      <trkpt lat="48.37926" lon="2.7281">
        <ele>71</ele>
        <time>2022-11-19T12:56:00Z</time>
      </trkpt>
      <trkpt lat="48.37929" lon="2.7281">
        <ele>70.800003051758</ele>
        <time>2022-11-19T12:56:04Z</time>
      </trkpt>
      <trkpt lat="48.37936" lon="2.7281">
        <ele>70.800003051758</ele>
        <time>2022-11-19T12:56:08Z</time>
      </trkpt>
      <trkpt lat="48.37944" lon="2.72806">
        <ele>71</ele>
        <time>2022-11-19T12:56:12Z</time>
      </trkpt>
      <trkpt lat="48.3795" lon="2.72801">
        <ele>71</ele>
        <time>2022-11-19T12:56:16Z</time>
      </trkpt>
      <trkpt lat="48.37957" lon="2.72798">
        <ele>71</ele>
        <time>2022-11-19T12:56:20Z</time>
      </trkpt>
      <trkpt lat="48.37963" lon="2.72796">
        <ele>71</ele>
        <time>2022-11-19T12:56:24Z</time>
      </trkpt>
      <trkpt lat="48.37967" lon="2.72795">
        <ele>71</ele>
        <time>2022-11-19T12:56:28Z</time>
      </trkpt>
      <trkpt lat="48.37972" lon="2.72793">
        <ele>71</ele>
        <time>2022-11-19T12:56:32Z</time>
      </trkpt>
      <trkpt lat="48.37976" lon="2.7279">
        <ele>71</ele>
        <time>2022-11-19T12:56:36Z</time>
      </trkpt>
      <trkpt lat="48.37979" lon="2.7279">
        <ele>70.800003051758</ele>
        <time>2022-11-19T12:56:40Z</time>
      </trkpt>
      <trkpt lat="48.37983" lon="2.72791">
        <ele>71</ele>
        <time>2022-11-19T12:56:44Z</time>
      </trkpt>
      <trkpt lat="48.37987" lon="2.72787">
        <ele>71.199996948242</ele>
        <time>2022-11-19T12:56:48Z</time>
      </trkpt>
      <trkpt lat="48.37995" lon="2.72781">
        <ele>71.199996948242</ele>
        <time>2022-11-19T12:56:52Z</time>
      </trkpt>
      <trkpt lat="48.37999" lon="2.72775">
        <ele>71.400001525879</ele>
        <time>2022-11-19T12:56:56Z</time>
      </trkpt>
      <trkpt lat="48.38002" lon="2.72771">
        <ele>71.400001525879</ele>
        <time>2022-11-19T12:57:00Z</time>
      </trkpt>
      <trkpt lat="48.38004" lon="2.72769">
        <ele>71.400001525879</ele>
        <time>2022-11-19T12:57:04Z</time>
      </trkpt>
      <trkpt lat="48.38005" lon="2.72763">
        <ele>71.400001525879</ele>
        <time>2022-11-19T12:57:08Z</time>
      </trkpt>
      <trkpt lat="48.38006" lon="2.72756">
        <ele>71.400001525879</ele>
        <time>2022-11-19T12:57:12Z</time>
      </trkpt>
      <trkpt lat="48.38008" lon="2.72749">
        <ele>71.599998474121</ele>
        <time>2022-11-19T12:57:16Z</time>
      </trkpt>
      <trkpt lat="48.38008" lon="2.7274">
        <ele>71.800003051758</ele>
        <time>2022-11-19T12:57:20Z</time>
      </trkpt>
      <trkpt lat="48.3801" lon="2.72732">
        <ele>72</ele>
        <time>2022-11-19T12:57:24Z</time>
      </trkpt>
      <trkpt lat="48.3801" lon="2.72725">
        <ele>72</ele>
        <time>2022-11-19T12:57:28Z</time>
      </trkpt>
      <trkpt lat="48.3801" lon="2.72717">
        <ele>72</ele>
        <time>2022-11-19T12:57:32Z</time>
      </trkpt>
      <trkpt lat="48.38011" lon="2.7271">
        <ele>72.199996948242</ele>
        <time>2022-11-19T12:57:36Z</time>
      </trkpt>
      <trkpt lat="48.38013" lon="2.72704">
        <ele>72.199996948242</ele>
        <time>2022-11-19T12:57:40Z</time>
      </trkpt>
      <trkpt lat="48.38012" lon="2.72698">
        <ele>72.199996948242</ele>
        <time>2022-11-19T12:57:44Z</time>
      </trkpt>
      <trkpt lat="48.38011" lon="2.72694">
        <ele>72.199996948242</ele>
        <time>2022-11-19T12:57:48Z</time>
      </trkpt>
      <trkpt lat="48.38011" lon="2.72687">
        <ele>72.199996948242</ele>
        <time>2022-11-19T12:57:52Z</time>
      </trkpt>
      <trkpt lat="48.38011" lon="2.72681">
        <ele>72.199996948242</ele>
        <time>2022-11-19T12:57:56Z</time>
      </trkpt>
      <trkpt lat="48.3801" lon="2.72675">
        <ele>72.400001525879</ele>
        <time>2022-11-19T12:58:00Z</time>
      </trkpt>
      <trkpt lat="48.38011" lon="2.72667">
        <ele>72.400001525879</ele>
        <time>2022-11-19T12:58:04Z</time>
      </trkpt>
      <trkpt lat="48.38011" lon="2.72662">
        <ele>72.599998474121</ele>
        <time>2022-11-19T12:58:08Z</time>
      </trkpt>
      <trkpt lat="48.38013" lon="2.7266">
        <ele>72.599998474121</ele>
        <time>2022-11-19T12:58:12Z</time>
      </trkpt>
      <trkpt lat="48.38013" lon="2.72659">
        <ele>72.599998474121</ele>
        <time>2022-11-19T12:58:16Z</time>
      </trkpt>
      <trkpt lat="48.38014" lon="2.72654">
        <ele>72.599998474121</ele>
        <time>2022-11-19T12:58:20Z</time>
      </trkpt>
      <trkpt lat="48.38017" lon="2.72645">
        <ele>72.800003051758</ele>
        <time>2022-11-19T12:58:24Z</time>
      </trkpt>
      <trkpt lat="48.38021" lon="2.72638">
        <ele>72.800003051758</ele>
        <time>2022-11-19T12:58:28Z</time>
      </trkpt>
      <trkpt lat="48.38021" lon="2.72632">
        <ele>72.800003051758</ele>
        <time>2022-11-19T12:58:32Z</time>
      </trkpt>
      <trkpt lat="48.38021" lon="2.72626">
        <ele>72.800003051758</ele>
        <time>2022-11-19T12:58:36Z</time>
      </trkpt>
      <trkpt lat="48.38022" lon="2.72614">
        <ele>73</ele>
        <time>2022-11-19T12:58:40Z</time>
      </trkpt>
      <trkpt lat="48.38021" lon="2.72599">
        <ele>73</ele>
        <time>2022-11-19T12:58:44Z</time>
      </trkpt>
      <trkpt lat="48.38022" lon="2.72592">
        <ele>73</ele>
        <time>2022-11-19T12:58:48Z</time>
      </trkpt>
      <trkpt lat="48.38023" lon="2.72586">
        <ele>73</ele>
        <time>2022-11-19T12:58:52Z</time>
      </trkpt>
      <trkpt lat="48.38024" lon="2.7258">
        <ele>73.199996948242</ele>
        <time>2022-11-19T12:58:56Z</time>
      </trkpt>
      <trkpt lat="48.38025" lon="2.72574">
        <ele>73.199996948242</ele>
        <time>2022-11-19T12:59:00Z</time>
      </trkpt>
      <trkpt lat="48.38025" lon="2.72568">
        <ele>73.199996948242</ele>
        <time>2022-11-19T12:59:04Z</time>
      </trkpt>
      <trkpt lat="48.38026" lon="2.72561">
        <ele>73.199996948242</ele>
        <time>2022-11-19T12:59:08Z</time>
      </trkpt>
      <trkpt lat="48.38027" lon="2.72554">
        <ele>73.199996948242</ele>
        <time>2022-11-19T12:59:12Z</time>
      </trkpt>
      <trkpt lat="48.38028" lon="2.72547">
        <ele>73.400001525879</ele>
        <time>2022-11-19T12:59:16Z</time>
      </trkpt>
      <trkpt lat="48.3803" lon="2.7254">
        <ele>73.599998474121</ele>
        <time>2022-11-19T12:59:20Z</time>
      </trkpt>
      <trkpt lat="48.38032" lon="2.72534">
        <ele>73.599998474121</ele>
        <time>2022-11-19T12:59:24Z</time>
      </trkpt>
      <trkpt lat="48.38033" lon="2.72528">
        <ele>73.599998474121</ele>
        <time>2022-11-19T12:59:28Z</time>
      </trkpt>
      <trkpt lat="48.38033" lon="2.72523">
        <ele>73.800003051758</ele>
        <time>2022-11-19T12:59:32Z</time>
      </trkpt>
      <trkpt lat="48.38033" lon="2.72515">
        <ele>73.599998474121</ele>
        <time>2022-11-19T12:59:36Z</time>
      </trkpt>
      <trkpt lat="48.38034" lon="2.72509">
        <ele>73.800003051758</ele>
        <time>2022-11-19T12:59:40Z</time>
      </trkpt>
      <trkpt lat="48.38034" lon="2.72502">
        <ele>73.800003051758</ele>
        <time>2022-11-19T12:59:44Z</time>
      </trkpt>
      <trkpt lat="48.38035" lon="2.72496">
        <ele>73.800003051758</ele>
        <time>2022-11-19T12:59:48Z</time>
      </trkpt>
      <trkpt lat="48.38035" lon="2.72489">
        <ele>73.800003051758</ele>
        <time>2022-11-19T12:59:52Z</time>
      </trkpt>
      <trkpt lat="48.38035" lon="2.72483">
        <ele>74</ele>
        <time>2022-11-19T12:59:56Z</time>
      </trkpt>
      <trkpt lat="48.38036" lon="2.72476">
        <ele>74.199996948242</ele>
        <time>2022-11-19T13:00:00Z</time>
      </trkpt>
      <trkpt lat="48.38037" lon="2.72468">
        <ele>74.199996948242</ele>
        <time>2022-11-19T13:00:04Z</time>
      </trkpt>
      <trkpt lat="48.38039" lon="2.72461">
        <ele>74.199996948242</ele>
        <time>2022-11-19T13:00:08Z</time>
      </trkpt>
      <trkpt lat="48.38039" lon="2.72454">
        <ele>74.400001525879</ele>
        <time>2022-11-19T13:00:12Z</time>
      </trkpt>
      <trkpt lat="48.38039" lon="2.72447">
        <ele>74.400001525879</ele>
        <time>2022-11-19T13:00:16Z</time>
      </trkpt>
      <trkpt lat="48.3804" lon="2.7244">
        <ele>74.400001525879</ele>
        <time>2022-11-19T13:00:20Z</time>
      </trkpt>
      <trkpt lat="48.38041" lon="2.72435">
        <ele>74.599998474121</ele>
        <time>2022-11-19T13:00:24Z</time>
      </trkpt>
      <trkpt lat="48.38042" lon="2.72429">
        <ele>74.599998474121</ele>
        <time>2022-11-19T13:00:28Z</time>
      </trkpt>
      <trkpt lat="48.38044" lon="2.72424">
        <ele>74.599998474121</ele>
        <time>2022-11-19T13:00:32Z</time>
      </trkpt>
      <trkpt lat="48.38044" lon="2.72419">
        <ele>74.800003051758</ele>
        <time>2022-11-19T13:00:36Z</time>
      </trkpt>
      <trkpt lat="48.38044" lon="2.72412">
        <ele>75</ele>
        <time>2022-11-19T13:00:40Z</time>
      </trkpt>
      <trkpt lat="48.38044" lon="2.72405">
        <ele>75</ele>
        <time>2022-11-19T13:00:44Z</time>
      </trkpt>
      <trkpt lat="48.38044" lon="2.72398">
        <ele>75</ele>
        <time>2022-11-19T13:00:48Z</time>
      </trkpt>
      <trkpt lat="48.38045" lon="2.72392">
        <ele>75.199996948242</ele>
        <time>2022-11-19T13:00:52Z</time>
      </trkpt>
      <trkpt lat="48.38046" lon="2.72385">
        <ele>75.199996948242</ele>
        <time>2022-11-19T13:00:56Z</time>
      </trkpt>
      <trkpt lat="48.38048" lon="2.72377">
        <ele>75.400001525879</ele>
        <time>2022-11-19T13:01:00Z</time>
      </trkpt>
      <trkpt lat="48.38048" lon="2.72371">
        <ele>75.400001525879</ele>
        <time>2022-11-19T13:01:04Z</time>
      </trkpt>
      <trkpt lat="48.3805" lon="2.72363">
        <ele>75.400001525879</ele>
        <time>2022-11-19T13:01:08Z</time>
      </trkpt>
      <trkpt lat="48.38051" lon="2.72357">
        <ele>75.400001525879</ele>
        <time>2022-11-19T13:01:12Z</time>
      </trkpt>
      <trkpt lat="48.38052" lon="2.72351">
        <ele>75.599998474121</ele>
        <time>2022-11-19T13:01:16Z</time>
      </trkpt>
      <trkpt lat="48.38053" lon="2.72345">
        <ele>75.599998474121</ele>
        <time>2022-11-19T13:01:20Z</time>
      </trkpt>
      <trkpt lat="48.38055" lon="2.7234">
        <ele>75.599998474121</ele>
        <time>2022-11-19T13:01:24Z</time>
      </trkpt>
      <trkpt lat="48.38056" lon="2.72334">
        <ele>75.599998474121</ele>
        <time>2022-11-19T13:01:28Z</time>
      </trkpt>
      <trkpt lat="48.38057" lon="2.72329">
        <ele>75.800003051758</ele>
        <time>2022-11-19T13:01:32Z</time>
      </trkpt>
      <trkpt lat="48.38057" lon="2.72325">
        <ele>76</ele>
        <time>2022-11-19T13:01:36Z</time>
      </trkpt>
      <trkpt lat="48.38058" lon="2.72319">
        <ele>76.199996948242</ele>
        <time>2022-11-19T13:01:40Z</time>
      </trkpt>
      <trkpt lat="48.38059" lon="2.72312">
        <ele>76.199996948242</ele>
        <time>2022-11-19T13:01:44Z</time>
      </trkpt>
      <trkpt lat="48.38059" lon="2.72304">
        <ele>76.199996948242</ele>
        <time>2022-11-19T13:01:48Z</time>
      </trkpt>
      <trkpt lat="48.3806" lon="2.72298">
        <ele>76.400001525879</ele>
        <time>2022-11-19T13:01:52Z</time>
      </trkpt>
      <trkpt lat="48.38059" lon="2.72292">
        <ele>76.599998474121</ele>
        <time>2022-11-19T13:01:56Z</time>
      </trkpt>
      <trkpt lat="48.38059" lon="2.72289">
        <ele>76.800003051758</ele>
        <time>2022-11-19T13:02:00Z</time>
      </trkpt>
      <trkpt lat="48.38058" lon="2.72288">
        <ele>77</ele>
        <time>2022-11-19T13:02:04Z</time>
      </trkpt>
      <trkpt lat="48.38057" lon="2.72287">
        <ele>77</ele>
        <time>2022-11-19T13:02:08Z</time>
      </trkpt>
      <trkpt lat="48.38057" lon="2.72286">
        <ele>77</ele>
        <time>2022-11-19T13:02:12Z</time>
      </trkpt>
      <trkpt lat="48.38057" lon="2.72284">
        <ele>77</ele>
        <time>2022-11-19T13:02:16Z</time>
      </trkpt>
      <trkpt lat="48.38056" lon="2.72272">
        <ele>77</ele>
        <time>2022-11-19T13:02:20Z</time>
      </trkpt>
      <trkpt lat="48.38055" lon="2.72263">
        <ele>77.199996948242</ele>
        <time>2022-11-19T13:02:24Z</time>
      </trkpt>
      <trkpt lat="48.38056" lon="2.72256">
        <ele>77.199996948242</ele>
        <time>2022-11-19T13:02:28Z</time>
      </trkpt>
      <trkpt lat="48.38057" lon="2.7225">
        <ele>77</ele>
        <time>2022-11-19T13:02:32Z</time>
      </trkpt>
      <trkpt lat="48.38057" lon="2.72245">
        <ele>77</ele>
        <time>2022-11-19T13:02:36Z</time>
      </trkpt>
      <trkpt lat="48.38056" lon="2.72242">
        <ele>76.800003051758</ele>
        <time>2022-11-19T13:02:40Z</time>
      </trkpt>
      <trkpt lat="48.38054" lon="2.72241">
        <ele>76.599998474121</ele>
        <time>2022-11-19T13:02:44Z</time>
      </trkpt>
      <trkpt lat="48.38052" lon="2.72239">
        <ele>76.400001525879</ele>
        <time>2022-11-19T13:02:48Z</time>
      </trkpt>
      <trkpt lat="48.38051" lon="2.72234">
        <ele>76.400001525879</ele>
        <time>2022-11-19T13:02:52Z</time>
      </trkpt>
      <trkpt lat="48.38049" lon="2.72231">
        <ele>76.199996948242</ele>
        <time>2022-11-19T13:02:56Z</time>
      </trkpt>
      <trkpt lat="48.38048" lon="2.72228">
        <ele>76.400001525879</ele>
        <time>2022-11-19T13:03:00Z</time>
      </trkpt>
      <trkpt lat="48.38048" lon="2.72224">
        <ele>76.400001525879</ele>
        <time>2022-11-19T13:03:04Z</time>
      </trkpt>
      <trkpt lat="48.38047" lon="2.7222">
        <ele>76.400001525879</ele>
        <time>2022-11-19T13:03:08Z</time>
      </trkpt>
      <trkpt lat="48.38045" lon="2.72216">
        <ele>76.400001525879</ele>
        <time>2022-11-19T13:03:12Z</time>
      </trkpt>
      <trkpt lat="48.38044" lon="2.72213">
        <ele>76.599998474121</ele>
        <time>2022-11-19T13:03:16Z</time>
      </trkpt>
      <trkpt lat="48.38043" lon="2.72212">
        <ele>76.800003051758</ele>
        <time>2022-11-19T13:03:20Z</time>
      </trkpt>
      <trkpt lat="48.38043" lon="2.72209">
        <ele>76.800003051758</ele>
        <time>2022-11-19T13:03:24Z</time>
      </trkpt>
      <trkpt lat="48.38042" lon="2.72204">
        <ele>76.800003051758</ele>
        <time>2022-11-19T13:03:28Z</time>
      </trkpt>
      <trkpt lat="48.38042" lon="2.72198">
        <ele>76.800003051758</ele>
        <time>2022-11-19T13:03:32Z</time>
      </trkpt>
      <trkpt lat="48.38042" lon="2.72191">
        <ele>76.800003051758</ele>
        <time>2022-11-19T13:03:36Z</time>
      </trkpt>
      <trkpt lat="48.38042" lon="2.72184">
        <ele>76.800003051758</ele>
        <time>2022-11-19T13:03:40Z</time>
      </trkpt>
      <trkpt lat="48.38041" lon="2.72177">
        <ele>76.800003051758</ele>
        <time>2022-11-19T13:03:44Z</time>
      </trkpt>
      <trkpt lat="48.38039" lon="2.72169">
        <ele>76.800003051758</ele>
        <time>2022-11-19T13:03:48Z</time>
      </trkpt>
      <trkpt lat="48.38038" lon="2.72162">
        <ele>76.800003051758</ele>
        <time>2022-11-19T13:03:52Z</time>
      </trkpt>
      <trkpt lat="48.38036" lon="2.72155">
        <ele>76.800003051758</ele>
        <time>2022-11-19T13:03:56Z</time>
      </trkpt>
      <trkpt lat="48.38035" lon="2.72149">
        <ele>76.800003051758</ele>
        <time>2022-11-19T13:04:00Z</time>
      </trkpt>
      <trkpt lat="48.38035" lon="2.72145">
        <ele>76.800003051758</ele>
        <time>2022-11-19T13:04:04Z</time>
      </trkpt>
      <trkpt lat="48.38034" lon="2.72139">
        <ele>77.199996948242</ele>
        <time>2022-11-19T13:04:08Z</time>
      </trkpt>
      <trkpt lat="48.38032" lon="2.72132">
        <ele>77.400001525879</ele>
        <time>2022-11-19T13:04:12Z</time>
      </trkpt>
      <trkpt lat="48.38031" lon="2.72125">
        <ele>77.599998474121</ele>
        <time>2022-11-19T13:04:16Z</time>
      </trkpt>
      <trkpt lat="48.3803" lon="2.72118">
        <ele>77.599998474121</ele>
        <time>2022-11-19T13:04:20Z</time>
      </trkpt>
      <trkpt lat="48.38028" lon="2.72111">
        <ele>77.800003051758</ele>
        <time>2022-11-19T13:04:24Z</time>
      </trkpt>
      <trkpt lat="48.38028" lon="2.72105">
        <ele>77.800003051758</ele>
        <time>2022-11-19T13:04:28Z</time>
      </trkpt>
      <trkpt lat="48.38027" lon="2.721">
        <ele>77.800003051758</ele>
        <time>2022-11-19T13:04:32Z</time>
      </trkpt>
      <trkpt lat="48.38025" lon="2.72093">
        <ele>78</ele>
        <time>2022-11-19T13:04:36Z</time>
      </trkpt>
      <trkpt lat="48.38024" lon="2.72083">
        <ele>78.199996948242</ele>
        <time>2022-11-19T13:04:40Z</time>
      </trkpt>
      <trkpt lat="48.38022" lon="2.72074">
        <ele>78.199996948242</ele>
        <time>2022-11-19T13:04:44Z</time>
      </trkpt>
      <trkpt lat="48.3802" lon="2.72067">
        <ele>78.400001525879</ele>
        <time>2022-11-19T13:04:48Z</time>
      </trkpt>
      <trkpt lat="48.3802" lon="2.72061">
        <ele>78.400001525879</ele>
        <time>2022-11-19T13:04:52Z</time>
      </trkpt>
      <trkpt lat="48.38018" lon="2.72056">
        <ele>78.800003051758</ele>
        <time>2022-11-19T13:04:56Z</time>
      </trkpt>
      <trkpt lat="48.38018" lon="2.72052">
        <ele>78.800003051758</ele>
        <time>2022-11-19T13:05:00Z</time>
      </trkpt>
      <trkpt lat="48.38018" lon="2.72047">
        <ele>79</ele>
        <time>2022-11-19T13:05:04Z</time>
      </trkpt>
      <trkpt lat="48.38017" lon="2.72042">
        <ele>79.199996948242</ele>
        <time>2022-11-19T13:05:08Z</time>
      </trkpt>
      <trkpt lat="48.38016" lon="2.72036">
        <ele>79.199996948242</ele>
        <time>2022-11-19T13:05:12Z</time>
      </trkpt>
      <trkpt lat="48.38016" lon="2.7203">
        <ele>79.400001525879</ele>
        <time>2022-11-19T13:05:16Z</time>
      </trkpt>
      <trkpt lat="48.38016" lon="2.72026">
        <ele>79.599998474121</ele>
        <time>2022-11-19T13:05:20Z</time>
      </trkpt>
      <trkpt lat="48.38015" lon="2.72019">
        <ele>79.599998474121</ele>
        <time>2022-11-19T13:05:24Z</time>
      </trkpt>
      <trkpt lat="48.38014" lon="2.72014">
        <ele>79.800003051758</ele>
        <time>2022-11-19T13:05:28Z</time>
      </trkpt>
      <trkpt lat="48.38014" lon="2.72009">
        <ele>79.800003051758</ele>
        <time>2022-11-19T13:05:32Z</time>
      </trkpt>
      <trkpt lat="48.38012" lon="2.72002">
        <ele>80</ele>
        <time>2022-11-19T13:05:36Z</time>
      </trkpt>
      <trkpt lat="48.38011" lon="2.71996">
        <ele>80.199996948242</ele>
        <time>2022-11-19T13:05:40Z</time>
      </trkpt>
      <trkpt lat="48.3801" lon="2.71991">
        <ele>80.400001525879</ele>
        <time>2022-11-19T13:05:44Z</time>
      </trkpt>
      <trkpt lat="48.3801" lon="2.71987">
        <ele>80.400001525879</ele>
        <time>2022-11-19T13:05:48Z</time>
      </trkpt>
      <trkpt lat="48.38009" lon="2.71982">
        <ele>80.599998474121</ele>
        <time>2022-11-19T13:05:52Z</time>
      </trkpt>
      <trkpt lat="48.38009" lon="2.71977">
        <ele>80.800003051758</ele>
        <time>2022-11-19T13:05:56Z</time>
      </trkpt>
      <trkpt lat="48.38008" lon="2.7197">
        <ele>80.800003051758</ele>
        <time>2022-11-19T13:06:00Z</time>
      </trkpt>
      <trkpt lat="48.38007" lon="2.71965">
        <ele>81</ele>
        <time>2022-11-19T13:06:04Z</time>
      </trkpt>
      <trkpt lat="48.38006" lon="2.7196">
        <ele>81.400001525879</ele>
        <time>2022-11-19T13:06:08Z</time>
      </trkpt>
      <trkpt lat="48.38006" lon="2.71952">
        <ele>81.800003051758</ele>
        <time>2022-11-19T13:06:12Z</time>
      </trkpt>
      <trkpt lat="48.38004" lon="2.71946">
        <ele>81.800003051758</ele>
        <time>2022-11-19T13:06:16Z</time>
      </trkpt>
      <trkpt lat="48.38002" lon="2.7194">
        <ele>82</ele>
        <time>2022-11-19T13:06:20Z</time>
      </trkpt>
      <trkpt lat="48.38001" lon="2.71934">
        <ele>82</ele>
        <time>2022-11-19T13:06:24Z</time>
      </trkpt>
      <trkpt lat="48.38" lon="2.71928">
        <ele>82.199996948242</ele>
        <time>2022-11-19T13:06:28Z</time>
      </trkpt>
      <trkpt lat="48.37998" lon="2.71922">
        <ele>82.599998474121</ele>
        <time>2022-11-19T13:06:32Z</time>
      </trkpt>
      <trkpt lat="48.37998" lon="2.71917">
        <ele>82.800003051758</ele>
        <time>2022-11-19T13:06:36Z</time>
      </trkpt>
      <trkpt lat="48.37998" lon="2.71915">
        <ele>82.800003051758</ele>
        <time>2022-11-19T13:06:40Z</time>
      </trkpt>
      <trkpt lat="48.37997" lon="2.71908">
        <ele>83</ele>
        <time>2022-11-19T13:06:44Z</time>
      </trkpt>
      <trkpt lat="48.37996" lon="2.71904">
        <ele>83</ele>
        <time>2022-11-19T13:06:48Z</time>
      </trkpt>
      <trkpt lat="48.37995" lon="2.71901">
        <ele>83.199996948242</ele>
        <time>2022-11-19T13:06:52Z</time>
      </trkpt>
      <trkpt lat="48.37993" lon="2.71892">
        <ele>83.400001525879</ele>
        <time>2022-11-19T13:06:56Z</time>
      </trkpt>
      <trkpt lat="48.37992" lon="2.71885">
        <ele>83.599998474121</ele>
        <time>2022-11-19T13:07:00Z</time>
      </trkpt>
      <trkpt lat="48.37991" lon="2.71878">
        <ele>83.599998474121</ele>
        <time>2022-11-19T13:07:04Z</time>
      </trkpt>
      <trkpt lat="48.37991" lon="2.71872">
        <ele>83.800003051758</ele>
        <time>2022-11-19T13:07:08Z</time>
      </trkpt>
      <trkpt lat="48.37989" lon="2.71863">
        <ele>84</ele>
        <time>2022-11-19T13:07:12Z</time>
      </trkpt>
      <trkpt lat="48.37987" lon="2.71855">
        <ele>84</ele>
        <time>2022-11-19T13:07:16Z</time>
      </trkpt>
      <trkpt lat="48.37987" lon="2.7185">
        <ele>84.199996948242</ele>
        <time>2022-11-19T13:07:20Z</time>
      </trkpt>
      <trkpt lat="48.37985" lon="2.71845">
        <ele>84.599998474121</ele>
        <time>2022-11-19T13:07:24Z</time>
      </trkpt>
      <trkpt lat="48.37984" lon="2.71839">
        <ele>84.800003051758</ele>
        <time>2022-11-19T13:07:28Z</time>
      </trkpt>
      <trkpt lat="48.37983" lon="2.71833">
        <ele>85</ele>
        <time>2022-11-19T13:07:32Z</time>
      </trkpt>
      <trkpt lat="48.37981" lon="2.71828">
        <ele>85.400001525879</ele>
        <time>2022-11-19T13:07:36Z</time>
      </trkpt>
      <trkpt lat="48.3798" lon="2.71822">
        <ele>85.599998474121</ele>
        <time>2022-11-19T13:07:40Z</time>
      </trkpt>
      <trkpt lat="48.37979" lon="2.71818">
        <ele>85.800003051758</ele>
        <time>2022-11-19T13:07:44Z</time>
      </trkpt>
      <trkpt lat="48.37978" lon="2.71812">
        <ele>86</ele>
        <time>2022-11-19T13:07:48Z</time>
      </trkpt>
      <trkpt lat="48.37978" lon="2.71808">
        <ele>86.199996948242</ele>
        <time>2022-11-19T13:07:52Z</time>
      </trkpt>
      <trkpt lat="48.37978" lon="2.71802">
        <ele>86.400001525879</ele>
        <time>2022-11-19T13:07:56Z</time>
      </trkpt>
      <trkpt lat="48.37977" lon="2.71796">
        <ele>86.599998474121</ele>
        <time>2022-11-19T13:08:00Z</time>
      </trkpt>
      <trkpt lat="48.37977" lon="2.71788">
        <ele>86.800003051758</ele>
        <time>2022-11-19T13:08:04Z</time>
      </trkpt>
      <trkpt lat="48.37976" lon="2.71781">
        <ele>87</ele>
        <time>2022-11-19T13:08:08Z</time>
      </trkpt>
      <trkpt lat="48.37975" lon="2.71775">
        <ele>87.199996948242</ele>
        <time>2022-11-19T13:08:12Z</time>
      </trkpt>
      <trkpt lat="48.37974" lon="2.7177">
        <ele>87.400001525879</ele>
        <time>2022-11-19T13:08:16Z</time>
      </trkpt>
      <trkpt lat="48.37972" lon="2.71763">
        <ele>87.800003051758</ele>
        <time>2022-11-19T13:08:20Z</time>
      </trkpt>
      <trkpt lat="48.37971" lon="2.71756">
        <ele>88</ele>
        <time>2022-11-19T13:08:24Z</time>
      </trkpt>
      <trkpt lat="48.3797" lon="2.7175">
        <ele>88.199996948242</ele>
        <time>2022-11-19T13:08:28Z</time>
      </trkpt>
      <trkpt lat="48.37968" lon="2.71744">
        <ele>88.599998474121</ele>
        <time>2022-11-19T13:08:32Z</time>
      </trkpt>
      <trkpt lat="48.37967" lon="2.71738">
        <ele>88.599998474121</ele>
        <time>2022-11-19T13:08:36Z</time>
      </trkpt>
      <trkpt lat="48.37966" lon="2.71732">
        <ele>88.800003051758</ele>
        <time>2022-11-19T13:08:40Z</time>
      </trkpt>
      <trkpt lat="48.37966" lon="2.71726">
        <ele>89</ele>
        <time>2022-11-19T13:08:44Z</time>
      </trkpt>
      <trkpt lat="48.37963" lon="2.71722">
        <ele>89</ele>
        <time>2022-11-19T13:08:48Z</time>
      </trkpt>
      <trkpt lat="48.3796" lon="2.71718">
        <ele>89.199996948242</ele>
        <time>2022-11-19T13:08:52Z</time>
      </trkpt>
      <trkpt lat="48.37956" lon="2.71715">
        <ele>89.599998474121</ele>
        <time>2022-11-19T13:08:56Z</time>
      </trkpt>
      <trkpt lat="48.37953" lon="2.71716">
        <ele>90.400001525879</ele>
        <time>2022-11-19T13:09:00Z</time>
      </trkpt>
      <trkpt lat="48.37949" lon="2.71716">
        <ele>90.599998474121</ele>
        <time>2022-11-19T13:09:04Z</time>
      </trkpt>
      <trkpt lat="48.37946" lon="2.71714">
        <ele>90.800003051758</ele>
        <time>2022-11-19T13:09:08Z</time>
      </trkpt>
      <trkpt lat="48.37942" lon="2.71714">
        <ele>91</ele>
        <time>2022-11-19T13:09:12Z</time>
      </trkpt>
      <trkpt lat="48.37936" lon="2.71715">
        <ele>91.599998474121</ele>
        <time>2022-11-19T13:09:16Z</time>
      </trkpt>
      <trkpt lat="48.37932" lon="2.71716">
        <ele>91.599998474121</ele>
        <time>2022-11-19T13:09:20Z</time>
      </trkpt>
      <trkpt lat="48.37927" lon="2.71717">
        <ele>92.400001525879</ele>
        <time>2022-11-19T13:09:24Z</time>
      </trkpt>
      <trkpt lat="48.37924" lon="2.71719">
        <ele>92.800003051758</ele>
        <time>2022-11-19T13:09:28Z</time>
      </trkpt>
      <trkpt lat="48.37921" lon="2.7172">
        <ele>93.199996948242</ele>
        <time>2022-11-19T13:09:32Z</time>
      </trkpt>
      <trkpt lat="48.37917" lon="2.71719">
        <ele>93.599998474121</ele>
        <time>2022-11-19T13:09:36Z</time>
      </trkpt>
      <trkpt lat="48.37913" lon="2.71718">
        <ele>94</ele>
        <time>2022-11-19T13:09:40Z</time>
      </trkpt>
      <trkpt lat="48.3791" lon="2.71719">
        <ele>94.599998474121</ele>
        <time>2022-11-19T13:09:44Z</time>
      </trkpt>
      <trkpt lat="48.37907" lon="2.71719">
        <ele>95.199996948242</ele>
        <time>2022-11-19T13:09:48Z</time>
      </trkpt>
      <trkpt lat="48.37904" lon="2.71721">
        <ele>95.599998474121</ele>
        <time>2022-11-19T13:09:52Z</time>
      </trkpt>
      <trkpt lat="48.37902" lon="2.71722">
        <ele>96.199996948242</ele>
        <time>2022-11-19T13:09:56Z</time>
      </trkpt>
      <trkpt lat="48.37899" lon="2.71723">
        <ele>96.599998474121</ele>
        <time>2022-11-19T13:10:00Z</time>
      </trkpt>
      <trkpt lat="48.37897" lon="2.71724">
        <ele>97.400001525879</ele>
        <time>2022-11-19T13:10:04Z</time>
      </trkpt>
      <trkpt lat="48.37894" lon="2.71723">
        <ele>98</ele>
        <time>2022-11-19T13:10:08Z</time>
      </trkpt>
      <trkpt lat="48.37892" lon="2.71723">
        <ele>98.800003051758</ele>
        <time>2022-11-19T13:10:12Z</time>
      </trkpt>
      <trkpt lat="48.37889" lon="2.71723">
        <ele>99.400001525879</ele>
        <time>2022-11-19T13:10:16Z</time>
      </trkpt>
      <trkpt lat="48.37884" lon="2.71725">
        <ele>100</ele>
        <time>2022-11-19T13:10:20Z</time>
      </trkpt>
      <trkpt lat="48.3788" lon="2.71727">
        <ele>101</ele>
        <time>2022-11-19T13:10:24Z</time>
      </trkpt>
      <trkpt lat="48.37877" lon="2.71729">
        <ele>101.59999847412</ele>
        <time>2022-11-19T13:10:28Z</time>
      </trkpt>
      <trkpt lat="48.37875" lon="2.7173">
        <ele>102.19999694824</ele>
        <time>2022-11-19T13:10:32Z</time>
      </trkpt>
      <trkpt lat="48.37874" lon="2.7173">
        <ele>103.19999694824</ele>
        <time>2022-11-19T13:10:36Z</time>
      </trkpt>
      <trkpt lat="48.37872" lon="2.71732">
        <ele>104</ele>
        <time>2022-11-19T13:10:40Z</time>
      </trkpt>
      <trkpt lat="48.37869" lon="2.71734">
        <ele>104.59999847412</ele>
        <time>2022-11-19T13:10:44Z</time>
      </trkpt>
      <trkpt lat="48.37867" lon="2.71735">
        <ele>105</ele>
        <time>2022-11-19T13:10:48Z</time>
      </trkpt>
      <trkpt lat="48.37865" lon="2.71735">
        <ele>105.80000305176</ele>
        <time>2022-11-19T13:10:52Z</time>
      </trkpt>
      <trkpt lat="48.37864" lon="2.71736">
        <ele>106.40000152588</ele>
        <time>2022-11-19T13:10:56Z</time>
      </trkpt>
      <trkpt lat="48.37863" lon="2.71739">
        <ele>106.80000305176</ele>
        <time>2022-11-19T13:11:00Z</time>
      </trkpt>
      <trkpt lat="48.37862" lon="2.7174">
        <ele>107.80000305176</ele>
        <time>2022-11-19T13:11:04Z</time>
      </trkpt>
      <trkpt lat="48.3786" lon="2.71741">
        <ele>108.59999847412</ele>
        <time>2022-11-19T13:11:08Z</time>
      </trkpt>
      <trkpt lat="48.37857" lon="2.71745">
        <ele>109.59999847412</ele>
        <time>2022-11-19T13:11:12Z</time>
      </trkpt>
      <trkpt lat="48.37853" lon="2.71751">
        <ele>110.19999694824</ele>
        <time>2022-11-19T13:11:16Z</time>
      </trkpt>
      <trkpt lat="48.3785" lon="2.71754">
        <ele>111.59999847412</ele>
        <time>2022-11-19T13:11:20Z</time>
      </trkpt>
      <trkpt lat="48.37848" lon="2.71754">
        <ele>112.19999694824</ele>
        <time>2022-11-19T13:11:24Z</time>
      </trkpt>
      <trkpt lat="48.37845" lon="2.71756">
        <ele>113</ele>
        <time>2022-11-19T13:11:28Z</time>
      </trkpt>
      <trkpt lat="48.37842" lon="2.71757">
        <ele>113.59999847412</ele>
        <time>2022-11-19T13:11:32Z</time>
      </trkpt>
      <trkpt lat="48.37838" lon="2.71757">
        <ele>114.19999694824</ele>
        <time>2022-11-19T13:11:36Z</time>
      </trkpt>
      <trkpt lat="48.37833" lon="2.71758">
        <ele>114.40000152588</ele>
        <time>2022-11-19T13:11:40Z</time>
      </trkpt>
      <trkpt lat="48.37829" lon="2.71757">
        <ele>115</ele>
        <time>2022-11-19T13:11:44Z</time>
      </trkpt>
      <trkpt lat="48.37825" lon="2.71757">
        <ele>115.40000152588</ele>
        <time>2022-11-19T13:11:48Z</time>
      </trkpt>
      <trkpt lat="48.37821" lon="2.71755">
        <ele>115.80000305176</ele>
        <time>2022-11-19T13:11:52Z</time>
      </trkpt>
      <trkpt lat="48.37817" lon="2.71754">
        <ele>116</ele>
        <time>2022-11-19T13:11:56Z</time>
      </trkpt>
      <trkpt lat="48.37814" lon="2.71753">
        <ele>116.19999694824</ele>
        <time>2022-11-19T13:12:00Z</time>
      </trkpt>
      <trkpt lat="48.3781" lon="2.7175">
        <ele>116.40000152588</ele>
        <time>2022-11-19T13:12:04Z</time>
      </trkpt>
      <trkpt lat="48.37808" lon="2.71746">
        <ele>116.59999847412</ele>
        <time>2022-11-19T13:12:08Z</time>
      </trkpt>
      <trkpt lat="48.37806" lon="2.71747">
        <ele>116.80000305176</ele>
        <time>2022-11-19T13:12:12Z</time>
      </trkpt>
      <trkpt lat="48.37805" lon="2.71747">
        <ele>116.80000305176</ele>
        <time>2022-11-19T13:12:16Z</time>
      </trkpt>
      <trkpt lat="48.37805" lon="2.71746">
        <ele>116.59999847412</ele>
        <time>2022-11-19T13:12:20Z</time>
      </trkpt>
      <trkpt lat="48.37805" lon="2.71745">
        <ele>116.80000305176</ele>
        <time>2022-11-19T13:12:24Z</time>
      </trkpt>
      <trkpt lat="48.37806" lon="2.71746">
        <ele>116.80000305176</ele>
        <time>2022-11-19T13:12:28Z</time>
      </trkpt>
      <trkpt lat="48.37806" lon="2.71746">
        <ele>116.80000305176</ele>
        <time>2022-11-19T13:12:32Z</time>
      </trkpt>
      <trkpt lat="48.37807" lon="2.71746">
        <ele>116.80000305176</ele>
        <time>2022-11-19T13:12:36Z</time>
      </trkpt>
      <trkpt lat="48.37807" lon="2.71746">
        <ele>116.80000305176</ele>
        <time>2022-11-19T13:12:40Z</time>
      </trkpt>
      <trkpt lat="48.37807" lon="2.71746">
        <ele>116.80000305176</ele>
        <time>2022-11-19T13:12:44Z</time>
      </trkpt>
      <trkpt lat="48.37807" lon="2.71745">
        <ele>116.80000305176</ele>
        <time>2022-11-19T13:12:48Z</time>
      </trkpt>
      <trkpt lat="48.37808" lon="2.71743">
        <ele>116.80000305176</ele>
        <time>2022-11-19T13:12:52Z</time>
      </trkpt>
      <trkpt lat="48.37808" lon="2.71742">
        <ele>117</ele>
        <time>2022-11-19T13:12:56Z</time>
      </trkpt>
      <trkpt lat="48.37808" lon="2.71741">
        <ele>117</ele>
        <time>2022-11-19T13:13:00Z</time>
      </trkpt>
      <trkpt lat="48.37808" lon="2.7174">
        <ele>117</ele>
        <time>2022-11-19T13:13:04Z</time>
      </trkpt>
      <trkpt lat="48.37808" lon="2.7174">
        <ele>117</ele>
        <time>2022-11-19T13:13:08Z</time>
      </trkpt>
      <trkpt lat="48.37808" lon="2.7174">
        <ele>117</ele>
        <time>2022-11-19T13:13:12Z</time>
      </trkpt>
      <trkpt lat="48.37807" lon="2.71742">
        <ele>117</ele>
        <time>2022-11-19T13:13:16Z</time>
      </trkpt>
      <trkpt lat="48.37806" lon="2.71743">
        <ele>117</ele>
        <time>2022-11-19T13:13:20Z</time>
      </trkpt>
      <trkpt lat="48.37805" lon="2.71743">
        <ele>117</ele>
        <time>2022-11-19T13:13:24Z</time>
      </trkpt>
      <trkpt lat="48.37805" lon="2.71742">
        <ele>117</ele>
        <time>2022-11-19T13:13:28Z</time>
      </trkpt>
      <trkpt lat="48.37805" lon="2.71742">
        <ele>117</ele>
        <time>2022-11-19T13:13:32Z</time>
      </trkpt>
      <trkpt lat="48.37805" lon="2.7174">
        <ele>117</ele>
        <time>2022-11-19T13:13:36Z</time>
      </trkpt>
      <trkpt lat="48.37805" lon="2.71737">
        <ele>117</ele>
        <time>2022-11-19T13:13:40Z</time>
      </trkpt>
      <trkpt lat="48.37805" lon="2.71732">
        <ele>117</ele>
        <time>2022-11-19T13:13:44Z</time>
      </trkpt>
      <trkpt lat="48.37805" lon="2.71729">
        <ele>117</ele>
        <time>2022-11-19T13:13:48Z</time>
      </trkpt>
      <trkpt lat="48.37805" lon="2.71724">
        <ele>117</ele>
        <time>2022-11-19T13:13:52Z</time>
      </trkpt>
      <trkpt lat="48.37805" lon="2.7172">
        <ele>117</ele>
        <time>2022-11-19T13:13:56Z</time>
      </trkpt>
      <trkpt lat="48.37804" lon="2.71715">
        <ele>117</ele>
        <time>2022-11-19T13:14:00Z</time>
      </trkpt>
      <trkpt lat="48.37803" lon="2.71712">
        <ele>117.19999694824</ele>
        <time>2022-11-19T13:14:04Z</time>
      </trkpt>
      <trkpt lat="48.37801" lon="2.71708">
        <ele>117.40000152588</ele>
        <time>2022-11-19T13:14:08Z</time>
      </trkpt>
      <trkpt lat="48.37801" lon="2.71705">
        <ele>117.40000152588</ele>
        <time>2022-11-19T13:14:12Z</time>
      </trkpt>
      <trkpt lat="48.37801" lon="2.71698">
        <ele>117.19999694824</ele>
        <time>2022-11-19T13:14:16Z</time>
      </trkpt>
      <trkpt lat="48.37801" lon="2.71691">
        <ele>117.40000152588</ele>
        <time>2022-11-19T13:14:20Z</time>
      </trkpt>
      <trkpt lat="48.37801" lon="2.71685">
        <ele>117.40000152588</ele>
        <time>2022-11-19T13:14:24Z</time>
      </trkpt>
      <trkpt lat="48.378" lon="2.7168">
        <ele>117.40000152588</ele>
        <time>2022-11-19T13:14:28Z</time>
      </trkpt>
      <trkpt lat="48.378" lon="2.71676">
        <ele>117.59999847412</ele>
        <time>2022-11-19T13:14:32Z</time>
      </trkpt>
      <trkpt lat="48.378" lon="2.7167">
        <ele>117.80000305176</ele>
        <time>2022-11-19T13:14:36Z</time>
      </trkpt>
      <trkpt lat="48.37799" lon="2.71664">
        <ele>117.80000305176</ele>
        <time>2022-11-19T13:14:40Z</time>
      </trkpt>
      <trkpt lat="48.37797" lon="2.71656">
        <ele>117.80000305176</ele>
        <time>2022-11-19T13:14:44Z</time>
      </trkpt>
      <trkpt lat="48.37797" lon="2.71651">
        <ele>117.59999847412</ele>
        <time>2022-11-19T13:14:48Z</time>
      </trkpt>
      <trkpt lat="48.37797" lon="2.71647">
        <ele>117.59999847412</ele>
        <time>2022-11-19T13:14:52Z</time>
      </trkpt>
      <trkpt lat="48.37796" lon="2.71641">
        <ele>117.80000305176</ele>
        <time>2022-11-19T13:14:56Z</time>
      </trkpt>
      <trkpt lat="48.37795" lon="2.71635">
        <ele>117.80000305176</ele>
        <time>2022-11-19T13:15:00Z</time>
      </trkpt>
      <trkpt lat="48.37795" lon="2.7163">
        <ele>118</ele>
        <time>2022-11-19T13:15:04Z</time>
      </trkpt>
      <trkpt lat="48.37794" lon="2.71623">
        <ele>118</ele>
        <time>2022-11-19T13:15:08Z</time>
      </trkpt>
      <trkpt lat="48.37794" lon="2.71616">
        <ele>118</ele>
        <time>2022-11-19T13:15:12Z</time>
      </trkpt>
      <trkpt lat="48.37794" lon="2.71611">
        <ele>118</ele>
        <time>2022-11-19T13:15:16Z</time>
      </trkpt>
      <trkpt lat="48.37794" lon="2.71606">
        <ele>118</ele>
        <time>2022-11-19T13:15:20Z</time>
      </trkpt>
      <trkpt lat="48.37794" lon="2.71601">
        <ele>118</ele>
        <time>2022-11-19T13:15:24Z</time>
      </trkpt>
      <trkpt lat="48.37795" lon="2.71595">
        <ele>118</ele>
        <time>2022-11-19T13:15:28Z</time>
      </trkpt>
      <trkpt lat="48.37794" lon="2.71589">
        <ele>118.19999694824</ele>
        <time>2022-11-19T13:15:32Z</time>
      </trkpt>
      <trkpt lat="48.37793" lon="2.71583">
        <ele>118.19999694824</ele>
        <time>2022-11-19T13:15:36Z</time>
      </trkpt>
      <trkpt lat="48.37791" lon="2.71576">
        <ele>118.19999694824</ele>
        <time>2022-11-19T13:15:40Z</time>
      </trkpt>
      <trkpt lat="48.3779" lon="2.7157">
        <ele>118.19999694824</ele>
        <time>2022-11-19T13:15:44Z</time>
      </trkpt>
      <trkpt lat="48.3779" lon="2.71563">
        <ele>118.19999694824</ele>
        <time>2022-11-19T13:15:48Z</time>
      </trkpt>
      <trkpt lat="48.3779" lon="2.71557">
        <ele>118</ele>
        <time>2022-11-19T13:15:52Z</time>
      </trkpt>
      <trkpt lat="48.3779" lon="2.7155">
        <ele>118.19999694824</ele>
        <time>2022-11-19T13:15:56Z</time>
      </trkpt>
      <trkpt lat="48.37789" lon="2.71544">
        <ele>118.19999694824</ele>
        <time>2022-11-19T13:16:00Z</time>
      </trkpt>
      <trkpt lat="48.37789" lon="2.71538">
        <ele>118.19999694824</ele>
        <time>2022-11-19T13:16:04Z</time>
      </trkpt>
      <trkpt lat="48.37788" lon="2.71531">
        <ele>118.40000152588</ele>
        <time>2022-11-19T13:16:08Z</time>
      </trkpt>
      <trkpt lat="48.37789" lon="2.71525">
        <ele>118.40000152588</ele>
        <time>2022-11-19T13:16:12Z</time>
      </trkpt>
      <trkpt lat="48.37788" lon="2.71519">
        <ele>118.59999847412</ele>
        <time>2022-11-19T13:16:16Z</time>
      </trkpt>
      <trkpt lat="48.37787" lon="2.71512">
        <ele>118.59999847412</ele>
        <time>2022-11-19T13:16:20Z</time>
      </trkpt>
      <trkpt lat="48.37787" lon="2.71505">
        <ele>118.59999847412</ele>
        <time>2022-11-19T13:16:24Z</time>
      </trkpt>
      <trkpt lat="48.37786" lon="2.715">
        <ele>118.59999847412</ele>
        <time>2022-11-19T13:16:28Z</time>
      </trkpt>
      <trkpt lat="48.37785" lon="2.71493">
        <ele>118.59999847412</ele>
        <time>2022-11-19T13:16:32Z</time>
      </trkpt>
      <trkpt lat="48.37784" lon="2.71487">
        <ele>118.59999847412</ele>
        <time>2022-11-19T13:16:36Z</time>
      </trkpt>
      <trkpt lat="48.37784" lon="2.71482">
        <ele>118.59999847412</ele>
        <time>2022-11-19T13:16:40Z</time>
      </trkpt>
      <trkpt lat="48.37782" lon="2.71477">
        <ele>118.80000305176</ele>
        <time>2022-11-19T13:16:44Z</time>
      </trkpt>
      <trkpt lat="48.3778" lon="2.71469">
        <ele>118.80000305176</ele>
        <time>2022-11-19T13:16:48Z</time>
      </trkpt>
      <trkpt lat="48.37779" lon="2.71461">
        <ele>119</ele>
        <time>2022-11-19T13:16:52Z</time>
      </trkpt>
      <trkpt lat="48.3778" lon="2.71452">
        <ele>119</ele>
        <time>2022-11-19T13:16:56Z</time>
      </trkpt>
      <trkpt lat="48.37781" lon="2.71445">
        <ele>119</ele>
        <time>2022-11-19T13:17:00Z</time>
      </trkpt>
      <trkpt lat="48.37782" lon="2.7144">
        <ele>119</ele>
        <time>2022-11-19T13:17:04Z</time>
      </trkpt>
      <trkpt lat="48.37782" lon="2.71435">
        <ele>119</ele>
        <time>2022-11-19T13:17:08Z</time>
      </trkpt>
      <trkpt lat="48.37783" lon="2.71428">
        <ele>119.19999694824</ele>
        <time>2022-11-19T13:17:12Z</time>
      </trkpt>
      <trkpt lat="48.37784" lon="2.71421">
        <ele>119.40000152588</ele>
        <time>2022-11-19T13:17:16Z</time>
      </trkpt>
      <trkpt lat="48.37784" lon="2.71414">
        <ele>119.40000152588</ele>
        <time>2022-11-19T13:17:20Z</time>
      </trkpt>
      <trkpt lat="48.37783" lon="2.71408">
        <ele>119.40000152588</ele>
        <time>2022-11-19T13:17:24Z</time>
      </trkpt>
      <trkpt lat="48.37783" lon="2.71401">
        <ele>119.40000152588</ele>
        <time>2022-11-19T13:17:28Z</time>
      </trkpt>
      <trkpt lat="48.37783" lon="2.71395">
        <ele>119.40000152588</ele>
        <time>2022-11-19T13:17:32Z</time>
      </trkpt>
      <trkpt lat="48.37784" lon="2.7139">
        <ele>119.59999847412</ele>
        <time>2022-11-19T13:17:36Z</time>
      </trkpt>
      <trkpt lat="48.37784" lon="2.71385">
        <ele>119.59999847412</ele>
        <time>2022-11-19T13:17:40Z</time>
      </trkpt>
      <trkpt lat="48.37784" lon="2.71378">
        <ele>119.59999847412</ele>
        <time>2022-11-19T13:17:44Z</time>
      </trkpt>
      <trkpt lat="48.37785" lon="2.71374">
        <ele>119.59999847412</ele>
        <time>2022-11-19T13:17:48Z</time>
      </trkpt>
      <trkpt lat="48.37786" lon="2.71372">
        <ele>119.59999847412</ele>
        <time>2022-11-19T13:17:52Z</time>
      </trkpt>
      <trkpt lat="48.37785" lon="2.71364">
        <ele>119.59999847412</ele>
        <time>2022-11-19T13:17:56Z</time>
      </trkpt>
      <trkpt lat="48.37782" lon="2.71351">
        <ele>119.59999847412</ele>
        <time>2022-11-19T13:18:00Z</time>
      </trkpt>
      <trkpt lat="48.37781" lon="2.71341">
        <ele>119.80000305176</ele>
        <time>2022-11-19T13:18:04Z</time>
      </trkpt>
      <trkpt lat="48.3778" lon="2.71331">
        <ele>119.59999847412</ele>
        <time>2022-11-19T13:18:08Z</time>
      </trkpt>
      <trkpt lat="48.3778" lon="2.71321">
        <ele>119.59999847412</ele>
        <time>2022-11-19T13:18:12Z</time>
      </trkpt>
      <trkpt lat="48.3778" lon="2.71313">
        <ele>119.40000152588</ele>
        <time>2022-11-19T13:18:16Z</time>
      </trkpt>
      <trkpt lat="48.37781" lon="2.71305">
        <ele>119.40000152588</ele>
        <time>2022-11-19T13:18:20Z</time>
      </trkpt>
      <trkpt lat="48.37781" lon="2.71298">
        <ele>119.40000152588</ele>
        <time>2022-11-19T13:18:24Z</time>
      </trkpt>
      <trkpt lat="48.37781" lon="2.71291">
        <ele>119.40000152588</ele>
        <time>2022-11-19T13:18:28Z</time>
      </trkpt>
      <trkpt lat="48.37781" lon="2.71285">
        <ele>119.59999847412</ele>
        <time>2022-11-19T13:18:32Z</time>
      </trkpt>
      <trkpt lat="48.37781" lon="2.71279">
        <ele>119.40000152588</ele>
        <time>2022-11-19T13:18:36Z</time>
      </trkpt>
      <trkpt lat="48.37781" lon="2.71272">
        <ele>119.40000152588</ele>
        <time>2022-11-19T13:18:40Z</time>
      </trkpt>
      <trkpt lat="48.37782" lon="2.71267">
        <ele>119.40000152588</ele>
        <time>2022-11-19T13:18:44Z</time>
      </trkpt>
      <trkpt lat="48.37782" lon="2.71259">
        <ele>119.40000152588</ele>
        <time>2022-11-19T13:18:48Z</time>
      </trkpt>
      <trkpt lat="48.37782" lon="2.71252">
        <ele>119.19999694824</ele>
        <time>2022-11-19T13:18:52Z</time>
      </trkpt>
      <trkpt lat="48.37783" lon="2.71245">
        <ele>119.19999694824</ele>
        <time>2022-11-19T13:18:56Z</time>
      </trkpt>
      <trkpt lat="48.37785" lon="2.71239">
        <ele>119.40000152588</ele>
        <time>2022-11-19T13:19:00Z</time>
      </trkpt>
      <trkpt lat="48.37786" lon="2.71233">
        <ele>119.40000152588</ele>
        <time>2022-11-19T13:19:04Z</time>
      </trkpt>
      <trkpt lat="48.37788" lon="2.71226">
        <ele>119.40000152588</ele>
        <time>2022-11-19T13:19:08Z</time>
      </trkpt>
      <trkpt lat="48.37789" lon="2.71219">
        <ele>119.40000152588</ele>
        <time>2022-11-19T13:19:12Z</time>
      </trkpt>
      <trkpt lat="48.37791" lon="2.71212">
        <ele>119.40000152588</ele>
        <time>2022-11-19T13:19:16Z</time>
      </trkpt>
      <trkpt lat="48.37792" lon="2.71206">
        <ele>119.40000152588</ele>
        <time>2022-11-19T13:19:20Z</time>
      </trkpt>
      <trkpt lat="48.37792" lon="2.712">
        <ele>119.40000152588</ele>
        <time>2022-11-19T13:19:24Z</time>
      </trkpt>
      <trkpt lat="48.37792" lon="2.71193">
        <ele>119.59999847412</ele>
        <time>2022-11-19T13:19:28Z</time>
      </trkpt>
      <trkpt lat="48.37792" lon="2.71189">
        <ele>119.40000152588</ele>
        <time>2022-11-19T13:19:32Z</time>
      </trkpt>
      <trkpt lat="48.37793" lon="2.71183">
        <ele>119.40000152588</ele>
        <time>2022-11-19T13:19:36Z</time>
      </trkpt>
      <trkpt lat="48.37792" lon="2.71177">
        <ele>119.40000152588</ele>
        <time>2022-11-19T13:19:40Z</time>
      </trkpt>
      <trkpt lat="48.37793" lon="2.71172">
        <ele>119.19999694824</ele>
        <time>2022-11-19T13:19:44Z</time>
      </trkpt>
      <trkpt lat="48.37794" lon="2.71166">
        <ele>119.19999694824</ele>
        <time>2022-11-19T13:19:48Z</time>
      </trkpt>
      <trkpt lat="48.37795" lon="2.71158">
        <ele>119.19999694824</ele>
        <time>2022-11-19T13:19:52Z</time>
      </trkpt>
      <trkpt lat="48.37795" lon="2.71149">
        <ele>119.19999694824</ele>
        <time>2022-11-19T13:19:56Z</time>
      </trkpt>
      <trkpt lat="48.37795" lon="2.71142">
        <ele>119.40000152588</ele>
        <time>2022-11-19T13:20:00Z</time>
      </trkpt>
      <trkpt lat="48.37795" lon="2.71135">
        <ele>119.40000152588</ele>
        <time>2022-11-19T13:20:04Z</time>
      </trkpt>
      <trkpt lat="48.37795" lon="2.71128">
        <ele>119.40000152588</ele>
        <time>2022-11-19T13:20:08Z</time>
      </trkpt>
      <trkpt lat="48.37795" lon="2.71121">
        <ele>119.40000152588</ele>
        <time>2022-11-19T13:20:12Z</time>
      </trkpt>
      <trkpt lat="48.37795" lon="2.71112">
        <ele>119.59999847412</ele>
        <time>2022-11-19T13:20:16Z</time>
      </trkpt>
      <trkpt lat="48.37795" lon="2.71105">
        <ele>119.59999847412</ele>
        <time>2022-11-19T13:20:20Z</time>
      </trkpt>
      <trkpt lat="48.37796" lon="2.71098">
        <ele>119.40000152588</ele>
        <time>2022-11-19T13:20:24Z</time>
      </trkpt>
      <trkpt lat="48.37796" lon="2.71091">
        <ele>119.40000152588</ele>
        <time>2022-11-19T13:20:28Z</time>
      </trkpt>
      <trkpt lat="48.37797" lon="2.71085">
        <ele>119.40000152588</ele>
        <time>2022-11-19T13:20:32Z</time>
      </trkpt>
      <trkpt lat="48.37798" lon="2.7108">
        <ele>119.40000152588</ele>
        <time>2022-11-19T13:20:36Z</time>
      </trkpt>
      <trkpt lat="48.37799" lon="2.71075">
        <ele>119.59999847412</ele>
        <time>2022-11-19T13:20:40Z</time>
      </trkpt>
      <trkpt lat="48.378" lon="2.71069">
        <ele>119.59999847412</ele>
        <time>2022-11-19T13:20:44Z</time>
      </trkpt>
      <trkpt lat="48.378" lon="2.71063">
        <ele>119.59999847412</ele>
        <time>2022-11-19T13:20:48Z</time>
      </trkpt>
      <trkpt lat="48.378" lon="2.71053">
        <ele>119.59999847412</ele>
        <time>2022-11-19T13:20:52Z</time>
      </trkpt>
      <trkpt lat="48.378" lon="2.71048">
        <ele>119.59999847412</ele>
        <time>2022-11-19T13:20:56Z</time>
      </trkpt>
      <trkpt lat="48.37801" lon="2.71042">
        <ele>119.59999847412</ele>
        <time>2022-11-19T13:21:00Z</time>
      </trkpt>
      <trkpt lat="48.37801" lon="2.71035">
        <ele>119.59999847412</ele>
        <time>2022-11-19T13:21:04Z</time>
      </trkpt>
      <trkpt lat="48.37802" lon="2.71029">
        <ele>119.59999847412</ele>
        <time>2022-11-19T13:21:08Z</time>
      </trkpt>
      <trkpt lat="48.37802" lon="2.71023">
        <ele>119.59999847412</ele>
        <time>2022-11-19T13:21:12Z</time>
      </trkpt>
      <trkpt lat="48.37803" lon="2.71017">
        <ele>119.59999847412</ele>
        <time>2022-11-19T13:21:16Z</time>
      </trkpt>
      <trkpt lat="48.37804" lon="2.7101">
        <ele>119.59999847412</ele>
        <time>2022-11-19T13:21:20Z</time>
      </trkpt>
      <trkpt lat="48.37805" lon="2.71004">
        <ele>119.59999847412</ele>
        <time>2022-11-19T13:21:24Z</time>
      </trkpt>
      <trkpt lat="48.37806" lon="2.70999">
        <ele>119.59999847412</ele>
        <time>2022-11-19T13:21:28Z</time>
      </trkpt>
      <trkpt lat="48.37806" lon="2.70993">
        <ele>119.59999847412</ele>
        <time>2022-11-19T13:21:32Z</time>
      </trkpt>
      <trkpt lat="48.37805" lon="2.70985">
        <ele>119.59999847412</ele>
        <time>2022-11-19T13:21:36Z</time>
      </trkpt>
      <trkpt lat="48.37805" lon="2.70979">
        <ele>119.40000152588</ele>
        <time>2022-11-19T13:21:40Z</time>
      </trkpt>
      <trkpt lat="48.37806" lon="2.70974">
        <ele>119.40000152588</ele>
        <time>2022-11-19T13:21:44Z</time>
      </trkpt>
      <trkpt lat="48.37807" lon="2.70969">
        <ele>119.40000152588</ele>
        <time>2022-11-19T13:21:48Z</time>
      </trkpt>
      <trkpt lat="48.37809" lon="2.70962">
        <ele>119.19999694824</ele>
        <time>2022-11-19T13:21:52Z</time>
      </trkpt>
      <trkpt lat="48.37809" lon="2.70957">
        <ele>119.40000152588</ele>
        <time>2022-11-19T13:21:56Z</time>
      </trkpt>
      <trkpt lat="48.3781" lon="2.70951">
        <ele>119.40000152588</ele>
        <time>2022-11-19T13:22:00Z</time>
      </trkpt>
      <trkpt lat="48.37811" lon="2.70945">
        <ele>119.40000152588</ele>
        <time>2022-11-19T13:22:04Z</time>
      </trkpt>
      <trkpt lat="48.37812" lon="2.7094">
        <ele>119.40000152588</ele>
        <time>2022-11-19T13:22:08Z</time>
      </trkpt>
      <trkpt lat="48.37812" lon="2.70934">
        <ele>119.40000152588</ele>
        <time>2022-11-19T13:22:12Z</time>
      </trkpt>
      <trkpt lat="48.37812" lon="2.70928">
        <ele>119.40000152588</ele>
        <time>2022-11-19T13:22:16Z</time>
      </trkpt>
      <trkpt lat="48.37812" lon="2.70922">
        <ele>119.40000152588</ele>
        <time>2022-11-19T13:22:20Z</time>
      </trkpt>
      <trkpt lat="48.37812" lon="2.70914">
        <ele>119.40000152588</ele>
        <time>2022-11-19T13:22:24Z</time>
      </trkpt>
      <trkpt lat="48.37813" lon="2.70907">
        <ele>119.19999694824</ele>
        <time>2022-11-19T13:22:28Z</time>
      </trkpt>
      <trkpt lat="48.37815" lon="2.709">
        <ele>119.19999694824</ele>
        <time>2022-11-19T13:22:32Z</time>
      </trkpt>
      <trkpt lat="48.37815" lon="2.70894">
        <ele>119.40000152588</ele>
        <time>2022-11-19T13:22:36Z</time>
      </trkpt>
      <trkpt lat="48.37816" lon="2.70888">
        <ele>119.40000152588</ele>
        <time>2022-11-19T13:22:40Z</time>
      </trkpt>
      <trkpt lat="48.37816" lon="2.70881">
        <ele>119.59999847412</ele>
        <time>2022-11-19T13:22:44Z</time>
      </trkpt>
      <trkpt lat="48.37816" lon="2.70876">
        <ele>119.40000152588</ele>
        <time>2022-11-19T13:22:48Z</time>
      </trkpt>
      <trkpt lat="48.37818" lon="2.70873">
        <ele>119.40000152588</ele>
        <time>2022-11-19T13:22:52Z</time>
      </trkpt>
      <trkpt lat="48.37819" lon="2.70867">
        <ele>119.40000152588</ele>
        <time>2022-11-19T13:22:56Z</time>
      </trkpt>
      <trkpt lat="48.3782" lon="2.7086">
        <ele>119.40000152588</ele>
        <time>2022-11-19T13:23:00Z</time>
      </trkpt>
      <trkpt lat="48.37819" lon="2.70852">
        <ele>119.40000152588</ele>
        <time>2022-11-19T13:23:04Z</time>
      </trkpt>
      <trkpt lat="48.3782" lon="2.70846">
        <ele>119.40000152588</ele>
        <time>2022-11-19T13:23:08Z</time>
      </trkpt>
      <trkpt lat="48.3782" lon="2.70841">
        <ele>119.19999694824</ele>
        <time>2022-11-19T13:23:12Z</time>
      </trkpt>
      <trkpt lat="48.3782" lon="2.70836">
        <ele>119.19999694824</ele>
        <time>2022-11-19T13:23:16Z</time>
      </trkpt>
      <trkpt lat="48.37821" lon="2.70831">
        <ele>119.19999694824</ele>
        <time>2022-11-19T13:23:20Z</time>
      </trkpt>
      <trkpt lat="48.37822" lon="2.70824">
        <ele>119.19999694824</ele>
        <time>2022-11-19T13:23:24Z</time>
      </trkpt>
      <trkpt lat="48.37822" lon="2.70813">
        <ele>119.19999694824</ele>
        <time>2022-11-19T13:23:28Z</time>
      </trkpt>
      <trkpt lat="48.37822" lon="2.70804">
        <ele>119.19999694824</ele>
        <time>2022-11-19T13:23:32Z</time>
      </trkpt>
      <trkpt lat="48.37822" lon="2.70797">
        <ele>119</ele>
        <time>2022-11-19T13:23:36Z</time>
      </trkpt>
      <trkpt lat="48.37823" lon="2.70794">
        <ele>119</ele>
        <time>2022-11-19T13:23:40Z</time>
      </trkpt>
      <trkpt lat="48.37825" lon="2.70788">
        <ele>119</ele>
        <time>2022-11-19T13:23:44Z</time>
      </trkpt>
      <trkpt lat="48.37826" lon="2.70781">
        <ele>119</ele>
        <time>2022-11-19T13:23:48Z</time>
      </trkpt>
      <trkpt lat="48.37826" lon="2.70775">
        <ele>119</ele>
        <time>2022-11-19T13:23:52Z</time>
      </trkpt>
      <trkpt lat="48.37827" lon="2.70768">
        <ele>119</ele>
        <time>2022-11-19T13:23:56Z</time>
      </trkpt>
      <trkpt lat="48.37829" lon="2.70759">
        <ele>119</ele>
        <time>2022-11-19T13:24:00Z</time>
      </trkpt>
      <trkpt lat="48.37829" lon="2.70753">
        <ele>119</ele>
        <time>2022-11-19T13:24:04Z</time>
      </trkpt>
      <trkpt lat="48.3783" lon="2.70748">
        <ele>119</ele>
        <time>2022-11-19T13:24:08Z</time>
      </trkpt>
      <trkpt lat="48.3783" lon="2.70742">
        <ele>119</ele>
        <time>2022-11-19T13:24:12Z</time>
      </trkpt>
      <trkpt lat="48.37831" lon="2.70736">
        <ele>119</ele>
        <time>2022-11-19T13:24:16Z</time>
      </trkpt>
      <trkpt lat="48.37832" lon="2.70728">
        <ele>118.80000305176</ele>
        <time>2022-11-19T13:24:20Z</time>
      </trkpt>
      <trkpt lat="48.37834" lon="2.70723">
        <ele>118.59999847412</ele>
        <time>2022-11-19T13:24:24Z</time>
      </trkpt>
      <trkpt lat="48.37837" lon="2.70718">
        <ele>118.59999847412</ele>
        <time>2022-11-19T13:24:28Z</time>
      </trkpt>
      <trkpt lat="48.37838" lon="2.70712">
        <ele>118.40000152588</ele>
        <time>2022-11-19T13:24:32Z</time>
      </trkpt>
      <trkpt lat="48.37838" lon="2.70702">
        <ele>118.40000152588</ele>
        <time>2022-11-19T13:24:36Z</time>
      </trkpt>
      <trkpt lat="48.37839" lon="2.70696">
        <ele>118.40000152588</ele>
        <time>2022-11-19T13:24:40Z</time>
      </trkpt>
      <trkpt lat="48.37841" lon="2.7069">
        <ele>118.40000152588</ele>
        <time>2022-11-19T13:24:44Z</time>
      </trkpt>
      <trkpt lat="48.37843" lon="2.70683">
        <ele>118.59999847412</ele>
        <time>2022-11-19T13:24:48Z</time>
      </trkpt>
      <trkpt lat="48.37844" lon="2.70677">
        <ele>118.59999847412</ele>
        <time>2022-11-19T13:24:52Z</time>
      </trkpt>
      <trkpt lat="48.37845" lon="2.70671">
        <ele>118.59999847412</ele>
        <time>2022-11-19T13:24:56Z</time>
      </trkpt>
      <trkpt lat="48.37843" lon="2.70663">
        <ele>118.59999847412</ele>
        <time>2022-11-19T13:25:00Z</time>
      </trkpt>
      <trkpt lat="48.37844" lon="2.70656">
        <ele>118.59999847412</ele>
        <time>2022-11-19T13:25:04Z</time>
      </trkpt>
      <trkpt lat="48.37845" lon="2.7065">
        <ele>118.59999847412</ele>
        <time>2022-11-19T13:25:08Z</time>
      </trkpt>
      <trkpt lat="48.37848" lon="2.70644">
        <ele>118.40000152588</ele>
        <time>2022-11-19T13:25:12Z</time>
      </trkpt>
      <trkpt lat="48.3785" lon="2.70638">
        <ele>118.40000152588</ele>
        <time>2022-11-19T13:25:16Z</time>
      </trkpt>
      <trkpt lat="48.37852" lon="2.70633">
        <ele>118.40000152588</ele>
        <time>2022-11-19T13:25:20Z</time>
      </trkpt>
      <trkpt lat="48.37854" lon="2.70627">
        <ele>118.40000152588</ele>
        <time>2022-11-19T13:25:24Z</time>
      </trkpt>
      <trkpt lat="48.37855" lon="2.70621">
        <ele>118.40000152588</ele>
        <time>2022-11-19T13:25:28Z</time>
      </trkpt>
      <trkpt lat="48.37856" lon="2.70616">
        <ele>118.40000152588</ele>
        <time>2022-11-19T13:25:32Z</time>
      </trkpt>
      <trkpt lat="48.37857" lon="2.7061">
        <ele>118.19999694824</ele>
        <time>2022-11-19T13:25:36Z</time>
      </trkpt>
      <trkpt lat="48.37858" lon="2.70605">
        <ele>118.19999694824</ele>
        <time>2022-11-19T13:25:40Z</time>
      </trkpt>
      <trkpt lat="48.37858" lon="2.70598">
        <ele>118.19999694824</ele>
        <time>2022-11-19T13:25:44Z</time>
      </trkpt>
      <trkpt lat="48.37857" lon="2.7059">
        <ele>118.19999694824</ele>
        <time>2022-11-19T13:25:48Z</time>
      </trkpt>
      <trkpt lat="48.37858" lon="2.70585">
        <ele>118.19999694824</ele>
        <time>2022-11-19T13:25:52Z</time>
      </trkpt>
      <trkpt lat="48.3786" lon="2.70578">
        <ele>118.19999694824</ele>
        <time>2022-11-19T13:25:56Z</time>
      </trkpt>
      <trkpt lat="48.37862" lon="2.70572">
        <ele>118.40000152588</ele>
        <time>2022-11-19T13:26:00Z</time>
      </trkpt>
      <trkpt lat="48.37865" lon="2.70567">
        <ele>118.40000152588</ele>
        <time>2022-11-19T13:26:04Z</time>
      </trkpt>
      <trkpt lat="48.37865" lon="2.70559">
        <ele>118.19999694824</ele>
        <time>2022-11-19T13:26:08Z</time>
      </trkpt>
      <trkpt lat="48.37866" lon="2.70553">
        <ele>118.19999694824</ele>
        <time>2022-11-19T13:26:12Z</time>
      </trkpt>
      <trkpt lat="48.37866" lon="2.70546">
        <ele>118.19999694824</ele>
        <time>2022-11-19T13:26:16Z</time>
      </trkpt>
      <trkpt lat="48.37867" lon="2.7054">
        <ele>118.19999694824</ele>
        <time>2022-11-19T13:26:20Z</time>
      </trkpt>
      <trkpt lat="48.37869" lon="2.70534">
        <ele>118.19999694824</ele>
        <time>2022-11-19T13:26:24Z</time>
      </trkpt>
      <trkpt lat="48.3787" lon="2.70529">
        <ele>118.19999694824</ele>
        <time>2022-11-19T13:26:28Z</time>
      </trkpt>
      <trkpt lat="48.37872" lon="2.70522">
        <ele>118.19999694824</ele>
        <time>2022-11-19T13:26:32Z</time>
      </trkpt>
      <trkpt lat="48.37873" lon="2.70515">
        <ele>118.19999694824</ele>
        <time>2022-11-19T13:26:36Z</time>
      </trkpt>
      <trkpt lat="48.37874" lon="2.70507">
        <ele>118.19999694824</ele>
        <time>2022-11-19T13:26:40Z</time>
      </trkpt>
      <trkpt lat="48.37875" lon="2.705">
        <ele>118.19999694824</ele>
        <time>2022-11-19T13:26:44Z</time>
      </trkpt>
      <trkpt lat="48.37875" lon="2.70493">
        <ele>118</ele>
        <time>2022-11-19T13:26:48Z</time>
      </trkpt>
      <trkpt lat="48.37875" lon="2.70485">
        <ele>118</ele>
        <time>2022-11-19T13:26:52Z</time>
      </trkpt>
      <trkpt lat="48.37877" lon="2.70479">
        <ele>118</ele>
        <time>2022-11-19T13:26:56Z</time>
      </trkpt>
      <trkpt lat="48.3788" lon="2.70475">
        <ele>118</ele>
        <time>2022-11-19T13:27:00Z</time>
      </trkpt>
      <trkpt lat="48.37882" lon="2.70471">
        <ele>118</ele>
        <time>2022-11-19T13:27:04Z</time>
      </trkpt>
      <trkpt lat="48.37883" lon="2.70465">
        <ele>118</ele>
        <time>2022-11-19T13:27:08Z</time>
      </trkpt>
      <trkpt lat="48.37883" lon="2.70459">
        <ele>117.80000305176</ele>
        <time>2022-11-19T13:27:12Z</time>
      </trkpt>
      <trkpt lat="48.37884" lon="2.70452">
        <ele>117.80000305176</ele>
        <time>2022-11-19T13:27:16Z</time>
      </trkpt>
      <trkpt lat="48.37885" lon="2.70447">
        <ele>117.80000305176</ele>
        <time>2022-11-19T13:27:20Z</time>
      </trkpt>
      <trkpt lat="48.37886" lon="2.70441">
        <ele>118</ele>
        <time>2022-11-19T13:27:24Z</time>
      </trkpt>
      <trkpt lat="48.37888" lon="2.70435">
        <ele>118</ele>
        <time>2022-11-19T13:27:28Z</time>
      </trkpt>
      <trkpt lat="48.37889" lon="2.70429">
        <ele>117.80000305176</ele>
        <time>2022-11-19T13:27:32Z</time>
      </trkpt>
      <trkpt lat="48.37889" lon="2.70422">
        <ele>117.80000305176</ele>
        <time>2022-11-19T13:27:36Z</time>
      </trkpt>
      <trkpt lat="48.37889" lon="2.70416">
        <ele>117.80000305176</ele>
        <time>2022-11-19T13:27:40Z</time>
      </trkpt>
      <trkpt lat="48.3789" lon="2.70411">
        <ele>117.80000305176</ele>
        <time>2022-11-19T13:27:44Z</time>
      </trkpt>
      <trkpt lat="48.3789" lon="2.70406">
        <ele>117.59999847412</ele>
        <time>2022-11-19T13:27:48Z</time>
      </trkpt>
      <trkpt lat="48.37891" lon="2.70397">
        <ele>117.59999847412</ele>
        <time>2022-11-19T13:27:52Z</time>
      </trkpt>
      <trkpt lat="48.37892" lon="2.7039">
        <ele>117.59999847412</ele>
        <time>2022-11-19T13:27:56Z</time>
      </trkpt>
      <trkpt lat="48.37893" lon="2.70383">
        <ele>117.59999847412</ele>
        <time>2022-11-19T13:28:00Z</time>
      </trkpt>
      <trkpt lat="48.37894" lon="2.70377">
        <ele>117.59999847412</ele>
        <time>2022-11-19T13:28:04Z</time>
      </trkpt>
      <trkpt lat="48.37895" lon="2.70372">
        <ele>117.59999847412</ele>
        <time>2022-11-19T13:28:08Z</time>
      </trkpt>
      <trkpt lat="48.37896" lon="2.70366">
        <ele>117.59999847412</ele>
        <time>2022-11-19T13:28:12Z</time>
      </trkpt>
      <trkpt lat="48.37897" lon="2.7036">
        <ele>117.59999847412</ele>
        <time>2022-11-19T13:28:16Z</time>
      </trkpt>
      <trkpt lat="48.37898" lon="2.70354">
        <ele>117.59999847412</ele>
        <time>2022-11-19T13:28:20Z</time>
      </trkpt>
      <trkpt lat="48.37899" lon="2.70348">
        <ele>117.59999847412</ele>
        <time>2022-11-19T13:28:24Z</time>
      </trkpt>
      <trkpt lat="48.379" lon="2.70341">
        <ele>117.80000305176</ele>
        <time>2022-11-19T13:28:28Z</time>
      </trkpt>
      <trkpt lat="48.37903" lon="2.70336">
        <ele>117.80000305176</ele>
        <time>2022-11-19T13:28:32Z</time>
      </trkpt>
      <trkpt lat="48.37904" lon="2.7033">
        <ele>117.59999847412</ele>
        <time>2022-11-19T13:28:36Z</time>
      </trkpt>
      <trkpt lat="48.37905" lon="2.70323">
        <ele>117.59999847412</ele>
        <time>2022-11-19T13:28:40Z</time>
      </trkpt>
      <trkpt lat="48.37906" lon="2.70316">
        <ele>117.40000152588</ele>
        <time>2022-11-19T13:28:44Z</time>
      </trkpt>
      <trkpt lat="48.37907" lon="2.70309">
        <ele>117.40000152588</ele>
        <time>2022-11-19T13:28:48Z</time>
      </trkpt>
      <trkpt lat="48.37907" lon="2.70302">
        <ele>117.40000152588</ele>
        <time>2022-11-19T13:28:52Z</time>
      </trkpt>
      <trkpt lat="48.37909" lon="2.70296">
        <ele>117.40000152588</ele>
        <time>2022-11-19T13:28:56Z</time>
      </trkpt>
      <trkpt lat="48.3791" lon="2.7029">
        <ele>117.19999694824</ele>
        <time>2022-11-19T13:29:00Z</time>
      </trkpt>
      <trkpt lat="48.37912" lon="2.70285">
        <ele>117.19999694824</ele>
        <time>2022-11-19T13:29:04Z</time>
      </trkpt>
      <trkpt lat="48.37915" lon="2.7028">
        <ele>117.19999694824</ele>
        <time>2022-11-19T13:29:08Z</time>
      </trkpt>
      <trkpt lat="48.37915" lon="2.70272">
        <ele>117.19999694824</ele>
        <time>2022-11-19T13:29:12Z</time>
      </trkpt>
      <trkpt lat="48.37917" lon="2.70265">
        <ele>117</ele>
        <time>2022-11-19T13:29:16Z</time>
      </trkpt>
      <trkpt lat="48.37917" lon="2.70258">
        <ele>117</ele>
        <time>2022-11-19T13:29:20Z</time>
      </trkpt>
      <trkpt lat="48.37917" lon="2.7025">
        <ele>117</ele>
        <time>2022-11-19T13:29:24Z</time>
      </trkpt>
      <trkpt lat="48.37917" lon="2.70244">
        <ele>117</ele>
        <time>2022-11-19T13:29:28Z</time>
      </trkpt>
      <trkpt lat="48.37917" lon="2.70238">
        <ele>116.80000305176</ele>
        <time>2022-11-19T13:29:32Z</time>
      </trkpt>
      <trkpt lat="48.37919" lon="2.70232">
        <ele>116.59999847412</ele>
        <time>2022-11-19T13:29:36Z</time>
      </trkpt>
      <trkpt lat="48.37921" lon="2.70225">
        <ele>116.59999847412</ele>
        <time>2022-11-19T13:29:40Z</time>
      </trkpt>
      <trkpt lat="48.37922" lon="2.70219">
        <ele>116.59999847412</ele>
        <time>2022-11-19T13:29:44Z</time>
      </trkpt>
      <trkpt lat="48.37924" lon="2.70214">
        <ele>116.40000152588</ele>
        <time>2022-11-19T13:29:48Z</time>
      </trkpt>
      <trkpt lat="48.37928" lon="2.70209">
        <ele>116.40000152588</ele>
        <time>2022-11-19T13:29:52Z</time>
      </trkpt>
      <trkpt lat="48.37929" lon="2.70206">
        <ele>116.40000152588</ele>
        <time>2022-11-19T13:29:56Z</time>
      </trkpt>
      <trkpt lat="48.3793" lon="2.70198">
        <ele>116.19999694824</ele>
        <time>2022-11-19T13:30:00Z</time>
      </trkpt>
      <trkpt lat="48.37931" lon="2.70192">
        <ele>116.19999694824</ele>
        <time>2022-11-19T13:30:04Z</time>
      </trkpt>
      <trkpt lat="48.37931" lon="2.70185">
        <ele>116.19999694824</ele>
        <time>2022-11-19T13:30:08Z</time>
      </trkpt>
      <trkpt lat="48.37931" lon="2.70177">
        <ele>116</ele>
        <time>2022-11-19T13:30:12Z</time>
      </trkpt>
      <trkpt lat="48.37931" lon="2.7017">
        <ele>116</ele>
        <time>2022-11-19T13:30:16Z</time>
      </trkpt>
      <trkpt lat="48.37932" lon="2.70164">
        <ele>116</ele>
        <time>2022-11-19T13:30:20Z</time>
      </trkpt>
      <trkpt lat="48.37934" lon="2.70156">
        <ele>115.80000305176</ele>
        <time>2022-11-19T13:30:24Z</time>
      </trkpt>
      <trkpt lat="48.37935" lon="2.7015">
        <ele>115.80000305176</ele>
        <time>2022-11-19T13:30:28Z</time>
      </trkpt>
      <trkpt lat="48.37937" lon="2.70144">
        <ele>115.59999847412</ele>
        <time>2022-11-19T13:30:32Z</time>
      </trkpt>
      <trkpt lat="48.37939" lon="2.70138">
        <ele>115.59999847412</ele>
        <time>2022-11-19T13:30:36Z</time>
      </trkpt>
      <trkpt lat="48.3794" lon="2.7013">
        <ele>115.59999847412</ele>
        <time>2022-11-19T13:30:40Z</time>
      </trkpt>
      <trkpt lat="48.37941" lon="2.70122">
        <ele>115.40000152588</ele>
        <time>2022-11-19T13:30:44Z</time>
      </trkpt>
      <trkpt lat="48.37942" lon="2.70117">
        <ele>115.40000152588</ele>
        <time>2022-11-19T13:30:48Z</time>
      </trkpt>
      <trkpt lat="48.37944" lon="2.70111">
        <ele>115.19999694824</ele>
        <time>2022-11-19T13:30:52Z</time>
      </trkpt>
      <trkpt lat="48.37945" lon="2.70105">
        <ele>115.19999694824</ele>
        <time>2022-11-19T13:30:56Z</time>
      </trkpt>
      <trkpt lat="48.37947" lon="2.70098">
        <ele>115.19999694824</ele>
        <time>2022-11-19T13:31:00Z</time>
      </trkpt>
      <trkpt lat="48.37948" lon="2.70093">
        <ele>115.19999694824</ele>
        <time>2022-11-19T13:31:04Z</time>
      </trkpt>
      <trkpt lat="48.37949" lon="2.70088">
        <ele>115.19999694824</ele>
        <time>2022-11-19T13:31:08Z</time>
      </trkpt>
      <trkpt lat="48.37951" lon="2.70083">
        <ele>115.19999694824</ele>
        <time>2022-11-19T13:31:12Z</time>
      </trkpt>
      <trkpt lat="48.37952" lon="2.70076">
        <ele>115.19999694824</ele>
        <time>2022-11-19T13:31:16Z</time>
      </trkpt>
      <trkpt lat="48.37953" lon="2.7007">
        <ele>115</ele>
        <time>2022-11-19T13:31:20Z</time>
      </trkpt>
      <trkpt lat="48.37953" lon="2.70065">
        <ele>115</ele>
        <time>2022-11-19T13:31:24Z</time>
      </trkpt>
      <trkpt lat="48.37953" lon="2.70058">
        <ele>115</ele>
        <time>2022-11-19T13:31:28Z</time>
      </trkpt>
      <trkpt lat="48.37953" lon="2.70051">
        <ele>115</ele>
        <time>2022-11-19T13:31:32Z</time>
      </trkpt>
      <trkpt lat="48.37954" lon="2.70046">
        <ele>115</ele>
        <time>2022-11-19T13:31:36Z</time>
      </trkpt>
      <trkpt lat="48.37955" lon="2.70047">
        <ele>114.80000305176</ele>
        <time>2022-11-19T13:31:40Z</time>
      </trkpt>
      <trkpt lat="48.37956" lon="2.70051">
        <ele>114.80000305176</ele>
        <time>2022-11-19T13:31:44Z</time>
      </trkpt>
      <trkpt lat="48.37957" lon="2.70053">
        <ele>114.59999847412</ele>
        <time>2022-11-19T13:31:48Z</time>
      </trkpt>
      <trkpt lat="48.37957" lon="2.70053">
        <ele>114.80000305176</ele>
        <time>2022-11-19T13:31:52Z</time>
      </trkpt>
      <trkpt lat="48.37957" lon="2.70051">
        <ele>114.80000305176</ele>
        <time>2022-11-19T13:31:56Z</time>
      </trkpt>
      <trkpt lat="48.37956" lon="2.7005">
        <ele>114.59999847412</ele>
        <time>2022-11-19T13:32:00Z</time>
      </trkpt>
      <trkpt lat="48.37956" lon="2.70048">
        <ele>114.59999847412</ele>
        <time>2022-11-19T13:32:04Z</time>
      </trkpt>
      <trkpt lat="48.37955" lon="2.70046">
        <ele>114.59999847412</ele>
        <time>2022-11-19T13:32:08Z</time>
      </trkpt>
      <trkpt lat="48.37955" lon="2.70043">
        <ele>114.59999847412</ele>
        <time>2022-11-19T13:32:12Z</time>
      </trkpt>
      <trkpt lat="48.37955" lon="2.70042">
        <ele>114.80000305176</ele>
        <time>2022-11-19T13:32:16Z</time>
      </trkpt>
      <trkpt lat="48.37955" lon="2.7004">
        <ele>115</ele>
        <time>2022-11-19T13:32:20Z</time>
      </trkpt>
      <trkpt lat="48.37955" lon="2.70038">
        <ele>115</ele>
        <time>2022-11-19T13:32:24Z</time>
      </trkpt>
      <trkpt lat="48.37955" lon="2.70036">
        <ele>115</ele>
        <time>2022-11-19T13:32:28Z</time>
      </trkpt>
      <trkpt lat="48.37955" lon="2.70035">
        <ele>115</ele>
        <time>2022-11-19T13:32:32Z</time>
      </trkpt>
      <trkpt lat="48.37954" lon="2.70032">
        <ele>115</ele>
        <time>2022-11-19T13:32:36Z</time>
      </trkpt>
      <trkpt lat="48.37951" lon="2.70026">
        <ele>115</ele>
        <time>2022-11-19T13:32:40Z</time>
      </trkpt>
      <trkpt lat="48.37949" lon="2.7002">
        <ele>115</ele>
        <time>2022-11-19T13:32:44Z</time>
      </trkpt>
      <trkpt lat="48.37946" lon="2.70015">
        <ele>115</ele>
        <time>2022-11-19T13:32:48Z</time>
      </trkpt>
      <trkpt lat="48.37942" lon="2.70011">
        <ele>115.19999694824</ele>
        <time>2022-11-19T13:32:52Z</time>
      </trkpt>
      <trkpt lat="48.37938" lon="2.70009">
        <ele>115.40000152588</ele>
        <time>2022-11-19T13:32:56Z</time>
      </trkpt>
      <trkpt lat="48.37936" lon="2.70007">
        <ele>115.40000152588</ele>
        <time>2022-11-19T13:33:00Z</time>
      </trkpt>
      <trkpt lat="48.37933" lon="2.70004">
        <ele>115.40000152588</ele>
        <time>2022-11-19T13:33:04Z</time>
      </trkpt>
      <trkpt lat="48.3793" lon="2.70002">
        <ele>115.40000152588</ele>
        <time>2022-11-19T13:33:08Z</time>
      </trkpt>
      <trkpt lat="48.37927" lon="2.7">
        <ele>115.40000152588</ele>
        <time>2022-11-19T13:33:12Z</time>
      </trkpt>
      <trkpt lat="48.37924" lon="2.69995">
        <ele>115.40000152588</ele>
        <time>2022-11-19T13:33:16Z</time>
      </trkpt>
      <trkpt lat="48.3792" lon="2.69993">
        <ele>115.40000152588</ele>
        <time>2022-11-19T13:33:20Z</time>
      </trkpt>
      <trkpt lat="48.37916" lon="2.6999">
        <ele>115.40000152588</ele>
        <time>2022-11-19T13:33:24Z</time>
      </trkpt>
      <trkpt lat="48.37912" lon="2.69985">
        <ele>115.40000152588</ele>
        <time>2022-11-19T13:33:28Z</time>
      </trkpt>
      <trkpt lat="48.37908" lon="2.69981">
        <ele>115.40000152588</ele>
        <time>2022-11-19T13:33:32Z</time>
      </trkpt>
      <trkpt lat="48.37904" lon="2.69976">
        <ele>115.40000152588</ele>
        <time>2022-11-19T13:33:36Z</time>
      </trkpt>
      <trkpt lat="48.37901" lon="2.69971">
        <ele>115.40000152588</ele>
        <time>2022-11-19T13:33:40Z</time>
      </trkpt>
      <trkpt lat="48.37898" lon="2.69968">
        <ele>115.40000152588</ele>
        <time>2022-11-19T13:33:44Z</time>
      </trkpt>
      <trkpt lat="48.37895" lon="2.69966">
        <ele>115.19999694824</ele>
        <time>2022-11-19T13:33:48Z</time>
      </trkpt>
      <trkpt lat="48.37891" lon="2.69964">
        <ele>115.19999694824</ele>
        <time>2022-11-19T13:33:52Z</time>
      </trkpt>
      <trkpt lat="48.37888" lon="2.69961">
        <ele>114.80000305176</ele>
        <time>2022-11-19T13:33:56Z</time>
      </trkpt>
      <trkpt lat="48.37884" lon="2.69956">
        <ele>114.40000152588</ele>
        <time>2022-11-19T13:34:00Z</time>
      </trkpt>
      <trkpt lat="48.37881" lon="2.69953">
        <ele>113.80000305176</ele>
        <time>2022-11-19T13:34:04Z</time>
      </trkpt>
      <trkpt lat="48.37878" lon="2.69952">
        <ele>113.40000152588</ele>
        <time>2022-11-19T13:34:08Z</time>
      </trkpt>
      <trkpt lat="48.37876" lon="2.69951">
        <ele>112.80000305176</ele>
        <time>2022-11-19T13:34:12Z</time>
      </trkpt>
      <trkpt lat="48.37873" lon="2.69949">
        <ele>112.19999694824</ele>
        <time>2022-11-19T13:34:16Z</time>
      </trkpt>
      <trkpt lat="48.37871" lon="2.69945">
        <ele>111.40000152588</ele>
        <time>2022-11-19T13:34:20Z</time>
      </trkpt>
      <trkpt lat="48.3787" lon="2.69943">
        <ele>110.80000305176</ele>
        <time>2022-11-19T13:34:24Z</time>
      </trkpt>
      <trkpt lat="48.37869" lon="2.69942">
        <ele>110</ele>
        <time>2022-11-19T13:34:28Z</time>
      </trkpt>
      <trkpt lat="48.37865" lon="2.69939">
        <ele>109.19999694824</ele>
        <time>2022-11-19T13:34:32Z</time>
      </trkpt>
      <trkpt lat="48.37861" lon="2.69937">
        <ele>108.40000152588</ele>
        <time>2022-11-19T13:34:36Z</time>
      </trkpt>
      <trkpt lat="48.37858" lon="2.69934">
        <ele>107.59999847412</ele>
        <time>2022-11-19T13:34:40Z</time>
      </trkpt>
      <trkpt lat="48.37855" lon="2.69931">
        <ele>107.19999694824</ele>
        <time>2022-11-19T13:34:44Z</time>
      </trkpt>
      <trkpt lat="48.37853" lon="2.69929">
        <ele>106.40000152588</ele>
        <time>2022-11-19T13:34:48Z</time>
      </trkpt>
      <trkpt lat="48.37851" lon="2.69925">
        <ele>105.59999847412</ele>
        <time>2022-11-19T13:34:52Z</time>
      </trkpt>
      <trkpt lat="48.37849" lon="2.69921">
        <ele>105</ele>
        <time>2022-11-19T13:34:56Z</time>
      </trkpt>
      <trkpt lat="48.37845" lon="2.69919">
        <ele>104.40000152588</ele>
        <time>2022-11-19T13:35:00Z</time>
      </trkpt>
      <trkpt lat="48.37842" lon="2.69916">
        <ele>104</ele>
        <time>2022-11-19T13:35:04Z</time>
      </trkpt>
      <trkpt lat="48.37838" lon="2.69913">
        <ele>103.59999847412</ele>
        <time>2022-11-19T13:35:08Z</time>
      </trkpt>
      <trkpt lat="48.37835" lon="2.6991">
        <ele>103</ele>
        <time>2022-11-19T13:35:12Z</time>
      </trkpt>
      <trkpt lat="48.37833" lon="2.69906">
        <ele>102.59999847412</ele>
        <time>2022-11-19T13:35:16Z</time>
      </trkpt>
      <trkpt lat="48.3783" lon="2.69904">
        <ele>102.19999694824</ele>
        <time>2022-11-19T13:35:20Z</time>
      </trkpt>
      <trkpt lat="48.37828" lon="2.69899">
        <ele>102</ele>
        <time>2022-11-19T13:35:24Z</time>
      </trkpt>
      <trkpt lat="48.37826" lon="2.69897">
        <ele>101.59999847412</ele>
        <time>2022-11-19T13:35:28Z</time>
      </trkpt>
      <trkpt lat="48.37822" lon="2.69893">
        <ele>101.19999694824</ele>
        <time>2022-11-19T13:35:32Z</time>
      </trkpt>
      <trkpt lat="48.37817" lon="2.69889">
        <ele>100.80000305176</ele>
        <time>2022-11-19T13:35:36Z</time>
      </trkpt>
      <trkpt lat="48.37815" lon="2.69885">
        <ele>100</ele>
        <time>2022-11-19T13:35:40Z</time>
      </trkpt>
      <trkpt lat="48.37812" lon="2.69883">
        <ele>99.599998474121</ele>
        <time>2022-11-19T13:35:44Z</time>
      </trkpt>
      <trkpt lat="48.37809" lon="2.69882">
        <ele>99</ele>
        <time>2022-11-19T13:35:48Z</time>
      </trkpt>
      <trkpt lat="48.37807" lon="2.69879">
        <ele>98.599998474121</ele>
        <time>2022-11-19T13:35:52Z</time>
      </trkpt>
      <trkpt lat="48.37806" lon="2.69877">
        <ele>98.400001525879</ele>
        <time>2022-11-19T13:35:56Z</time>
      </trkpt>
      <trkpt lat="48.37804" lon="2.69873">
        <ele>98.199996948242</ele>
        <time>2022-11-19T13:36:00Z</time>
      </trkpt>
      <trkpt lat="48.37802" lon="2.69869">
        <ele>97.599998474121</ele>
        <time>2022-11-19T13:36:04Z</time>
      </trkpt>
      <trkpt lat="48.37801" lon="2.69866">
        <ele>97.199996948242</ele>
        <time>2022-11-19T13:36:08Z</time>
      </trkpt>
      <trkpt lat="48.378" lon="2.69865">
        <ele>96.599998474121</ele>
        <time>2022-11-19T13:36:12Z</time>
      </trkpt>
      <trkpt lat="48.37796" lon="2.69861">
        <ele>96.199996948242</ele>
        <time>2022-11-19T13:36:16Z</time>
      </trkpt>
      <trkpt lat="48.3779" lon="2.69857">
        <ele>96</ele>
        <time>2022-11-19T13:36:20Z</time>
      </trkpt>
      <trkpt lat="48.37786" lon="2.69853">
        <ele>95.599998474121</ele>
        <time>2022-11-19T13:36:24Z</time>
      </trkpt>
      <trkpt lat="48.37781" lon="2.6985">
        <ele>95.400001525879</ele>
        <time>2022-11-19T13:36:28Z</time>
      </trkpt>
      <trkpt lat="48.37778" lon="2.69848">
        <ele>95.199996948242</ele>
        <time>2022-11-19T13:36:32Z</time>
      </trkpt>
      <trkpt lat="48.37777" lon="2.69846">
        <ele>95</ele>
        <time>2022-11-19T13:36:36Z</time>
      </trkpt>
      <trkpt lat="48.37774" lon="2.69843">
        <ele>94.800003051758</ele>
        <time>2022-11-19T13:36:40Z</time>
      </trkpt>
      <trkpt lat="48.3777" lon="2.69837">
        <ele>94.800003051758</ele>
        <time>2022-11-19T13:36:44Z</time>
      </trkpt>
      <trkpt lat="48.37769" lon="2.69835">
        <ele>94.800003051758</ele>
        <time>2022-11-19T13:36:48Z</time>
      </trkpt>
      <trkpt lat="48.37767" lon="2.69833">
        <ele>95</ele>
        <time>2022-11-19T13:36:52Z</time>
      </trkpt>
      <trkpt lat="48.37765" lon="2.69833">
        <ele>95</ele>
        <time>2022-11-19T13:36:56Z</time>
      </trkpt>
      <trkpt lat="48.37763" lon="2.69834">
        <ele>95.199996948242</ele>
        <time>2022-11-19T13:37:00Z</time>
      </trkpt>
      <trkpt lat="48.37761" lon="2.69836">
        <ele>95.199996948242</ele>
        <time>2022-11-19T13:37:04Z</time>
      </trkpt>
      <trkpt lat="48.37757" lon="2.69838">
        <ele>95.400001525879</ele>
        <time>2022-11-19T13:37:08Z</time>
      </trkpt>
      <trkpt lat="48.37755" lon="2.69838">
        <ele>95.599998474121</ele>
        <time>2022-11-19T13:37:12Z</time>
      </trkpt>
      <trkpt lat="48.37753" lon="2.69838">
        <ele>95.800003051758</ele>
        <time>2022-11-19T13:37:16Z</time>
      </trkpt>
      <trkpt lat="48.37751" lon="2.69836">
        <ele>96.199996948242</ele>
        <time>2022-11-19T13:37:20Z</time>
      </trkpt>
      <trkpt lat="48.3775" lon="2.69835">
        <ele>96.400001525879</ele>
        <time>2022-11-19T13:37:24Z</time>
      </trkpt>
      <trkpt lat="48.37748" lon="2.69836">
        <ele>96.800003051758</ele>
        <time>2022-11-19T13:37:28Z</time>
      </trkpt>
      <trkpt lat="48.37747" lon="2.69834">
        <ele>97.199996948242</ele>
        <time>2022-11-19T13:37:32Z</time>
      </trkpt>
      <trkpt lat="48.37743" lon="2.69835">
        <ele>97.599998474121</ele>
        <time>2022-11-19T13:37:36Z</time>
      </trkpt>
      <trkpt lat="48.3774" lon="2.69835">
        <ele>98.199996948242</ele>
        <time>2022-11-19T13:37:40Z</time>
      </trkpt>
      <trkpt lat="48.37736" lon="2.69834">
        <ele>98.599998474121</ele>
        <time>2022-11-19T13:37:44Z</time>
      </trkpt>
      <trkpt lat="48.37734" lon="2.69833">
        <ele>99.400001525879</ele>
        <time>2022-11-19T13:37:48Z</time>
      </trkpt>
      <trkpt lat="48.37731" lon="2.69833">
        <ele>99.800003051758</ele>
        <time>2022-11-19T13:37:52Z</time>
      </trkpt>
      <trkpt lat="48.37728" lon="2.69835">
        <ele>100.19999694824</ele>
        <time>2022-11-19T13:37:56Z</time>
      </trkpt>
      <trkpt lat="48.37725" lon="2.69838">
        <ele>100.80000305176</ele>
        <time>2022-11-19T13:38:00Z</time>
      </trkpt>
      <trkpt lat="48.37723" lon="2.6984">
        <ele>101.19999694824</ele>
        <time>2022-11-19T13:38:04Z</time>
      </trkpt>
      <trkpt lat="48.37722" lon="2.69842">
        <ele>101.59999847412</ele>
        <time>2022-11-19T13:38:08Z</time>
      </trkpt>
      <trkpt lat="48.3772" lon="2.69844">
        <ele>102</ele>
        <time>2022-11-19T13:38:12Z</time>
      </trkpt>
      <trkpt lat="48.37714" lon="2.69849">
        <ele>102.40000152588</ele>
        <time>2022-11-19T13:38:16Z</time>
      </trkpt>
      <trkpt lat="48.37708" lon="2.69854">
        <ele>102.80000305176</ele>
        <time>2022-11-19T13:38:20Z</time>
      </trkpt>
      <trkpt lat="48.37705" lon="2.69856">
        <ele>103.19999694824</ele>
        <time>2022-11-19T13:38:24Z</time>
      </trkpt>
      <trkpt lat="48.37702" lon="2.69857">
        <ele>103.59999847412</ele>
        <time>2022-11-19T13:38:28Z</time>
      </trkpt>
      <trkpt lat="48.37701" lon="2.69857">
        <ele>103.59999847412</ele>
        <time>2022-11-19T13:38:32Z</time>
      </trkpt>
      <trkpt lat="48.37699" lon="2.69859">
        <ele>104</ele>
        <time>2022-11-19T13:38:36Z</time>
      </trkpt>
      <trkpt lat="48.37697" lon="2.69862">
        <ele>104.19999694824</ele>
        <time>2022-11-19T13:38:40Z</time>
      </trkpt>
      <trkpt lat="48.37694" lon="2.69867">
        <ele>104.40000152588</ele>
        <time>2022-11-19T13:38:44Z</time>
      </trkpt>
      <trkpt lat="48.37691" lon="2.69872">
        <ele>104.80000305176</ele>
        <time>2022-11-19T13:38:48Z</time>
      </trkpt>
      <trkpt lat="48.37689" lon="2.69876">
        <ele>105</ele>
        <time>2022-11-19T13:38:52Z</time>
      </trkpt>
      <trkpt lat="48.37688" lon="2.69877">
        <ele>105.40000152588</ele>
        <time>2022-11-19T13:38:56Z</time>
      </trkpt>
      <trkpt lat="48.37688" lon="2.69879">
        <ele>105.40000152588</ele>
        <time>2022-11-19T13:39:00Z</time>
      </trkpt>
      <trkpt lat="48.37685" lon="2.69886">
        <ele>106</ele>
        <time>2022-11-19T13:39:04Z</time>
      </trkpt>
      <trkpt lat="48.37682" lon="2.69892">
        <ele>106.40000152588</ele>
        <time>2022-11-19T13:39:08Z</time>
      </trkpt>
      <trkpt lat="48.37678" lon="2.699">
        <ele>106.80000305176</ele>
        <time>2022-11-19T13:39:12Z</time>
      </trkpt>
      <trkpt lat="48.37676" lon="2.69906">
        <ele>107.19999694824</ele>
        <time>2022-11-19T13:39:16Z</time>
      </trkpt>
      <trkpt lat="48.37677" lon="2.69908">
        <ele>107.59999847412</ele>
        <time>2022-11-19T13:39:20Z</time>
      </trkpt>
      <trkpt lat="48.37676" lon="2.69915">
        <ele>107.80000305176</ele>
        <time>2022-11-19T13:39:24Z</time>
      </trkpt>
      <trkpt lat="48.37675" lon="2.69921">
        <ele>108.40000152588</ele>
        <time>2022-11-19T13:39:28Z</time>
      </trkpt>
      <trkpt lat="48.37674" lon="2.69924">
        <ele>108.80000305176</ele>
        <time>2022-11-19T13:39:32Z</time>
      </trkpt>
      <trkpt lat="48.37672" lon="2.69932">
        <ele>109.40000152588</ele>
        <time>2022-11-19T13:39:36Z</time>
      </trkpt>
      <trkpt lat="48.37671" lon="2.69938">
        <ele>110</ele>
        <time>2022-11-19T13:39:40Z</time>
      </trkpt>
      <trkpt lat="48.37669" lon="2.69945">
        <ele>110.40000152588</ele>
        <time>2022-11-19T13:39:44Z</time>
      </trkpt>
      <trkpt lat="48.37668" lon="2.6995">
        <ele>110.80000305176</ele>
        <time>2022-11-19T13:39:48Z</time>
      </trkpt>
      <trkpt lat="48.37668" lon="2.69955">
        <ele>111.19999694824</ele>
        <time>2022-11-19T13:39:52Z</time>
      </trkpt>
      <trkpt lat="48.37666" lon="2.69961">
        <ele>111.59999847412</ele>
        <time>2022-11-19T13:39:56Z</time>
      </trkpt>
      <trkpt lat="48.37664" lon="2.69967">
        <ele>112</ele>
        <time>2022-11-19T13:40:00Z</time>
      </trkpt>
      <trkpt lat="48.37662" lon="2.69973">
        <ele>112.40000152588</ele>
        <time>2022-11-19T13:40:04Z</time>
      </trkpt>
      <trkpt lat="48.37659" lon="2.69976">
        <ele>112.80000305176</ele>
        <time>2022-11-19T13:40:08Z</time>
      </trkpt>
      <trkpt lat="48.37658" lon="2.69978">
        <ele>112.80000305176</ele>
        <time>2022-11-19T13:40:12Z</time>
      </trkpt>
      <trkpt lat="48.37654" lon="2.6998">
        <ele>112.80000305176</ele>
        <time>2022-11-19T13:40:16Z</time>
      </trkpt>
      <trkpt lat="48.37649" lon="2.69982">
        <ele>113</ele>
        <time>2022-11-19T13:40:20Z</time>
      </trkpt>
      <trkpt lat="48.37646" lon="2.69984">
        <ele>113</ele>
        <time>2022-11-19T13:40:24Z</time>
      </trkpt>
      <trkpt lat="48.37641" lon="2.69987">
        <ele>112.80000305176</ele>
        <time>2022-11-19T13:40:28Z</time>
      </trkpt>
      <trkpt lat="48.37637" lon="2.6999">
        <ele>112.40000152588</ele>
        <time>2022-11-19T13:40:32Z</time>
      </trkpt>
      <trkpt lat="48.37633" lon="2.69994">
        <ele>112.19999694824</ele>
        <time>2022-11-19T13:40:36Z</time>
      </trkpt>
      <trkpt lat="48.37632" lon="2.69991">
        <ele>111.59999847412</ele>
        <time>2022-11-19T13:40:40Z</time>
      </trkpt>
      <trkpt lat="48.37629" lon="2.69986">
        <ele>111.19999694824</ele>
        <time>2022-11-19T13:40:44Z</time>
      </trkpt>
      <trkpt lat="48.37627" lon="2.69982">
        <ele>110.40000152588</ele>
        <time>2022-11-19T13:40:48Z</time>
      </trkpt>
      <trkpt lat="48.37627" lon="2.69977">
        <ele>110</ele>
        <time>2022-11-19T13:40:52Z</time>
      </trkpt>
      <trkpt lat="48.37626" lon="2.69972">
        <ele>109.19999694824</ele>
        <time>2022-11-19T13:40:56Z</time>
      </trkpt>
      <trkpt lat="48.37623" lon="2.69967">
        <ele>108.59999847412</ele>
        <time>2022-11-19T13:41:00Z</time>
      </trkpt>
      <trkpt lat="48.37619" lon="2.69964">
        <ele>108.40000152588</ele>
        <time>2022-11-19T13:41:04Z</time>
      </trkpt>
      <trkpt lat="48.37615" lon="2.69962">
        <ele>107.80000305176</ele>
        <time>2022-11-19T13:41:08Z</time>
      </trkpt>
      <trkpt lat="48.37612" lon="2.69962">
        <ele>107.80000305176</ele>
        <time>2022-11-19T13:41:12Z</time>
      </trkpt>
      <trkpt lat="48.37608" lon="2.69963">
        <ele>107.80000305176</ele>
        <time>2022-11-19T13:41:16Z</time>
      </trkpt>
      <trkpt lat="48.37606" lon="2.69967">
        <ele>107.80000305176</ele>
        <time>2022-11-19T13:41:20Z</time>
      </trkpt>
      <trkpt lat="48.37604" lon="2.6997">
        <ele>107.80000305176</ele>
        <time>2022-11-19T13:41:24Z</time>
      </trkpt>
      <trkpt lat="48.37601" lon="2.69975">
        <ele>108</ele>
        <time>2022-11-19T13:41:28Z</time>
      </trkpt>
      <trkpt lat="48.37598" lon="2.69978">
        <ele>107.80000305176</ele>
        <time>2022-11-19T13:41:32Z</time>
      </trkpt>
      <trkpt lat="48.37597" lon="2.69983">
        <ele>107.59999847412</ele>
        <time>2022-11-19T13:41:36Z</time>
      </trkpt>
      <trkpt lat="48.37594" lon="2.69988">
        <ele>107.40000152588</ele>
        <time>2022-11-19T13:41:40Z</time>
      </trkpt>
      <trkpt lat="48.37594" lon="2.69989">
        <ele>107.19999694824</ele>
        <time>2022-11-19T13:41:44Z</time>
      </trkpt>
      <trkpt lat="48.37592" lon="2.6999">
        <ele>107.19999694824</ele>
        <time>2022-11-19T13:41:48Z</time>
      </trkpt>
      <trkpt lat="48.37592" lon="2.69992">
        <ele>107.19999694824</ele>
        <time>2022-11-19T13:41:52Z</time>
      </trkpt>
      <trkpt lat="48.37591" lon="2.69995">
        <ele>107.19999694824</ele>
        <time>2022-11-19T13:41:56Z</time>
      </trkpt>
      <trkpt lat="48.3759" lon="2.69995">
        <ele>107</ele>
        <time>2022-11-19T13:42:00Z</time>
      </trkpt>
      <trkpt lat="48.3759" lon="2.69996">
        <ele>106.80000305176</ele>
        <time>2022-11-19T13:42:04Z</time>
      </trkpt>
      <trkpt lat="48.3759" lon="2.69997">
        <ele>106.80000305176</ele>
        <time>2022-11-19T13:42:08Z</time>
      </trkpt>
      <trkpt lat="48.37587" lon="2.69999">
        <ele>107</ele>
        <time>2022-11-19T13:42:12Z</time>
      </trkpt>
      <trkpt lat="48.37582" lon="2.70002">
        <ele>106.40000152588</ele>
        <time>2022-11-19T13:42:16Z</time>
      </trkpt>
      <trkpt lat="48.37579" lon="2.70005">
        <ele>105.80000305176</ele>
        <time>2022-11-19T13:42:20Z</time>
      </trkpt>
      <trkpt lat="48.37574" lon="2.70006">
        <ele>105.40000152588</ele>
        <time>2022-11-19T13:42:24Z</time>
      </trkpt>
      <trkpt lat="48.37571" lon="2.70007">
        <ele>105.19999694824</ele>
        <time>2022-11-19T13:42:28Z</time>
      </trkpt>
      <trkpt lat="48.37568" lon="2.70008">
        <ele>105</ele>
        <time>2022-11-19T13:42:32Z</time>
      </trkpt>
      <trkpt lat="48.37566" lon="2.70008">
        <ele>105</ele>
        <time>2022-11-19T13:42:36Z</time>
      </trkpt>
      <trkpt lat="48.37562" lon="2.7001">
        <ele>104.59999847412</ele>
        <time>2022-11-19T13:42:40Z</time>
      </trkpt>
      <trkpt lat="48.37558" lon="2.70012">
        <ele>104.40000152588</ele>
        <time>2022-11-19T13:42:44Z</time>
      </trkpt>
      <trkpt lat="48.37556" lon="2.70014">
        <ele>104</ele>
        <time>2022-11-19T13:42:48Z</time>
      </trkpt>
      <trkpt lat="48.37553" lon="2.70014">
        <ele>103.80000305176</ele>
        <time>2022-11-19T13:42:52Z</time>
      </trkpt>
      <trkpt lat="48.3755" lon="2.70014">
        <ele>103.40000152588</ele>
        <time>2022-11-19T13:42:56Z</time>
      </trkpt>
      <trkpt lat="48.37547" lon="2.70014">
        <ele>103.19999694824</ele>
        <time>2022-11-19T13:43:00Z</time>
      </trkpt>
      <trkpt lat="48.37543" lon="2.70015">
        <ele>102.80000305176</ele>
        <time>2022-11-19T13:43:04Z</time>
      </trkpt>
      <trkpt lat="48.37538" lon="2.70017">
        <ele>102.40000152588</ele>
        <time>2022-11-19T13:43:08Z</time>
      </trkpt>
      <trkpt lat="48.37536" lon="2.70015">
        <ele>102</ele>
        <time>2022-11-19T13:43:12Z</time>
      </trkpt>
      <trkpt lat="48.37535" lon="2.70012">
        <ele>101.59999847412</ele>
        <time>2022-11-19T13:43:16Z</time>
      </trkpt>
      <trkpt lat="48.37534" lon="2.7001">
        <ele>101.19999694824</ele>
        <time>2022-11-19T13:43:20Z</time>
      </trkpt>
      <trkpt lat="48.37534" lon="2.70004">
        <ele>101</ele>
        <time>2022-11-19T13:43:24Z</time>
      </trkpt>
      <trkpt lat="48.37535" lon="2.69998">
        <ele>100.59999847412</ele>
        <time>2022-11-19T13:43:28Z</time>
      </trkpt>
      <trkpt lat="48.37535" lon="2.69995">
        <ele>100.40000152588</ele>
        <time>2022-11-19T13:43:32Z</time>
      </trkpt>
      <trkpt lat="48.37535" lon="2.69992">
        <ele>100.19999694824</ele>
        <time>2022-11-19T13:43:36Z</time>
      </trkpt>
      <trkpt lat="48.37528" lon="2.69989">
        <ele>100.19999694824</ele>
        <time>2022-11-19T13:43:40Z</time>
      </trkpt>
      <trkpt lat="48.37519" lon="2.69987">
        <ele>100</ele>
        <time>2022-11-19T13:43:44Z</time>
      </trkpt>
      <trkpt lat="48.37513" lon="2.69987">
        <ele>100.19999694824</ele>
        <time>2022-11-19T13:43:48Z</time>
      </trkpt>
      <trkpt lat="48.37509" lon="2.69988">
        <ele>100.40000152588</ele>
        <time>2022-11-19T13:43:52Z</time>
      </trkpt>
      <trkpt lat="48.37508" lon="2.69988">
        <ele>100.59999847412</ele>
        <time>2022-11-19T13:43:56Z</time>
      </trkpt>
      <trkpt lat="48.37507" lon="2.69987">
        <ele>100.80000305176</ele>
        <time>2022-11-19T13:44:00Z</time>
      </trkpt>
      <trkpt lat="48.37507" lon="2.69986">
        <ele>100.80000305176</ele>
        <time>2022-11-19T13:44:04Z</time>
      </trkpt>
      <trkpt lat="48.37507" lon="2.69985">
        <ele>100.80000305176</ele>
        <time>2022-11-19T13:44:08Z</time>
      </trkpt>
      <trkpt lat="48.37507" lon="2.69985">
        <ele>100.59999847412</ele>
        <time>2022-11-19T13:44:12Z</time>
      </trkpt>
      <trkpt lat="48.37506" lon="2.69986">
        <ele>100.59999847412</ele>
        <time>2022-11-19T13:44:16Z</time>
      </trkpt>
      <trkpt lat="48.37505" lon="2.69987">
        <ele>100.80000305176</ele>
        <time>2022-11-19T13:44:20Z</time>
      </trkpt>
      <trkpt lat="48.37503" lon="2.69988">
        <ele>100.59999847412</ele>
        <time>2022-11-19T13:44:24Z</time>
      </trkpt>
      <trkpt lat="48.37503" lon="2.69989">
        <ele>100.59999847412</ele>
        <time>2022-11-19T13:44:28Z</time>
      </trkpt>
      <trkpt lat="48.37502" lon="2.69989">
        <ele>100.59999847412</ele>
        <time>2022-11-19T13:44:32Z</time>
      </trkpt>
      <trkpt lat="48.37502" lon="2.69992">
        <ele>100.59999847412</ele>
        <time>2022-11-19T13:44:36Z</time>
      </trkpt>
      <trkpt lat="48.37502" lon="2.6999">
        <ele>100.59999847412</ele>
        <time>2022-11-19T13:44:40Z</time>
      </trkpt>
      <trkpt lat="48.37502" lon="2.6999">
        <ele>100.59999847412</ele>
        <time>2022-11-19T13:44:44Z</time>
      </trkpt>
      <trkpt lat="48.37504" lon="2.69989">
        <ele>100.59999847412</ele>
        <time>2022-11-19T13:44:48Z</time>
      </trkpt>
      <trkpt lat="48.37504" lon="2.69989">
        <ele>100.59999847412</ele>
        <time>2022-11-19T13:44:52Z</time>
      </trkpt>
      <trkpt lat="48.37505" lon="2.69989">
        <ele>100.59999847412</ele>
        <time>2022-11-19T13:44:56Z</time>
      </trkpt>
      <trkpt lat="48.37508" lon="2.69984">
        <ele>100.59999847412</ele>
        <time>2022-11-19T13:45:00Z</time>
      </trkpt>
      <trkpt lat="48.3751" lon="2.69978">
        <ele>100.59999847412</ele>
        <time>2022-11-19T13:45:04Z</time>
      </trkpt>
      <trkpt lat="48.37511" lon="2.69975">
        <ele>100</ele>
        <time>2022-11-19T13:45:08Z</time>
      </trkpt>
      <trkpt lat="48.37515" lon="2.69967">
        <ele>99.400001525879</ele>
        <time>2022-11-19T13:45:12Z</time>
      </trkpt>
      <trkpt lat="48.37517" lon="2.69959">
        <ele>99.199996948242</ele>
        <time>2022-11-19T13:45:16Z</time>
      </trkpt>
      <trkpt lat="48.37516" lon="2.69955">
        <ele>99.199996948242</ele>
        <time>2022-11-19T13:45:20Z</time>
      </trkpt>
      <trkpt lat="48.37516" lon="2.69951">
        <ele>99</ele>
        <time>2022-11-19T13:45:24Z</time>
      </trkpt>
      <trkpt lat="48.37516" lon="2.69939">
        <ele>99</ele>
        <time>2022-11-19T13:45:28Z</time>
      </trkpt>
      <trkpt lat="48.37516" lon="2.69934">
        <ele>98.800003051758</ele>
        <time>2022-11-19T13:45:32Z</time>
      </trkpt>
      <trkpt lat="48.37518" lon="2.69931">
        <ele>98.599998474121</ele>
        <time>2022-11-19T13:45:36Z</time>
      </trkpt>
      <trkpt lat="48.37519" lon="2.69926">
        <ele>98.400001525879</ele>
        <time>2022-11-19T13:45:40Z</time>
      </trkpt>
      <trkpt lat="48.37521" lon="2.69923">
        <ele>98.400001525879</ele>
        <time>2022-11-19T13:45:44Z</time>
      </trkpt>
      <trkpt lat="48.37522" lon="2.69918">
        <ele>98.400001525879</ele>
        <time>2022-11-19T13:45:48Z</time>
      </trkpt>
      <trkpt lat="48.37522" lon="2.69909">
        <ele>98</ele>
        <time>2022-11-19T13:45:52Z</time>
      </trkpt>
      <trkpt lat="48.37525" lon="2.699">
        <ele>98</ele>
        <time>2022-11-19T13:45:56Z</time>
      </trkpt>
      <trkpt lat="48.37525" lon="2.69892">
        <ele>97.800003051758</ele>
        <time>2022-11-19T13:46:00Z</time>
      </trkpt>
      <trkpt lat="48.37526" lon="2.69882">
        <ele>97.599998474121</ele>
        <time>2022-11-19T13:46:04Z</time>
      </trkpt>
      <trkpt lat="48.37526" lon="2.69872">
        <ele>97.599998474121</ele>
        <time>2022-11-19T13:46:08Z</time>
      </trkpt>
      <trkpt lat="48.37527" lon="2.69864">
        <ele>97.400001525879</ele>
        <time>2022-11-19T13:46:12Z</time>
      </trkpt>
      <trkpt lat="48.37527" lon="2.69856">
        <ele>97.400001525879</ele>
        <time>2022-11-19T13:46:16Z</time>
      </trkpt>
      <trkpt lat="48.37527" lon="2.69847">
        <ele>97.400001525879</ele>
        <time>2022-11-19T13:46:20Z</time>
      </trkpt>
      <trkpt lat="48.37528" lon="2.69839">
        <ele>97.199996948242</ele>
        <time>2022-11-19T13:46:24Z</time>
      </trkpt>
      <trkpt lat="48.37528" lon="2.6983">
        <ele>97</ele>
        <time>2022-11-19T13:46:28Z</time>
      </trkpt>
      <trkpt lat="48.37527" lon="2.69823">
        <ele>97</ele>
        <time>2022-11-19T13:46:32Z</time>
      </trkpt>
      <trkpt lat="48.37526" lon="2.6982">
        <ele>96.800003051758</ele>
        <time>2022-11-19T13:46:36Z</time>
      </trkpt>
      <trkpt lat="48.37525" lon="2.69817">
        <ele>96.599998474121</ele>
        <time>2022-11-19T13:46:40Z</time>
      </trkpt>
      <trkpt lat="48.37527" lon="2.69812">
        <ele>96.599998474121</ele>
        <time>2022-11-19T13:46:44Z</time>
      </trkpt>
      <trkpt lat="48.37528" lon="2.69806">
        <ele>96.599998474121</ele>
        <time>2022-11-19T13:46:48Z</time>
      </trkpt>
      <trkpt lat="48.37526" lon="2.698">
        <ele>96.400001525879</ele>
        <time>2022-11-19T13:46:52Z</time>
      </trkpt>
      <trkpt lat="48.37528" lon="2.69794">
        <ele>96.400001525879</ele>
        <time>2022-11-19T13:46:56Z</time>
      </trkpt>
      <trkpt lat="48.37527" lon="2.6979">
        <ele>96.400001525879</ele>
        <time>2022-11-19T13:47:00Z</time>
      </trkpt>
      <trkpt lat="48.37527" lon="2.69785">
        <ele>96.199996948242</ele>
        <time>2022-11-19T13:47:04Z</time>
      </trkpt>
      <trkpt lat="48.37527" lon="2.6978">
        <ele>96</ele>
        <time>2022-11-19T13:47:08Z</time>
      </trkpt>
      <trkpt lat="48.37524" lon="2.69774">
        <ele>96</ele>
        <time>2022-11-19T13:47:12Z</time>
      </trkpt>
      <trkpt lat="48.37523" lon="2.69771">
        <ele>96</ele>
        <time>2022-11-19T13:47:16Z</time>
      </trkpt>
      <trkpt lat="48.37523" lon="2.69765">
        <ele>95.800003051758</ele>
        <time>2022-11-19T13:47:20Z</time>
      </trkpt>
      <trkpt lat="48.37523" lon="2.69757">
        <ele>95.800003051758</ele>
        <time>2022-11-19T13:47:24Z</time>
      </trkpt>
      <trkpt lat="48.37525" lon="2.6975">
        <ele>95.599998474121</ele>
        <time>2022-11-19T13:47:28Z</time>
      </trkpt>
      <trkpt lat="48.37526" lon="2.69739">
        <ele>95.599998474121</ele>
        <time>2022-11-19T13:47:32Z</time>
      </trkpt>
      <trkpt lat="48.37528" lon="2.69731">
        <ele>95.400001525879</ele>
        <time>2022-11-19T13:47:36Z</time>
      </trkpt>
      <trkpt lat="48.3753" lon="2.69722">
        <ele>95.199996948242</ele>
        <time>2022-11-19T13:47:40Z</time>
      </trkpt>
      <trkpt lat="48.37531" lon="2.69714">
        <ele>95</ele>
        <time>2022-11-19T13:47:44Z</time>
      </trkpt>
      <trkpt lat="48.37531" lon="2.6971">
        <ele>95</ele>
        <time>2022-11-19T13:47:48Z</time>
      </trkpt>
      <trkpt lat="48.37531" lon="2.69706">
        <ele>95</ele>
        <time>2022-11-19T13:47:52Z</time>
      </trkpt>
      <trkpt lat="48.37531" lon="2.69703">
        <ele>94.800003051758</ele>
        <time>2022-11-19T13:47:56Z</time>
      </trkpt>
      <trkpt lat="48.37528" lon="2.69698">
        <ele>94.599998474121</ele>
        <time>2022-11-19T13:48:00Z</time>
      </trkpt>
      <trkpt lat="48.37528" lon="2.69692">
        <ele>94.599998474121</ele>
        <time>2022-11-19T13:48:04Z</time>
      </trkpt>
      <trkpt lat="48.37528" lon="2.69689">
        <ele>94.599998474121</ele>
        <time>2022-11-19T13:48:08Z</time>
      </trkpt>
      <trkpt lat="48.37529" lon="2.69686">
        <ele>94.599998474121</ele>
        <time>2022-11-19T13:48:12Z</time>
      </trkpt>
      <trkpt lat="48.37527" lon="2.69681">
        <ele>94.599998474121</ele>
        <time>2022-11-19T13:48:16Z</time>
      </trkpt>
      <trkpt lat="48.37528" lon="2.69678">
        <ele>94.599998474121</ele>
        <time>2022-11-19T13:48:20Z</time>
      </trkpt>
      <trkpt lat="48.37527" lon="2.69676">
        <ele>94.800003051758</ele>
        <time>2022-11-19T13:48:24Z</time>
      </trkpt>
      <trkpt lat="48.37527" lon="2.69675">
        <ele>94.599998474121</ele>
        <time>2022-11-19T13:48:28Z</time>
      </trkpt>
      <trkpt lat="48.37526" lon="2.69672">
        <ele>94.599998474121</ele>
        <time>2022-11-19T13:48:32Z</time>
      </trkpt>
      <trkpt lat="48.37526" lon="2.69668">
        <ele>94.599998474121</ele>
        <time>2022-11-19T13:48:36Z</time>
      </trkpt>
      <trkpt lat="48.37524" lon="2.69665">
        <ele>94.599998474121</ele>
        <time>2022-11-19T13:48:40Z</time>
      </trkpt>
      <trkpt lat="48.37523" lon="2.69662">
        <ele>94.599998474121</ele>
        <time>2022-11-19T13:48:44Z</time>
      </trkpt>
      <trkpt lat="48.37522" lon="2.69658">
        <ele>94.800003051758</ele>
        <time>2022-11-19T13:48:48Z</time>
      </trkpt>
      <trkpt lat="48.37522" lon="2.6965">
        <ele>95.199996948242</ele>
        <time>2022-11-19T13:48:52Z</time>
      </trkpt>
      <trkpt lat="48.37519" lon="2.69645">
        <ele>95.400001525879</ele>
        <time>2022-11-19T13:48:56Z</time>
      </trkpt>
      <trkpt lat="48.37518" lon="2.69642">
        <ele>96</ele>
        <time>2022-11-19T13:49:00Z</time>
      </trkpt>
      <trkpt lat="48.37517" lon="2.69639">
        <ele>96.199996948242</ele>
        <time>2022-11-19T13:49:04Z</time>
      </trkpt>
      <trkpt lat="48.37517" lon="2.69636">
        <ele>96.199996948242</ele>
        <time>2022-11-19T13:49:08Z</time>
      </trkpt>
      <trkpt lat="48.37518" lon="2.6963">
        <ele>96.199996948242</ele>
        <time>2022-11-19T13:49:12Z</time>
      </trkpt>
      <trkpt lat="48.37513" lon="2.69618">
        <ele>96.599998474121</ele>
        <time>2022-11-19T13:49:16Z</time>
      </trkpt>
      <trkpt lat="48.37512" lon="2.69604">
        <ele>97.199996948242</ele>
        <time>2022-11-19T13:49:20Z</time>
      </trkpt>
      <trkpt lat="48.37512" lon="2.69596">
        <ele>97.599998474121</ele>
        <time>2022-11-19T13:49:24Z</time>
      </trkpt>
      <trkpt lat="48.37507" lon="2.69593">
        <ele>98</ele>
        <time>2022-11-19T13:49:28Z</time>
      </trkpt>
      <trkpt lat="48.37505" lon="2.69592">
        <ele>98.400001525879</ele>
        <time>2022-11-19T13:49:32Z</time>
      </trkpt>
      <trkpt lat="48.37504" lon="2.69591">
        <ele>98.800003051758</ele>
        <time>2022-11-19T13:49:36Z</time>
      </trkpt>
      <trkpt lat="48.37503" lon="2.69588">
        <ele>99.199996948242</ele>
        <time>2022-11-19T13:49:40Z</time>
      </trkpt>
      <trkpt lat="48.37501" lon="2.69588">
        <ele>99.800003051758</ele>
        <time>2022-11-19T13:49:44Z</time>
      </trkpt>
      <trkpt lat="48.37502" lon="2.69586">
        <ele>100</ele>
        <time>2022-11-19T13:49:48Z</time>
      </trkpt>
      <trkpt lat="48.37504" lon="2.69579">
        <ele>100.59999847412</ele>
        <time>2022-11-19T13:49:52Z</time>
      </trkpt>
      <trkpt lat="48.37501" lon="2.6957">
        <ele>101</ele>
        <time>2022-11-19T13:49:56Z</time>
      </trkpt>
      <trkpt lat="48.37497" lon="2.6956">
        <ele>101.59999847412</ele>
        <time>2022-11-19T13:50:00Z</time>
      </trkpt>
      <trkpt lat="48.37493" lon="2.69553">
        <ele>102</ele>
        <time>2022-11-19T13:50:04Z</time>
      </trkpt>
      <trkpt lat="48.3749" lon="2.69549">
        <ele>102.19999694824</ele>
        <time>2022-11-19T13:50:08Z</time>
      </trkpt>
      <trkpt lat="48.37488" lon="2.69546">
        <ele>102.40000152588</ele>
        <time>2022-11-19T13:50:12Z</time>
      </trkpt>
      <trkpt lat="48.37484" lon="2.69541">
        <ele>102.59999847412</ele>
        <time>2022-11-19T13:50:16Z</time>
      </trkpt>
      <trkpt lat="48.3748" lon="2.69537">
        <ele>102.59999847412</ele>
        <time>2022-11-19T13:50:20Z</time>
      </trkpt>
      <trkpt lat="48.37478" lon="2.69531">
        <ele>103</ele>
        <time>2022-11-19T13:50:24Z</time>
      </trkpt>
      <trkpt lat="48.37474" lon="2.69528">
        <ele>103.19999694824</ele>
        <time>2022-11-19T13:50:28Z</time>
      </trkpt>
      <trkpt lat="48.37471" lon="2.69521">
        <ele>103.59999847412</ele>
        <time>2022-11-19T13:50:32Z</time>
      </trkpt>
      <trkpt lat="48.37468" lon="2.69518">
        <ele>104</ele>
        <time>2022-11-19T13:50:36Z</time>
      </trkpt>
      <trkpt lat="48.37468" lon="2.69517">
        <ele>104.19999694824</ele>
        <time>2022-11-19T13:50:40Z</time>
      </trkpt>
      <trkpt lat="48.37467" lon="2.69517">
        <ele>104.40000152588</ele>
        <time>2022-11-19T13:50:44Z</time>
      </trkpt>
      <trkpt lat="48.37464" lon="2.69514">
        <ele>104.80000305176</ele>
        <time>2022-11-19T13:50:48Z</time>
      </trkpt>
      <trkpt lat="48.37464" lon="2.69507">
        <ele>105.19999694824</ele>
        <time>2022-11-19T13:50:52Z</time>
      </trkpt>
      <trkpt lat="48.3746" lon="2.69501">
        <ele>105.40000152588</ele>
        <time>2022-11-19T13:50:56Z</time>
      </trkpt>
      <trkpt lat="48.37446" lon="2.6951">
        <ele>105.80000305176</ele>
        <time>2022-11-19T13:51:00Z</time>
      </trkpt>
      <trkpt lat="48.37442" lon="2.69507">
        <ele>105.80000305176</ele>
        <time>2022-11-19T13:51:04Z</time>
      </trkpt>
      <trkpt lat="48.37433" lon="2.69512">
        <ele>106.19999694824</ele>
        <time>2022-11-19T13:51:08Z</time>
      </trkpt>
      <trkpt lat="48.37428" lon="2.69514">
        <ele>106.59999847412</ele>
        <time>2022-11-19T13:51:12Z</time>
      </trkpt>
      <trkpt lat="48.37424" lon="2.69513">
        <ele>106.80000305176</ele>
        <time>2022-11-19T13:51:16Z</time>
      </trkpt>
      <trkpt lat="48.37424" lon="2.69513">
        <ele>106.80000305176</ele>
        <time>2022-11-19T13:51:20Z</time>
      </trkpt>
      <trkpt lat="48.37425" lon="2.69511">
        <ele>106.59999847412</ele>
        <time>2022-11-19T13:51:24Z</time>
      </trkpt>
      <trkpt lat="48.37424" lon="2.6951">
        <ele>106.40000152588</ele>
        <time>2022-11-19T13:51:28Z</time>
      </trkpt>
      <trkpt lat="48.37424" lon="2.69511">
        <ele>106.80000305176</ele>
        <time>2022-11-19T13:51:32Z</time>
      </trkpt>
      <trkpt lat="48.37424" lon="2.69516">
        <ele>106.80000305176</ele>
        <time>2022-11-19T13:51:36Z</time>
      </trkpt>
      <trkpt lat="48.37429" lon="2.69522">
        <ele>106.59999847412</ele>
        <time>2022-11-19T13:51:40Z</time>
      </trkpt>
      <trkpt lat="48.37436" lon="2.69521">
        <ele>106.80000305176</ele>
        <time>2022-11-19T13:51:44Z</time>
      </trkpt>
      <trkpt lat="48.37438" lon="2.69521">
        <ele>106.80000305176</ele>
        <time>2022-11-19T13:51:48Z</time>
      </trkpt>
      <trkpt lat="48.37436" lon="2.69522">
        <ele>106.80000305176</ele>
        <time>2022-11-19T13:51:52Z</time>
      </trkpt>
      <trkpt lat="48.37435" lon="2.69521">
        <ele>106.80000305176</ele>
        <time>2022-11-19T13:51:56Z</time>
      </trkpt>
      <trkpt lat="48.37432" lon="2.6952">
        <ele>106.80000305176</ele>
        <time>2022-11-19T13:52:00Z</time>
      </trkpt>
      <trkpt lat="48.37425" lon="2.6952">
        <ele>107</ele>
        <time>2022-11-19T13:52:04Z</time>
      </trkpt>
      <trkpt lat="48.37411" lon="2.69525">
        <ele>107.19999694824</ele>
        <time>2022-11-19T13:52:08Z</time>
      </trkpt>
      <trkpt lat="48.37402" lon="2.69518">
        <ele>107.40000152588</ele>
        <time>2022-11-19T13:52:12Z</time>
      </trkpt>
      <trkpt lat="48.37397" lon="2.69518">
        <ele>107.80000305176</ele>
        <time>2022-11-19T13:52:16Z</time>
      </trkpt>
      <trkpt lat="48.37393" lon="2.69518">
        <ele>108.19999694824</ele>
        <time>2022-11-19T13:52:20Z</time>
      </trkpt>
      <trkpt lat="48.37388" lon="2.69516">
        <ele>108.40000152588</ele>
        <time>2022-11-19T13:52:24Z</time>
      </trkpt>
      <trkpt lat="48.37381" lon="2.69515">
        <ele>108.40000152588</ele>
        <time>2022-11-19T13:52:28Z</time>
      </trkpt>
      <trkpt lat="48.37377" lon="2.69515">
        <ele>108.40000152588</ele>
        <time>2022-11-19T13:52:32Z</time>
      </trkpt>
      <trkpt lat="48.37374" lon="2.69515">
        <ele>108.80000305176</ele>
        <time>2022-11-19T13:52:36Z</time>
      </trkpt>
      <trkpt lat="48.3737" lon="2.69516">
        <ele>109</ele>
        <time>2022-11-19T13:52:40Z</time>
      </trkpt>
      <trkpt lat="48.37364" lon="2.69513">
        <ele>109.19999694824</ele>
        <time>2022-11-19T13:52:44Z</time>
      </trkpt>
      <trkpt lat="48.3736" lon="2.69513">
        <ele>109.40000152588</ele>
        <time>2022-11-19T13:52:48Z</time>
      </trkpt>
      <trkpt lat="48.37357" lon="2.69513">
        <ele>110</ele>
        <time>2022-11-19T13:52:52Z</time>
      </trkpt>
      <trkpt lat="48.37356" lon="2.69512">
        <ele>110.19999694824</ele>
        <time>2022-11-19T13:52:56Z</time>
      </trkpt>
      <trkpt lat="48.37351" lon="2.69513">
        <ele>110.40000152588</ele>
        <time>2022-11-19T13:53:00Z</time>
      </trkpt>
      <trkpt lat="48.37346" lon="2.69515">
        <ele>110.59999847412</ele>
        <time>2022-11-19T13:53:04Z</time>
      </trkpt>
      <trkpt lat="48.37341" lon="2.69515">
        <ele>110.80000305176</ele>
        <time>2022-11-19T13:53:08Z</time>
      </trkpt>
      <trkpt lat="48.37335" lon="2.69516">
        <ele>111</ele>
        <time>2022-11-19T13:53:12Z</time>
      </trkpt>
      <trkpt lat="48.37329" lon="2.69515">
        <ele>111</ele>
        <time>2022-11-19T13:53:16Z</time>
      </trkpt>
      <trkpt lat="48.37323" lon="2.69516">
        <ele>111.19999694824</ele>
        <time>2022-11-19T13:53:20Z</time>
      </trkpt>
      <trkpt lat="48.37319" lon="2.69516">
        <ele>111.19999694824</ele>
        <time>2022-11-19T13:53:24Z</time>
      </trkpt>
      <trkpt lat="48.37314" lon="2.69515">
        <ele>111.40000152588</ele>
        <time>2022-11-19T13:53:28Z</time>
      </trkpt>
      <trkpt lat="48.37309" lon="2.69515">
        <ele>111.40000152588</ele>
        <time>2022-11-19T13:53:32Z</time>
      </trkpt>
      <trkpt lat="48.37307" lon="2.69513">
        <ele>111.40000152588</ele>
        <time>2022-11-19T13:53:36Z</time>
      </trkpt>
      <trkpt lat="48.37303" lon="2.69512">
        <ele>111.40000152588</ele>
        <time>2022-11-19T13:53:40Z</time>
      </trkpt>
      <trkpt lat="48.37299" lon="2.69511">
        <ele>111.40000152588</ele>
        <time>2022-11-19T13:53:44Z</time>
      </trkpt>
      <trkpt lat="48.37296" lon="2.69508">
        <ele>111.40000152588</ele>
        <time>2022-11-19T13:53:48Z</time>
      </trkpt>
      <trkpt lat="48.37294" lon="2.69508">
        <ele>111.40000152588</ele>
        <time>2022-11-19T13:53:52Z</time>
      </trkpt>
      <trkpt lat="48.37294" lon="2.69505">
        <ele>111.40000152588</ele>
        <time>2022-11-19T13:53:56Z</time>
      </trkpt>
      <trkpt lat="48.3729" lon="2.69504">
        <ele>111.40000152588</ele>
        <time>2022-11-19T13:54:00Z</time>
      </trkpt>
      <trkpt lat="48.37285" lon="2.69501">
        <ele>111.59999847412</ele>
        <time>2022-11-19T13:54:04Z</time>
      </trkpt>
      <trkpt lat="48.37282" lon="2.69494">
        <ele>111.59999847412</ele>
        <time>2022-11-19T13:54:08Z</time>
      </trkpt>
      <trkpt lat="48.37278" lon="2.69491">
        <ele>111.59999847412</ele>
        <time>2022-11-19T13:54:12Z</time>
      </trkpt>
      <trkpt lat="48.37275" lon="2.6949">
        <ele>111.80000305176</ele>
        <time>2022-11-19T13:54:16Z</time>
      </trkpt>
      <trkpt lat="48.37273" lon="2.69487">
        <ele>111.80000305176</ele>
        <time>2022-11-19T13:54:20Z</time>
      </trkpt>
      <trkpt lat="48.37269" lon="2.69483">
        <ele>111.80000305176</ele>
        <time>2022-11-19T13:54:24Z</time>
      </trkpt>
      <trkpt lat="48.37266" lon="2.69481">
        <ele>111.80000305176</ele>
        <time>2022-11-19T13:54:28Z</time>
      </trkpt>
      <trkpt lat="48.37261" lon="2.69479">
        <ele>112</ele>
        <time>2022-11-19T13:54:32Z</time>
      </trkpt>
      <trkpt lat="48.37256" lon="2.69479">
        <ele>112.19999694824</ele>
        <time>2022-11-19T13:54:36Z</time>
      </trkpt>
      <trkpt lat="48.37251" lon="2.69477">
        <ele>112.40000152588</ele>
        <time>2022-11-19T13:54:40Z</time>
      </trkpt>
      <trkpt lat="48.37247" lon="2.69475">
        <ele>112.59999847412</ele>
        <time>2022-11-19T13:54:44Z</time>
      </trkpt>
      <trkpt lat="48.37243" lon="2.69473">
        <ele>112.59999847412</ele>
        <time>2022-11-19T13:54:48Z</time>
      </trkpt>
      <trkpt lat="48.3724" lon="2.69472">
        <ele>112.80000305176</ele>
        <time>2022-11-19T13:54:52Z</time>
      </trkpt>
      <trkpt lat="48.37236" lon="2.69469">
        <ele>112.80000305176</ele>
        <time>2022-11-19T13:54:56Z</time>
      </trkpt>
      <trkpt lat="48.37232" lon="2.69467">
        <ele>113</ele>
        <time>2022-11-19T13:55:00Z</time>
      </trkpt>
      <trkpt lat="48.37226" lon="2.69465">
        <ele>113</ele>
        <time>2022-11-19T13:55:04Z</time>
      </trkpt>
      <trkpt lat="48.37221" lon="2.69464">
        <ele>113.19999694824</ele>
        <time>2022-11-19T13:55:08Z</time>
      </trkpt>
      <trkpt lat="48.37217" lon="2.69461">
        <ele>113.59999847412</ele>
        <time>2022-11-19T13:55:12Z</time>
      </trkpt>
      <trkpt lat="48.37213" lon="2.69459">
        <ele>113.80000305176</ele>
        <time>2022-11-19T13:55:16Z</time>
      </trkpt>
      <trkpt lat="48.37209" lon="2.69457">
        <ele>113.80000305176</ele>
        <time>2022-11-19T13:55:20Z</time>
      </trkpt>
      <trkpt lat="48.37205" lon="2.69454">
        <ele>114</ele>
        <time>2022-11-19T13:55:24Z</time>
      </trkpt>
      <trkpt lat="48.37203" lon="2.6945">
        <ele>114</ele>
        <time>2022-11-19T13:55:28Z</time>
      </trkpt>
      <trkpt lat="48.372" lon="2.69447">
        <ele>113.80000305176</ele>
        <time>2022-11-19T13:55:32Z</time>
      </trkpt>
      <trkpt lat="48.37197" lon="2.69443">
        <ele>113.80000305176</ele>
        <time>2022-11-19T13:55:36Z</time>
      </trkpt>
      <trkpt lat="48.37195" lon="2.69437">
        <ele>114</ele>
        <time>2022-11-19T13:55:40Z</time>
      </trkpt>
      <trkpt lat="48.37195" lon="2.69431">
        <ele>114</ele>
        <time>2022-11-19T13:55:44Z</time>
      </trkpt>
      <trkpt lat="48.37193" lon="2.69429">
        <ele>114</ele>
        <time>2022-11-19T13:55:48Z</time>
      </trkpt>
      <trkpt lat="48.37191" lon="2.69425">
        <ele>114</ele>
        <time>2022-11-19T13:55:52Z</time>
      </trkpt>
      <trkpt lat="48.37187" lon="2.69424">
        <ele>114</ele>
        <time>2022-11-19T13:55:56Z</time>
      </trkpt>
      <trkpt lat="48.37178" lon="2.69423">
        <ele>114.19999694824</ele>
        <time>2022-11-19T13:56:00Z</time>
      </trkpt>
      <trkpt lat="48.37174" lon="2.69418">
        <ele>114.19999694824</ele>
        <time>2022-11-19T13:56:04Z</time>
      </trkpt>
      <trkpt lat="48.3717" lon="2.69415">
        <ele>114.19999694824</ele>
        <time>2022-11-19T13:56:08Z</time>
      </trkpt>
      <trkpt lat="48.37167" lon="2.69413">
        <ele>114.19999694824</ele>
        <time>2022-11-19T13:56:12Z</time>
      </trkpt>
      <trkpt lat="48.37165" lon="2.6941">
        <ele>114.19999694824</ele>
        <time>2022-11-19T13:56:16Z</time>
      </trkpt>
      <trkpt lat="48.37164" lon="2.6941">
        <ele>114.19999694824</ele>
        <time>2022-11-19T13:56:20Z</time>
      </trkpt>
      <trkpt lat="48.37164" lon="2.69409">
        <ele>114.19999694824</ele>
        <time>2022-11-19T13:56:24Z</time>
      </trkpt>
      <trkpt lat="48.37164" lon="2.69408">
        <ele>114.40000152588</ele>
        <time>2022-11-19T13:56:28Z</time>
      </trkpt>
      <trkpt lat="48.37164" lon="2.69407">
        <ele>114.40000152588</ele>
        <time>2022-11-19T13:56:32Z</time>
      </trkpt>
      <trkpt lat="48.37163" lon="2.69407">
        <ele>114.19999694824</ele>
        <time>2022-11-19T13:56:36Z</time>
      </trkpt>
      <trkpt lat="48.37162" lon="2.69407">
        <ele>114.19999694824</ele>
        <time>2022-11-19T13:56:40Z</time>
      </trkpt>
      <trkpt lat="48.37162" lon="2.69406">
        <ele>114.40000152588</ele>
        <time>2022-11-19T13:56:44Z</time>
      </trkpt>
      <trkpt lat="48.37161" lon="2.69404">
        <ele>114.40000152588</ele>
        <time>2022-11-19T13:56:48Z</time>
      </trkpt>
      <trkpt lat="48.37162" lon="2.69403">
        <ele>114.19999694824</ele>
        <time>2022-11-19T13:56:52Z</time>
      </trkpt>
      <trkpt lat="48.37162" lon="2.69403">
        <ele>114.40000152588</ele>
        <time>2022-11-19T13:56:56Z</time>
      </trkpt>
      <trkpt lat="48.37162" lon="2.69402">
        <ele>114.59999847412</ele>
        <time>2022-11-19T13:57:00Z</time>
      </trkpt>
      <trkpt lat="48.37161" lon="2.69401">
        <ele>114.59999847412</ele>
        <time>2022-11-19T13:57:04Z</time>
      </trkpt>
      <trkpt lat="48.37162" lon="2.69401">
        <ele>114.40000152588</ele>
        <time>2022-11-19T13:57:08Z</time>
      </trkpt>
      <trkpt lat="48.37162" lon="2.69399">
        <ele>114.19999694824</ele>
        <time>2022-11-19T13:57:12Z</time>
      </trkpt>
      <trkpt lat="48.37162" lon="2.69397">
        <ele>114.40000152588</ele>
        <time>2022-11-19T13:57:16Z</time>
      </trkpt>
      <trkpt lat="48.37161" lon="2.69397">
        <ele>114.59999847412</ele>
        <time>2022-11-19T13:57:20Z</time>
      </trkpt>
      <trkpt lat="48.37165" lon="2.69396">
        <ele>114.19999694824</ele>
        <time>2022-11-19T13:57:24Z</time>
      </trkpt>
      <trkpt lat="48.37168" lon="2.69397">
        <ele>114.40000152588</ele>
        <time>2022-11-19T13:57:28Z</time>
      </trkpt>
      <trkpt lat="48.37167" lon="2.69397">
        <ele>114.59999847412</ele>
        <time>2022-11-19T13:57:32Z</time>
      </trkpt>
      <trkpt lat="48.37166" lon="2.69398">
        <ele>114.59999847412</ele>
        <time>2022-11-19T13:57:36Z</time>
      </trkpt>
      <trkpt lat="48.37165" lon="2.69398">
        <ele>114.59999847412</ele>
        <time>2022-11-19T13:57:40Z</time>
      </trkpt>
      <trkpt lat="48.37164" lon="2.69398">
        <ele>114.40000152588</ele>
        <time>2022-11-19T13:57:44Z</time>
      </trkpt>
      <trkpt lat="48.37165" lon="2.69397">
        <ele>114.40000152588</ele>
        <time>2022-11-19T13:57:48Z</time>
      </trkpt>
      <trkpt lat="48.37164" lon="2.69398">
        <ele>114.59999847412</ele>
        <time>2022-11-19T13:57:52Z</time>
      </trkpt>
      <trkpt lat="48.37162" lon="2.694">
        <ele>114.40000152588</ele>
        <time>2022-11-19T13:57:56Z</time>
      </trkpt>
      <trkpt lat="48.37163" lon="2.69401">
        <ele>114.19999694824</ele>
        <time>2022-11-19T13:58:00Z</time>
      </trkpt>
      <trkpt lat="48.37163" lon="2.69403">
        <ele>114.19999694824</ele>
        <time>2022-11-19T13:58:04Z</time>
      </trkpt>
      <trkpt lat="48.37163" lon="2.69403">
        <ele>113.59999847412</ele>
        <time>2022-11-19T13:58:08Z</time>
      </trkpt>
      <trkpt lat="48.37161" lon="2.69405">
        <ele>113.59999847412</ele>
        <time>2022-11-19T13:58:12Z</time>
      </trkpt>
      <trkpt lat="48.37159" lon="2.69406">
        <ele>113.80000305176</ele>
        <time>2022-11-19T13:58:16Z</time>
      </trkpt>
      <trkpt lat="48.37158" lon="2.69407">
        <ele>114.19999694824</ele>
        <time>2022-11-19T13:58:20Z</time>
      </trkpt>
      <trkpt lat="48.37157" lon="2.69409">
        <ele>114.19999694824</ele>
        <time>2022-11-19T13:58:24Z</time>
      </trkpt>
      <trkpt lat="48.37155" lon="2.6941">
        <ele>114.19999694824</ele>
        <time>2022-11-19T13:58:28Z</time>
      </trkpt>
      <trkpt lat="48.37155" lon="2.69411">
        <ele>114.19999694824</ele>
        <time>2022-11-19T13:58:32Z</time>
      </trkpt>
      <trkpt lat="48.37155" lon="2.69412">
        <ele>114.40000152588</ele>
        <time>2022-11-19T13:58:36Z</time>
      </trkpt>
      <trkpt lat="48.37155" lon="2.69412">
        <ele>114</ele>
        <time>2022-11-19T13:58:40Z</time>
      </trkpt>
      <trkpt lat="48.37155" lon="2.69413">
        <ele>114</ele>
        <time>2022-11-19T13:58:44Z</time>
      </trkpt>
      <trkpt lat="48.37155" lon="2.69413">
        <ele>114.19999694824</ele>
        <time>2022-11-19T13:58:48Z</time>
      </trkpt>
      <trkpt lat="48.37155" lon="2.69413">
        <ele>114.19999694824</ele>
        <time>2022-11-19T13:58:52Z</time>
      </trkpt>
      <trkpt lat="48.37156" lon="2.69412">
        <ele>114.19999694824</ele>
        <time>2022-11-19T13:58:56Z</time>
      </trkpt>
      <trkpt lat="48.37156" lon="2.69412">
        <ele>114.19999694824</ele>
        <time>2022-11-19T13:59:00Z</time>
      </trkpt>
      <trkpt lat="48.37157" lon="2.69411">
        <ele>114.40000152588</ele>
        <time>2022-11-19T13:59:04Z</time>
      </trkpt>
      <trkpt lat="48.37157" lon="2.69411">
        <ele>114.19999694824</ele>
        <time>2022-11-19T13:59:08Z</time>
      </trkpt>
      <trkpt lat="48.37157" lon="2.6941">
        <ele>114.19999694824</ele>
        <time>2022-11-19T13:59:12Z</time>
      </trkpt>
      <trkpt lat="48.37158" lon="2.69408">
        <ele>114.19999694824</ele>
        <time>2022-11-19T13:59:16Z</time>
      </trkpt>
      <trkpt lat="48.37158" lon="2.69407">
        <ele>114.19999694824</ele>
        <time>2022-11-19T13:59:20Z</time>
      </trkpt>
      <trkpt lat="48.37159" lon="2.69407">
        <ele>114.19999694824</ele>
        <time>2022-11-19T13:59:24Z</time>
      </trkpt>
      <trkpt lat="48.37158" lon="2.69406">
        <ele>114.19999694824</ele>
        <time>2022-11-19T13:59:28Z</time>
      </trkpt>
      <trkpt lat="48.37158" lon="2.69405">
        <ele>114.19999694824</ele>
        <time>2022-11-19T13:59:32Z</time>
      </trkpt>
      <trkpt lat="48.37159" lon="2.69405">
        <ele>114.19999694824</ele>
        <time>2022-11-19T13:59:36Z</time>
      </trkpt>
      <trkpt lat="48.37159" lon="2.69406">
        <ele>114.19999694824</ele>
        <time>2022-11-19T13:59:40Z</time>
      </trkpt>
      <trkpt lat="48.3716" lon="2.69407">
        <ele>114.19999694824</ele>
        <time>2022-11-19T13:59:44Z</time>
      </trkpt>
      <trkpt lat="48.37159" lon="2.69408">
        <ele>114.40000152588</ele>
        <time>2022-11-19T13:59:48Z</time>
      </trkpt>
      <trkpt lat="48.37158" lon="2.69407">
        <ele>114.19999694824</ele>
        <time>2022-11-19T13:59:52Z</time>
      </trkpt>
      <trkpt lat="48.37159" lon="2.69407">
        <ele>114.19999694824</ele>
        <time>2022-11-19T13:59:56Z</time>
      </trkpt>
      <trkpt lat="48.37158" lon="2.69408">
        <ele>114</ele>
        <time>2022-11-19T14:00:00Z</time>
      </trkpt>
      <trkpt lat="48.37158" lon="2.69408">
        <ele>114</ele>
        <time>2022-11-19T14:00:04Z</time>
      </trkpt>
      <trkpt lat="48.37158" lon="2.69408">
        <ele>113.80000305176</ele>
        <time>2022-11-19T14:00:08Z</time>
      </trkpt>
      <trkpt lat="48.37158" lon="2.69406">
        <ele>113.59999847412</ele>
        <time>2022-11-19T14:00:12Z</time>
      </trkpt>
      <trkpt lat="48.37159" lon="2.69404">
        <ele>113.80000305176</ele>
        <time>2022-11-19T14:00:16Z</time>
      </trkpt>
      <trkpt lat="48.37158" lon="2.69404">
        <ele>113.59999847412</ele>
        <time>2022-11-19T14:00:20Z</time>
      </trkpt>
      <trkpt lat="48.37158" lon="2.69404">
        <ele>113.59999847412</ele>
        <time>2022-11-19T14:00:24Z</time>
      </trkpt>
      <trkpt lat="48.37158" lon="2.69404">
        <ele>113.59999847412</ele>
        <time>2022-11-19T14:00:28Z</time>
      </trkpt>
      <trkpt lat="48.37159" lon="2.69405">
        <ele>113.59999847412</ele>
        <time>2022-11-19T14:00:32Z</time>
      </trkpt>
      <trkpt lat="48.37159" lon="2.69405">
        <ele>113.80000305176</ele>
        <time>2022-11-19T14:00:36Z</time>
      </trkpt>
      <trkpt lat="48.37159" lon="2.69405">
        <ele>113.80000305176</ele>
        <time>2022-11-19T14:00:40Z</time>
      </trkpt>
      <trkpt lat="48.3716" lon="2.69404">
        <ele>113.80000305176</ele>
        <time>2022-11-19T14:00:44Z</time>
      </trkpt>
      <trkpt lat="48.37159" lon="2.69404">
        <ele>113.80000305176</ele>
        <time>2022-11-19T14:00:48Z</time>
      </trkpt>
      <trkpt lat="48.37159" lon="2.69402">
        <ele>113.80000305176</ele>
        <time>2022-11-19T14:00:52Z</time>
      </trkpt>
      <trkpt lat="48.37159" lon="2.69403">
        <ele>113.80000305176</ele>
        <time>2022-11-19T14:00:56Z</time>
      </trkpt>
      <trkpt lat="48.3716" lon="2.69404">
        <ele>113.80000305176</ele>
        <time>2022-11-19T14:01:00Z</time>
      </trkpt>
      <trkpt lat="48.3716" lon="2.69407">
        <ele>113.80000305176</ele>
        <time>2022-11-19T14:01:04Z</time>
      </trkpt>
      <trkpt lat="48.37161" lon="2.69408">
        <ele>113.80000305176</ele>
        <time>2022-11-19T14:01:08Z</time>
      </trkpt>
      <trkpt lat="48.37161" lon="2.69408">
        <ele>113.59999847412</ele>
        <time>2022-11-19T14:01:12Z</time>
      </trkpt>
      <trkpt lat="48.37161" lon="2.69409">
        <ele>113.59999847412</ele>
        <time>2022-11-19T14:01:16Z</time>
      </trkpt>
      <trkpt lat="48.37161" lon="2.69409">
        <ele>113.59999847412</ele>
        <time>2022-11-19T14:01:20Z</time>
      </trkpt>
      <trkpt lat="48.37161" lon="2.69409">
        <ele>113.80000305176</ele>
        <time>2022-11-19T14:01:24Z</time>
      </trkpt>
      <trkpt lat="48.37162" lon="2.69408">
        <ele>113.80000305176</ele>
        <time>2022-11-19T14:01:28Z</time>
      </trkpt>
      <trkpt lat="48.37164" lon="2.69408">
        <ele>113.80000305176</ele>
        <time>2022-11-19T14:01:32Z</time>
      </trkpt>
      <trkpt lat="48.37164" lon="2.69407">
        <ele>113.80000305176</ele>
        <time>2022-11-19T14:01:36Z</time>
      </trkpt>
      <trkpt lat="48.37165" lon="2.69407">
        <ele>113.80000305176</ele>
        <time>2022-11-19T14:01:40Z</time>
      </trkpt>
      <trkpt lat="48.37165" lon="2.69406">
        <ele>113.80000305176</ele>
        <time>2022-11-19T14:01:44Z</time>
      </trkpt>
      <trkpt lat="48.37166" lon="2.69406">
        <ele>113.80000305176</ele>
        <time>2022-11-19T14:01:48Z</time>
      </trkpt>
      <trkpt lat="48.37167" lon="2.69405">
        <ele>113.80000305176</ele>
        <time>2022-11-19T14:01:52Z</time>
      </trkpt>
      <trkpt lat="48.37166" lon="2.69405">
        <ele>113.80000305176</ele>
        <time>2022-11-19T14:01:56Z</time>
      </trkpt>
      <trkpt lat="48.37166" lon="2.69405">
        <ele>113.80000305176</ele>
        <time>2022-11-19T14:02:00Z</time>
      </trkpt>
      <trkpt lat="48.37165" lon="2.69406">
        <ele>113.80000305176</ele>
        <time>2022-11-19T14:02:04Z</time>
      </trkpt>
      <trkpt lat="48.37165" lon="2.69409">
        <ele>113.80000305176</ele>
        <time>2022-11-19T14:02:08Z</time>
      </trkpt>
      <trkpt lat="48.37165" lon="2.69413">
        <ele>113.80000305176</ele>
        <time>2022-11-19T14:02:12Z</time>
      </trkpt>
      <trkpt lat="48.37164" lon="2.69417">
        <ele>113.80000305176</ele>
        <time>2022-11-19T14:02:16Z</time>
      </trkpt>
      <trkpt lat="48.37161" lon="2.69422">
        <ele>113.80000305176</ele>
        <time>2022-11-19T14:02:20Z</time>
      </trkpt>
      <trkpt lat="48.3716" lon="2.69427">
        <ele>113.80000305176</ele>
        <time>2022-11-19T14:02:24Z</time>
      </trkpt>
      <trkpt lat="48.3716" lon="2.69432">
        <ele>113.80000305176</ele>
        <time>2022-11-19T14:02:28Z</time>
      </trkpt>
      <trkpt lat="48.37158" lon="2.69438">
        <ele>113.80000305176</ele>
        <time>2022-11-19T14:02:32Z</time>
      </trkpt>
      <trkpt lat="48.37157" lon="2.69444">
        <ele>113.80000305176</ele>
        <time>2022-11-19T14:02:36Z</time>
      </trkpt>
      <trkpt lat="48.37157" lon="2.69452">
        <ele>113.80000305176</ele>
        <time>2022-11-19T14:02:40Z</time>
      </trkpt>
      <trkpt lat="48.37156" lon="2.69459">
        <ele>113.80000305176</ele>
        <time>2022-11-19T14:02:44Z</time>
      </trkpt>
      <trkpt lat="48.37155" lon="2.69463">
        <ele>113.80000305176</ele>
        <time>2022-11-19T14:02:48Z</time>
      </trkpt>
      <trkpt lat="48.37155" lon="2.69469">
        <ele>113.80000305176</ele>
        <time>2022-11-19T14:02:52Z</time>
      </trkpt>
      <trkpt lat="48.37155" lon="2.69475">
        <ele>113.80000305176</ele>
        <time>2022-11-19T14:02:56Z</time>
      </trkpt>
      <trkpt lat="48.37155" lon="2.69479">
        <ele>113.80000305176</ele>
        <time>2022-11-19T14:03:00Z</time>
      </trkpt>
      <trkpt lat="48.37155" lon="2.69485">
        <ele>113.80000305176</ele>
        <time>2022-11-19T14:03:04Z</time>
      </trkpt>
      <trkpt lat="48.37154" lon="2.69492">
        <ele>113.80000305176</ele>
        <time>2022-11-19T14:03:08Z</time>
      </trkpt>
      <trkpt lat="48.37154" lon="2.695">
        <ele>113.80000305176</ele>
        <time>2022-11-19T14:03:12Z</time>
      </trkpt>
      <trkpt lat="48.37153" lon="2.69507">
        <ele>113.80000305176</ele>
        <time>2022-11-19T14:03:16Z</time>
      </trkpt>
      <trkpt lat="48.37153" lon="2.69515">
        <ele>113.80000305176</ele>
        <time>2022-11-19T14:03:20Z</time>
      </trkpt>
      <trkpt lat="48.37152" lon="2.69522">
        <ele>113.80000305176</ele>
        <time>2022-11-19T14:03:24Z</time>
      </trkpt>
      <trkpt lat="48.37153" lon="2.69528">
        <ele>113.80000305176</ele>
        <time>2022-11-19T14:03:28Z</time>
      </trkpt>
      <trkpt lat="48.37153" lon="2.69535">
        <ele>113.80000305176</ele>
        <time>2022-11-19T14:03:32Z</time>
      </trkpt>
      <trkpt lat="48.37152" lon="2.69541">
        <ele>113.80000305176</ele>
        <time>2022-11-19T14:03:36Z</time>
      </trkpt>
      <trkpt lat="48.37151" lon="2.69548">
        <ele>113.80000305176</ele>
        <time>2022-11-19T14:03:40Z</time>
      </trkpt>
      <trkpt lat="48.3715" lon="2.69556">
        <ele>113.80000305176</ele>
        <time>2022-11-19T14:03:44Z</time>
      </trkpt>
      <trkpt lat="48.37149" lon="2.69565">
        <ele>113.80000305176</ele>
        <time>2022-11-19T14:03:48Z</time>
      </trkpt>
      <trkpt lat="48.37147" lon="2.69572">
        <ele>113.80000305176</ele>
        <time>2022-11-19T14:03:52Z</time>
      </trkpt>
      <trkpt lat="48.37145" lon="2.69579">
        <ele>113.80000305176</ele>
        <time>2022-11-19T14:03:56Z</time>
      </trkpt>
      <trkpt lat="48.37143" lon="2.69585">
        <ele>113.80000305176</ele>
        <time>2022-11-19T14:04:00Z</time>
      </trkpt>
      <trkpt lat="48.37143" lon="2.69591">
        <ele>113.80000305176</ele>
        <time>2022-11-19T14:04:04Z</time>
      </trkpt>
      <trkpt lat="48.37142" lon="2.69597">
        <ele>113.80000305176</ele>
        <time>2022-11-19T14:04:08Z</time>
      </trkpt>
      <trkpt lat="48.37141" lon="2.69606">
        <ele>113.80000305176</ele>
        <time>2022-11-19T14:04:12Z</time>
      </trkpt>
      <trkpt lat="48.37141" lon="2.69614">
        <ele>113.80000305176</ele>
        <time>2022-11-19T14:04:16Z</time>
      </trkpt>
      <trkpt lat="48.3714" lon="2.69619">
        <ele>113.80000305176</ele>
        <time>2022-11-19T14:04:20Z</time>
      </trkpt>
      <trkpt lat="48.37141" lon="2.69626">
        <ele>113.80000305176</ele>
        <time>2022-11-19T14:04:24Z</time>
      </trkpt>
      <trkpt lat="48.37142" lon="2.69631">
        <ele>113.80000305176</ele>
        <time>2022-11-19T14:04:28Z</time>
      </trkpt>
      <trkpt lat="48.37141" lon="2.69639">
        <ele>113.80000305176</ele>
        <time>2022-11-19T14:04:32Z</time>
      </trkpt>
      <trkpt lat="48.3714" lon="2.69645">
        <ele>113.80000305176</ele>
        <time>2022-11-19T14:04:36Z</time>
      </trkpt>
      <trkpt lat="48.37139" lon="2.69649">
        <ele>113.80000305176</ele>
        <time>2022-11-19T14:04:40Z</time>
      </trkpt>
      <trkpt lat="48.3714" lon="2.69654">
        <ele>113.80000305176</ele>
        <time>2022-11-19T14:04:44Z</time>
      </trkpt>
      <trkpt lat="48.3714" lon="2.6966">
        <ele>113.80000305176</ele>
        <time>2022-11-19T14:04:48Z</time>
      </trkpt>
      <trkpt lat="48.37141" lon="2.69665">
        <ele>113.80000305176</ele>
        <time>2022-11-19T14:04:52Z</time>
      </trkpt>
      <trkpt lat="48.37141" lon="2.69671">
        <ele>113.80000305176</ele>
        <time>2022-11-19T14:04:56Z</time>
      </trkpt>
      <trkpt lat="48.3714" lon="2.69676">
        <ele>113.80000305176</ele>
        <time>2022-11-19T14:05:00Z</time>
      </trkpt>
      <trkpt lat="48.37138" lon="2.69683">
        <ele>113.80000305176</ele>
        <time>2022-11-19T14:05:04Z</time>
      </trkpt>
      <trkpt lat="48.37137" lon="2.69692">
        <ele>113.80000305176</ele>
        <time>2022-11-19T14:05:08Z</time>
      </trkpt>
      <trkpt lat="48.37137" lon="2.697">
        <ele>113.80000305176</ele>
        <time>2022-11-19T14:05:12Z</time>
      </trkpt>
      <trkpt lat="48.37136" lon="2.69705">
        <ele>113.80000305176</ele>
        <time>2022-11-19T14:05:16Z</time>
      </trkpt>
      <trkpt lat="48.37135" lon="2.69713">
        <ele>113.80000305176</ele>
        <time>2022-11-19T14:05:20Z</time>
      </trkpt>
      <trkpt lat="48.37134" lon="2.69718">
        <ele>113.80000305176</ele>
        <time>2022-11-19T14:05:24Z</time>
      </trkpt>
      <trkpt lat="48.37132" lon="2.69725">
        <ele>113.80000305176</ele>
        <time>2022-11-19T14:05:28Z</time>
      </trkpt>
      <trkpt lat="48.37131" lon="2.69732">
        <ele>113.80000305176</ele>
        <time>2022-11-19T14:05:32Z</time>
      </trkpt>
      <trkpt lat="48.3713" lon="2.69738">
        <ele>113.80000305176</ele>
        <time>2022-11-19T14:05:36Z</time>
      </trkpt>
      <trkpt lat="48.37129" lon="2.69745">
        <ele>113.80000305176</ele>
        <time>2022-11-19T14:05:40Z</time>
      </trkpt>
      <trkpt lat="48.37129" lon="2.69751">
        <ele>113.80000305176</ele>
        <time>2022-11-19T14:05:44Z</time>
      </trkpt>
      <trkpt lat="48.37127" lon="2.69757">
        <ele>113.80000305176</ele>
        <time>2022-11-19T14:05:48Z</time>
      </trkpt>
      <trkpt lat="48.37126" lon="2.69763">
        <ele>113.80000305176</ele>
        <time>2022-11-19T14:05:52Z</time>
      </trkpt>
      <trkpt lat="48.37125" lon="2.69768">
        <ele>113.80000305176</ele>
        <time>2022-11-19T14:05:56Z</time>
      </trkpt>
      <trkpt lat="48.37126" lon="2.69775">
        <ele>113.80000305176</ele>
        <time>2022-11-19T14:06:00Z</time>
      </trkpt>
      <trkpt lat="48.37126" lon="2.69782">
        <ele>113.80000305176</ele>
        <time>2022-11-19T14:06:04Z</time>
      </trkpt>
      <trkpt lat="48.37126" lon="2.69788">
        <ele>113.80000305176</ele>
        <time>2022-11-19T14:06:08Z</time>
      </trkpt>
      <trkpt lat="48.37126" lon="2.69793">
        <ele>113.80000305176</ele>
        <time>2022-11-19T14:06:12Z</time>
      </trkpt>
      <trkpt lat="48.37125" lon="2.698">
        <ele>113.80000305176</ele>
        <time>2022-11-19T14:06:16Z</time>
      </trkpt>
      <trkpt lat="48.37124" lon="2.69808">
        <ele>113.80000305176</ele>
        <time>2022-11-19T14:06:20Z</time>
      </trkpt>
      <trkpt lat="48.37122" lon="2.69813">
        <ele>113.80000305176</ele>
        <time>2022-11-19T14:06:24Z</time>
      </trkpt>
      <trkpt lat="48.3712" lon="2.69817">
        <ele>113.80000305176</ele>
        <time>2022-11-19T14:06:28Z</time>
      </trkpt>
      <trkpt lat="48.37116" lon="2.69821">
        <ele>113.80000305176</ele>
        <time>2022-11-19T14:06:32Z</time>
      </trkpt>
      <trkpt lat="48.37112" lon="2.69824">
        <ele>113.80000305176</ele>
        <time>2022-11-19T14:06:36Z</time>
      </trkpt>
      <trkpt lat="48.37109" lon="2.69825">
        <ele>114.19999694824</ele>
        <time>2022-11-19T14:06:40Z</time>
      </trkpt>
      <trkpt lat="48.37106" lon="2.69827">
        <ele>114.80000305176</ele>
        <time>2022-11-19T14:06:44Z</time>
      </trkpt>
      <trkpt lat="48.37102" lon="2.69828">
        <ele>114.59999847412</ele>
        <time>2022-11-19T14:06:48Z</time>
      </trkpt>
      <trkpt lat="48.37098" lon="2.69829">
        <ele>114.59999847412</ele>
        <time>2022-11-19T14:06:52Z</time>
      </trkpt>
      <trkpt lat="48.37095" lon="2.69829">
        <ele>114.59999847412</ele>
        <time>2022-11-19T14:06:56Z</time>
      </trkpt>
      <trkpt lat="48.37092" lon="2.69827">
        <ele>114.59999847412</ele>
        <time>2022-11-19T14:07:00Z</time>
      </trkpt>
      <trkpt lat="48.37088" lon="2.69827">
        <ele>114.59999847412</ele>
        <time>2022-11-19T14:07:04Z</time>
      </trkpt>
      <trkpt lat="48.37085" lon="2.69827">
        <ele>114.59999847412</ele>
        <time>2022-11-19T14:07:08Z</time>
      </trkpt>
      <trkpt lat="48.37081" lon="2.69826">
        <ele>114.40000152588</ele>
        <time>2022-11-19T14:07:12Z</time>
      </trkpt>
      <trkpt lat="48.37076" lon="2.69827">
        <ele>114.40000152588</ele>
        <time>2022-11-19T14:07:16Z</time>
      </trkpt>
      <trkpt lat="48.37072" lon="2.69827">
        <ele>114.40000152588</ele>
        <time>2022-11-19T14:07:20Z</time>
      </trkpt>
      <trkpt lat="48.37067" lon="2.69827">
        <ele>114.40000152588</ele>
        <time>2022-11-19T14:07:24Z</time>
      </trkpt>
      <trkpt lat="48.37061" lon="2.69827">
        <ele>114.19999694824</ele>
        <time>2022-11-19T14:07:28Z</time>
      </trkpt>
      <trkpt lat="48.37056" lon="2.69827">
        <ele>114</ele>
        <time>2022-11-19T14:07:32Z</time>
      </trkpt>
      <trkpt lat="48.37053" lon="2.69827">
        <ele>113.59999847412</ele>
        <time>2022-11-19T14:07:36Z</time>
      </trkpt>
      <trkpt lat="48.37048" lon="2.69828">
        <ele>113.40000152588</ele>
        <time>2022-11-19T14:07:40Z</time>
      </trkpt>
      <trkpt lat="48.37043" lon="2.69827">
        <ele>113.40000152588</ele>
        <time>2022-11-19T14:07:44Z</time>
      </trkpt>
      <trkpt lat="48.37039" lon="2.69826">
        <ele>113.19999694824</ele>
        <time>2022-11-19T14:07:48Z</time>
      </trkpt>
      <trkpt lat="48.37036" lon="2.69827">
        <ele>112.80000305176</ele>
        <time>2022-11-19T14:07:52Z</time>
      </trkpt>
      <trkpt lat="48.37035" lon="2.69828">
        <ele>112.40000152588</ele>
        <time>2022-11-19T14:07:56Z</time>
      </trkpt>
      <trkpt lat="48.37033" lon="2.69828">
        <ele>111.59999847412</ele>
        <time>2022-11-19T14:08:00Z</time>
      </trkpt>
      <trkpt lat="48.37029" lon="2.69829">
        <ele>110.80000305176</ele>
        <time>2022-11-19T14:08:04Z</time>
      </trkpt>
      <trkpt lat="48.37025" lon="2.69827">
        <ele>110.19999694824</ele>
        <time>2022-11-19T14:08:08Z</time>
      </trkpt>
      <trkpt lat="48.37019" lon="2.69826">
        <ele>109.59999847412</ele>
        <time>2022-11-19T14:08:12Z</time>
      </trkpt>
      <trkpt lat="48.37015" lon="2.69825">
        <ele>109.40000152588</ele>
        <time>2022-11-19T14:08:16Z</time>
      </trkpt>
      <trkpt lat="48.37011" lon="2.69825">
        <ele>109.40000152588</ele>
        <time>2022-11-19T14:08:20Z</time>
      </trkpt>
      <trkpt lat="48.37007" lon="2.69827">
        <ele>109.40000152588</ele>
        <time>2022-11-19T14:08:24Z</time>
      </trkpt>
      <trkpt lat="48.37004" lon="2.69826">
        <ele>110.19999694824</ele>
        <time>2022-11-19T14:08:28Z</time>
      </trkpt>
      <trkpt lat="48.37001" lon="2.69825">
        <ele>110.80000305176</ele>
        <time>2022-11-19T14:08:32Z</time>
      </trkpt>
      <trkpt lat="48.36998" lon="2.69825">
        <ele>111.40000152588</ele>
        <time>2022-11-19T14:08:36Z</time>
      </trkpt>
      <trkpt lat="48.36995" lon="2.69824">
        <ele>112.40000152588</ele>
        <time>2022-11-19T14:08:40Z</time>
      </trkpt>
      <trkpt lat="48.36992" lon="2.69823">
        <ele>113.19999694824</ele>
        <time>2022-11-19T14:08:44Z</time>
      </trkpt>
      <trkpt lat="48.36987" lon="2.69822">
        <ele>113.59999847412</ele>
        <time>2022-11-19T14:08:48Z</time>
      </trkpt>
      <trkpt lat="48.36983" lon="2.69822">
        <ele>113.80000305176</ele>
        <time>2022-11-19T14:08:52Z</time>
      </trkpt>
      <trkpt lat="48.36979" lon="2.69822">
        <ele>114</ele>
        <time>2022-11-19T14:08:56Z</time>
      </trkpt>
      <trkpt lat="48.36976" lon="2.69822">
        <ele>114.19999694824</ele>
        <time>2022-11-19T14:09:00Z</time>
      </trkpt>
      <trkpt lat="48.36973" lon="2.69823">
        <ele>114.40000152588</ele>
        <time>2022-11-19T14:09:04Z</time>
      </trkpt>
      <trkpt lat="48.36969" lon="2.69823">
        <ele>114.40000152588</ele>
        <time>2022-11-19T14:09:08Z</time>
      </trkpt>
      <trkpt lat="48.36966" lon="2.69824">
        <ele>114.59999847412</ele>
        <time>2022-11-19T14:09:12Z</time>
      </trkpt>
      <trkpt lat="48.36962" lon="2.69823">
        <ele>114.59999847412</ele>
        <time>2022-11-19T14:09:16Z</time>
      </trkpt>
      <trkpt lat="48.36958" lon="2.69823">
        <ele>114.59999847412</ele>
        <time>2022-11-19T14:09:20Z</time>
      </trkpt>
      <trkpt lat="48.36957" lon="2.69823">
        <ele>113.80000305176</ele>
        <time>2022-11-19T14:09:24Z</time>
      </trkpt>
      <trkpt lat="48.36952" lon="2.69822">
        <ele>113</ele>
        <time>2022-11-19T14:09:28Z</time>
      </trkpt>
      <trkpt lat="48.36947" lon="2.69822">
        <ele>112.59999847412</ele>
        <time>2022-11-19T14:09:32Z</time>
      </trkpt>
      <trkpt lat="48.36943" lon="2.69822">
        <ele>112.19999694824</ele>
        <time>2022-11-19T14:09:36Z</time>
      </trkpt>
      <trkpt lat="48.36938" lon="2.69823">
        <ele>112</ele>
        <time>2022-11-19T14:09:40Z</time>
      </trkpt>
      <trkpt lat="48.36934" lon="2.69822">
        <ele>111.59999847412</ele>
        <time>2022-11-19T14:09:44Z</time>
      </trkpt>
      <trkpt lat="48.3693" lon="2.69822">
        <ele>111</ele>
        <time>2022-11-19T14:09:48Z</time>
      </trkpt>
      <trkpt lat="48.36926" lon="2.69823">
        <ele>110.19999694824</ele>
        <time>2022-11-19T14:09:52Z</time>
      </trkpt>
      <trkpt lat="48.36923" lon="2.69824">
        <ele>109.59999847412</ele>
        <time>2022-11-19T14:09:56Z</time>
      </trkpt>
      <trkpt lat="48.36919" lon="2.69824">
        <ele>109</ele>
        <time>2022-11-19T14:10:00Z</time>
      </trkpt>
      <trkpt lat="48.36915" lon="2.69824">
        <ele>108.80000305176</ele>
        <time>2022-11-19T14:10:04Z</time>
      </trkpt>
      <trkpt lat="48.36911" lon="2.69824">
        <ele>108</ele>
        <time>2022-11-19T14:10:08Z</time>
      </trkpt>
      <trkpt lat="48.36906" lon="2.69825">
        <ele>107.59999847412</ele>
        <time>2022-11-19T14:10:12Z</time>
      </trkpt>
      <trkpt lat="48.36903" lon="2.69824">
        <ele>107.40000152588</ele>
        <time>2022-11-19T14:10:16Z</time>
      </trkpt>
      <trkpt lat="48.36899" lon="2.69824">
        <ele>107.40000152588</ele>
        <time>2022-11-19T14:10:20Z</time>
      </trkpt>
      <trkpt lat="48.36896" lon="2.69825">
        <ele>107</ele>
        <time>2022-11-19T14:10:24Z</time>
      </trkpt>
      <trkpt lat="48.36892" lon="2.69826">
        <ele>107</ele>
        <time>2022-11-19T14:10:28Z</time>
      </trkpt>
      <trkpt lat="48.36888" lon="2.69828">
        <ele>106.59999847412</ele>
        <time>2022-11-19T14:10:32Z</time>
      </trkpt>
      <trkpt lat="48.36884" lon="2.69827">
        <ele>106.40000152588</ele>
        <time>2022-11-19T14:10:36Z</time>
      </trkpt>
      <trkpt lat="48.36882" lon="2.69826">
        <ele>106</ele>
        <time>2022-11-19T14:10:40Z</time>
      </trkpt>
      <trkpt lat="48.3688" lon="2.69826">
        <ele>105.80000305176</ele>
        <time>2022-11-19T14:10:44Z</time>
      </trkpt>
      <trkpt lat="48.36878" lon="2.69827">
        <ele>105.59999847412</ele>
        <time>2022-11-19T14:10:48Z</time>
      </trkpt>
      <trkpt lat="48.36877" lon="2.69828">
        <ele>105.19999694824</ele>
        <time>2022-11-19T14:10:52Z</time>
      </trkpt>
      <trkpt lat="48.36873" lon="2.6983">
        <ele>104.59999847412</ele>
        <time>2022-11-19T14:10:56Z</time>
      </trkpt>
      <trkpt lat="48.36869" lon="2.69829">
        <ele>104</ele>
        <time>2022-11-19T14:11:00Z</time>
      </trkpt>
      <trkpt lat="48.36864" lon="2.69827">
        <ele>103.40000152588</ele>
        <time>2022-11-19T14:11:04Z</time>
      </trkpt>
      <trkpt lat="48.3686" lon="2.69825">
        <ele>102.80000305176</ele>
        <time>2022-11-19T14:11:08Z</time>
      </trkpt>
      <trkpt lat="48.36856" lon="2.69824">
        <ele>102.40000152588</ele>
        <time>2022-11-19T14:11:12Z</time>
      </trkpt>
      <trkpt lat="48.36853" lon="2.69824">
        <ele>102</ele>
        <time>2022-11-19T14:11:16Z</time>
      </trkpt>
      <trkpt lat="48.36848" lon="2.69824">
        <ele>101.80000305176</ele>
        <time>2022-11-19T14:11:20Z</time>
      </trkpt>
      <trkpt lat="48.36845" lon="2.69825">
        <ele>101.59999847412</ele>
        <time>2022-11-19T14:11:24Z</time>
      </trkpt>
      <trkpt lat="48.36841" lon="2.69824">
        <ele>101.19999694824</ele>
        <time>2022-11-19T14:11:28Z</time>
      </trkpt>
      <trkpt lat="48.36837" lon="2.69824">
        <ele>100.80000305176</ele>
        <time>2022-11-19T14:11:32Z</time>
      </trkpt>
      <trkpt lat="48.36834" lon="2.69823">
        <ele>100.59999847412</ele>
        <time>2022-11-19T14:11:36Z</time>
      </trkpt>
      <trkpt lat="48.36833" lon="2.69823">
        <ele>100.40000152588</ele>
        <time>2022-11-19T14:11:40Z</time>
      </trkpt>
      <trkpt lat="48.36833" lon="2.69823">
        <ele>100.40000152588</ele>
        <time>2022-11-19T14:11:44Z</time>
      </trkpt>
      <trkpt lat="48.36832" lon="2.69823">
        <ele>100.19999694824</ele>
        <time>2022-11-19T14:11:48Z</time>
      </trkpt>
      <trkpt lat="48.36832" lon="2.69823">
        <ele>100.19999694824</ele>
        <time>2022-11-19T14:11:52Z</time>
      </trkpt>
      <trkpt lat="48.36831" lon="2.69823">
        <ele>100.40000152588</ele>
        <time>2022-11-19T14:11:56Z</time>
      </trkpt>
      <trkpt lat="48.3683" lon="2.69826">
        <ele>100.40000152588</ele>
        <time>2022-11-19T14:12:00Z</time>
      </trkpt>
      <trkpt lat="48.36828" lon="2.69834">
        <ele>100.40000152588</ele>
        <time>2022-11-19T14:12:04Z</time>
      </trkpt>
      <trkpt lat="48.36827" lon="2.69842">
        <ele>100.59999847412</ele>
        <time>2022-11-19T14:12:08Z</time>
      </trkpt>
      <trkpt lat="48.36827" lon="2.69848">
        <ele>100.80000305176</ele>
        <time>2022-11-19T14:12:12Z</time>
      </trkpt>
      <trkpt lat="48.36827" lon="2.69853">
        <ele>101.19999694824</ele>
        <time>2022-11-19T14:12:16Z</time>
      </trkpt>
      <trkpt lat="48.36828" lon="2.69858">
        <ele>101.19999694824</ele>
        <time>2022-11-19T14:12:20Z</time>
      </trkpt>
      <trkpt lat="48.36828" lon="2.69864">
        <ele>101.40000152588</ele>
        <time>2022-11-19T14:12:24Z</time>
      </trkpt>
      <trkpt lat="48.36828" lon="2.69869">
        <ele>101.59999847412</ele>
        <time>2022-11-19T14:12:28Z</time>
      </trkpt>
      <trkpt lat="48.36826" lon="2.69874">
        <ele>101.80000305176</ele>
        <time>2022-11-19T14:12:32Z</time>
      </trkpt>
      <trkpt lat="48.36826" lon="2.69879">
        <ele>102</ele>
        <time>2022-11-19T14:12:36Z</time>
      </trkpt>
      <trkpt lat="48.36827" lon="2.69884">
        <ele>102.40000152588</ele>
        <time>2022-11-19T14:12:40Z</time>
      </trkpt>
      <trkpt lat="48.36827" lon="2.6989">
        <ele>102.59999847412</ele>
        <time>2022-11-19T14:12:44Z</time>
      </trkpt>
      <trkpt lat="48.36827" lon="2.69895">
        <ele>102.80000305176</ele>
        <time>2022-11-19T14:12:48Z</time>
      </trkpt>
      <trkpt lat="48.36827" lon="2.699">
        <ele>103</ele>
        <time>2022-11-19T14:12:52Z</time>
      </trkpt>
      <trkpt lat="48.36825" lon="2.69906">
        <ele>103</ele>
        <time>2022-11-19T14:12:56Z</time>
      </trkpt>
      <trkpt lat="48.36824" lon="2.69913">
        <ele>103.19999694824</ele>
        <time>2022-11-19T14:13:00Z</time>
      </trkpt>
      <trkpt lat="48.36823" lon="2.69921">
        <ele>103.40000152588</ele>
        <time>2022-11-19T14:13:04Z</time>
      </trkpt>
      <trkpt lat="48.36823" lon="2.69927">
        <ele>103.59999847412</ele>
        <time>2022-11-19T14:13:08Z</time>
      </trkpt>
      <trkpt lat="48.36824" lon="2.69933">
        <ele>104</ele>
        <time>2022-11-19T14:13:12Z</time>
      </trkpt>
      <trkpt lat="48.36824" lon="2.69939">
        <ele>104.19999694824</ele>
        <time>2022-11-19T14:13:16Z</time>
      </trkpt>
      <trkpt lat="48.36823" lon="2.69946">
        <ele>104.59999847412</ele>
        <time>2022-11-19T14:13:20Z</time>
      </trkpt>
      <trkpt lat="48.36822" lon="2.69951">
        <ele>104.80000305176</ele>
        <time>2022-11-19T14:13:24Z</time>
      </trkpt>
      <trkpt lat="48.36822" lon="2.69957">
        <ele>105.19999694824</ele>
        <time>2022-11-19T14:13:28Z</time>
      </trkpt>
      <trkpt lat="48.36821" lon="2.69962">
        <ele>105.40000152588</ele>
        <time>2022-11-19T14:13:32Z</time>
      </trkpt>
      <trkpt lat="48.36821" lon="2.69968">
        <ele>105.59999847412</ele>
        <time>2022-11-19T14:13:36Z</time>
      </trkpt>
      <trkpt lat="48.36821" lon="2.69973">
        <ele>105.80000305176</ele>
        <time>2022-11-19T14:13:40Z</time>
      </trkpt>
      <trkpt lat="48.36821" lon="2.69979">
        <ele>106.19999694824</ele>
        <time>2022-11-19T14:13:44Z</time>
      </trkpt>
      <trkpt lat="48.36821" lon="2.69985">
        <ele>106.40000152588</ele>
        <time>2022-11-19T14:13:48Z</time>
      </trkpt>
      <trkpt lat="48.3682" lon="2.69991">
        <ele>106.59999847412</ele>
        <time>2022-11-19T14:13:52Z</time>
      </trkpt>
      <trkpt lat="48.36819" lon="2.69998">
        <ele>106.80000305176</ele>
        <time>2022-11-19T14:13:56Z</time>
      </trkpt>
      <trkpt lat="48.36819" lon="2.70003">
        <ele>106.80000305176</ele>
        <time>2022-11-19T14:14:00Z</time>
      </trkpt>
      <trkpt lat="48.36819" lon="2.70009">
        <ele>107</ele>
        <time>2022-11-19T14:14:04Z</time>
      </trkpt>
      <trkpt lat="48.36819" lon="2.70018">
        <ele>107.19999694824</ele>
        <time>2022-11-19T14:14:08Z</time>
      </trkpt>
      <trkpt lat="48.36818" lon="2.70024">
        <ele>107.40000152588</ele>
        <time>2022-11-19T14:14:12Z</time>
      </trkpt>
      <trkpt lat="48.36817" lon="2.70029">
        <ele>107.80000305176</ele>
        <time>2022-11-19T14:14:16Z</time>
      </trkpt>
      <trkpt lat="48.36815" lon="2.70033">
        <ele>108</ele>
        <time>2022-11-19T14:14:20Z</time>
      </trkpt>
      <trkpt lat="48.36815" lon="2.70038">
        <ele>108.59999847412</ele>
        <time>2022-11-19T14:14:24Z</time>
      </trkpt>
      <trkpt lat="48.36814" lon="2.70044">
        <ele>109</ele>
        <time>2022-11-19T14:14:28Z</time>
      </trkpt>
      <trkpt lat="48.36813" lon="2.70048">
        <ele>109.19999694824</ele>
        <time>2022-11-19T14:14:32Z</time>
      </trkpt>
      <trkpt lat="48.36813" lon="2.70054">
        <ele>109.40000152588</ele>
        <time>2022-11-19T14:14:36Z</time>
      </trkpt>
      <trkpt lat="48.36812" lon="2.70058">
        <ele>109.59999847412</ele>
        <time>2022-11-19T14:14:40Z</time>
      </trkpt>
      <trkpt lat="48.36812" lon="2.70063">
        <ele>109.80000305176</ele>
        <time>2022-11-19T14:14:44Z</time>
      </trkpt>
      <trkpt lat="48.36812" lon="2.70068">
        <ele>110</ele>
        <time>2022-11-19T14:14:48Z</time>
      </trkpt>
      <trkpt lat="48.36812" lon="2.70073">
        <ele>110.40000152588</ele>
        <time>2022-11-19T14:14:52Z</time>
      </trkpt>
      <trkpt lat="48.36812" lon="2.70077">
        <ele>110.80000305176</ele>
        <time>2022-11-19T14:14:56Z</time>
      </trkpt>
      <trkpt lat="48.36812" lon="2.70082">
        <ele>111</ele>
        <time>2022-11-19T14:15:00Z</time>
      </trkpt>
      <trkpt lat="48.36811" lon="2.70088">
        <ele>111.40000152588</ele>
        <time>2022-11-19T14:15:04Z</time>
      </trkpt>
      <trkpt lat="48.36811" lon="2.70093">
        <ele>111.80000305176</ele>
        <time>2022-11-19T14:15:08Z</time>
      </trkpt>
      <trkpt lat="48.36811" lon="2.70098">
        <ele>112</ele>
        <time>2022-11-19T14:15:12Z</time>
      </trkpt>
      <trkpt lat="48.36811" lon="2.70104">
        <ele>112.40000152588</ele>
        <time>2022-11-19T14:15:16Z</time>
      </trkpt>
      <trkpt lat="48.36811" lon="2.70109">
        <ele>112.80000305176</ele>
        <time>2022-11-19T14:15:20Z</time>
      </trkpt>
      <trkpt lat="48.36811" lon="2.70114">
        <ele>113.40000152588</ele>
        <time>2022-11-19T14:15:24Z</time>
      </trkpt>
      <trkpt lat="48.3681" lon="2.70119">
        <ele>113.80000305176</ele>
        <time>2022-11-19T14:15:28Z</time>
      </trkpt>
      <trkpt lat="48.3681" lon="2.70124">
        <ele>114</ele>
        <time>2022-11-19T14:15:32Z</time>
      </trkpt>
      <trkpt lat="48.3681" lon="2.70129">
        <ele>114.40000152588</ele>
        <time>2022-11-19T14:15:36Z</time>
      </trkpt>
      <trkpt lat="48.36809" lon="2.70134">
        <ele>114.80000305176</ele>
        <time>2022-11-19T14:15:40Z</time>
      </trkpt>
      <trkpt lat="48.36809" lon="2.70137">
        <ele>115.40000152588</ele>
        <time>2022-11-19T14:15:44Z</time>
      </trkpt>
      <trkpt lat="48.3681" lon="2.70139">
        <ele>115.59999847412</ele>
        <time>2022-11-19T14:15:48Z</time>
      </trkpt>
      <trkpt lat="48.36809" lon="2.70141">
        <ele>115.80000305176</ele>
        <time>2022-11-19T14:15:52Z</time>
      </trkpt>
      <trkpt lat="48.3681" lon="2.70141">
        <ele>115.80000305176</ele>
        <time>2022-11-19T14:15:56Z</time>
      </trkpt>
      <trkpt lat="48.3681" lon="2.70142">
        <ele>115.80000305176</ele>
        <time>2022-11-19T14:16:00Z</time>
      </trkpt>
      <trkpt lat="48.36809" lon="2.70142">
        <ele>115.80000305176</ele>
        <time>2022-11-19T14:16:04Z</time>
      </trkpt>
      <trkpt lat="48.36809" lon="2.70143">
        <ele>115.80000305176</ele>
        <time>2022-11-19T14:16:08Z</time>
      </trkpt>
      <trkpt lat="48.3681" lon="2.70143">
        <ele>116</ele>
        <time>2022-11-19T14:16:12Z</time>
      </trkpt>
      <trkpt lat="48.36811" lon="2.70143">
        <ele>116</ele>
        <time>2022-11-19T14:16:16Z</time>
      </trkpt>
      <trkpt lat="48.36811" lon="2.70144">
        <ele>116</ele>
        <time>2022-11-19T14:16:20Z</time>
      </trkpt>
      <trkpt lat="48.36811" lon="2.70144">
        <ele>116</ele>
        <time>2022-11-19T14:16:24Z</time>
      </trkpt>
      <trkpt lat="48.3681" lon="2.70144">
        <ele>116</ele>
        <time>2022-11-19T14:16:28Z</time>
      </trkpt>
      <trkpt lat="48.3681" lon="2.70145">
        <ele>116</ele>
        <time>2022-11-19T14:16:32Z</time>
      </trkpt>
      <trkpt lat="48.3681" lon="2.70144">
        <ele>116</ele>
        <time>2022-11-19T14:16:36Z</time>
      </trkpt>
      <trkpt lat="48.3681" lon="2.70144">
        <ele>116.19999694824</ele>
        <time>2022-11-19T14:16:40Z</time>
      </trkpt>
      <trkpt lat="48.36811" lon="2.70143">
        <ele>116</ele>
        <time>2022-11-19T14:16:44Z</time>
      </trkpt>
      <trkpt lat="48.36811" lon="2.70143">
        <ele>116</ele>
        <time>2022-11-19T14:16:48Z</time>
      </trkpt>
      <trkpt lat="48.36811" lon="2.70142">
        <ele>116</ele>
        <time>2022-11-19T14:16:52Z</time>
      </trkpt>
      <trkpt lat="48.36811" lon="2.70143">
        <ele>116.19999694824</ele>
        <time>2022-11-19T14:16:56Z</time>
      </trkpt>
      <trkpt lat="48.36811" lon="2.70143">
        <ele>116.19999694824</ele>
        <time>2022-11-19T14:17:00Z</time>
      </trkpt>
      <trkpt lat="48.3681" lon="2.70143">
        <ele>116.19999694824</ele>
        <time>2022-11-19T14:17:04Z</time>
      </trkpt>
      <trkpt lat="48.3681" lon="2.70142">
        <ele>116.19999694824</ele>
        <time>2022-11-19T14:17:08Z</time>
      </trkpt>
      <trkpt lat="48.36809" lon="2.70142">
        <ele>116.19999694824</ele>
        <time>2022-11-19T14:17:12Z</time>
      </trkpt>
      <trkpt lat="48.36808" lon="2.70143">
        <ele>116.19999694824</ele>
        <time>2022-11-19T14:17:16Z</time>
      </trkpt>
      <trkpt lat="48.36807" lon="2.70143">
        <ele>116.19999694824</ele>
        <time>2022-11-19T14:17:20Z</time>
      </trkpt>
      <trkpt lat="48.36806" lon="2.70143">
        <ele>116.19999694824</ele>
        <time>2022-11-19T14:17:24Z</time>
      </trkpt>
      <trkpt lat="48.36805" lon="2.70144">
        <ele>116.19999694824</ele>
        <time>2022-11-19T14:17:28Z</time>
      </trkpt>
      <trkpt lat="48.36805" lon="2.70144">
        <ele>116.40000152588</ele>
        <time>2022-11-19T14:17:32Z</time>
      </trkpt>
      <trkpt lat="48.36804" lon="2.70145">
        <ele>116.40000152588</ele>
        <time>2022-11-19T14:17:36Z</time>
      </trkpt>
      <trkpt lat="48.36803" lon="2.70152">
        <ele>116.40000152588</ele>
        <time>2022-11-19T14:17:40Z</time>
      </trkpt>
      <trkpt lat="48.36804" lon="2.70158">
        <ele>116.40000152588</ele>
        <time>2022-11-19T14:17:44Z</time>
      </trkpt>
      <trkpt lat="48.36805" lon="2.70164">
        <ele>116.59999847412</ele>
        <time>2022-11-19T14:17:48Z</time>
      </trkpt>
      <trkpt lat="48.36805" lon="2.7017">
        <ele>116.80000305176</ele>
        <time>2022-11-19T14:17:52Z</time>
      </trkpt>
      <trkpt lat="48.36804" lon="2.70176">
        <ele>116.80000305176</ele>
        <time>2022-11-19T14:17:56Z</time>
      </trkpt>
      <trkpt lat="48.36803" lon="2.70182">
        <ele>117</ele>
        <time>2022-11-19T14:18:00Z</time>
      </trkpt>
      <trkpt lat="48.36803" lon="2.70187">
        <ele>117.19999694824</ele>
        <time>2022-11-19T14:18:04Z</time>
      </trkpt>
      <trkpt lat="48.36803" lon="2.70193">
        <ele>117.19999694824</ele>
        <time>2022-11-19T14:18:08Z</time>
      </trkpt>
      <trkpt lat="48.36804" lon="2.70199">
        <ele>117.40000152588</ele>
        <time>2022-11-19T14:18:12Z</time>
      </trkpt>
      <trkpt lat="48.36803" lon="2.70205">
        <ele>117.59999847412</ele>
        <time>2022-11-19T14:18:16Z</time>
      </trkpt>
      <trkpt lat="48.36803" lon="2.7021">
        <ele>117.59999847412</ele>
        <time>2022-11-19T14:18:20Z</time>
      </trkpt>
      <trkpt lat="48.36802" lon="2.70216">
        <ele>117.80000305176</ele>
        <time>2022-11-19T14:18:24Z</time>
      </trkpt>
      <trkpt lat="48.36802" lon="2.70223">
        <ele>118</ele>
        <time>2022-11-19T14:18:28Z</time>
      </trkpt>
      <trkpt lat="48.36801" lon="2.7023">
        <ele>118</ele>
        <time>2022-11-19T14:18:32Z</time>
      </trkpt>
      <trkpt lat="48.36801" lon="2.70237">
        <ele>118.19999694824</ele>
        <time>2022-11-19T14:18:36Z</time>
      </trkpt>
      <trkpt lat="48.368" lon="2.70244">
        <ele>118.19999694824</ele>
        <time>2022-11-19T14:18:40Z</time>
      </trkpt>
      <trkpt lat="48.368" lon="2.7025">
        <ele>118.40000152588</ele>
        <time>2022-11-19T14:18:44Z</time>
      </trkpt>
      <trkpt lat="48.36799" lon="2.70257">
        <ele>118.40000152588</ele>
        <time>2022-11-19T14:18:48Z</time>
      </trkpt>
      <trkpt lat="48.36798" lon="2.70264">
        <ele>118.40000152588</ele>
        <time>2022-11-19T14:18:52Z</time>
      </trkpt>
      <trkpt lat="48.36798" lon="2.7027">
        <ele>118.59999847412</ele>
        <time>2022-11-19T14:18:56Z</time>
      </trkpt>
      <trkpt lat="48.36798" lon="2.70276">
        <ele>118.59999847412</ele>
        <time>2022-11-19T14:19:00Z</time>
      </trkpt>
      <trkpt lat="48.36798" lon="2.70281">
        <ele>118.59999847412</ele>
        <time>2022-11-19T14:19:04Z</time>
      </trkpt>
      <trkpt lat="48.36797" lon="2.70287">
        <ele>118.80000305176</ele>
        <time>2022-11-19T14:19:08Z</time>
      </trkpt>
      <trkpt lat="48.36797" lon="2.70294">
        <ele>118.80000305176</ele>
        <time>2022-11-19T14:19:12Z</time>
      </trkpt>
      <trkpt lat="48.36796" lon="2.703">
        <ele>118.80000305176</ele>
        <time>2022-11-19T14:19:16Z</time>
      </trkpt>
      <trkpt lat="48.36796" lon="2.70305">
        <ele>118.80000305176</ele>
        <time>2022-11-19T14:19:20Z</time>
      </trkpt>
      <trkpt lat="48.36796" lon="2.70311">
        <ele>118.80000305176</ele>
        <time>2022-11-19T14:19:24Z</time>
      </trkpt>
      <trkpt lat="48.36795" lon="2.70317">
        <ele>118.80000305176</ele>
        <time>2022-11-19T14:19:28Z</time>
      </trkpt>
      <trkpt lat="48.36795" lon="2.70323">
        <ele>119</ele>
        <time>2022-11-19T14:19:32Z</time>
      </trkpt>
      <trkpt lat="48.36795" lon="2.70329">
        <ele>119</ele>
        <time>2022-11-19T14:19:36Z</time>
      </trkpt>
      <trkpt lat="48.36794" lon="2.70335">
        <ele>119</ele>
        <time>2022-11-19T14:19:40Z</time>
      </trkpt>
      <trkpt lat="48.36793" lon="2.70341">
        <ele>119.19999694824</ele>
        <time>2022-11-19T14:19:44Z</time>
      </trkpt>
      <trkpt lat="48.36793" lon="2.70349">
        <ele>119.19999694824</ele>
        <time>2022-11-19T14:19:48Z</time>
      </trkpt>
      <trkpt lat="48.36792" lon="2.70356">
        <ele>119.19999694824</ele>
        <time>2022-11-19T14:19:52Z</time>
      </trkpt>
      <trkpt lat="48.36793" lon="2.70363">
        <ele>119.19999694824</ele>
        <time>2022-11-19T14:19:56Z</time>
      </trkpt>
      <trkpt lat="48.36792" lon="2.7037">
        <ele>119.19999694824</ele>
        <time>2022-11-19T14:20:00Z</time>
      </trkpt>
      <trkpt lat="48.36792" lon="2.70375">
        <ele>119.19999694824</ele>
        <time>2022-11-19T14:20:04Z</time>
      </trkpt>
      <trkpt lat="48.36792" lon="2.70383">
        <ele>119.19999694824</ele>
        <time>2022-11-19T14:20:08Z</time>
      </trkpt>
      <trkpt lat="48.36792" lon="2.70389">
        <ele>119.19999694824</ele>
        <time>2022-11-19T14:20:12Z</time>
      </trkpt>
      <trkpt lat="48.36792" lon="2.70395">
        <ele>119.19999694824</ele>
        <time>2022-11-19T14:20:16Z</time>
      </trkpt>
      <trkpt lat="48.36791" lon="2.70403">
        <ele>119.19999694824</ele>
        <time>2022-11-19T14:20:20Z</time>
      </trkpt>
      <trkpt lat="48.3679" lon="2.7041">
        <ele>119.19999694824</ele>
        <time>2022-11-19T14:20:24Z</time>
      </trkpt>
      <trkpt lat="48.3679" lon="2.70416">
        <ele>119.19999694824</ele>
        <time>2022-11-19T14:20:28Z</time>
      </trkpt>
      <trkpt lat="48.3679" lon="2.70422">
        <ele>119.19999694824</ele>
        <time>2022-11-19T14:20:32Z</time>
      </trkpt>
      <trkpt lat="48.36789" lon="2.70428">
        <ele>119.19999694824</ele>
        <time>2022-11-19T14:20:36Z</time>
      </trkpt>
      <trkpt lat="48.36789" lon="2.70435">
        <ele>119.19999694824</ele>
        <time>2022-11-19T14:20:40Z</time>
      </trkpt>
      <trkpt lat="48.36787" lon="2.70443">
        <ele>119.19999694824</ele>
        <time>2022-11-19T14:20:44Z</time>
      </trkpt>
      <trkpt lat="48.36786" lon="2.7045">
        <ele>119.40000152588</ele>
        <time>2022-11-19T14:20:48Z</time>
      </trkpt>
      <trkpt lat="48.36786" lon="2.70455">
        <ele>119.59999847412</ele>
        <time>2022-11-19T14:20:52Z</time>
      </trkpt>
      <trkpt lat="48.36785" lon="2.70462">
        <ele>119.40000152588</ele>
        <time>2022-11-19T14:20:56Z</time>
      </trkpt>
      <trkpt lat="48.36785" lon="2.70468">
        <ele>119.40000152588</ele>
        <time>2022-11-19T14:21:00Z</time>
      </trkpt>
      <trkpt lat="48.36784" lon="2.70475">
        <ele>119.40000152588</ele>
        <time>2022-11-19T14:21:04Z</time>
      </trkpt>
      <trkpt lat="48.36784" lon="2.70481">
        <ele>119.59999847412</ele>
        <time>2022-11-19T14:21:08Z</time>
      </trkpt>
      <trkpt lat="48.36785" lon="2.70487">
        <ele>119.59999847412</ele>
        <time>2022-11-19T14:21:12Z</time>
      </trkpt>
      <trkpt lat="48.36784" lon="2.70494">
        <ele>119.59999847412</ele>
        <time>2022-11-19T14:21:16Z</time>
      </trkpt>
      <trkpt lat="48.36784" lon="2.70501">
        <ele>119.59999847412</ele>
        <time>2022-11-19T14:21:20Z</time>
      </trkpt>
      <trkpt lat="48.36784" lon="2.70508">
        <ele>119.40000152588</ele>
        <time>2022-11-19T14:21:24Z</time>
      </trkpt>
      <trkpt lat="48.36783" lon="2.70515">
        <ele>119.40000152588</ele>
        <time>2022-11-19T14:21:28Z</time>
      </trkpt>
      <trkpt lat="48.36783" lon="2.70522">
        <ele>119.19999694824</ele>
        <time>2022-11-19T14:21:32Z</time>
      </trkpt>
      <trkpt lat="48.36782" lon="2.70528">
        <ele>119.40000152588</ele>
        <time>2022-11-19T14:21:36Z</time>
      </trkpt>
      <trkpt lat="48.36782" lon="2.70534">
        <ele>119.40000152588</ele>
        <time>2022-11-19T14:21:40Z</time>
      </trkpt>
      <trkpt lat="48.36781" lon="2.7054">
        <ele>119.40000152588</ele>
        <time>2022-11-19T14:21:44Z</time>
      </trkpt>
      <trkpt lat="48.3678" lon="2.70547">
        <ele>119.40000152588</ele>
        <time>2022-11-19T14:21:48Z</time>
      </trkpt>
      <trkpt lat="48.36779" lon="2.70553">
        <ele>119.40000152588</ele>
        <time>2022-11-19T14:21:52Z</time>
      </trkpt>
      <trkpt lat="48.3678" lon="2.7056">
        <ele>119.40000152588</ele>
        <time>2022-11-19T14:21:56Z</time>
      </trkpt>
      <trkpt lat="48.36779" lon="2.70566">
        <ele>119.19999694824</ele>
        <time>2022-11-19T14:22:00Z</time>
      </trkpt>
      <trkpt lat="48.36778" lon="2.70572">
        <ele>119.19999694824</ele>
        <time>2022-11-19T14:22:04Z</time>
      </trkpt>
      <trkpt lat="48.36778" lon="2.70579">
        <ele>119.19999694824</ele>
        <time>2022-11-19T14:22:08Z</time>
      </trkpt>
      <trkpt lat="48.36778" lon="2.70586">
        <ele>119</ele>
        <time>2022-11-19T14:22:12Z</time>
      </trkpt>
      <trkpt lat="48.36778" lon="2.70593">
        <ele>119</ele>
        <time>2022-11-19T14:22:16Z</time>
      </trkpt>
      <trkpt lat="48.36777" lon="2.706">
        <ele>119</ele>
        <time>2022-11-19T14:22:20Z</time>
      </trkpt>
      <trkpt lat="48.36777" lon="2.70605">
        <ele>118.80000305176</ele>
        <time>2022-11-19T14:22:24Z</time>
      </trkpt>
      <trkpt lat="48.36777" lon="2.70605">
        <ele>118.59999847412</ele>
        <time>2022-11-19T14:22:28Z</time>
      </trkpt>
      <trkpt lat="48.36777" lon="2.70605">
        <ele>118.59999847412</ele>
        <time>2022-11-19T14:22:32Z</time>
      </trkpt>
      <trkpt lat="48.36777" lon="2.70605">
        <ele>118.59999847412</ele>
        <time>2022-11-19T14:22:36Z</time>
      </trkpt>
      <trkpt lat="48.36777" lon="2.70603">
        <ele>118.59999847412</ele>
        <time>2022-11-19T14:22:40Z</time>
      </trkpt>
      <trkpt lat="48.36778" lon="2.70602">
        <ele>118.59999847412</ele>
        <time>2022-11-19T14:22:44Z</time>
      </trkpt>
      <trkpt lat="48.36778" lon="2.70601">
        <ele>118.59999847412</ele>
        <time>2022-11-19T14:22:48Z</time>
      </trkpt>
      <trkpt lat="48.36779" lon="2.70602">
        <ele>118.59999847412</ele>
        <time>2022-11-19T14:22:52Z</time>
      </trkpt>
      <trkpt lat="48.36778" lon="2.70607">
        <ele>118.59999847412</ele>
        <time>2022-11-19T14:22:56Z</time>
      </trkpt>
      <trkpt lat="48.36775" lon="2.70616">
        <ele>118.59999847412</ele>
        <time>2022-11-19T14:23:00Z</time>
      </trkpt>
      <trkpt lat="48.36772" lon="2.70621">
        <ele>118.59999847412</ele>
        <time>2022-11-19T14:23:04Z</time>
      </trkpt>
      <trkpt lat="48.3677" lon="2.70625">
        <ele>118.19999694824</ele>
        <time>2022-11-19T14:23:08Z</time>
      </trkpt>
      <trkpt lat="48.36768" lon="2.70627">
        <ele>118.19999694824</ele>
        <time>2022-11-19T14:23:12Z</time>
      </trkpt>
      <trkpt lat="48.36767" lon="2.7063">
        <ele>118</ele>
        <time>2022-11-19T14:23:16Z</time>
      </trkpt>
      <trkpt lat="48.36767" lon="2.70636">
        <ele>118</ele>
        <time>2022-11-19T14:23:20Z</time>
      </trkpt>
      <trkpt lat="48.36768" lon="2.70641">
        <ele>117.59999847412</ele>
        <time>2022-11-19T14:23:24Z</time>
      </trkpt>
      <trkpt lat="48.36768" lon="2.70646">
        <ele>117.40000152588</ele>
        <time>2022-11-19T14:23:28Z</time>
      </trkpt>
      <trkpt lat="48.36768" lon="2.70648">
        <ele>117.19999694824</ele>
        <time>2022-11-19T14:23:32Z</time>
      </trkpt>
      <trkpt lat="48.36768" lon="2.70651">
        <ele>116.80000305176</ele>
        <time>2022-11-19T14:23:36Z</time>
      </trkpt>
      <trkpt lat="48.36768" lon="2.70655">
        <ele>116.59999847412</ele>
        <time>2022-11-19T14:23:40Z</time>
      </trkpt>
      <trkpt lat="48.36768" lon="2.70661">
        <ele>116.40000152588</ele>
        <time>2022-11-19T14:23:44Z</time>
      </trkpt>
      <trkpt lat="48.36767" lon="2.70668">
        <ele>116</ele>
        <time>2022-11-19T14:23:48Z</time>
      </trkpt>
      <trkpt lat="48.36766" lon="2.70672">
        <ele>116</ele>
        <time>2022-11-19T14:23:52Z</time>
      </trkpt>
      <trkpt lat="48.36764" lon="2.70676">
        <ele>115.80000305176</ele>
        <time>2022-11-19T14:23:56Z</time>
      </trkpt>
      <trkpt lat="48.36763" lon="2.70683">
        <ele>115.80000305176</ele>
        <time>2022-11-19T14:24:00Z</time>
      </trkpt>
      <trkpt lat="48.36761" lon="2.70686">
        <ele>116</ele>
        <time>2022-11-19T14:24:04Z</time>
      </trkpt>
      <trkpt lat="48.36762" lon="2.7069">
        <ele>116</ele>
        <time>2022-11-19T14:24:08Z</time>
      </trkpt>
      <trkpt lat="48.36762" lon="2.70691">
        <ele>115.59999847412</ele>
        <time>2022-11-19T14:24:12Z</time>
      </trkpt>
      <trkpt lat="48.36764" lon="2.70692">
        <ele>115.59999847412</ele>
        <time>2022-11-19T14:24:16Z</time>
      </trkpt>
      <trkpt lat="48.36765" lon="2.70694">
        <ele>115.40000152588</ele>
        <time>2022-11-19T14:24:20Z</time>
      </trkpt>
      <trkpt lat="48.36767" lon="2.70696">
        <ele>114.80000305176</ele>
        <time>2022-11-19T14:24:24Z</time>
      </trkpt>
      <trkpt lat="48.36768" lon="2.70698">
        <ele>114.40000152588</ele>
        <time>2022-11-19T14:24:28Z</time>
      </trkpt>
      <trkpt lat="48.36769" lon="2.70701">
        <ele>113.59999847412</ele>
        <time>2022-11-19T14:24:32Z</time>
      </trkpt>
      <trkpt lat="48.36768" lon="2.70709">
        <ele>113.19999694824</ele>
        <time>2022-11-19T14:24:36Z</time>
      </trkpt>
      <trkpt lat="48.36768" lon="2.70723">
        <ele>112.59999847412</ele>
        <time>2022-11-19T14:24:40Z</time>
      </trkpt>
      <trkpt lat="48.36767" lon="2.70726">
        <ele>111.40000152588</ele>
        <time>2022-11-19T14:24:44Z</time>
      </trkpt>
      <trkpt lat="48.36768" lon="2.70728">
        <ele>110.59999847412</ele>
        <time>2022-11-19T14:24:48Z</time>
      </trkpt>
      <trkpt lat="48.36767" lon="2.70731">
        <ele>110</ele>
        <time>2022-11-19T14:24:52Z</time>
      </trkpt>
      <trkpt lat="48.36765" lon="2.70739">
        <ele>109</ele>
        <time>2022-11-19T14:24:56Z</time>
      </trkpt>
      <trkpt lat="48.36763" lon="2.70745">
        <ele>108.40000152588</ele>
        <time>2022-11-19T14:25:00Z</time>
      </trkpt>
      <trkpt lat="48.36764" lon="2.7075">
        <ele>107.40000152588</ele>
        <time>2022-11-19T14:25:04Z</time>
      </trkpt>
      <trkpt lat="48.36765" lon="2.70756">
        <ele>106.59999847412</ele>
        <time>2022-11-19T14:25:08Z</time>
      </trkpt>
      <trkpt lat="48.36765" lon="2.70759">
        <ele>105.59999847412</ele>
        <time>2022-11-19T14:25:12Z</time>
      </trkpt>
      <trkpt lat="48.36765" lon="2.70761">
        <ele>104.80000305176</ele>
        <time>2022-11-19T14:25:16Z</time>
      </trkpt>
      <trkpt lat="48.36765" lon="2.70766">
        <ele>104.19999694824</ele>
        <time>2022-11-19T14:25:20Z</time>
      </trkpt>
      <trkpt lat="48.36766" lon="2.70774">
        <ele>103.40000152588</ele>
        <time>2022-11-19T14:25:24Z</time>
      </trkpt>
      <trkpt lat="48.36767" lon="2.70779">
        <ele>102.59999847412</ele>
        <time>2022-11-19T14:25:28Z</time>
      </trkpt>
      <trkpt lat="48.36766" lon="2.70785">
        <ele>102.19999694824</ele>
        <time>2022-11-19T14:25:32Z</time>
      </trkpt>
      <trkpt lat="48.36766" lon="2.70788">
        <ele>101.59999847412</ele>
        <time>2022-11-19T14:25:36Z</time>
      </trkpt>
      <trkpt lat="48.36764" lon="2.70795">
        <ele>101</ele>
        <time>2022-11-19T14:25:40Z</time>
      </trkpt>
      <trkpt lat="48.36763" lon="2.70802">
        <ele>100.59999847412</ele>
        <time>2022-11-19T14:25:44Z</time>
      </trkpt>
      <trkpt lat="48.36762" lon="2.70807">
        <ele>100.40000152588</ele>
        <time>2022-11-19T14:25:48Z</time>
      </trkpt>
      <trkpt lat="48.36761" lon="2.70813">
        <ele>100</ele>
        <time>2022-11-19T14:25:52Z</time>
      </trkpt>
      <trkpt lat="48.3676" lon="2.70819">
        <ele>99.800003051758</ele>
        <time>2022-11-19T14:25:56Z</time>
      </trkpt>
      <trkpt lat="48.36761" lon="2.70825">
        <ele>99.400001525879</ele>
        <time>2022-11-19T14:26:00Z</time>
      </trkpt>
      <trkpt lat="48.36762" lon="2.70831">
        <ele>99.199996948242</ele>
        <time>2022-11-19T14:26:04Z</time>
      </trkpt>
      <trkpt lat="48.36762" lon="2.70836">
        <ele>99</ele>
        <time>2022-11-19T14:26:08Z</time>
      </trkpt>
      <trkpt lat="48.36762" lon="2.70841">
        <ele>98.599998474121</ele>
        <time>2022-11-19T14:26:12Z</time>
      </trkpt>
      <trkpt lat="48.36762" lon="2.7085">
        <ele>98.400001525879</ele>
        <time>2022-11-19T14:26:16Z</time>
      </trkpt>
      <trkpt lat="48.36762" lon="2.70857">
        <ele>98.400001525879</ele>
        <time>2022-11-19T14:26:20Z</time>
      </trkpt>
      <trkpt lat="48.36761" lon="2.70863">
        <ele>98.199996948242</ele>
        <time>2022-11-19T14:26:24Z</time>
      </trkpt>
      <trkpt lat="48.36761" lon="2.70868">
        <ele>98</ele>
        <time>2022-11-19T14:26:28Z</time>
      </trkpt>
      <trkpt lat="48.36759" lon="2.70875">
        <ele>97.800003051758</ele>
        <time>2022-11-19T14:26:32Z</time>
      </trkpt>
      <trkpt lat="48.36758" lon="2.7088">
        <ele>97.599998474121</ele>
        <time>2022-11-19T14:26:36Z</time>
      </trkpt>
      <trkpt lat="48.36759" lon="2.70885">
        <ele>97.400001525879</ele>
        <time>2022-11-19T14:26:40Z</time>
      </trkpt>
      <trkpt lat="48.36758" lon="2.70891">
        <ele>97.400001525879</ele>
        <time>2022-11-19T14:26:44Z</time>
      </trkpt>
      <trkpt lat="48.36758" lon="2.70895">
        <ele>97.199996948242</ele>
        <time>2022-11-19T14:26:48Z</time>
      </trkpt>
      <trkpt lat="48.36758" lon="2.70901">
        <ele>97.199996948242</ele>
        <time>2022-11-19T14:26:52Z</time>
      </trkpt>
      <trkpt lat="48.36759" lon="2.70906">
        <ele>97</ele>
        <time>2022-11-19T14:26:56Z</time>
      </trkpt>
      <trkpt lat="48.36758" lon="2.70912">
        <ele>96.800003051758</ele>
        <time>2022-11-19T14:27:00Z</time>
      </trkpt>
      <trkpt lat="48.36757" lon="2.70917">
        <ele>96.599998474121</ele>
        <time>2022-11-19T14:27:04Z</time>
      </trkpt>
      <trkpt lat="48.36757" lon="2.70923">
        <ele>96.400001525879</ele>
        <time>2022-11-19T14:27:08Z</time>
      </trkpt>
      <trkpt lat="48.36757" lon="2.70929">
        <ele>96.400001525879</ele>
        <time>2022-11-19T14:27:12Z</time>
      </trkpt>
      <trkpt lat="48.36756" lon="2.70937">
        <ele>96.199996948242</ele>
        <time>2022-11-19T14:27:16Z</time>
      </trkpt>
      <trkpt lat="48.36755" lon="2.70944">
        <ele>96.199996948242</ele>
        <time>2022-11-19T14:27:20Z</time>
      </trkpt>
      <trkpt lat="48.36753" lon="2.7095">
        <ele>96.199996948242</ele>
        <time>2022-11-19T14:27:24Z</time>
      </trkpt>
      <trkpt lat="48.36752" lon="2.70955">
        <ele>96.199996948242</ele>
        <time>2022-11-19T14:27:28Z</time>
      </trkpt>
      <trkpt lat="48.36751" lon="2.70958">
        <ele>96.199996948242</ele>
        <time>2022-11-19T14:27:32Z</time>
      </trkpt>
      <trkpt lat="48.36751" lon="2.70959">
        <ele>96</ele>
        <time>2022-11-19T14:27:36Z</time>
      </trkpt>
      <trkpt lat="48.36751" lon="2.70961">
        <ele>96</ele>
        <time>2022-11-19T14:27:40Z</time>
      </trkpt>
      <trkpt lat="48.3675" lon="2.70962">
        <ele>96</ele>
        <time>2022-11-19T14:27:44Z</time>
      </trkpt>
      <trkpt lat="48.3675" lon="2.70963">
        <ele>96.199996948242</ele>
        <time>2022-11-19T14:27:48Z</time>
      </trkpt>
      <trkpt lat="48.36749" lon="2.70963">
        <ele>96.400001525879</ele>
        <time>2022-11-19T14:27:52Z</time>
      </trkpt>
      <trkpt lat="48.36749" lon="2.70964">
        <ele>96.400001525879</ele>
        <time>2022-11-19T14:27:56Z</time>
      </trkpt>
      <trkpt lat="48.3675" lon="2.70966">
        <ele>96.400001525879</ele>
        <time>2022-11-19T14:28:00Z</time>
      </trkpt>
      <trkpt lat="48.36751" lon="2.70967">
        <ele>96.199996948242</ele>
        <time>2022-11-19T14:28:04Z</time>
      </trkpt>
      <trkpt lat="48.36751" lon="2.70967">
        <ele>96.199996948242</ele>
        <time>2022-11-19T14:28:08Z</time>
      </trkpt>
      <trkpt lat="48.36752" lon="2.70966">
        <ele>96.199996948242</ele>
        <time>2022-11-19T14:28:12Z</time>
      </trkpt>
      <trkpt lat="48.36752" lon="2.70966">
        <ele>96.199996948242</ele>
        <time>2022-11-19T14:28:16Z</time>
      </trkpt>
      <trkpt lat="48.36752" lon="2.70966">
        <ele>96.199996948242</ele>
        <time>2022-11-19T14:28:20Z</time>
      </trkpt>
      <trkpt lat="48.36751" lon="2.70967">
        <ele>96.400001525879</ele>
        <time>2022-11-19T14:28:24Z</time>
      </trkpt>
      <trkpt lat="48.36751" lon="2.70967">
        <ele>95.800003051758</ele>
        <time>2022-11-19T14:28:28Z</time>
      </trkpt>
      <trkpt lat="48.3675" lon="2.70967">
        <ele>95.800003051758</ele>
        <time>2022-11-19T14:28:32Z</time>
      </trkpt>
      <trkpt lat="48.3675" lon="2.70967">
        <ele>95.800003051758</ele>
        <time>2022-11-19T14:28:36Z</time>
      </trkpt>
      <trkpt lat="48.36748" lon="2.70968">
        <ele>95.800003051758</ele>
        <time>2022-11-19T14:28:40Z</time>
      </trkpt>
      <trkpt lat="48.36748" lon="2.70968">
        <ele>95.800003051758</ele>
        <time>2022-11-19T14:28:44Z</time>
      </trkpt>
      <trkpt lat="48.36748" lon="2.70968">
        <ele>95.800003051758</ele>
        <time>2022-11-19T14:28:48Z</time>
      </trkpt>
      <trkpt lat="48.36748" lon="2.70967">
        <ele>95.800003051758</ele>
        <time>2022-11-19T14:28:52Z</time>
      </trkpt>
      <trkpt lat="48.36748" lon="2.70967">
        <ele>95.800003051758</ele>
        <time>2022-11-19T14:28:56Z</time>
      </trkpt>
      <trkpt lat="48.36748" lon="2.70967">
        <ele>95.800003051758</ele>
        <time>2022-11-19T14:29:00Z</time>
      </trkpt>
      <trkpt lat="48.36747" lon="2.70967">
        <ele>95.800003051758</ele>
        <time>2022-11-19T14:29:04Z</time>
      </trkpt>
      <trkpt lat="48.36747" lon="2.70967">
        <ele>95.800003051758</ele>
        <time>2022-11-19T14:29:08Z</time>
      </trkpt>
      <trkpt lat="48.36746" lon="2.70968">
        <ele>95.800003051758</ele>
        <time>2022-11-19T14:29:12Z</time>
      </trkpt>
      <trkpt lat="48.36746" lon="2.70969">
        <ele>95.800003051758</ele>
        <time>2022-11-19T14:29:16Z</time>
      </trkpt>
      <trkpt lat="48.36746" lon="2.70969">
        <ele>95.800003051758</ele>
        <time>2022-11-19T14:29:20Z</time>
      </trkpt>
      <trkpt lat="48.36747" lon="2.70969">
        <ele>95.800003051758</ele>
        <time>2022-11-19T14:29:24Z</time>
      </trkpt>
      <trkpt lat="48.36748" lon="2.7097">
        <ele>95.800003051758</ele>
        <time>2022-11-19T14:29:28Z</time>
      </trkpt>
      <trkpt lat="48.3675" lon="2.70969">
        <ele>95.800003051758</ele>
        <time>2022-11-19T14:29:32Z</time>
      </trkpt>
      <trkpt lat="48.3675" lon="2.70969">
        <ele>95.800003051758</ele>
        <time>2022-11-19T14:29:36Z</time>
      </trkpt>
      <trkpt lat="48.3675" lon="2.70968">
        <ele>95.800003051758</ele>
        <time>2022-11-19T14:29:40Z</time>
      </trkpt>
      <trkpt lat="48.3675" lon="2.70967">
        <ele>95.800003051758</ele>
        <time>2022-11-19T14:29:44Z</time>
      </trkpt>
      <trkpt lat="48.36749" lon="2.70967">
        <ele>95.800003051758</ele>
        <time>2022-11-19T14:29:48Z</time>
      </trkpt>
      <trkpt lat="48.36749" lon="2.70967">
        <ele>95.800003051758</ele>
        <time>2022-11-19T14:29:52Z</time>
      </trkpt>
      <trkpt lat="48.36749" lon="2.70966">
        <ele>95.800003051758</ele>
        <time>2022-11-19T14:29:56Z</time>
      </trkpt>
      <trkpt lat="48.3675" lon="2.70965">
        <ele>95.800003051758</ele>
        <time>2022-11-19T14:30:00Z</time>
      </trkpt>
      <trkpt lat="48.3675" lon="2.70965">
        <ele>95.800003051758</ele>
        <time>2022-11-19T14:30:04Z</time>
      </trkpt>
      <trkpt lat="48.3675" lon="2.70965">
        <ele>95.800003051758</ele>
        <time>2022-11-19T14:30:08Z</time>
      </trkpt>
      <trkpt lat="48.3675" lon="2.70965">
        <ele>95.800003051758</ele>
        <time>2022-11-19T14:30:12Z</time>
      </trkpt>
      <trkpt lat="48.36751" lon="2.70964">
        <ele>95.800003051758</ele>
        <time>2022-11-19T14:30:16Z</time>
      </trkpt>
      <trkpt lat="48.36752" lon="2.70963">
        <ele>95.800003051758</ele>
        <time>2022-11-19T14:30:20Z</time>
      </trkpt>
      <trkpt lat="48.36752" lon="2.70962">
        <ele>95.800003051758</ele>
        <time>2022-11-19T14:30:24Z</time>
      </trkpt>
      <trkpt lat="48.36752" lon="2.70962">
        <ele>95.800003051758</ele>
        <time>2022-11-19T14:30:28Z</time>
      </trkpt>
      <trkpt lat="48.36752" lon="2.70962">
        <ele>95.800003051758</ele>
        <time>2022-11-19T14:30:32Z</time>
      </trkpt>
      <trkpt lat="48.36751" lon="2.70962">
        <ele>95.800003051758</ele>
        <time>2022-11-19T14:30:36Z</time>
      </trkpt>
      <trkpt lat="48.36751" lon="2.70961">
        <ele>95.800003051758</ele>
        <time>2022-11-19T14:30:40Z</time>
      </trkpt>
      <trkpt lat="48.36751" lon="2.70961">
        <ele>95.800003051758</ele>
        <time>2022-11-19T14:30:44Z</time>
      </trkpt>
      <trkpt lat="48.36751" lon="2.7096">
        <ele>95.800003051758</ele>
        <time>2022-11-19T14:30:48Z</time>
      </trkpt>
      <trkpt lat="48.3675" lon="2.70959">
        <ele>95.800003051758</ele>
        <time>2022-11-19T14:30:52Z</time>
      </trkpt>
      <trkpt lat="48.3675" lon="2.70958">
        <ele>95.800003051758</ele>
        <time>2022-11-19T14:30:56Z</time>
      </trkpt>
      <trkpt lat="48.36749" lon="2.70958">
        <ele>95.800003051758</ele>
        <time>2022-11-19T14:31:00Z</time>
      </trkpt>
      <trkpt lat="48.36749" lon="2.70958">
        <ele>95.800003051758</ele>
        <time>2022-11-19T14:31:04Z</time>
      </trkpt>
      <trkpt lat="48.36749" lon="2.70958">
        <ele>95.800003051758</ele>
        <time>2022-11-19T14:31:08Z</time>
      </trkpt>
      <trkpt lat="48.36749" lon="2.70958">
        <ele>95.800003051758</ele>
        <time>2022-11-19T14:31:12Z</time>
      </trkpt>
      <trkpt lat="48.36749" lon="2.70959">
        <ele>95.800003051758</ele>
        <time>2022-11-19T14:31:16Z</time>
      </trkpt>
      <trkpt lat="48.36749" lon="2.7096">
        <ele>95.800003051758</ele>
        <time>2022-11-19T14:31:20Z</time>
      </trkpt>
      <trkpt lat="48.36748" lon="2.70957">
        <ele>95.800003051758</ele>
        <time>2022-11-19T14:31:24Z</time>
      </trkpt>
      <trkpt lat="48.36747" lon="2.70957">
        <ele>95.800003051758</ele>
        <time>2022-11-19T14:31:28Z</time>
      </trkpt>
      <trkpt lat="48.36749" lon="2.70958">
        <ele>95.800003051758</ele>
        <time>2022-11-19T14:31:32Z</time>
      </trkpt>
      <trkpt lat="48.36749" lon="2.7096">
        <ele>95.800003051758</ele>
        <time>2022-11-19T14:31:36Z</time>
      </trkpt>
      <trkpt lat="48.3675" lon="2.70962">
        <ele>95.800003051758</ele>
        <time>2022-11-19T14:31:40Z</time>
      </trkpt>
      <trkpt lat="48.3675" lon="2.70961">
        <ele>95.800003051758</ele>
        <time>2022-11-19T14:31:44Z</time>
      </trkpt>
      <trkpt lat="48.36749" lon="2.70961">
        <ele>95.800003051758</ele>
        <time>2022-11-19T14:31:48Z</time>
      </trkpt>
      <trkpt lat="48.3675" lon="2.70962">
        <ele>95.800003051758</ele>
        <time>2022-11-19T14:31:52Z</time>
      </trkpt>
      <trkpt lat="48.3675" lon="2.70961">
        <ele>95.800003051758</ele>
        <time>2022-11-19T14:31:56Z</time>
      </trkpt>
      <trkpt lat="48.3675" lon="2.7096">
        <ele>95.800003051758</ele>
        <time>2022-11-19T14:32:00Z</time>
      </trkpt>
      <trkpt lat="48.36751" lon="2.7096">
        <ele>95.800003051758</ele>
        <time>2022-11-19T14:32:04Z</time>
      </trkpt>
      <trkpt lat="48.36751" lon="2.70959">
        <ele>95.800003051758</ele>
        <time>2022-11-19T14:32:08Z</time>
      </trkpt>
      <trkpt lat="48.3675" lon="2.70957">
        <ele>95.800003051758</ele>
        <time>2022-11-19T14:32:12Z</time>
      </trkpt>
      <trkpt lat="48.3675" lon="2.70957">
        <ele>95.800003051758</ele>
        <time>2022-11-19T14:32:16Z</time>
      </trkpt>
      <trkpt lat="48.3675" lon="2.70957">
        <ele>95.800003051758</ele>
        <time>2022-11-19T14:32:20Z</time>
      </trkpt>
      <trkpt lat="48.3675" lon="2.70957">
        <ele>95.800003051758</ele>
        <time>2022-11-19T14:32:24Z</time>
      </trkpt>
      <trkpt lat="48.3675" lon="2.70958">
        <ele>95.800003051758</ele>
        <time>2022-11-19T14:32:28Z</time>
      </trkpt>
      <trkpt lat="48.3675" lon="2.70959">
        <ele>95.800003051758</ele>
        <time>2022-11-19T14:32:32Z</time>
      </trkpt>
      <trkpt lat="48.36748" lon="2.70963">
        <ele>95.800003051758</ele>
        <time>2022-11-19T14:32:36Z</time>
      </trkpt>
      <trkpt lat="48.36748" lon="2.70964">
        <ele>95.800003051758</ele>
        <time>2022-11-19T14:32:40Z</time>
      </trkpt>
      <trkpt lat="48.36748" lon="2.70965">
        <ele>95.800003051758</ele>
        <time>2022-11-19T14:32:44Z</time>
      </trkpt>
      <trkpt lat="48.36747" lon="2.70966">
        <ele>95.800003051758</ele>
        <time>2022-11-19T14:32:48Z</time>
      </trkpt>
      <trkpt lat="48.36748" lon="2.70967">
        <ele>95.800003051758</ele>
        <time>2022-11-19T14:32:52Z</time>
      </trkpt>
      <trkpt lat="48.36746" lon="2.70968">
        <ele>95.800003051758</ele>
        <time>2022-11-19T14:32:56Z</time>
      </trkpt>
      <trkpt lat="48.36745" lon="2.70969">
        <ele>95.800003051758</ele>
        <time>2022-11-19T14:33:00Z</time>
      </trkpt>
      <trkpt lat="48.36743" lon="2.70969">
        <ele>95.800003051758</ele>
        <time>2022-11-19T14:33:04Z</time>
      </trkpt>
      <trkpt lat="48.36743" lon="2.70968">
        <ele>95.800003051758</ele>
        <time>2022-11-19T14:33:08Z</time>
      </trkpt>
      <trkpt lat="48.36744" lon="2.70966">
        <ele>95.800003051758</ele>
        <time>2022-11-19T14:33:12Z</time>
      </trkpt>
      <trkpt lat="48.36744" lon="2.70967">
        <ele>95.800003051758</ele>
        <time>2022-11-19T14:33:16Z</time>
      </trkpt>
      <trkpt lat="48.36743" lon="2.70967">
        <ele>95.800003051758</ele>
        <time>2022-11-19T14:33:20Z</time>
      </trkpt>
      <trkpt lat="48.36743" lon="2.70967">
        <ele>95.800003051758</ele>
        <time>2022-11-19T14:33:24Z</time>
      </trkpt>
      <trkpt lat="48.36743" lon="2.70965">
        <ele>95.800003051758</ele>
        <time>2022-11-19T14:33:28Z</time>
      </trkpt>
      <trkpt lat="48.36744" lon="2.70964">
        <ele>95.800003051758</ele>
        <time>2022-11-19T14:33:32Z</time>
      </trkpt>
      <trkpt lat="48.36745" lon="2.70963">
        <ele>95.800003051758</ele>
        <time>2022-11-19T14:33:36Z</time>
      </trkpt>
      <trkpt lat="48.36745" lon="2.70962">
        <ele>95.800003051758</ele>
        <time>2022-11-19T14:33:40Z</time>
      </trkpt>
      <trkpt lat="48.36745" lon="2.70963">
        <ele>95.800003051758</ele>
        <time>2022-11-19T14:33:44Z</time>
      </trkpt>
      <trkpt lat="48.36745" lon="2.70963">
        <ele>95.800003051758</ele>
        <time>2022-11-19T14:33:48Z</time>
      </trkpt>
      <trkpt lat="48.36747" lon="2.70963">
        <ele>95.800003051758</ele>
        <time>2022-11-19T14:33:52Z</time>
      </trkpt>
      <trkpt lat="48.36748" lon="2.70964">
        <ele>95.800003051758</ele>
        <time>2022-11-19T14:33:56Z</time>
      </trkpt>
      <trkpt lat="48.36749" lon="2.70964">
        <ele>95.800003051758</ele>
        <time>2022-11-19T14:34:00Z</time>
      </trkpt>
      <trkpt lat="48.36751" lon="2.70964">
        <ele>95.800003051758</ele>
        <time>2022-11-19T14:34:04Z</time>
      </trkpt>
      <trkpt lat="48.36751" lon="2.70963">
        <ele>95.800003051758</ele>
        <time>2022-11-19T14:34:08Z</time>
      </trkpt>
      <trkpt lat="48.36751" lon="2.70962">
        <ele>95.800003051758</ele>
        <time>2022-11-19T14:34:12Z</time>
      </trkpt>
      <trkpt lat="48.36752" lon="2.70961">
        <ele>95.800003051758</ele>
        <time>2022-11-19T14:34:16Z</time>
      </trkpt>
      <trkpt lat="48.36753" lon="2.70959">
        <ele>95.800003051758</ele>
        <time>2022-11-19T14:34:20Z</time>
      </trkpt>
      <trkpt lat="48.36752" lon="2.70959">
        <ele>95.800003051758</ele>
        <time>2022-11-19T14:34:24Z</time>
      </trkpt>
      <trkpt lat="48.36752" lon="2.70959">
        <ele>95.800003051758</ele>
        <time>2022-11-19T14:34:28Z</time>
      </trkpt>
      <trkpt lat="48.36752" lon="2.7096">
        <ele>95.800003051758</ele>
        <time>2022-11-19T14:34:32Z</time>
      </trkpt>
      <trkpt lat="48.36751" lon="2.70961">
        <ele>95.800003051758</ele>
        <time>2022-11-19T14:34:36Z</time>
      </trkpt>
      <trkpt lat="48.3675" lon="2.70961">
        <ele>95.800003051758</ele>
        <time>2022-11-19T14:34:40Z</time>
      </trkpt>
      <trkpt lat="48.3675" lon="2.70962">
        <ele>95.800003051758</ele>
        <time>2022-11-19T14:34:44Z</time>
      </trkpt>
      <trkpt lat="48.36749" lon="2.70964">
        <ele>95.800003051758</ele>
        <time>2022-11-19T14:34:48Z</time>
      </trkpt>
      <trkpt lat="48.36748" lon="2.70965">
        <ele>95.800003051758</ele>
        <time>2022-11-19T14:34:52Z</time>
      </trkpt>
      <trkpt lat="48.36748" lon="2.70967">
        <ele>95.800003051758</ele>
        <time>2022-11-19T14:34:56Z</time>
      </trkpt>
      <trkpt lat="48.36748" lon="2.70967">
        <ele>95.800003051758</ele>
        <time>2022-11-19T14:35:00Z</time>
      </trkpt>
      <trkpt lat="48.36748" lon="2.70967">
        <ele>95.800003051758</ele>
        <time>2022-11-19T14:35:04Z</time>
      </trkpt>
      <trkpt lat="48.36748" lon="2.70967">
        <ele>95.800003051758</ele>
        <time>2022-11-19T14:35:08Z</time>
      </trkpt>
      <trkpt lat="48.36748" lon="2.70966">
        <ele>95.800003051758</ele>
        <time>2022-11-19T14:35:12Z</time>
      </trkpt>
      <trkpt lat="48.36749" lon="2.70966">
        <ele>95.800003051758</ele>
        <time>2022-11-19T14:35:16Z</time>
      </trkpt>
      <trkpt lat="48.36749" lon="2.70966">
        <ele>95.800003051758</ele>
        <time>2022-11-19T14:35:20Z</time>
      </trkpt>
      <trkpt lat="48.36749" lon="2.70966">
        <ele>95.800003051758</ele>
        <time>2022-11-19T14:35:24Z</time>
      </trkpt>
      <trkpt lat="48.36749" lon="2.70965">
        <ele>95.800003051758</ele>
        <time>2022-11-19T14:35:28Z</time>
      </trkpt>
      <trkpt lat="48.36749" lon="2.70966">
        <ele>95.800003051758</ele>
        <time>2022-11-19T14:35:32Z</time>
      </trkpt>
      <trkpt lat="48.36749" lon="2.70966">
        <ele>95.800003051758</ele>
        <time>2022-11-19T14:35:36Z</time>
      </trkpt>
      <trkpt lat="48.36748" lon="2.70967">
        <ele>95.800003051758</ele>
        <time>2022-11-19T14:35:40Z</time>
      </trkpt>
      <trkpt lat="48.36747" lon="2.70969">
        <ele>95.800003051758</ele>
        <time>2022-11-19T14:35:44Z</time>
      </trkpt>
      <trkpt lat="48.36747" lon="2.70971">
        <ele>95.800003051758</ele>
        <time>2022-11-19T14:35:48Z</time>
      </trkpt>
      <trkpt lat="48.36747" lon="2.70974">
        <ele>95.800003051758</ele>
        <time>2022-11-19T14:35:52Z</time>
      </trkpt>
      <trkpt lat="48.36747" lon="2.70973">
        <ele>95.800003051758</ele>
        <time>2022-11-19T14:35:56Z</time>
      </trkpt>
      <trkpt lat="48.36745" lon="2.70972">
        <ele>95.800003051758</ele>
        <time>2022-11-19T14:36:00Z</time>
      </trkpt>
      <trkpt lat="48.36743" lon="2.70973">
        <ele>95.800003051758</ele>
        <time>2022-11-19T14:36:04Z</time>
      </trkpt>
      <trkpt lat="48.36743" lon="2.70975">
        <ele>95.800003051758</ele>
        <time>2022-11-19T14:36:08Z</time>
      </trkpt>
      <trkpt lat="48.36738" lon="2.70975">
        <ele>95.800003051758</ele>
        <time>2022-11-19T14:36:12Z</time>
      </trkpt>
      <trkpt lat="48.36743" lon="2.70978">
        <ele>95.800003051758</ele>
        <time>2022-11-19T14:36:16Z</time>
      </trkpt>
      <trkpt lat="48.36745" lon="2.7097">
        <ele>95.800003051758</ele>
        <time>2022-11-19T14:36:20Z</time>
      </trkpt>
      <trkpt lat="48.36747" lon="2.70965">
        <ele>95.800003051758</ele>
        <time>2022-11-19T14:36:24Z</time>
      </trkpt>
      <trkpt lat="48.36748" lon="2.70962">
        <ele>95.800003051758</ele>
        <time>2022-11-19T14:36:28Z</time>
      </trkpt>
      <trkpt lat="48.36748" lon="2.70963">
        <ele>95.800003051758</ele>
        <time>2022-11-19T14:36:32Z</time>
      </trkpt>
      <trkpt lat="48.36749" lon="2.70962">
        <ele>95.800003051758</ele>
        <time>2022-11-19T14:36:36Z</time>
      </trkpt>
      <trkpt lat="48.3675" lon="2.70962">
        <ele>95.800003051758</ele>
        <time>2022-11-19T14:36:40Z</time>
      </trkpt>
      <trkpt lat="48.3675" lon="2.70962">
        <ele>95.800003051758</ele>
        <time>2022-11-19T14:36:44Z</time>
      </trkpt>
      <trkpt lat="48.36751" lon="2.70962">
        <ele>95.800003051758</ele>
        <time>2022-11-19T14:36:48Z</time>
      </trkpt>
      <trkpt lat="48.36751" lon="2.70961">
        <ele>95.800003051758</ele>
        <time>2022-11-19T14:36:52Z</time>
      </trkpt>
      <trkpt lat="48.36752" lon="2.70961">
        <ele>95.800003051758</ele>
        <time>2022-11-19T14:36:56Z</time>
      </trkpt>
      <trkpt lat="48.36751" lon="2.70962">
        <ele>95.800003051758</ele>
        <time>2022-11-19T14:37:00Z</time>
      </trkpt>
      <trkpt lat="48.3675" lon="2.70963">
        <ele>95.800003051758</ele>
        <time>2022-11-19T14:37:04Z</time>
      </trkpt>
      <trkpt lat="48.3675" lon="2.70963">
        <ele>95.800003051758</ele>
        <time>2022-11-19T14:37:08Z</time>
      </trkpt>
      <trkpt lat="48.3675" lon="2.70964">
        <ele>95.800003051758</ele>
        <time>2022-11-19T14:37:12Z</time>
      </trkpt>
      <trkpt lat="48.3675" lon="2.70964">
        <ele>95.800003051758</ele>
        <time>2022-11-19T14:37:16Z</time>
      </trkpt>
      <trkpt lat="48.36751" lon="2.70962">
        <ele>95.800003051758</ele>
        <time>2022-11-19T14:37:20Z</time>
      </trkpt>
      <trkpt lat="48.36751" lon="2.70963">
        <ele>95.800003051758</ele>
        <time>2022-11-19T14:37:24Z</time>
      </trkpt>
      <trkpt lat="48.3675" lon="2.70963">
        <ele>95.800003051758</ele>
        <time>2022-11-19T14:37:28Z</time>
      </trkpt>
      <trkpt lat="48.36749" lon="2.70963">
        <ele>95.800003051758</ele>
        <time>2022-11-19T14:37:32Z</time>
      </trkpt>
      <trkpt lat="48.36748" lon="2.70963">
        <ele>95.800003051758</ele>
        <time>2022-11-19T14:37:36Z</time>
      </trkpt>
      <trkpt lat="48.36747" lon="2.70963">
        <ele>95.800003051758</ele>
        <time>2022-11-19T14:37:40Z</time>
      </trkpt>
      <trkpt lat="48.36746" lon="2.70963">
        <ele>95.800003051758</ele>
        <time>2022-11-19T14:37:44Z</time>
      </trkpt>
      <trkpt lat="48.36745" lon="2.70964">
        <ele>95.800003051758</ele>
        <time>2022-11-19T14:37:48Z</time>
      </trkpt>
      <trkpt lat="48.36745" lon="2.70963">
        <ele>95.800003051758</ele>
        <time>2022-11-19T14:37:52Z</time>
      </trkpt>
      <trkpt lat="48.36746" lon="2.70963">
        <ele>95.800003051758</ele>
        <time>2022-11-19T14:37:56Z</time>
      </trkpt>
      <trkpt lat="48.36747" lon="2.70963">
        <ele>95.800003051758</ele>
        <time>2022-11-19T14:38:00Z</time>
      </trkpt>
      <trkpt lat="48.36748" lon="2.70963">
        <ele>95.800003051758</ele>
        <time>2022-11-19T14:38:04Z</time>
      </trkpt>
      <trkpt lat="48.36749" lon="2.70964">
        <ele>95.800003051758</ele>
        <time>2022-11-19T14:38:08Z</time>
      </trkpt>
      <trkpt lat="48.36748" lon="2.70964">
        <ele>95.800003051758</ele>
        <time>2022-11-19T14:38:12Z</time>
      </trkpt>
      <trkpt lat="48.36747" lon="2.70964">
        <ele>95.800003051758</ele>
        <time>2022-11-19T14:38:16Z</time>
      </trkpt>
      <trkpt lat="48.36748" lon="2.70964">
        <ele>95.800003051758</ele>
        <time>2022-11-19T14:38:20Z</time>
      </trkpt>
      <trkpt lat="48.36746" lon="2.70964">
        <ele>95.800003051758</ele>
        <time>2022-11-19T14:38:24Z</time>
      </trkpt>
      <trkpt lat="48.36746" lon="2.70964">
        <ele>95.800003051758</ele>
        <time>2022-11-19T14:38:28Z</time>
      </trkpt>
      <trkpt lat="48.36746" lon="2.70964">
        <ele>95.800003051758</ele>
        <time>2022-11-19T14:38:32Z</time>
      </trkpt>
      <trkpt lat="48.36746" lon="2.70963">
        <ele>95.800003051758</ele>
        <time>2022-11-19T14:38:36Z</time>
      </trkpt>
      <trkpt lat="48.36746" lon="2.70963">
        <ele>95.800003051758</ele>
        <time>2022-11-19T14:38:40Z</time>
      </trkpt>
      <trkpt lat="48.36744" lon="2.70963">
        <ele>95.800003051758</ele>
        <time>2022-11-19T14:38:44Z</time>
      </trkpt>
      <trkpt lat="48.36744" lon="2.70963">
        <ele>95.800003051758</ele>
        <time>2022-11-19T14:38:48Z</time>
      </trkpt>
      <trkpt lat="48.36745" lon="2.70964">
        <ele>95.800003051758</ele>
        <time>2022-11-19T14:38:52Z</time>
      </trkpt>
      <trkpt lat="48.36745" lon="2.70964">
        <ele>95.800003051758</ele>
        <time>2022-11-19T14:38:56Z</time>
      </trkpt>
      <trkpt lat="48.36745" lon="2.70963">
        <ele>95.800003051758</ele>
        <time>2022-11-19T14:39:00Z</time>
      </trkpt>
      <trkpt lat="48.36745" lon="2.70963">
        <ele>95.800003051758</ele>
        <time>2022-11-19T14:39:04Z</time>
      </trkpt>
      <trkpt lat="48.36746" lon="2.70962">
        <ele>95.800003051758</ele>
        <time>2022-11-19T14:39:08Z</time>
      </trkpt>
      <trkpt lat="48.36748" lon="2.7096">
        <ele>95.800003051758</ele>
        <time>2022-11-19T14:39:12Z</time>
      </trkpt>
      <trkpt lat="48.36749" lon="2.70959">
        <ele>95.800003051758</ele>
        <time>2022-11-19T14:39:16Z</time>
      </trkpt>
      <trkpt lat="48.3675" lon="2.70957">
        <ele>95.800003051758</ele>
        <time>2022-11-19T14:39:20Z</time>
      </trkpt>
      <trkpt lat="48.36752" lon="2.70957">
        <ele>95.800003051758</ele>
        <time>2022-11-19T14:39:24Z</time>
      </trkpt>
      <trkpt lat="48.36751" lon="2.70957">
        <ele>95.800003051758</ele>
        <time>2022-11-19T14:39:28Z</time>
      </trkpt>
      <trkpt lat="48.3675" lon="2.70956">
        <ele>95.800003051758</ele>
        <time>2022-11-19T14:39:32Z</time>
      </trkpt>
      <trkpt lat="48.3675" lon="2.70955">
        <ele>95.800003051758</ele>
        <time>2022-11-19T14:39:36Z</time>
      </trkpt>
      <trkpt lat="48.36749" lon="2.70954">
        <ele>95.800003051758</ele>
        <time>2022-11-19T14:39:40Z</time>
      </trkpt>
      <trkpt lat="48.36749" lon="2.70955">
        <ele>95.800003051758</ele>
        <time>2022-11-19T14:39:44Z</time>
      </trkpt>
      <trkpt lat="48.36749" lon="2.70954">
        <ele>95.800003051758</ele>
        <time>2022-11-19T14:39:48Z</time>
      </trkpt>
      <trkpt lat="48.36749" lon="2.70952">
        <ele>95.800003051758</ele>
        <time>2022-11-19T14:39:52Z</time>
      </trkpt>
      <trkpt lat="48.36748" lon="2.70953">
        <ele>95.800003051758</ele>
        <time>2022-11-19T14:39:56Z</time>
      </trkpt>
      <trkpt lat="48.36745" lon="2.70953">
        <ele>95.800003051758</ele>
        <time>2022-11-19T14:40:00Z</time>
      </trkpt>
      <trkpt lat="48.36744" lon="2.70954">
        <ele>95.599998474121</ele>
        <time>2022-11-19T14:40:04Z</time>
      </trkpt>
      <trkpt lat="48.36743" lon="2.70955">
        <ele>95.599998474121</ele>
        <time>2022-11-19T14:40:08Z</time>
      </trkpt>
      <trkpt lat="48.36742" lon="2.70957">
        <ele>95.599998474121</ele>
        <time>2022-11-19T14:40:12Z</time>
      </trkpt>
      <trkpt lat="48.36742" lon="2.70958">
        <ele>95.599998474121</ele>
        <time>2022-11-19T14:40:16Z</time>
      </trkpt>
      <trkpt lat="48.36743" lon="2.70959">
        <ele>95.599998474121</ele>
        <time>2022-11-19T14:40:20Z</time>
      </trkpt>
      <trkpt lat="48.36744" lon="2.70958">
        <ele>95.599998474121</ele>
        <time>2022-11-19T14:40:24Z</time>
      </trkpt>
      <trkpt lat="48.36744" lon="2.70956">
        <ele>95.599998474121</ele>
        <time>2022-11-19T14:40:28Z</time>
      </trkpt>
      <trkpt lat="48.36744" lon="2.70955">
        <ele>95.599998474121</ele>
        <time>2022-11-19T14:40:32Z</time>
      </trkpt>
      <trkpt lat="48.36745" lon="2.70955">
        <ele>95.599998474121</ele>
        <time>2022-11-19T14:40:36Z</time>
      </trkpt>
      <trkpt lat="48.36745" lon="2.70955">
        <ele>95.599998474121</ele>
        <time>2022-11-19T14:40:40Z</time>
      </trkpt>
      <trkpt lat="48.36745" lon="2.70956">
        <ele>95.599998474121</ele>
        <time>2022-11-19T14:40:44Z</time>
      </trkpt>
      <trkpt lat="48.36744" lon="2.70956">
        <ele>95.599998474121</ele>
        <time>2022-11-19T14:40:48Z</time>
      </trkpt>
      <trkpt lat="48.36745" lon="2.70956">
        <ele>95.400001525879</ele>
        <time>2022-11-19T14:40:52Z</time>
      </trkpt>
      <trkpt lat="48.36745" lon="2.70956">
        <ele>95.599998474121</ele>
        <time>2022-11-19T14:40:56Z</time>
      </trkpt>
      <trkpt lat="48.36745" lon="2.70957">
        <ele>95.599998474121</ele>
        <time>2022-11-19T14:41:00Z</time>
      </trkpt>
      <trkpt lat="48.36745" lon="2.70959">
        <ele>95.400001525879</ele>
        <time>2022-11-19T14:41:04Z</time>
      </trkpt>
      <trkpt lat="48.36746" lon="2.7096">
        <ele>95.599998474121</ele>
        <time>2022-11-19T14:41:08Z</time>
      </trkpt>
      <trkpt lat="48.36747" lon="2.70962">
        <ele>95.599998474121</ele>
        <time>2022-11-19T14:41:12Z</time>
      </trkpt>
      <trkpt lat="48.36748" lon="2.70963">
        <ele>95.599998474121</ele>
        <time>2022-11-19T14:41:16Z</time>
      </trkpt>
      <trkpt lat="48.36749" lon="2.70964">
        <ele>95.599998474121</ele>
        <time>2022-11-19T14:41:20Z</time>
      </trkpt>
      <trkpt lat="48.3675" lon="2.70964">
        <ele>95.599998474121</ele>
        <time>2022-11-19T14:41:24Z</time>
      </trkpt>
      <trkpt lat="48.36751" lon="2.70964">
        <ele>95.599998474121</ele>
        <time>2022-11-19T14:41:28Z</time>
      </trkpt>
      <trkpt lat="48.36751" lon="2.70963">
        <ele>95.599998474121</ele>
        <time>2022-11-19T14:41:32Z</time>
      </trkpt>
      <trkpt lat="48.36752" lon="2.70962">
        <ele>95.599998474121</ele>
        <time>2022-11-19T14:41:36Z</time>
      </trkpt>
      <trkpt lat="48.36752" lon="2.70962">
        <ele>95.599998474121</ele>
        <time>2022-11-19T14:41:40Z</time>
      </trkpt>
      <trkpt lat="48.36751" lon="2.70962">
        <ele>95.599998474121</ele>
        <time>2022-11-19T14:41:44Z</time>
      </trkpt>
      <trkpt lat="48.36751" lon="2.70961">
        <ele>95.599998474121</ele>
        <time>2022-11-19T14:41:48Z</time>
      </trkpt>
      <trkpt lat="48.36751" lon="2.70961">
        <ele>95.599998474121</ele>
        <time>2022-11-19T14:41:52Z</time>
      </trkpt>
      <trkpt lat="48.36752" lon="2.70961">
        <ele>95.599998474121</ele>
        <time>2022-11-19T14:41:56Z</time>
      </trkpt>
      <trkpt lat="48.36752" lon="2.70961">
        <ele>95.599998474121</ele>
        <time>2022-11-19T14:42:00Z</time>
      </trkpt>
      <trkpt lat="48.36752" lon="2.70961">
        <ele>95.599998474121</ele>
        <time>2022-11-19T14:42:04Z</time>
      </trkpt>
      <trkpt lat="48.36751" lon="2.70959">
        <ele>95.599998474121</ele>
        <time>2022-11-19T14:42:08Z</time>
      </trkpt>
      <trkpt lat="48.36749" lon="2.70957">
        <ele>95.599998474121</ele>
        <time>2022-11-19T14:42:12Z</time>
      </trkpt>
      <trkpt lat="48.36748" lon="2.70957">
        <ele>95.599998474121</ele>
        <time>2022-11-19T14:42:16Z</time>
      </trkpt>
      <trkpt lat="48.36748" lon="2.70958">
        <ele>95.599998474121</ele>
        <time>2022-11-19T14:42:20Z</time>
      </trkpt>
      <trkpt lat="48.36748" lon="2.7096">
        <ele>95.599998474121</ele>
        <time>2022-11-19T14:42:24Z</time>
      </trkpt>
      <trkpt lat="48.36747" lon="2.7096">
        <ele>95.599998474121</ele>
        <time>2022-11-19T14:42:28Z</time>
      </trkpt>
      <trkpt lat="48.36746" lon="2.70961">
        <ele>95.599998474121</ele>
        <time>2022-11-19T14:42:32Z</time>
      </trkpt>
      <trkpt lat="48.36747" lon="2.70961">
        <ele>95.599998474121</ele>
        <time>2022-11-19T14:42:36Z</time>
      </trkpt>
      <trkpt lat="48.36747" lon="2.70962">
        <ele>95.599998474121</ele>
        <time>2022-11-19T14:42:40Z</time>
      </trkpt>
      <trkpt lat="48.36747" lon="2.70963">
        <ele>95.599998474121</ele>
        <time>2022-11-19T14:42:44Z</time>
      </trkpt>
      <trkpt lat="48.36748" lon="2.70964">
        <ele>95.599998474121</ele>
        <time>2022-11-19T14:42:48Z</time>
      </trkpt>
      <trkpt lat="48.36748" lon="2.70964">
        <ele>95.599998474121</ele>
        <time>2022-11-19T14:42:52Z</time>
      </trkpt>
      <trkpt lat="48.36747" lon="2.70965">
        <ele>95.599998474121</ele>
        <time>2022-11-19T14:42:56Z</time>
      </trkpt>
      <trkpt lat="48.36747" lon="2.70966">
        <ele>95.599998474121</ele>
        <time>2022-11-19T14:43:00Z</time>
      </trkpt>
      <trkpt lat="48.36747" lon="2.70966">
        <ele>95.599998474121</ele>
        <time>2022-11-19T14:43:04Z</time>
      </trkpt>
      <trkpt lat="48.36746" lon="2.70965">
        <ele>95.599998474121</ele>
        <time>2022-11-19T14:43:08Z</time>
      </trkpt>
      <trkpt lat="48.36746" lon="2.70963">
        <ele>95.599998474121</ele>
        <time>2022-11-19T14:43:12Z</time>
      </trkpt>
      <trkpt lat="48.36746" lon="2.70961">
        <ele>95.599998474121</ele>
        <time>2022-11-19T14:43:16Z</time>
      </trkpt>
      <trkpt lat="48.36747" lon="2.70961">
        <ele>95.599998474121</ele>
        <time>2022-11-19T14:43:20Z</time>
      </trkpt>
      <trkpt lat="48.36748" lon="2.70961">
        <ele>95.599998474121</ele>
        <time>2022-11-19T14:43:24Z</time>
      </trkpt>
      <trkpt lat="48.36749" lon="2.70961">
        <ele>95.599998474121</ele>
        <time>2022-11-19T14:43:28Z</time>
      </trkpt>
      <trkpt lat="48.3675" lon="2.70961">
        <ele>95.599998474121</ele>
        <time>2022-11-19T14:43:32Z</time>
      </trkpt>
      <trkpt lat="48.36751" lon="2.70962">
        <ele>95.599998474121</ele>
        <time>2022-11-19T14:43:36Z</time>
      </trkpt>
      <trkpt lat="48.36751" lon="2.70963">
        <ele>95.599998474121</ele>
        <time>2022-11-19T14:43:40Z</time>
      </trkpt>
      <trkpt lat="48.36751" lon="2.70963">
        <ele>95.599998474121</ele>
        <time>2022-11-19T14:43:44Z</time>
      </trkpt>
      <trkpt lat="48.36752" lon="2.70965">
        <ele>95.599998474121</ele>
        <time>2022-11-19T14:43:48Z</time>
      </trkpt>
      <trkpt lat="48.36752" lon="2.70965">
        <ele>95.599998474121</ele>
        <time>2022-11-19T14:43:52Z</time>
      </trkpt>
      <trkpt lat="48.36752" lon="2.70965">
        <ele>95.599998474121</ele>
        <time>2022-11-19T14:43:56Z</time>
      </trkpt>
      <trkpt lat="48.36753" lon="2.70968">
        <ele>95.599998474121</ele>
        <time>2022-11-19T14:44:00Z</time>
      </trkpt>
      <trkpt lat="48.36754" lon="2.70971">
        <ele>95.599998474121</ele>
        <time>2022-11-19T14:44:04Z</time>
      </trkpt>
      <trkpt lat="48.36754" lon="2.70972">
        <ele>95.599998474121</ele>
        <time>2022-11-19T14:44:08Z</time>
      </trkpt>
      <trkpt lat="48.36753" lon="2.70973">
        <ele>95.599998474121</ele>
        <time>2022-11-19T14:44:12Z</time>
      </trkpt>
      <trkpt lat="48.36752" lon="2.70972">
        <ele>95.599998474121</ele>
        <time>2022-11-19T14:44:16Z</time>
      </trkpt>
      <trkpt lat="48.36751" lon="2.70972">
        <ele>95.599998474121</ele>
        <time>2022-11-19T14:44:20Z</time>
      </trkpt>
      <trkpt lat="48.36751" lon="2.70971">
        <ele>95.599998474121</ele>
        <time>2022-11-19T14:44:24Z</time>
      </trkpt>
      <trkpt lat="48.3675" lon="2.7097">
        <ele>95.599998474121</ele>
        <time>2022-11-19T14:44:28Z</time>
      </trkpt>
      <trkpt lat="48.3675" lon="2.70966">
        <ele>95.599998474121</ele>
        <time>2022-11-19T14:44:32Z</time>
      </trkpt>
      <trkpt lat="48.36751" lon="2.70962">
        <ele>95.599998474121</ele>
        <time>2022-11-19T14:44:36Z</time>
      </trkpt>
      <trkpt lat="48.36751" lon="2.70962">
        <ele>95.599998474121</ele>
        <time>2022-11-19T14:44:40Z</time>
      </trkpt>
      <trkpt lat="48.36751" lon="2.70961">
        <ele>95.599998474121</ele>
        <time>2022-11-19T14:44:44Z</time>
      </trkpt>
      <trkpt lat="48.3675" lon="2.70961">
        <ele>95.599998474121</ele>
        <time>2022-11-19T14:44:48Z</time>
      </trkpt>
      <trkpt lat="48.36748" lon="2.7096">
        <ele>95.599998474121</ele>
        <time>2022-11-19T14:44:52Z</time>
      </trkpt>
      <trkpt lat="48.36747" lon="2.7096">
        <ele>95.599998474121</ele>
        <time>2022-11-19T14:44:56Z</time>
      </trkpt>
      <trkpt lat="48.36747" lon="2.70959">
        <ele>95.599998474121</ele>
        <time>2022-11-19T14:45:00Z</time>
      </trkpt>
      <trkpt lat="48.36746" lon="2.70957">
        <ele>95.599998474121</ele>
        <time>2022-11-19T14:45:04Z</time>
      </trkpt>
      <trkpt lat="48.36748" lon="2.70956">
        <ele>95.599998474121</ele>
        <time>2022-11-19T14:45:08Z</time>
      </trkpt>
      <trkpt lat="48.3675" lon="2.70957">
        <ele>95.599998474121</ele>
        <time>2022-11-19T14:45:12Z</time>
      </trkpt>
      <trkpt lat="48.36749" lon="2.70958">
        <ele>95.599998474121</ele>
        <time>2022-11-19T14:45:16Z</time>
      </trkpt>
      <trkpt lat="48.3675" lon="2.70957">
        <ele>95.599998474121</ele>
        <time>2022-11-19T14:45:20Z</time>
      </trkpt>
      <trkpt lat="48.36749" lon="2.70958">
        <ele>95.599998474121</ele>
        <time>2022-11-19T14:45:24Z</time>
      </trkpt>
      <trkpt lat="48.36747" lon="2.70958">
        <ele>95.599998474121</ele>
        <time>2022-11-19T14:45:28Z</time>
      </trkpt>
      <trkpt lat="48.36746" lon="2.70959">
        <ele>95.599998474121</ele>
        <time>2022-11-19T14:45:32Z</time>
      </trkpt>
      <trkpt lat="48.36745" lon="2.70961">
        <ele>95.599998474121</ele>
        <time>2022-11-19T14:45:36Z</time>
      </trkpt>
      <trkpt lat="48.36745" lon="2.70964">
        <ele>95.599998474121</ele>
        <time>2022-11-19T14:45:40Z</time>
      </trkpt>
      <trkpt lat="48.36745" lon="2.70965">
        <ele>95.599998474121</ele>
        <time>2022-11-19T14:45:44Z</time>
      </trkpt>
      <trkpt lat="48.36745" lon="2.70965">
        <ele>95.599998474121</ele>
        <time>2022-11-19T14:45:48Z</time>
      </trkpt>
      <trkpt lat="48.36747" lon="2.70964">
        <ele>95.599998474121</ele>
        <time>2022-11-19T14:45:52Z</time>
      </trkpt>
      <trkpt lat="48.36747" lon="2.70964">
        <ele>95.599998474121</ele>
        <time>2022-11-19T14:45:56Z</time>
      </trkpt>
      <trkpt lat="48.3674" lon="2.70961">
        <ele>95.599998474121</ele>
        <time>2022-11-19T14:46:00Z</time>
      </trkpt>
      <trkpt lat="48.36739" lon="2.7096">
        <ele>95.599998474121</ele>
        <time>2022-11-19T14:46:04Z</time>
      </trkpt>
      <trkpt lat="48.36739" lon="2.70959">
        <ele>95.599998474121</ele>
        <time>2022-11-19T14:46:08Z</time>
      </trkpt>
      <trkpt lat="48.36737" lon="2.70959">
        <ele>95.599998474121</ele>
        <time>2022-11-19T14:46:12Z</time>
      </trkpt>
      <trkpt lat="48.36735" lon="2.7096">
        <ele>95.599998474121</ele>
        <time>2022-11-19T14:46:16Z</time>
      </trkpt>
      <trkpt lat="48.36732" lon="2.7096">
        <ele>95.599998474121</ele>
        <time>2022-11-19T14:46:20Z</time>
      </trkpt>
      <trkpt lat="48.36733" lon="2.70959">
        <ele>95.599998474121</ele>
        <time>2022-11-19T14:46:24Z</time>
      </trkpt>
      <trkpt lat="48.36734" lon="2.70959">
        <ele>95.599998474121</ele>
        <time>2022-11-19T14:46:28Z</time>
      </trkpt>
      <trkpt lat="48.36734" lon="2.70957">
        <ele>95.599998474121</ele>
        <time>2022-11-19T14:46:32Z</time>
      </trkpt>
      <trkpt lat="48.36737" lon="2.70955">
        <ele>95.599998474121</ele>
        <time>2022-11-19T14:46:36Z</time>
      </trkpt>
      <trkpt lat="48.36743" lon="2.70954">
        <ele>95.599998474121</ele>
        <time>2022-11-19T14:46:40Z</time>
      </trkpt>
      <trkpt lat="48.36743" lon="2.70956">
        <ele>95.599998474121</ele>
        <time>2022-11-19T14:46:44Z</time>
      </trkpt>
      <trkpt lat="48.36745" lon="2.70959">
        <ele>95.599998474121</ele>
        <time>2022-11-19T14:46:48Z</time>
      </trkpt>
      <trkpt lat="48.36745" lon="2.70962">
        <ele>95.599998474121</ele>
        <time>2022-11-19T14:46:52Z</time>
      </trkpt>
      <trkpt lat="48.36746" lon="2.70963">
        <ele>95.599998474121</ele>
        <time>2022-11-19T14:46:56Z</time>
      </trkpt>
      <trkpt lat="48.36746" lon="2.70963">
        <ele>95.599998474121</ele>
        <time>2022-11-19T14:47:00Z</time>
      </trkpt>
      <trkpt lat="48.36746" lon="2.70962">
        <ele>95.599998474121</ele>
        <time>2022-11-19T14:47:04Z</time>
      </trkpt>
      <trkpt lat="48.36745" lon="2.70963">
        <ele>95.599998474121</ele>
        <time>2022-11-19T14:47:08Z</time>
      </trkpt>
      <trkpt lat="48.36745" lon="2.70963">
        <ele>95.599998474121</ele>
        <time>2022-11-19T14:47:12Z</time>
      </trkpt>
      <trkpt lat="48.36745" lon="2.70962">
        <ele>95.599998474121</ele>
        <time>2022-11-19T14:47:16Z</time>
      </trkpt>
      <trkpt lat="48.36746" lon="2.70963">
        <ele>95.599998474121</ele>
        <time>2022-11-19T14:47:20Z</time>
      </trkpt>
      <trkpt lat="48.36744" lon="2.70962">
        <ele>95.599998474121</ele>
        <time>2022-11-19T14:47:24Z</time>
      </trkpt>
      <trkpt lat="48.36737" lon="2.70963">
        <ele>95.599998474121</ele>
        <time>2022-11-19T14:47:28Z</time>
      </trkpt>
      <trkpt lat="48.36732" lon="2.70963">
        <ele>95.599998474121</ele>
        <time>2022-11-19T14:47:32Z</time>
      </trkpt>
      <trkpt lat="48.36729" lon="2.70965">
        <ele>95.599998474121</ele>
        <time>2022-11-19T14:47:36Z</time>
      </trkpt>
      <trkpt lat="48.36724" lon="2.70964">
        <ele>96.199996948242</ele>
        <time>2022-11-19T14:47:40Z</time>
      </trkpt>
      <trkpt lat="48.36722" lon="2.70964">
        <ele>96.400001525879</ele>
        <time>2022-11-19T14:47:44Z</time>
      </trkpt>
      <trkpt lat="48.3672" lon="2.70964">
        <ele>96.599998474121</ele>
        <time>2022-11-19T14:47:48Z</time>
      </trkpt>
      <trkpt lat="48.36717" lon="2.70963">
        <ele>96.599998474121</ele>
        <time>2022-11-19T14:47:52Z</time>
      </trkpt>
      <trkpt lat="48.36712" lon="2.7096">
        <ele>96.800003051758</ele>
        <time>2022-11-19T14:47:56Z</time>
      </trkpt>
      <trkpt lat="48.3671" lon="2.7096">
        <ele>97</ele>
        <time>2022-11-19T14:48:00Z</time>
      </trkpt>
      <trkpt lat="48.36705" lon="2.7096">
        <ele>97.199996948242</ele>
        <time>2022-11-19T14:48:04Z</time>
      </trkpt>
      <trkpt lat="48.36702" lon="2.7096">
        <ele>97.199996948242</ele>
        <time>2022-11-19T14:48:08Z</time>
      </trkpt>
      <trkpt lat="48.367" lon="2.70961">
        <ele>97.599998474121</ele>
        <time>2022-11-19T14:48:12Z</time>
      </trkpt>
      <trkpt lat="48.36698" lon="2.70962">
        <ele>97.599998474121</ele>
        <time>2022-11-19T14:48:16Z</time>
      </trkpt>
      <trkpt lat="48.36695" lon="2.70962">
        <ele>97.800003051758</ele>
        <time>2022-11-19T14:48:20Z</time>
      </trkpt>
      <trkpt lat="48.36692" lon="2.70961">
        <ele>98</ele>
        <time>2022-11-19T14:48:24Z</time>
      </trkpt>
      <trkpt lat="48.36689" lon="2.70961">
        <ele>98.199996948242</ele>
        <time>2022-11-19T14:48:28Z</time>
      </trkpt>
      <trkpt lat="48.36685" lon="2.70961">
        <ele>98.400001525879</ele>
        <time>2022-11-19T14:48:32Z</time>
      </trkpt>
      <trkpt lat="48.36673" lon="2.70962">
        <ele>98.599998474121</ele>
        <time>2022-11-19T14:48:36Z</time>
      </trkpt>
      <trkpt lat="48.36668" lon="2.70963">
        <ele>98.800003051758</ele>
        <time>2022-11-19T14:48:40Z</time>
      </trkpt>
      <trkpt lat="48.36666" lon="2.70963">
        <ele>98.800003051758</ele>
        <time>2022-11-19T14:48:44Z</time>
      </trkpt>
      <trkpt lat="48.36662" lon="2.70964">
        <ele>99.199996948242</ele>
        <time>2022-11-19T14:48:48Z</time>
      </trkpt>
      <trkpt lat="48.36659" lon="2.70963">
        <ele>99.599998474121</ele>
        <time>2022-11-19T14:48:52Z</time>
      </trkpt>
      <trkpt lat="48.36656" lon="2.70961">
        <ele>100</ele>
        <time>2022-11-19T14:48:56Z</time>
      </trkpt>
      <trkpt lat="48.36649" lon="2.7096">
        <ele>100.59999847412</ele>
        <time>2022-11-19T14:49:00Z</time>
      </trkpt>
      <trkpt lat="48.36643" lon="2.70961">
        <ele>101</ele>
        <time>2022-11-19T14:49:04Z</time>
      </trkpt>
      <trkpt lat="48.36641" lon="2.70962">
        <ele>101.40000152588</ele>
        <time>2022-11-19T14:49:08Z</time>
      </trkpt>
      <trkpt lat="48.36637" lon="2.70961">
        <ele>101.80000305176</ele>
        <time>2022-11-19T14:49:12Z</time>
      </trkpt>
      <trkpt lat="48.36636" lon="2.70961">
        <ele>102.19999694824</ele>
        <time>2022-11-19T14:49:16Z</time>
      </trkpt>
      <trkpt lat="48.36634" lon="2.70961">
        <ele>102.59999847412</ele>
        <time>2022-11-19T14:49:20Z</time>
      </trkpt>
      <trkpt lat="48.36632" lon="2.70961">
        <ele>103.19999694824</ele>
        <time>2022-11-19T14:49:24Z</time>
      </trkpt>
      <trkpt lat="48.3663" lon="2.70961">
        <ele>103.59999847412</ele>
        <time>2022-11-19T14:49:28Z</time>
      </trkpt>
      <trkpt lat="48.36627" lon="2.7096">
        <ele>104</ele>
        <time>2022-11-19T14:49:32Z</time>
      </trkpt>
      <trkpt lat="48.36621" lon="2.70962">
        <ele>104.80000305176</ele>
        <time>2022-11-19T14:49:36Z</time>
      </trkpt>
      <trkpt lat="48.36619" lon="2.70961">
        <ele>105</ele>
        <time>2022-11-19T14:49:40Z</time>
      </trkpt>
      <trkpt lat="48.36614" lon="2.70962">
        <ele>105.19999694824</ele>
        <time>2022-11-19T14:49:44Z</time>
      </trkpt>
      <trkpt lat="48.36604" lon="2.70963">
        <ele>105.80000305176</ele>
        <time>2022-11-19T14:49:48Z</time>
      </trkpt>
      <trkpt lat="48.36601" lon="2.70962">
        <ele>106.19999694824</ele>
        <time>2022-11-19T14:49:52Z</time>
      </trkpt>
      <trkpt lat="48.36599" lon="2.70963">
        <ele>106.19999694824</ele>
        <time>2022-11-19T14:49:56Z</time>
      </trkpt>
      <trkpt lat="48.36597" lon="2.70964">
        <ele>106.40000152588</ele>
        <time>2022-11-19T14:50:00Z</time>
      </trkpt>
      <trkpt lat="48.36596" lon="2.70965">
        <ele>106.59999847412</ele>
        <time>2022-11-19T14:50:04Z</time>
      </trkpt>
      <trkpt lat="48.36589" lon="2.70967">
        <ele>106.59999847412</ele>
        <time>2022-11-19T14:50:08Z</time>
      </trkpt>
      <trkpt lat="48.36587" lon="2.70967">
        <ele>106.80000305176</ele>
        <time>2022-11-19T14:50:12Z</time>
      </trkpt>
      <trkpt lat="48.36586" lon="2.70965">
        <ele>106.80000305176</ele>
        <time>2022-11-19T14:50:16Z</time>
      </trkpt>
      <trkpt lat="48.36581" lon="2.70962">
        <ele>107</ele>
        <time>2022-11-19T14:50:20Z</time>
      </trkpt>
      <trkpt lat="48.36578" lon="2.7096">
        <ele>107.40000152588</ele>
        <time>2022-11-19T14:50:24Z</time>
      </trkpt>
      <trkpt lat="48.36575" lon="2.70959">
        <ele>107.59999847412</ele>
        <time>2022-11-19T14:50:28Z</time>
      </trkpt>
      <trkpt lat="48.36572" lon="2.7096">
        <ele>108.19999694824</ele>
        <time>2022-11-19T14:50:32Z</time>
      </trkpt>
      <trkpt lat="48.3657" lon="2.70962">
        <ele>108.59999847412</ele>
        <time>2022-11-19T14:50:36Z</time>
      </trkpt>
      <trkpt lat="48.36566" lon="2.70964">
        <ele>108.80000305176</ele>
        <time>2022-11-19T14:50:40Z</time>
      </trkpt>
      <trkpt lat="48.36564" lon="2.70966">
        <ele>109.40000152588</ele>
        <time>2022-11-19T14:50:44Z</time>
      </trkpt>
      <trkpt lat="48.36562" lon="2.70967">
        <ele>109.59999847412</ele>
        <time>2022-11-19T14:50:48Z</time>
      </trkpt>
      <trkpt lat="48.36562" lon="2.70969">
        <ele>109.59999847412</ele>
        <time>2022-11-19T14:50:52Z</time>
      </trkpt>
      <trkpt lat="48.36562" lon="2.70971">
        <ele>109.59999847412</ele>
        <time>2022-11-19T14:50:56Z</time>
      </trkpt>
      <trkpt lat="48.3656" lon="2.70976">
        <ele>109.19999694824</ele>
        <time>2022-11-19T14:51:00Z</time>
      </trkpt>
      <trkpt lat="48.36559" lon="2.70985">
        <ele>108.80000305176</ele>
        <time>2022-11-19T14:51:04Z</time>
      </trkpt>
      <trkpt lat="48.36559" lon="2.70991">
        <ele>108.59999847412</ele>
        <time>2022-11-19T14:51:08Z</time>
      </trkpt>
      <trkpt lat="48.3656" lon="2.70996">
        <ele>108</ele>
        <time>2022-11-19T14:51:12Z</time>
      </trkpt>
      <trkpt lat="48.3656" lon="2.71001">
        <ele>107.40000152588</ele>
        <time>2022-11-19T14:51:16Z</time>
      </trkpt>
      <trkpt lat="48.36561" lon="2.71006">
        <ele>107</ele>
        <time>2022-11-19T14:51:20Z</time>
      </trkpt>
      <trkpt lat="48.36562" lon="2.71012">
        <ele>106.40000152588</ele>
        <time>2022-11-19T14:51:24Z</time>
      </trkpt>
      <trkpt lat="48.36561" lon="2.71017">
        <ele>105.80000305176</ele>
        <time>2022-11-19T14:51:28Z</time>
      </trkpt>
      <trkpt lat="48.36561" lon="2.71023">
        <ele>105.19999694824</ele>
        <time>2022-11-19T14:51:32Z</time>
      </trkpt>
      <trkpt lat="48.3656" lon="2.71028">
        <ele>104.40000152588</ele>
        <time>2022-11-19T14:51:36Z</time>
      </trkpt>
      <trkpt lat="48.3656" lon="2.71033">
        <ele>103.80000305176</ele>
        <time>2022-11-19T14:51:40Z</time>
      </trkpt>
      <trkpt lat="48.3656" lon="2.71036">
        <ele>103</ele>
        <time>2022-11-19T14:51:44Z</time>
      </trkpt>
      <trkpt lat="48.3656" lon="2.71038">
        <ele>102.19999694824</ele>
        <time>2022-11-19T14:51:48Z</time>
      </trkpt>
      <trkpt lat="48.3656" lon="2.71041">
        <ele>101.59999847412</ele>
        <time>2022-11-19T14:51:52Z</time>
      </trkpt>
      <trkpt lat="48.36562" lon="2.71045">
        <ele>100.59999847412</ele>
        <time>2022-11-19T14:51:56Z</time>
      </trkpt>
      <trkpt lat="48.36563" lon="2.71048">
        <ele>100</ele>
        <time>2022-11-19T14:52:00Z</time>
      </trkpt>
      <trkpt lat="48.36564" lon="2.71051">
        <ele>99.599998474121</ele>
        <time>2022-11-19T14:52:04Z</time>
      </trkpt>
      <trkpt lat="48.36564" lon="2.71062">
        <ele>98.800003051758</ele>
        <time>2022-11-19T14:52:08Z</time>
      </trkpt>
      <trkpt lat="48.36565" lon="2.71069">
        <ele>98.199996948242</ele>
        <time>2022-11-19T14:52:12Z</time>
      </trkpt>
      <trkpt lat="48.36565" lon="2.71072">
        <ele>97.199996948242</ele>
        <time>2022-11-19T14:52:16Z</time>
      </trkpt>
      <trkpt lat="48.36565" lon="2.7108">
        <ele>96.599998474121</ele>
        <time>2022-11-19T14:52:20Z</time>
      </trkpt>
      <trkpt lat="48.36567" lon="2.71087">
        <ele>96.199996948242</ele>
        <time>2022-11-19T14:52:24Z</time>
      </trkpt>
      <trkpt lat="48.36569" lon="2.71094">
        <ele>95.599998474121</ele>
        <time>2022-11-19T14:52:28Z</time>
      </trkpt>
      <trkpt lat="48.36569" lon="2.711">
        <ele>95.199996948242</ele>
        <time>2022-11-19T14:52:32Z</time>
      </trkpt>
      <trkpt lat="48.36569" lon="2.71105">
        <ele>95</ele>
        <time>2022-11-19T14:52:36Z</time>
      </trkpt>
      <trkpt lat="48.3657" lon="2.71112">
        <ele>94.599998474121</ele>
        <time>2022-11-19T14:52:40Z</time>
      </trkpt>
      <trkpt lat="48.36571" lon="2.71118">
        <ele>94.199996948242</ele>
        <time>2022-11-19T14:52:44Z</time>
      </trkpt>
      <trkpt lat="48.36572" lon="2.71123">
        <ele>93.800003051758</ele>
        <time>2022-11-19T14:52:48Z</time>
      </trkpt>
      <trkpt lat="48.36572" lon="2.71129">
        <ele>93.599998474121</ele>
        <time>2022-11-19T14:52:52Z</time>
      </trkpt>
      <trkpt lat="48.36573" lon="2.71133">
        <ele>93.199996948242</ele>
        <time>2022-11-19T14:52:56Z</time>
      </trkpt>
      <trkpt lat="48.36572" lon="2.71141">
        <ele>93</ele>
        <time>2022-11-19T14:53:00Z</time>
      </trkpt>
      <trkpt lat="48.36571" lon="2.71145">
        <ele>92.199996948242</ele>
        <time>2022-11-19T14:53:04Z</time>
      </trkpt>
      <trkpt lat="48.3657" lon="2.71149">
        <ele>91.599998474121</ele>
        <time>2022-11-19T14:53:08Z</time>
      </trkpt>
      <trkpt lat="48.3657" lon="2.71151">
        <ele>90.800003051758</ele>
        <time>2022-11-19T14:53:12Z</time>
      </trkpt>
      <trkpt lat="48.3657" lon="2.71154">
        <ele>90.599998474121</ele>
        <time>2022-11-19T14:53:16Z</time>
      </trkpt>
      <trkpt lat="48.36569" lon="2.71155">
        <ele>90.199996948242</ele>
        <time>2022-11-19T14:53:20Z</time>
      </trkpt>
      <trkpt lat="48.36569" lon="2.71159">
        <ele>90</ele>
        <time>2022-11-19T14:53:24Z</time>
      </trkpt>
      <trkpt lat="48.36569" lon="2.71163">
        <ele>89.199996948242</ele>
        <time>2022-11-19T14:53:28Z</time>
      </trkpt>
      <trkpt lat="48.36568" lon="2.71176">
        <ele>88.599998474121</ele>
        <time>2022-11-19T14:53:32Z</time>
      </trkpt>
      <trkpt lat="48.36565" lon="2.71183">
        <ele>88</ele>
        <time>2022-11-19T14:53:36Z</time>
      </trkpt>
      <trkpt lat="48.36564" lon="2.7119">
        <ele>87.400001525879</ele>
        <time>2022-11-19T14:53:40Z</time>
      </trkpt>
      <trkpt lat="48.36565" lon="2.71199">
        <ele>86.800003051758</ele>
        <time>2022-11-19T14:53:44Z</time>
      </trkpt>
      <trkpt lat="48.36564" lon="2.71204">
        <ele>86.199996948242</ele>
        <time>2022-11-19T14:53:48Z</time>
      </trkpt>
      <trkpt lat="48.36563" lon="2.71209">
        <ele>85.400001525879</ele>
        <time>2022-11-19T14:53:52Z</time>
      </trkpt>
      <trkpt lat="48.36563" lon="2.71215">
        <ele>84.599998474121</ele>
        <time>2022-11-19T14:53:56Z</time>
      </trkpt>
      <trkpt lat="48.36563" lon="2.7122">
        <ele>84.199996948242</ele>
        <time>2022-11-19T14:54:00Z</time>
      </trkpt>
      <trkpt lat="48.36563" lon="2.71223">
        <ele>83.599998474121</ele>
        <time>2022-11-19T14:54:04Z</time>
      </trkpt>
      <trkpt lat="48.36563" lon="2.71229">
        <ele>83.199996948242</ele>
        <time>2022-11-19T14:54:08Z</time>
      </trkpt>
      <trkpt lat="48.36564" lon="2.71235">
        <ele>82.800003051758</ele>
        <time>2022-11-19T14:54:12Z</time>
      </trkpt>
      <trkpt lat="48.36565" lon="2.71242">
        <ele>82.400001525879</ele>
        <time>2022-11-19T14:54:16Z</time>
      </trkpt>
      <trkpt lat="48.36566" lon="2.71252">
        <ele>82.199996948242</ele>
        <time>2022-11-19T14:54:20Z</time>
      </trkpt>
      <trkpt lat="48.36567" lon="2.7126">
        <ele>81.800003051758</ele>
        <time>2022-11-19T14:54:24Z</time>
      </trkpt>
      <trkpt lat="48.36566" lon="2.7127">
        <ele>81.599998474121</ele>
        <time>2022-11-19T14:54:28Z</time>
      </trkpt>
      <trkpt lat="48.36568" lon="2.7128">
        <ele>81.199996948242</ele>
        <time>2022-11-19T14:54:32Z</time>
      </trkpt>
      <trkpt lat="48.36568" lon="2.71288">
        <ele>81</ele>
        <time>2022-11-19T14:54:36Z</time>
      </trkpt>
      <trkpt lat="48.36565" lon="2.71295">
        <ele>80.599998474121</ele>
        <time>2022-11-19T14:54:40Z</time>
      </trkpt>
      <trkpt lat="48.36564" lon="2.71302">
        <ele>80.199996948242</ele>
        <time>2022-11-19T14:54:44Z</time>
      </trkpt>
      <trkpt lat="48.36563" lon="2.71308">
        <ele>80</ele>
        <time>2022-11-19T14:54:48Z</time>
      </trkpt>
      <trkpt lat="48.36561" lon="2.71313">
        <ele>79.800003051758</ele>
        <time>2022-11-19T14:54:52Z</time>
      </trkpt>
      <trkpt lat="48.36558" lon="2.71317">
        <ele>79.599998474121</ele>
        <time>2022-11-19T14:54:56Z</time>
      </trkpt>
      <trkpt lat="48.36558" lon="2.71323">
        <ele>79.400001525879</ele>
        <time>2022-11-19T14:55:00Z</time>
      </trkpt>
      <trkpt lat="48.36559" lon="2.7133">
        <ele>79.400001525879</ele>
        <time>2022-11-19T14:55:04Z</time>
      </trkpt>
      <trkpt lat="48.36558" lon="2.71338">
        <ele>79.400001525879</ele>
        <time>2022-11-19T14:55:08Z</time>
      </trkpt>
      <trkpt lat="48.36556" lon="2.71344">
        <ele>79.199996948242</ele>
        <time>2022-11-19T14:55:12Z</time>
      </trkpt>
      <trkpt lat="48.36555" lon="2.7135">
        <ele>79.199996948242</ele>
        <time>2022-11-19T14:55:16Z</time>
      </trkpt>
      <trkpt lat="48.36555" lon="2.71357">
        <ele>79</ele>
        <time>2022-11-19T14:55:20Z</time>
      </trkpt>
      <trkpt lat="48.36554" lon="2.71364">
        <ele>78.800003051758</ele>
        <time>2022-11-19T14:55:24Z</time>
      </trkpt>
      <trkpt lat="48.36552" lon="2.7137">
        <ele>78.800003051758</ele>
        <time>2022-11-19T14:55:28Z</time>
      </trkpt>
      <trkpt lat="48.36552" lon="2.71378">
        <ele>78.599998474121</ele>
        <time>2022-11-19T14:55:32Z</time>
      </trkpt>
      <trkpt lat="48.36551" lon="2.71385">
        <ele>78.599998474121</ele>
        <time>2022-11-19T14:55:36Z</time>
      </trkpt>
      <trkpt lat="48.36551" lon="2.71391">
        <ele>78.400001525879</ele>
        <time>2022-11-19T14:55:40Z</time>
      </trkpt>
      <trkpt lat="48.3655" lon="2.71399">
        <ele>78.199996948242</ele>
        <time>2022-11-19T14:55:44Z</time>
      </trkpt>
      <trkpt lat="48.36549" lon="2.71406">
        <ele>78</ele>
        <time>2022-11-19T14:55:48Z</time>
      </trkpt>
      <trkpt lat="48.36547" lon="2.71414">
        <ele>78</ele>
        <time>2022-11-19T14:55:52Z</time>
      </trkpt>
      <trkpt lat="48.36546" lon="2.71421">
        <ele>77.800003051758</ele>
        <time>2022-11-19T14:55:56Z</time>
      </trkpt>
      <trkpt lat="48.36545" lon="2.71428">
        <ele>77.599998474121</ele>
        <time>2022-11-19T14:56:00Z</time>
      </trkpt>
      <trkpt lat="48.36544" lon="2.71434">
        <ele>77.599998474121</ele>
        <time>2022-11-19T14:56:04Z</time>
      </trkpt>
      <trkpt lat="48.36544" lon="2.71441">
        <ele>77.400001525879</ele>
        <time>2022-11-19T14:56:08Z</time>
      </trkpt>
      <trkpt lat="48.36545" lon="2.71448">
        <ele>77.400001525879</ele>
        <time>2022-11-19T14:56:12Z</time>
      </trkpt>
      <trkpt lat="48.36544" lon="2.71455">
        <ele>77.199996948242</ele>
        <time>2022-11-19T14:56:16Z</time>
      </trkpt>
      <trkpt lat="48.36544" lon="2.71461">
        <ele>77.199996948242</ele>
        <time>2022-11-19T14:56:20Z</time>
      </trkpt>
      <trkpt lat="48.36544" lon="2.71467">
        <ele>77.199996948242</ele>
        <time>2022-11-19T14:56:24Z</time>
      </trkpt>
      <trkpt lat="48.36544" lon="2.71473">
        <ele>77</ele>
        <time>2022-11-19T14:56:28Z</time>
      </trkpt>
      <trkpt lat="48.36543" lon="2.71481">
        <ele>77</ele>
        <time>2022-11-19T14:56:32Z</time>
      </trkpt>
      <trkpt lat="48.36542" lon="2.71487">
        <ele>76.800003051758</ele>
        <time>2022-11-19T14:56:36Z</time>
      </trkpt>
      <trkpt lat="48.36541" lon="2.71494">
        <ele>76.800003051758</ele>
        <time>2022-11-19T14:56:40Z</time>
      </trkpt>
      <trkpt lat="48.36539" lon="2.71501">
        <ele>76.599998474121</ele>
        <time>2022-11-19T14:56:44Z</time>
      </trkpt>
      <trkpt lat="48.36539" lon="2.71509">
        <ele>76.599998474121</ele>
        <time>2022-11-19T14:56:48Z</time>
      </trkpt>
      <trkpt lat="48.36539" lon="2.71516">
        <ele>76.599998474121</ele>
        <time>2022-11-19T14:56:52Z</time>
      </trkpt>
      <trkpt lat="48.36537" lon="2.71523">
        <ele>76.400001525879</ele>
        <time>2022-11-19T14:56:56Z</time>
      </trkpt>
      <trkpt lat="48.36536" lon="2.71531">
        <ele>76.400001525879</ele>
        <time>2022-11-19T14:57:00Z</time>
      </trkpt>
      <trkpt lat="48.36536" lon="2.71538">
        <ele>76.400001525879</ele>
        <time>2022-11-19T14:57:04Z</time>
      </trkpt>
      <trkpt lat="48.36536" lon="2.71544">
        <ele>76.199996948242</ele>
        <time>2022-11-19T14:57:08Z</time>
      </trkpt>
      <trkpt lat="48.36536" lon="2.7155">
        <ele>76.199996948242</ele>
        <time>2022-11-19T14:57:12Z</time>
      </trkpt>
      <trkpt lat="48.36537" lon="2.71554">
        <ele>76</ele>
        <time>2022-11-19T14:57:16Z</time>
      </trkpt>
      <trkpt lat="48.36536" lon="2.7156">
        <ele>75.800003051758</ele>
        <time>2022-11-19T14:57:20Z</time>
      </trkpt>
      <trkpt lat="48.36535" lon="2.71565">
        <ele>75.800003051758</ele>
        <time>2022-11-19T14:57:24Z</time>
      </trkpt>
      <trkpt lat="48.36534" lon="2.71572">
        <ele>75.800003051758</ele>
        <time>2022-11-19T14:57:28Z</time>
      </trkpt>
      <trkpt lat="48.36532" lon="2.71579">
        <ele>75.599998474121</ele>
        <time>2022-11-19T14:57:32Z</time>
      </trkpt>
      <trkpt lat="48.36533" lon="2.71586">
        <ele>75.400001525879</ele>
        <time>2022-11-19T14:57:36Z</time>
      </trkpt>
      <trkpt lat="48.36533" lon="2.71594">
        <ele>75.199996948242</ele>
        <time>2022-11-19T14:57:40Z</time>
      </trkpt>
      <trkpt lat="48.36532" lon="2.71602">
        <ele>75</ele>
        <time>2022-11-19T14:57:44Z</time>
      </trkpt>
      <trkpt lat="48.36531" lon="2.7161">
        <ele>74.599998474121</ele>
        <time>2022-11-19T14:57:48Z</time>
      </trkpt>
      <trkpt lat="48.36531" lon="2.71617">
        <ele>74.599998474121</ele>
        <time>2022-11-19T14:57:52Z</time>
      </trkpt>
      <trkpt lat="48.36531" lon="2.71623">
        <ele>74.400001525879</ele>
        <time>2022-11-19T14:57:56Z</time>
      </trkpt>
      <trkpt lat="48.3653" lon="2.71627">
        <ele>74.199996948242</ele>
        <time>2022-11-19T14:58:00Z</time>
      </trkpt>
      <trkpt lat="48.3653" lon="2.71632">
        <ele>74</ele>
        <time>2022-11-19T14:58:04Z</time>
      </trkpt>
      <trkpt lat="48.3653" lon="2.71642">
        <ele>73.800003051758</ele>
        <time>2022-11-19T14:58:08Z</time>
      </trkpt>
      <trkpt lat="48.3653" lon="2.71651">
        <ele>73.599998474121</ele>
        <time>2022-11-19T14:58:12Z</time>
      </trkpt>
      <trkpt lat="48.36529" lon="2.7166">
        <ele>73.400001525879</ele>
        <time>2022-11-19T14:58:16Z</time>
      </trkpt>
      <trkpt lat="48.36529" lon="2.7167">
        <ele>73</ele>
        <time>2022-11-19T14:58:20Z</time>
      </trkpt>
      <trkpt lat="48.36528" lon="2.71678">
        <ele>72.800003051758</ele>
        <time>2022-11-19T14:58:24Z</time>
      </trkpt>
      <trkpt lat="48.36527" lon="2.71685">
        <ele>72.800003051758</ele>
        <time>2022-11-19T14:58:28Z</time>
      </trkpt>
      <trkpt lat="48.36527" lon="2.71692">
        <ele>72.599998474121</ele>
        <time>2022-11-19T14:58:32Z</time>
      </trkpt>
      <trkpt lat="48.36526" lon="2.71698">
        <ele>72.400001525879</ele>
        <time>2022-11-19T14:58:36Z</time>
      </trkpt>
      <trkpt lat="48.36525" lon="2.71706">
        <ele>72.199996948242</ele>
        <time>2022-11-19T14:58:40Z</time>
      </trkpt>
      <trkpt lat="48.36524" lon="2.71712">
        <ele>72.199996948242</ele>
        <time>2022-11-19T14:58:44Z</time>
      </trkpt>
      <trkpt lat="48.36523" lon="2.71719">
        <ele>72</ele>
        <time>2022-11-19T14:58:48Z</time>
      </trkpt>
      <trkpt lat="48.36522" lon="2.71726">
        <ele>72</ele>
        <time>2022-11-19T14:58:52Z</time>
      </trkpt>
      <trkpt lat="48.36521" lon="2.71735">
        <ele>71.800003051758</ele>
        <time>2022-11-19T14:58:56Z</time>
      </trkpt>
      <trkpt lat="48.3652" lon="2.71743">
        <ele>71.800003051758</ele>
        <time>2022-11-19T14:59:00Z</time>
      </trkpt>
      <trkpt lat="48.36518" lon="2.71753">
        <ele>71.800003051758</ele>
        <time>2022-11-19T14:59:04Z</time>
      </trkpt>
      <trkpt lat="48.36518" lon="2.71762">
        <ele>71.599998474121</ele>
        <time>2022-11-19T14:59:08Z</time>
      </trkpt>
      <trkpt lat="48.36518" lon="2.71769">
        <ele>71.599998474121</ele>
        <time>2022-11-19T14:59:12Z</time>
      </trkpt>
      <trkpt lat="48.36518" lon="2.71775">
        <ele>71.599998474121</ele>
        <time>2022-11-19T14:59:16Z</time>
      </trkpt>
      <trkpt lat="48.36518" lon="2.71782">
        <ele>71.599998474121</ele>
        <time>2022-11-19T14:59:20Z</time>
      </trkpt>
      <trkpt lat="48.36517" lon="2.71789">
        <ele>71.599998474121</ele>
        <time>2022-11-19T14:59:24Z</time>
      </trkpt>
      <trkpt lat="48.36517" lon="2.71795">
        <ele>71.599998474121</ele>
        <time>2022-11-19T14:59:28Z</time>
      </trkpt>
      <trkpt lat="48.36516" lon="2.71801">
        <ele>71.400001525879</ele>
        <time>2022-11-19T14:59:32Z</time>
      </trkpt>
      <trkpt lat="48.36515" lon="2.71807">
        <ele>71.400001525879</ele>
        <time>2022-11-19T14:59:36Z</time>
      </trkpt>
      <trkpt lat="48.36515" lon="2.71812">
        <ele>71.400001525879</ele>
        <time>2022-11-19T14:59:40Z</time>
      </trkpt>
      <trkpt lat="48.36514" lon="2.71818">
        <ele>71.400001525879</ele>
        <time>2022-11-19T14:59:44Z</time>
      </trkpt>
      <trkpt lat="48.36513" lon="2.71824">
        <ele>71.400001525879</ele>
        <time>2022-11-19T14:59:48Z</time>
      </trkpt>
      <trkpt lat="48.36512" lon="2.7183">
        <ele>71.400001525879</ele>
        <time>2022-11-19T14:59:52Z</time>
      </trkpt>
      <trkpt lat="48.36511" lon="2.71837">
        <ele>71.400001525879</ele>
        <time>2022-11-19T14:59:56Z</time>
      </trkpt>
      <trkpt lat="48.3651" lon="2.71845">
        <ele>71.400001525879</ele>
        <time>2022-11-19T15:00:00Z</time>
      </trkpt>
      <trkpt lat="48.36509" lon="2.71852">
        <ele>71.400001525879</ele>
        <time>2022-11-19T15:00:04Z</time>
      </trkpt>
      <trkpt lat="48.36508" lon="2.71858">
        <ele>71.400001525879</ele>
        <time>2022-11-19T15:00:08Z</time>
      </trkpt>
      <trkpt lat="48.36508" lon="2.71862">
        <ele>71.400001525879</ele>
        <time>2022-11-19T15:00:12Z</time>
      </trkpt>
      <trkpt lat="48.36508" lon="2.71864">
        <ele>71.400001525879</ele>
        <time>2022-11-19T15:00:16Z</time>
      </trkpt>
      <trkpt lat="48.36508" lon="2.71865">
        <ele>71.199996948242</ele>
        <time>2022-11-19T15:00:20Z</time>
      </trkpt>
      <trkpt lat="48.36508" lon="2.71872">
        <ele>71.199996948242</ele>
        <time>2022-11-19T15:00:24Z</time>
      </trkpt>
      <trkpt lat="48.36507" lon="2.71879">
        <ele>71.199996948242</ele>
        <time>2022-11-19T15:00:28Z</time>
      </trkpt>
      <trkpt lat="48.36507" lon="2.71886">
        <ele>71.199996948242</ele>
        <time>2022-11-19T15:00:32Z</time>
      </trkpt>
      <trkpt lat="48.36506" lon="2.71894">
        <ele>71.199996948242</ele>
        <time>2022-11-19T15:00:36Z</time>
      </trkpt>
      <trkpt lat="48.36505" lon="2.71901">
        <ele>71.199996948242</ele>
        <time>2022-11-19T15:00:40Z</time>
      </trkpt>
      <trkpt lat="48.36504" lon="2.71908">
        <ele>71.199996948242</ele>
        <time>2022-11-19T15:00:44Z</time>
      </trkpt>
      <trkpt lat="48.36504" lon="2.71915">
        <ele>71</ele>
        <time>2022-11-19T15:00:48Z</time>
      </trkpt>
      <trkpt lat="48.36503" lon="2.71921">
        <ele>70.800003051758</ele>
        <time>2022-11-19T15:00:52Z</time>
      </trkpt>
      <trkpt lat="48.36503" lon="2.71926">
        <ele>70.800003051758</ele>
        <time>2022-11-19T15:00:56Z</time>
      </trkpt>
      <trkpt lat="48.36504" lon="2.7193">
        <ele>70.800003051758</ele>
        <time>2022-11-19T15:01:00Z</time>
      </trkpt>
      <trkpt lat="48.36503" lon="2.71935">
        <ele>70.800003051758</ele>
        <time>2022-11-19T15:01:04Z</time>
      </trkpt>
      <trkpt lat="48.36502" lon="2.71941">
        <ele>70.800003051758</ele>
        <time>2022-11-19T15:01:08Z</time>
      </trkpt>
      <trkpt lat="48.36501" lon="2.71948">
        <ele>70.800003051758</ele>
        <time>2022-11-19T15:01:12Z</time>
      </trkpt>
      <trkpt lat="48.36501" lon="2.71952">
        <ele>70.800003051758</ele>
        <time>2022-11-19T15:01:16Z</time>
      </trkpt>
      <trkpt lat="48.36499" lon="2.71959">
        <ele>70.800003051758</ele>
        <time>2022-11-19T15:01:20Z</time>
      </trkpt>
      <trkpt lat="48.36498" lon="2.71964">
        <ele>70.800003051758</ele>
        <time>2022-11-19T15:01:24Z</time>
      </trkpt>
      <trkpt lat="48.36498" lon="2.71972">
        <ele>70.800003051758</ele>
        <time>2022-11-19T15:01:28Z</time>
      </trkpt>
      <trkpt lat="48.36498" lon="2.7198">
        <ele>70.800003051758</ele>
        <time>2022-11-19T15:01:32Z</time>
      </trkpt>
      <trkpt lat="48.36498" lon="2.71988">
        <ele>70.800003051758</ele>
        <time>2022-11-19T15:01:36Z</time>
      </trkpt>
      <trkpt lat="48.36497" lon="2.71994">
        <ele>70.800003051758</ele>
        <time>2022-11-19T15:01:40Z</time>
      </trkpt>
      <trkpt lat="48.36496" lon="2.72">
        <ele>70.800003051758</ele>
        <time>2022-11-19T15:01:44Z</time>
      </trkpt>
      <trkpt lat="48.36496" lon="2.72006">
        <ele>71</ele>
        <time>2022-11-19T15:01:48Z</time>
      </trkpt>
      <trkpt lat="48.36495" lon="2.72012">
        <ele>71.199996948242</ele>
        <time>2022-11-19T15:01:52Z</time>
      </trkpt>
      <trkpt lat="48.36494" lon="2.7202">
        <ele>71.400001525879</ele>
        <time>2022-11-19T15:01:56Z</time>
      </trkpt>
      <trkpt lat="48.36493" lon="2.72028">
        <ele>71.199996948242</ele>
        <time>2022-11-19T15:02:00Z</time>
      </trkpt>
      <trkpt lat="48.36492" lon="2.72034">
        <ele>71.400001525879</ele>
        <time>2022-11-19T15:02:04Z</time>
      </trkpt>
      <trkpt lat="48.36491" lon="2.72041">
        <ele>71.400001525879</ele>
        <time>2022-11-19T15:02:08Z</time>
      </trkpt>
      <trkpt lat="48.36491" lon="2.72048">
        <ele>71.400001525879</ele>
        <time>2022-11-19T15:02:12Z</time>
      </trkpt>
      <trkpt lat="48.36492" lon="2.72054">
        <ele>71.199996948242</ele>
        <time>2022-11-19T15:02:16Z</time>
      </trkpt>
      <trkpt lat="48.36491" lon="2.72061">
        <ele>71.199996948242</ele>
        <time>2022-11-19T15:02:20Z</time>
      </trkpt>
      <trkpt lat="48.3649" lon="2.72065">
        <ele>71.400001525879</ele>
        <time>2022-11-19T15:02:24Z</time>
      </trkpt>
      <trkpt lat="48.36491" lon="2.7207">
        <ele>71.400001525879</ele>
        <time>2022-11-19T15:02:28Z</time>
      </trkpt>
      <trkpt lat="48.36491" lon="2.72075">
        <ele>71.599998474121</ele>
        <time>2022-11-19T15:02:32Z</time>
      </trkpt>
      <trkpt lat="48.36491" lon="2.72075">
        <ele>71.599998474121</ele>
        <time>2022-11-19T15:02:36Z</time>
      </trkpt>
      <trkpt lat="48.3649" lon="2.72078">
        <ele>71.800003051758</ele>
        <time>2022-11-19T15:02:40Z</time>
      </trkpt>
      <trkpt lat="48.36489" lon="2.72083">
        <ele>71.800003051758</ele>
        <time>2022-11-19T15:02:44Z</time>
      </trkpt>
      <trkpt lat="48.3649" lon="2.72083">
        <ele>72</ele>
        <time>2022-11-19T15:02:48Z</time>
      </trkpt>
      <trkpt lat="48.3649" lon="2.72084">
        <ele>72</ele>
        <time>2022-11-19T15:02:52Z</time>
      </trkpt>
      <trkpt lat="48.36491" lon="2.72086">
        <ele>72.199996948242</ele>
        <time>2022-11-19T15:02:56Z</time>
      </trkpt>
      <trkpt lat="48.36491" lon="2.72086">
        <ele>72.199996948242</ele>
        <time>2022-11-19T15:03:00Z</time>
      </trkpt>
      <trkpt lat="48.3649" lon="2.72088">
        <ele>72.199996948242</ele>
        <time>2022-11-19T15:03:04Z</time>
      </trkpt>
      <trkpt lat="48.36491" lon="2.72089">
        <ele>72.199996948242</ele>
        <time>2022-11-19T15:03:08Z</time>
      </trkpt>
      <trkpt lat="48.36491" lon="2.7209">
        <ele>72.400001525879</ele>
        <time>2022-11-19T15:03:12Z</time>
      </trkpt>
      <trkpt lat="48.36491" lon="2.72092">
        <ele>72.400001525879</ele>
        <time>2022-11-19T15:03:16Z</time>
      </trkpt>
      <trkpt lat="48.36491" lon="2.72095">
        <ele>72.400001525879</ele>
        <time>2022-11-19T15:03:20Z</time>
      </trkpt>
      <trkpt lat="48.3649" lon="2.72101">
        <ele>72.199996948242</ele>
        <time>2022-11-19T15:03:24Z</time>
      </trkpt>
      <trkpt lat="48.36489" lon="2.72107">
        <ele>72.199996948242</ele>
        <time>2022-11-19T15:03:28Z</time>
      </trkpt>
      <trkpt lat="48.36487" lon="2.7211">
        <ele>72.199996948242</ele>
        <time>2022-11-19T15:03:32Z</time>
      </trkpt>
      <trkpt lat="48.36485" lon="2.72112">
        <ele>72.199996948242</ele>
        <time>2022-11-19T15:03:36Z</time>
      </trkpt>
      <trkpt lat="48.36483" lon="2.72115">
        <ele>72</ele>
        <time>2022-11-19T15:03:40Z</time>
      </trkpt>
      <trkpt lat="48.36482" lon="2.72117">
        <ele>72</ele>
        <time>2022-11-19T15:03:44Z</time>
      </trkpt>
      <trkpt lat="48.36482" lon="2.72121">
        <ele>71.800003051758</ele>
        <time>2022-11-19T15:03:48Z</time>
      </trkpt>
      <trkpt lat="48.36483" lon="2.72124">
        <ele>72</ele>
        <time>2022-11-19T15:03:52Z</time>
      </trkpt>
      <trkpt lat="48.36481" lon="2.72129">
        <ele>72</ele>
        <time>2022-11-19T15:03:56Z</time>
      </trkpt>
      <trkpt lat="48.36478" lon="2.72133">
        <ele>72</ele>
        <time>2022-11-19T15:04:00Z</time>
      </trkpt>
      <trkpt lat="48.36477" lon="2.72136">
        <ele>72</ele>
        <time>2022-11-19T15:04:04Z</time>
      </trkpt>
      <trkpt lat="48.36475" lon="2.7214">
        <ele>72</ele>
        <time>2022-11-19T15:04:08Z</time>
      </trkpt>
      <trkpt lat="48.36476" lon="2.72145">
        <ele>72</ele>
        <time>2022-11-19T15:04:12Z</time>
      </trkpt>
      <trkpt lat="48.36478" lon="2.72153">
        <ele>72</ele>
        <time>2022-11-19T15:04:16Z</time>
      </trkpt>
      <trkpt lat="48.3648" lon="2.72163">
        <ele>72.199996948242</ele>
        <time>2022-11-19T15:04:20Z</time>
      </trkpt>
      <trkpt lat="48.3648" lon="2.7217">
        <ele>72.199996948242</ele>
        <time>2022-11-19T15:04:24Z</time>
      </trkpt>
      <trkpt lat="48.36479" lon="2.72175">
        <ele>72.199996948242</ele>
        <time>2022-11-19T15:04:28Z</time>
      </trkpt>
      <trkpt lat="48.36479" lon="2.72184">
        <ele>72.199996948242</ele>
        <time>2022-11-19T15:04:32Z</time>
      </trkpt>
      <trkpt lat="48.36478" lon="2.72189">
        <ele>72.199996948242</ele>
        <time>2022-11-19T15:04:36Z</time>
      </trkpt>
      <trkpt lat="48.36478" lon="2.72196">
        <ele>72.199996948242</ele>
        <time>2022-11-19T15:04:40Z</time>
      </trkpt>
      <trkpt lat="48.36478" lon="2.72202">
        <ele>72.199996948242</ele>
        <time>2022-11-19T15:04:44Z</time>
      </trkpt>
      <trkpt lat="48.36478" lon="2.72208">
        <ele>72.199996948242</ele>
        <time>2022-11-19T15:04:48Z</time>
      </trkpt>
      <trkpt lat="48.36478" lon="2.72215">
        <ele>72.199996948242</ele>
        <time>2022-11-19T15:04:52Z</time>
      </trkpt>
      <trkpt lat="48.36477" lon="2.72221">
        <ele>72</ele>
        <time>2022-11-19T15:04:56Z</time>
      </trkpt>
      <trkpt lat="48.36477" lon="2.72227">
        <ele>71.599998474121</ele>
        <time>2022-11-19T15:05:00Z</time>
      </trkpt>
      <trkpt lat="48.36476" lon="2.72233">
        <ele>71.599998474121</ele>
        <time>2022-11-19T15:05:04Z</time>
      </trkpt>
      <trkpt lat="48.36475" lon="2.72239">
        <ele>71.400001525879</ele>
        <time>2022-11-19T15:05:08Z</time>
      </trkpt>
      <trkpt lat="48.36473" lon="2.72245">
        <ele>71.400001525879</ele>
        <time>2022-11-19T15:05:12Z</time>
      </trkpt>
      <trkpt lat="48.36472" lon="2.72251">
        <ele>71.199996948242</ele>
        <time>2022-11-19T15:05:16Z</time>
      </trkpt>
      <trkpt lat="48.3647" lon="2.72253">
        <ele>71.199996948242</ele>
        <time>2022-11-19T15:05:20Z</time>
      </trkpt>
      <trkpt lat="48.36467" lon="2.72254">
        <ele>71.400001525879</ele>
        <time>2022-11-19T15:05:24Z</time>
      </trkpt>
      <trkpt lat="48.36467" lon="2.72258">
        <ele>71.400001525879</ele>
        <time>2022-11-19T15:05:28Z</time>
      </trkpt>
      <trkpt lat="48.36467" lon="2.72261">
        <ele>71.400001525879</ele>
        <time>2022-11-19T15:05:32Z</time>
      </trkpt>
      <trkpt lat="48.36467" lon="2.72265">
        <ele>71</ele>
        <time>2022-11-19T15:05:36Z</time>
      </trkpt>
      <trkpt lat="48.36468" lon="2.72273">
        <ele>70.800003051758</ele>
        <time>2022-11-19T15:05:40Z</time>
      </trkpt>
      <trkpt lat="48.36467" lon="2.72279">
        <ele>70.599998474121</ele>
        <time>2022-11-19T15:05:44Z</time>
      </trkpt>
      <trkpt lat="48.36467" lon="2.72284">
        <ele>70.599998474121</ele>
        <time>2022-11-19T15:05:48Z</time>
      </trkpt>
      <trkpt lat="48.36467" lon="2.72291">
        <ele>70.400001525879</ele>
        <time>2022-11-19T15:05:52Z</time>
      </trkpt>
      <trkpt lat="48.36466" lon="2.72298">
        <ele>70.400001525879</ele>
        <time>2022-11-19T15:05:56Z</time>
      </trkpt>
      <trkpt lat="48.36466" lon="2.72304">
        <ele>70.199996948242</ele>
        <time>2022-11-19T15:06:00Z</time>
      </trkpt>
      <trkpt lat="48.36465" lon="2.7231">
        <ele>70.199996948242</ele>
        <time>2022-11-19T15:06:04Z</time>
      </trkpt>
      <trkpt lat="48.36466" lon="2.72316">
        <ele>70</ele>
        <time>2022-11-19T15:06:08Z</time>
      </trkpt>
      <trkpt lat="48.36465" lon="2.72322">
        <ele>69.800003051758</ele>
        <time>2022-11-19T15:06:12Z</time>
      </trkpt>
      <trkpt lat="48.36465" lon="2.7233">
        <ele>69.599998474121</ele>
        <time>2022-11-19T15:06:16Z</time>
      </trkpt>
      <trkpt lat="48.36463" lon="2.72338">
        <ele>69.599998474121</ele>
        <time>2022-11-19T15:06:20Z</time>
      </trkpt>
      <trkpt lat="48.36463" lon="2.72343">
        <ele>69.599998474121</ele>
        <time>2022-11-19T15:06:24Z</time>
      </trkpt>
      <trkpt lat="48.36462" lon="2.72348">
        <ele>69.599998474121</ele>
        <time>2022-11-19T15:06:28Z</time>
      </trkpt>
      <trkpt lat="48.36462" lon="2.72356">
        <ele>69.599998474121</ele>
        <time>2022-11-19T15:06:32Z</time>
      </trkpt>
      <trkpt lat="48.36461" lon="2.72363">
        <ele>70</ele>
        <time>2022-11-19T15:06:36Z</time>
      </trkpt>
      <trkpt lat="48.3646" lon="2.72371">
        <ele>70</ele>
        <time>2022-11-19T15:06:40Z</time>
      </trkpt>
      <trkpt lat="48.3646" lon="2.72379">
        <ele>70</ele>
        <time>2022-11-19T15:06:44Z</time>
      </trkpt>
      <trkpt lat="48.36458" lon="2.72385">
        <ele>70.199996948242</ele>
        <time>2022-11-19T15:06:48Z</time>
      </trkpt>
      <trkpt lat="48.36458" lon="2.72391">
        <ele>70.199996948242</ele>
        <time>2022-11-19T15:06:52Z</time>
      </trkpt>
      <trkpt lat="48.36457" lon="2.72397">
        <ele>70.400001525879</ele>
        <time>2022-11-19T15:06:56Z</time>
      </trkpt>
      <trkpt lat="48.36456" lon="2.72403">
        <ele>70.400001525879</ele>
        <time>2022-11-19T15:07:00Z</time>
      </trkpt>
      <trkpt lat="48.36455" lon="2.7241">
        <ele>70.599998474121</ele>
        <time>2022-11-19T15:07:04Z</time>
      </trkpt>
      <trkpt lat="48.36454" lon="2.72416">
        <ele>70.599998474121</ele>
        <time>2022-11-19T15:07:08Z</time>
      </trkpt>
      <trkpt lat="48.36453" lon="2.72422">
        <ele>70.599998474121</ele>
        <time>2022-11-19T15:07:12Z</time>
      </trkpt>
      <trkpt lat="48.36453" lon="2.72429">
        <ele>71</ele>
        <time>2022-11-19T15:07:16Z</time>
      </trkpt>
      <trkpt lat="48.36452" lon="2.72436">
        <ele>71</ele>
        <time>2022-11-19T15:07:20Z</time>
      </trkpt>
      <trkpt lat="48.36452" lon="2.72442">
        <ele>71</ele>
        <time>2022-11-19T15:07:24Z</time>
      </trkpt>
      <trkpt lat="48.36451" lon="2.72449">
        <ele>71</ele>
        <time>2022-11-19T15:07:28Z</time>
      </trkpt>
      <trkpt lat="48.36451" lon="2.72457">
        <ele>71.199996948242</ele>
        <time>2022-11-19T15:07:32Z</time>
      </trkpt>
      <trkpt lat="48.36449" lon="2.72465">
        <ele>71.400001525879</ele>
        <time>2022-11-19T15:07:36Z</time>
      </trkpt>
      <trkpt lat="48.36448" lon="2.72473">
        <ele>71.599998474121</ele>
        <time>2022-11-19T15:07:40Z</time>
      </trkpt>
      <trkpt lat="48.36447" lon="2.7248">
        <ele>71.599998474121</ele>
        <time>2022-11-19T15:07:44Z</time>
      </trkpt>
      <trkpt lat="48.36446" lon="2.72486">
        <ele>71.599998474121</ele>
        <time>2022-11-19T15:07:48Z</time>
      </trkpt>
      <trkpt lat="48.36446" lon="2.72493">
        <ele>71.599998474121</ele>
        <time>2022-11-19T15:07:52Z</time>
      </trkpt>
      <trkpt lat="48.36446" lon="2.725">
        <ele>71.599998474121</ele>
        <time>2022-11-19T15:07:56Z</time>
      </trkpt>
      <trkpt lat="48.36446" lon="2.72506">
        <ele>71.599998474121</ele>
        <time>2022-11-19T15:08:00Z</time>
      </trkpt>
      <trkpt lat="48.36446" lon="2.72514">
        <ele>71.400001525879</ele>
        <time>2022-11-19T15:08:04Z</time>
      </trkpt>
      <trkpt lat="48.36445" lon="2.72522">
        <ele>71.400001525879</ele>
        <time>2022-11-19T15:08:08Z</time>
      </trkpt>
      <trkpt lat="48.36443" lon="2.72529">
        <ele>71.400001525879</ele>
        <time>2022-11-19T15:08:12Z</time>
      </trkpt>
      <trkpt lat="48.36443" lon="2.72537">
        <ele>71.400001525879</ele>
        <time>2022-11-19T15:08:16Z</time>
      </trkpt>
      <trkpt lat="48.36442" lon="2.72543">
        <ele>71.400001525879</ele>
        <time>2022-11-19T15:08:20Z</time>
      </trkpt>
      <trkpt lat="48.36441" lon="2.72548">
        <ele>71.199996948242</ele>
        <time>2022-11-19T15:08:24Z</time>
      </trkpt>
      <trkpt lat="48.3644" lon="2.72554">
        <ele>71.199996948242</ele>
        <time>2022-11-19T15:08:28Z</time>
      </trkpt>
      <trkpt lat="48.3644" lon="2.7256">
        <ele>71</ele>
        <time>2022-11-19T15:08:32Z</time>
      </trkpt>
      <trkpt lat="48.3644" lon="2.72567">
        <ele>71</ele>
        <time>2022-11-19T15:08:36Z</time>
      </trkpt>
      <trkpt lat="48.3644" lon="2.72575">
        <ele>71.199996948242</ele>
        <time>2022-11-19T15:08:40Z</time>
      </trkpt>
      <trkpt lat="48.36438" lon="2.72582">
        <ele>71.199996948242</ele>
        <time>2022-11-19T15:08:44Z</time>
      </trkpt>
      <trkpt lat="48.36437" lon="2.72591">
        <ele>71</ele>
        <time>2022-11-19T15:08:48Z</time>
      </trkpt>
      <trkpt lat="48.36438" lon="2.72598">
        <ele>71</ele>
        <time>2022-11-19T15:08:52Z</time>
      </trkpt>
      <trkpt lat="48.36438" lon="2.72604">
        <ele>71</ele>
        <time>2022-11-19T15:08:56Z</time>
      </trkpt>
      <trkpt lat="48.36436" lon="2.7261">
        <ele>71</ele>
        <time>2022-11-19T15:09:00Z</time>
      </trkpt>
      <trkpt lat="48.36435" lon="2.72615">
        <ele>71</ele>
        <time>2022-11-19T15:09:04Z</time>
      </trkpt>
      <trkpt lat="48.36433" lon="2.72621">
        <ele>70.800003051758</ele>
        <time>2022-11-19T15:09:08Z</time>
      </trkpt>
      <trkpt lat="48.36433" lon="2.72627">
        <ele>70.800003051758</ele>
        <time>2022-11-19T15:09:12Z</time>
      </trkpt>
      <trkpt lat="48.36432" lon="2.72634">
        <ele>70.800003051758</ele>
        <time>2022-11-19T15:09:16Z</time>
      </trkpt>
      <trkpt lat="48.36431" lon="2.72641">
        <ele>70.800003051758</ele>
        <time>2022-11-19T15:09:20Z</time>
      </trkpt>
      <trkpt lat="48.3643" lon="2.72648">
        <ele>70.800003051758</ele>
        <time>2022-11-19T15:09:24Z</time>
      </trkpt>
      <trkpt lat="48.3643" lon="2.72654">
        <ele>70.800003051758</ele>
        <time>2022-11-19T15:09:28Z</time>
      </trkpt>
      <trkpt lat="48.36429" lon="2.7266">
        <ele>70.599998474121</ele>
        <time>2022-11-19T15:09:32Z</time>
      </trkpt>
      <trkpt lat="48.36428" lon="2.72666">
        <ele>70.599998474121</ele>
        <time>2022-11-19T15:09:36Z</time>
      </trkpt>
      <trkpt lat="48.36428" lon="2.72672">
        <ele>70.800003051758</ele>
        <time>2022-11-19T15:09:40Z</time>
      </trkpt>
      <trkpt lat="48.36427" lon="2.72678">
        <ele>70.800003051758</ele>
        <time>2022-11-19T15:09:44Z</time>
      </trkpt>
      <trkpt lat="48.36427" lon="2.72683">
        <ele>70.800003051758</ele>
        <time>2022-11-19T15:09:48Z</time>
      </trkpt>
      <trkpt lat="48.36428" lon="2.72691">
        <ele>70.800003051758</ele>
        <time>2022-11-19T15:09:52Z</time>
      </trkpt>
      <trkpt lat="48.36427" lon="2.72697">
        <ele>70.800003051758</ele>
        <time>2022-11-19T15:09:56Z</time>
      </trkpt>
      <trkpt lat="48.36425" lon="2.72704">
        <ele>70.800003051758</ele>
        <time>2022-11-19T15:10:00Z</time>
      </trkpt>
      <trkpt lat="48.36425" lon="2.7271">
        <ele>70.800003051758</ele>
        <time>2022-11-19T15:10:04Z</time>
      </trkpt>
      <trkpt lat="48.36425" lon="2.72717">
        <ele>70.800003051758</ele>
        <time>2022-11-19T15:10:08Z</time>
      </trkpt>
      <trkpt lat="48.36425" lon="2.72723">
        <ele>70.800003051758</ele>
        <time>2022-11-19T15:10:12Z</time>
      </trkpt>
      <trkpt lat="48.36425" lon="2.72729">
        <ele>71</ele>
        <time>2022-11-19T15:10:16Z</time>
      </trkpt>
      <trkpt lat="48.36424" lon="2.72734">
        <ele>71</ele>
        <time>2022-11-19T15:10:20Z</time>
      </trkpt>
      <trkpt lat="48.36424" lon="2.72739">
        <ele>71</ele>
        <time>2022-11-19T15:10:24Z</time>
      </trkpt>
      <trkpt lat="48.36424" lon="2.72742">
        <ele>71.199996948242</ele>
        <time>2022-11-19T15:10:28Z</time>
      </trkpt>
      <trkpt lat="48.36423" lon="2.72749">
        <ele>71.199996948242</ele>
        <time>2022-11-19T15:10:32Z</time>
      </trkpt>
      <trkpt lat="48.36422" lon="2.72759">
        <ele>71.400001525879</ele>
        <time>2022-11-19T15:10:36Z</time>
      </trkpt>
      <trkpt lat="48.3642" lon="2.72765">
        <ele>71.400001525879</ele>
        <time>2022-11-19T15:10:40Z</time>
      </trkpt>
      <trkpt lat="48.36419" lon="2.72772">
        <ele>71.400001525879</ele>
        <time>2022-11-19T15:10:44Z</time>
      </trkpt>
      <trkpt lat="48.36418" lon="2.7278">
        <ele>71.599998474121</ele>
        <time>2022-11-19T15:10:48Z</time>
      </trkpt>
      <trkpt lat="48.36417" lon="2.72786">
        <ele>71.599998474121</ele>
        <time>2022-11-19T15:10:52Z</time>
      </trkpt>
      <trkpt lat="48.36417" lon="2.72793">
        <ele>71.599998474121</ele>
        <time>2022-11-19T15:10:56Z</time>
      </trkpt>
      <trkpt lat="48.36417" lon="2.72801">
        <ele>71.800003051758</ele>
        <time>2022-11-19T15:11:00Z</time>
      </trkpt>
      <trkpt lat="48.36417" lon="2.72807">
        <ele>71.800003051758</ele>
        <time>2022-11-19T15:11:04Z</time>
      </trkpt>
      <trkpt lat="48.36414" lon="2.72814">
        <ele>72</ele>
        <time>2022-11-19T15:11:08Z</time>
      </trkpt>
      <trkpt lat="48.36414" lon="2.7282">
        <ele>72</ele>
        <time>2022-11-19T15:11:12Z</time>
      </trkpt>
      <trkpt lat="48.36413" lon="2.72825">
        <ele>72.199996948242</ele>
        <time>2022-11-19T15:11:16Z</time>
      </trkpt>
      <trkpt lat="48.36413" lon="2.72833">
        <ele>72.199996948242</ele>
        <time>2022-11-19T15:11:20Z</time>
      </trkpt>
      <trkpt lat="48.36412" lon="2.72838">
        <ele>72.400001525879</ele>
        <time>2022-11-19T15:11:24Z</time>
      </trkpt>
      <trkpt lat="48.36411" lon="2.72846">
        <ele>72.400001525879</ele>
        <time>2022-11-19T15:11:28Z</time>
      </trkpt>
      <trkpt lat="48.36411" lon="2.72852">
        <ele>72.599998474121</ele>
        <time>2022-11-19T15:11:32Z</time>
      </trkpt>
      <trkpt lat="48.36412" lon="2.72858">
        <ele>72.599998474121</ele>
        <time>2022-11-19T15:11:36Z</time>
      </trkpt>
      <trkpt lat="48.36412" lon="2.72864">
        <ele>72.800003051758</ele>
        <time>2022-11-19T15:11:40Z</time>
      </trkpt>
      <trkpt lat="48.3641" lon="2.72873">
        <ele>72.800003051758</ele>
        <time>2022-11-19T15:11:44Z</time>
      </trkpt>
      <trkpt lat="48.36409" lon="2.7288">
        <ele>72.800003051758</ele>
        <time>2022-11-19T15:11:48Z</time>
      </trkpt>
      <trkpt lat="48.36409" lon="2.72887">
        <ele>72.800003051758</ele>
        <time>2022-11-19T15:11:52Z</time>
      </trkpt>
      <trkpt lat="48.36409" lon="2.72893">
        <ele>72.800003051758</ele>
        <time>2022-11-19T15:11:56Z</time>
      </trkpt>
      <trkpt lat="48.36407" lon="2.729">
        <ele>72.800003051758</ele>
        <time>2022-11-19T15:12:00Z</time>
      </trkpt>
      <trkpt lat="48.36407" lon="2.72906">
        <ele>72.800003051758</ele>
        <time>2022-11-19T15:12:04Z</time>
      </trkpt>
      <trkpt lat="48.36406" lon="2.72913">
        <ele>72.800003051758</ele>
        <time>2022-11-19T15:12:08Z</time>
      </trkpt>
      <trkpt lat="48.36405" lon="2.72919">
        <ele>72.800003051758</ele>
        <time>2022-11-19T15:12:12Z</time>
      </trkpt>
      <trkpt lat="48.36406" lon="2.72925">
        <ele>72.800003051758</ele>
        <time>2022-11-19T15:12:16Z</time>
      </trkpt>
      <trkpt lat="48.36405" lon="2.72931">
        <ele>72.800003051758</ele>
        <time>2022-11-19T15:12:20Z</time>
      </trkpt>
      <trkpt lat="48.36403" lon="2.7294">
        <ele>72.800003051758</ele>
        <time>2022-11-19T15:12:24Z</time>
      </trkpt>
      <trkpt lat="48.36402" lon="2.72947">
        <ele>72.800003051758</ele>
        <time>2022-11-19T15:12:28Z</time>
      </trkpt>
      <trkpt lat="48.36401" lon="2.72954">
        <ele>72.800003051758</ele>
        <time>2022-11-19T15:12:32Z</time>
      </trkpt>
      <trkpt lat="48.364" lon="2.7296">
        <ele>72.800003051758</ele>
        <time>2022-11-19T15:12:36Z</time>
      </trkpt>
      <trkpt lat="48.36398" lon="2.72967">
        <ele>72.800003051758</ele>
        <time>2022-11-19T15:12:40Z</time>
      </trkpt>
      <trkpt lat="48.36397" lon="2.72974">
        <ele>72.800003051758</ele>
        <time>2022-11-19T15:12:44Z</time>
      </trkpt>
      <trkpt lat="48.36396" lon="2.7298">
        <ele>72.800003051758</ele>
        <time>2022-11-19T15:12:48Z</time>
      </trkpt>
      <trkpt lat="48.36396" lon="2.72987">
        <ele>72.800003051758</ele>
        <time>2022-11-19T15:12:52Z</time>
      </trkpt>
      <trkpt lat="48.36396" lon="2.72994">
        <ele>73</ele>
        <time>2022-11-19T15:12:56Z</time>
      </trkpt>
      <trkpt lat="48.36396" lon="2.73">
        <ele>73</ele>
        <time>2022-11-19T15:13:00Z</time>
      </trkpt>
      <trkpt lat="48.36396" lon="2.73004">
        <ele>73</ele>
        <time>2022-11-19T15:13:04Z</time>
      </trkpt>
      <trkpt lat="48.36396" lon="2.7301">
        <ele>73.199996948242</ele>
        <time>2022-11-19T15:13:08Z</time>
      </trkpt>
      <trkpt lat="48.36395" lon="2.73017">
        <ele>73.199996948242</ele>
        <time>2022-11-19T15:13:12Z</time>
      </trkpt>
      <trkpt lat="48.36394" lon="2.73023">
        <ele>73.199996948242</ele>
        <time>2022-11-19T15:13:16Z</time>
      </trkpt>
      <trkpt lat="48.36394" lon="2.73029">
        <ele>73.199996948242</ele>
        <time>2022-11-19T15:13:20Z</time>
      </trkpt>
      <trkpt lat="48.36394" lon="2.73036">
        <ele>73.199996948242</ele>
        <time>2022-11-19T15:13:24Z</time>
      </trkpt>
      <trkpt lat="48.36393" lon="2.73042">
        <ele>73.199996948242</ele>
        <time>2022-11-19T15:13:28Z</time>
      </trkpt>
      <trkpt lat="48.36393" lon="2.73049">
        <ele>73.199996948242</ele>
        <time>2022-11-19T15:13:32Z</time>
      </trkpt>
      <trkpt lat="48.36393" lon="2.73056">
        <ele>73.400001525879</ele>
        <time>2022-11-19T15:13:36Z</time>
      </trkpt>
      <trkpt lat="48.36392" lon="2.73064">
        <ele>73.400001525879</ele>
        <time>2022-11-19T15:13:40Z</time>
      </trkpt>
      <trkpt lat="48.36392" lon="2.73072">
        <ele>73.400001525879</ele>
        <time>2022-11-19T15:13:44Z</time>
      </trkpt>
      <trkpt lat="48.36391" lon="2.73079">
        <ele>73.199996948242</ele>
        <time>2022-11-19T15:13:48Z</time>
      </trkpt>
      <trkpt lat="48.36391" lon="2.73086">
        <ele>73.400001525879</ele>
        <time>2022-11-19T15:13:52Z</time>
      </trkpt>
      <trkpt lat="48.36389" lon="2.73094">
        <ele>73.400001525879</ele>
        <time>2022-11-19T15:13:56Z</time>
      </trkpt>
      <trkpt lat="48.36389" lon="2.731">
        <ele>73.400001525879</ele>
        <time>2022-11-19T15:14:00Z</time>
      </trkpt>
      <trkpt lat="48.36388" lon="2.73106">
        <ele>73.400001525879</ele>
        <time>2022-11-19T15:14:04Z</time>
      </trkpt>
      <trkpt lat="48.36387" lon="2.73112">
        <ele>73.400001525879</ele>
        <time>2022-11-19T15:14:08Z</time>
      </trkpt>
      <trkpt lat="48.36386" lon="2.73118">
        <ele>73.400001525879</ele>
        <time>2022-11-19T15:14:12Z</time>
      </trkpt>
      <trkpt lat="48.36386" lon="2.73125">
        <ele>73.400001525879</ele>
        <time>2022-11-19T15:14:16Z</time>
      </trkpt>
      <trkpt lat="48.36385" lon="2.73132">
        <ele>73.400001525879</ele>
        <time>2022-11-19T15:14:20Z</time>
      </trkpt>
      <trkpt lat="48.36383" lon="2.73138">
        <ele>73.199996948242</ele>
        <time>2022-11-19T15:14:24Z</time>
      </trkpt>
      <trkpt lat="48.36382" lon="2.73143">
        <ele>73</ele>
        <time>2022-11-19T15:14:28Z</time>
      </trkpt>
      <trkpt lat="48.36382" lon="2.73148">
        <ele>73.199996948242</ele>
        <time>2022-11-19T15:14:32Z</time>
      </trkpt>
      <trkpt lat="48.36384" lon="2.73156">
        <ele>73.199996948242</ele>
        <time>2022-11-19T15:14:36Z</time>
      </trkpt>
      <trkpt lat="48.36387" lon="2.7316">
        <ele>73.400001525879</ele>
        <time>2022-11-19T15:14:40Z</time>
      </trkpt>
      <trkpt lat="48.3639" lon="2.73165">
        <ele>73.400001525879</ele>
        <time>2022-11-19T15:14:44Z</time>
      </trkpt>
      <trkpt lat="48.36392" lon="2.73171">
        <ele>73.400001525879</ele>
        <time>2022-11-19T15:14:48Z</time>
      </trkpt>
      <trkpt lat="48.36397" lon="2.73175">
        <ele>73.599998474121</ele>
        <time>2022-11-19T15:14:52Z</time>
      </trkpt>
      <trkpt lat="48.36401" lon="2.7318">
        <ele>73.599998474121</ele>
        <time>2022-11-19T15:14:56Z</time>
      </trkpt>
      <trkpt lat="48.36403" lon="2.73184">
        <ele>73.400001525879</ele>
        <time>2022-11-19T15:15:00Z</time>
      </trkpt>
      <trkpt lat="48.36406" lon="2.73187">
        <ele>73.400001525879</ele>
        <time>2022-11-19T15:15:04Z</time>
      </trkpt>
      <trkpt lat="48.3641" lon="2.73192">
        <ele>73.599998474121</ele>
        <time>2022-11-19T15:15:08Z</time>
      </trkpt>
      <trkpt lat="48.36414" lon="2.73195">
        <ele>73.599998474121</ele>
        <time>2022-11-19T15:15:12Z</time>
      </trkpt>
      <trkpt lat="48.36418" lon="2.73197">
        <ele>73.400001525879</ele>
        <time>2022-11-19T15:15:16Z</time>
      </trkpt>
      <trkpt lat="48.36422" lon="2.73199">
        <ele>73.400001525879</ele>
        <time>2022-11-19T15:15:20Z</time>
      </trkpt>
      <trkpt lat="48.36426" lon="2.73203">
        <ele>73.400001525879</ele>
        <time>2022-11-19T15:15:24Z</time>
      </trkpt>
      <trkpt lat="48.36429" lon="2.73205">
        <ele>73.599998474121</ele>
        <time>2022-11-19T15:15:28Z</time>
      </trkpt>
      <trkpt lat="48.36431" lon="2.73208">
        <ele>73.400001525879</ele>
        <time>2022-11-19T15:15:32Z</time>
      </trkpt>
      <trkpt lat="48.36434" lon="2.7321">
        <ele>73.400001525879</ele>
        <time>2022-11-19T15:15:36Z</time>
      </trkpt>
      <trkpt lat="48.36436" lon="2.73212">
        <ele>73.400001525879</ele>
        <time>2022-11-19T15:15:40Z</time>
      </trkpt>
      <trkpt lat="48.36441" lon="2.73215">
        <ele>73.599998474121</ele>
        <time>2022-11-19T15:15:44Z</time>
      </trkpt>
      <trkpt lat="48.36444" lon="2.73217">
        <ele>73.599998474121</ele>
        <time>2022-11-19T15:15:48Z</time>
      </trkpt>
      <trkpt lat="48.36449" lon="2.7322">
        <ele>73.599998474121</ele>
        <time>2022-11-19T15:15:52Z</time>
      </trkpt>
      <trkpt lat="48.36453" lon="2.73224">
        <ele>73.599998474121</ele>
        <time>2022-11-19T15:15:56Z</time>
      </trkpt>
      <trkpt lat="48.3646" lon="2.73231">
        <ele>73.599998474121</ele>
        <time>2022-11-19T15:16:00Z</time>
      </trkpt>
      <trkpt lat="48.36465" lon="2.73235">
        <ele>73.800003051758</ele>
        <time>2022-11-19T15:16:04Z</time>
      </trkpt>
      <trkpt lat="48.36468" lon="2.7324">
        <ele>73.800003051758</ele>
        <time>2022-11-19T15:16:08Z</time>
      </trkpt>
      <trkpt lat="48.36472" lon="2.73245">
        <ele>74</ele>
        <time>2022-11-19T15:16:12Z</time>
      </trkpt>
      <trkpt lat="48.36476" lon="2.73249">
        <ele>74</ele>
        <time>2022-11-19T15:16:16Z</time>
      </trkpt>
      <trkpt lat="48.3648" lon="2.73253">
        <ele>74</ele>
        <time>2022-11-19T15:16:20Z</time>
      </trkpt>
      <trkpt lat="48.36483" lon="2.73257">
        <ele>74</ele>
        <time>2022-11-19T15:16:24Z</time>
      </trkpt>
      <trkpt lat="48.36486" lon="2.7326">
        <ele>74</ele>
        <time>2022-11-19T15:16:28Z</time>
      </trkpt>
      <trkpt lat="48.36489" lon="2.73264">
        <ele>74.800003051758</ele>
        <time>2022-11-19T15:16:32Z</time>
      </trkpt>
      <trkpt lat="48.36492" lon="2.73268">
        <ele>74.400001525879</ele>
        <time>2022-11-19T15:16:36Z</time>
      </trkpt>
      <trkpt lat="48.365" lon="2.73271">
        <ele>74.599998474121</ele>
        <time>2022-11-19T15:16:40Z</time>
      </trkpt>
      <trkpt lat="48.36504" lon="2.73274">
        <ele>74.599998474121</ele>
        <time>2022-11-19T15:16:44Z</time>
      </trkpt>
      <trkpt lat="48.36508" lon="2.73277">
        <ele>74.800003051758</ele>
        <time>2022-11-19T15:16:48Z</time>
      </trkpt>
      <trkpt lat="48.36511" lon="2.73282">
        <ele>74.800003051758</ele>
        <time>2022-11-19T15:16:52Z</time>
      </trkpt>
      <trkpt lat="48.36515" lon="2.73288">
        <ele>75</ele>
        <time>2022-11-19T15:16:56Z</time>
      </trkpt>
      <trkpt lat="48.36519" lon="2.7329">
        <ele>75</ele>
        <time>2022-11-19T15:17:00Z</time>
      </trkpt>
      <trkpt lat="48.36522" lon="2.73292">
        <ele>75.199996948242</ele>
        <time>2022-11-19T15:17:04Z</time>
      </trkpt>
      <trkpt lat="48.36525" lon="2.73297">
        <ele>75.199996948242</ele>
        <time>2022-11-19T15:17:08Z</time>
      </trkpt>
      <trkpt lat="48.3653" lon="2.733">
        <ele>75.400001525879</ele>
        <time>2022-11-19T15:17:12Z</time>
      </trkpt>
      <trkpt lat="48.36533" lon="2.73304">
        <ele>75.400001525879</ele>
        <time>2022-11-19T15:17:16Z</time>
      </trkpt>
      <trkpt lat="48.36536" lon="2.73307">
        <ele>75.599998474121</ele>
        <time>2022-11-19T15:17:20Z</time>
      </trkpt>
      <trkpt lat="48.36538" lon="2.7331">
        <ele>75.800003051758</ele>
        <time>2022-11-19T15:17:24Z</time>
      </trkpt>
      <trkpt lat="48.36541" lon="2.73313">
        <ele>76</ele>
        <time>2022-11-19T15:17:28Z</time>
      </trkpt>
      <trkpt lat="48.36544" lon="2.73317">
        <ele>76.199996948242</ele>
        <time>2022-11-19T15:17:32Z</time>
      </trkpt>
      <trkpt lat="48.36549" lon="2.73319">
        <ele>76.199996948242</ele>
        <time>2022-11-19T15:17:36Z</time>
      </trkpt>
      <trkpt lat="48.36553" lon="2.73323">
        <ele>76.199996948242</ele>
        <time>2022-11-19T15:17:40Z</time>
      </trkpt>
      <trkpt lat="48.36557" lon="2.73329">
        <ele>76.199996948242</ele>
        <time>2022-11-19T15:17:44Z</time>
      </trkpt>
      <trkpt lat="48.36561" lon="2.73332">
        <ele>76.400001525879</ele>
        <time>2022-11-19T15:17:48Z</time>
      </trkpt>
      <trkpt lat="48.36564" lon="2.73335">
        <ele>76.400001525879</ele>
        <time>2022-11-19T15:17:52Z</time>
      </trkpt>
      <trkpt lat="48.36569" lon="2.73338">
        <ele>76.400001525879</ele>
        <time>2022-11-19T15:17:56Z</time>
      </trkpt>
      <trkpt lat="48.36573" lon="2.73341">
        <ele>76.400001525879</ele>
        <time>2022-11-19T15:18:00Z</time>
      </trkpt>
      <trkpt lat="48.36577" lon="2.73345">
        <ele>76.400001525879</ele>
        <time>2022-11-19T15:18:04Z</time>
      </trkpt>
      <trkpt lat="48.3658" lon="2.7335">
        <ele>76.400001525879</ele>
        <time>2022-11-19T15:18:08Z</time>
      </trkpt>
      <trkpt lat="48.36585" lon="2.73354">
        <ele>76.400001525879</ele>
        <time>2022-11-19T15:18:12Z</time>
      </trkpt>
      <trkpt lat="48.3659" lon="2.73357">
        <ele>76.400001525879</ele>
        <time>2022-11-19T15:18:16Z</time>
      </trkpt>
      <trkpt lat="48.36593" lon="2.73362">
        <ele>76.599998474121</ele>
        <time>2022-11-19T15:18:20Z</time>
      </trkpt>
      <trkpt lat="48.36597" lon="2.73365">
        <ele>76.599998474121</ele>
        <time>2022-11-19T15:18:24Z</time>
      </trkpt>
      <trkpt lat="48.366" lon="2.73368">
        <ele>76.599998474121</ele>
        <time>2022-11-19T15:18:28Z</time>
      </trkpt>
      <trkpt lat="48.36604" lon="2.7337">
        <ele>76.800003051758</ele>
        <time>2022-11-19T15:18:32Z</time>
      </trkpt>
      <trkpt lat="48.36608" lon="2.73373">
        <ele>76.800003051758</ele>
        <time>2022-11-19T15:18:36Z</time>
      </trkpt>
      <trkpt lat="48.36611" lon="2.73376">
        <ele>76.800003051758</ele>
        <time>2022-11-19T15:18:40Z</time>
      </trkpt>
      <trkpt lat="48.36615" lon="2.73381">
        <ele>76.800003051758</ele>
        <time>2022-11-19T15:18:44Z</time>
      </trkpt>
      <trkpt lat="48.3662" lon="2.73385">
        <ele>76.800003051758</ele>
        <time>2022-11-19T15:18:48Z</time>
      </trkpt>
      <trkpt lat="48.36624" lon="2.73389">
        <ele>76.599998474121</ele>
        <time>2022-11-19T15:18:52Z</time>
      </trkpt>
      <trkpt lat="48.36629" lon="2.73393">
        <ele>76.400001525879</ele>
        <time>2022-11-19T15:18:56Z</time>
      </trkpt>
      <trkpt lat="48.36633" lon="2.73397">
        <ele>76.400001525879</ele>
        <time>2022-11-19T15:19:00Z</time>
      </trkpt>
      <trkpt lat="48.36636" lon="2.734">
        <ele>76.400001525879</ele>
        <time>2022-11-19T15:19:04Z</time>
      </trkpt>
      <trkpt lat="48.3664" lon="2.73404">
        <ele>76.400001525879</ele>
        <time>2022-11-19T15:19:08Z</time>
      </trkpt>
      <trkpt lat="48.36643" lon="2.73409">
        <ele>76.400001525879</ele>
        <time>2022-11-19T15:19:12Z</time>
      </trkpt>
      <trkpt lat="48.36647" lon="2.73413">
        <ele>76.400001525879</ele>
        <time>2022-11-19T15:19:16Z</time>
      </trkpt>
      <trkpt lat="48.36653" lon="2.73417">
        <ele>76.400001525879</ele>
        <time>2022-11-19T15:19:20Z</time>
      </trkpt>
      <trkpt lat="48.36656" lon="2.73422">
        <ele>76.599998474121</ele>
        <time>2022-11-19T15:19:24Z</time>
      </trkpt>
      <trkpt lat="48.36659" lon="2.73426">
        <ele>76.599998474121</ele>
        <time>2022-11-19T15:19:28Z</time>
      </trkpt>
      <trkpt lat="48.36663" lon="2.73429">
        <ele>77</ele>
        <time>2022-11-19T15:19:32Z</time>
      </trkpt>
      <trkpt lat="48.36665" lon="2.73434">
        <ele>77.199996948242</ele>
        <time>2022-11-19T15:19:36Z</time>
      </trkpt>
      <trkpt lat="48.36668" lon="2.73438">
        <ele>77.199996948242</ele>
        <time>2022-11-19T15:19:40Z</time>
      </trkpt>
      <trkpt lat="48.3667" lon="2.73441">
        <ele>77.400001525879</ele>
        <time>2022-11-19T15:19:44Z</time>
      </trkpt>
      <trkpt lat="48.36675" lon="2.73444">
        <ele>77.400001525879</ele>
        <time>2022-11-19T15:19:48Z</time>
      </trkpt>
      <trkpt lat="48.36679" lon="2.73447">
        <ele>77.400001525879</ele>
        <time>2022-11-19T15:19:52Z</time>
      </trkpt>
      <trkpt lat="48.36683" lon="2.7345">
        <ele>77.400001525879</ele>
        <time>2022-11-19T15:19:56Z</time>
      </trkpt>
      <trkpt lat="48.36685" lon="2.73457">
        <ele>77.199996948242</ele>
        <time>2022-11-19T15:20:00Z</time>
      </trkpt>
      <trkpt lat="48.36688" lon="2.73462">
        <ele>77.199996948242</ele>
        <time>2022-11-19T15:20:04Z</time>
      </trkpt>
      <trkpt lat="48.36692" lon="2.73464">
        <ele>77.199996948242</ele>
        <time>2022-11-19T15:20:08Z</time>
      </trkpt>
      <trkpt lat="48.36699" lon="2.73466">
        <ele>77.199996948242</ele>
        <time>2022-11-19T15:20:12Z</time>
      </trkpt>
      <trkpt lat="48.36704" lon="2.73469">
        <ele>77.199996948242</ele>
        <time>2022-11-19T15:20:16Z</time>
      </trkpt>
      <trkpt lat="48.36708" lon="2.73474">
        <ele>77.400001525879</ele>
        <time>2022-11-19T15:20:20Z</time>
      </trkpt>
      <trkpt lat="48.36712" lon="2.73476">
        <ele>77.400001525879</ele>
        <time>2022-11-19T15:20:24Z</time>
      </trkpt>
      <trkpt lat="48.36716" lon="2.73479">
        <ele>77.599998474121</ele>
        <time>2022-11-19T15:20:28Z</time>
      </trkpt>
      <trkpt lat="48.3672" lon="2.73482">
        <ele>77.800003051758</ele>
        <time>2022-11-19T15:20:32Z</time>
      </trkpt>
      <trkpt lat="48.36723" lon="2.73487">
        <ele>77.800003051758</ele>
        <time>2022-11-19T15:20:36Z</time>
      </trkpt>
      <trkpt lat="48.36726" lon="2.7349">
        <ele>78.199996948242</ele>
        <time>2022-11-19T15:20:40Z</time>
      </trkpt>
      <trkpt lat="48.36729" lon="2.73493">
        <ele>78.400001525879</ele>
        <time>2022-11-19T15:20:44Z</time>
      </trkpt>
      <trkpt lat="48.36732" lon="2.73497">
        <ele>78.400001525879</ele>
        <time>2022-11-19T15:20:48Z</time>
      </trkpt>
      <trkpt lat="48.36738" lon="2.73502">
        <ele>78.199996948242</ele>
        <time>2022-11-19T15:20:52Z</time>
      </trkpt>
      <trkpt lat="48.36742" lon="2.73505">
        <ele>78.199996948242</ele>
        <time>2022-11-19T15:20:56Z</time>
      </trkpt>
      <trkpt lat="48.36745" lon="2.73509">
        <ele>78.199996948242</ele>
        <time>2022-11-19T15:21:00Z</time>
      </trkpt>
      <trkpt lat="48.36749" lon="2.7351">
        <ele>78.199996948242</ele>
        <time>2022-11-19T15:21:04Z</time>
      </trkpt>
      <trkpt lat="48.36754" lon="2.73514">
        <ele>78.199996948242</ele>
        <time>2022-11-19T15:21:08Z</time>
      </trkpt>
      <trkpt lat="48.36757" lon="2.73518">
        <ele>78.199996948242</ele>
        <time>2022-11-19T15:21:12Z</time>
      </trkpt>
      <trkpt lat="48.3676" lon="2.73522">
        <ele>78.199996948242</ele>
        <time>2022-11-19T15:21:16Z</time>
      </trkpt>
      <trkpt lat="48.36762" lon="2.73527">
        <ele>78.199996948242</ele>
        <time>2022-11-19T15:21:20Z</time>
      </trkpt>
      <trkpt lat="48.36763" lon="2.73528">
        <ele>78.199996948242</ele>
        <time>2022-11-19T15:21:24Z</time>
      </trkpt>
      <trkpt lat="48.36763" lon="2.73527">
        <ele>78.199996948242</ele>
        <time>2022-11-19T15:21:28Z</time>
      </trkpt>
      <trkpt lat="48.36763" lon="2.73527">
        <ele>78.400001525879</ele>
        <time>2022-11-19T15:21:32Z</time>
      </trkpt>
      <trkpt lat="48.36763" lon="2.73528">
        <ele>78.400001525879</ele>
        <time>2022-11-19T15:21:36Z</time>
      </trkpt>
      <trkpt lat="48.36763" lon="2.73528">
        <ele>78.199996948242</ele>
        <time>2022-11-19T15:21:40Z</time>
      </trkpt>
      <trkpt lat="48.36762" lon="2.73529">
        <ele>78.199996948242</ele>
        <time>2022-11-19T15:21:44Z</time>
      </trkpt>
      <trkpt lat="48.36761" lon="2.73528">
        <ele>78.400001525879</ele>
        <time>2022-11-19T15:21:48Z</time>
      </trkpt>
      <trkpt lat="48.3676" lon="2.73526">
        <ele>78.199996948242</ele>
        <time>2022-11-19T15:21:52Z</time>
      </trkpt>
      <trkpt lat="48.36759" lon="2.73526">
        <ele>78</ele>
        <time>2022-11-19T15:21:56Z</time>
      </trkpt>
      <trkpt lat="48.36759" lon="2.73527">
        <ele>78.199996948242</ele>
        <time>2022-11-19T15:22:00Z</time>
      </trkpt>
      <trkpt lat="48.3676" lon="2.73527">
        <ele>78.199996948242</ele>
        <time>2022-11-19T15:22:04Z</time>
      </trkpt>
      <trkpt lat="48.3676" lon="2.73528">
        <ele>78</ele>
        <time>2022-11-19T15:22:08Z</time>
      </trkpt>
      <trkpt lat="48.36761" lon="2.73529">
        <ele>78.199996948242</ele>
        <time>2022-11-19T15:22:12Z</time>
      </trkpt>
      <trkpt lat="48.36762" lon="2.73529">
        <ele>78</ele>
        <time>2022-11-19T15:22:16Z</time>
      </trkpt>
      <trkpt lat="48.36761" lon="2.73531">
        <ele>78</ele>
        <time>2022-11-19T15:22:20Z</time>
      </trkpt>
      <trkpt lat="48.36759" lon="2.73531">
        <ele>78.199996948242</ele>
        <time>2022-11-19T15:22:24Z</time>
      </trkpt>
      <trkpt lat="48.36759" lon="2.73531">
        <ele>78.199996948242</ele>
        <time>2022-11-19T15:22:28Z</time>
      </trkpt>
      <trkpt lat="48.36759" lon="2.73531">
        <ele>78.199996948242</ele>
        <time>2022-11-19T15:22:32Z</time>
      </trkpt>
      <trkpt lat="48.36761" lon="2.73528">
        <ele>78.199996948242</ele>
        <time>2022-11-19T15:22:36Z</time>
      </trkpt>
      <trkpt lat="48.36761" lon="2.73528">
        <ele>78.199996948242</ele>
        <time>2022-11-19T15:22:40Z</time>
      </trkpt>
      <trkpt lat="48.36761" lon="2.73528">
        <ele>78.199996948242</ele>
        <time>2022-11-19T15:22:44Z</time>
      </trkpt>
      <trkpt lat="48.36761" lon="2.73526">
        <ele>78.199996948242</ele>
        <time>2022-11-19T15:22:48Z</time>
      </trkpt>
      <trkpt lat="48.3676" lon="2.73526">
        <ele>78.199996948242</ele>
        <time>2022-11-19T15:22:52Z</time>
      </trkpt>
      <trkpt lat="48.3676" lon="2.73526">
        <ele>78.199996948242</ele>
        <time>2022-11-19T15:22:56Z</time>
      </trkpt>
      <trkpt lat="48.36761" lon="2.73527">
        <ele>78.199996948242</ele>
        <time>2022-11-19T15:23:00Z</time>
      </trkpt>
      <trkpt lat="48.36762" lon="2.73528">
        <ele>78.199996948242</ele>
        <time>2022-11-19T15:23:04Z</time>
      </trkpt>
      <trkpt lat="48.36763" lon="2.73529">
        <ele>78.199996948242</ele>
        <time>2022-11-19T15:23:08Z</time>
      </trkpt>
      <trkpt lat="48.36765" lon="2.7353">
        <ele>78.199996948242</ele>
        <time>2022-11-19T15:23:12Z</time>
      </trkpt>
      <trkpt lat="48.36769" lon="2.73534">
        <ele>78.199996948242</ele>
        <time>2022-11-19T15:23:16Z</time>
      </trkpt>
      <trkpt lat="48.36773" lon="2.73538">
        <ele>78.199996948242</ele>
        <time>2022-11-19T15:23:20Z</time>
      </trkpt>
      <trkpt lat="48.36775" lon="2.7354">
        <ele>78.199996948242</ele>
        <time>2022-11-19T15:23:24Z</time>
      </trkpt>
      <trkpt lat="48.36777" lon="2.73542">
        <ele>78.199996948242</ele>
        <time>2022-11-19T15:23:28Z</time>
      </trkpt>
      <trkpt lat="48.3678" lon="2.73544">
        <ele>78.199996948242</ele>
        <time>2022-11-19T15:23:32Z</time>
      </trkpt>
      <trkpt lat="48.36783" lon="2.73547">
        <ele>78.199996948242</ele>
        <time>2022-11-19T15:23:36Z</time>
      </trkpt>
      <trkpt lat="48.36786" lon="2.73551">
        <ele>78.800003051758</ele>
        <time>2022-11-19T15:23:40Z</time>
      </trkpt>
      <trkpt lat="48.36789" lon="2.73554">
        <ele>79.199996948242</ele>
        <time>2022-11-19T15:23:44Z</time>
      </trkpt>
      <trkpt lat="48.36791" lon="2.73558">
        <ele>79.400001525879</ele>
        <time>2022-11-19T15:23:48Z</time>
      </trkpt>
      <trkpt lat="48.36795" lon="2.73563">
        <ele>79.800003051758</ele>
        <time>2022-11-19T15:23:52Z</time>
      </trkpt>
      <trkpt lat="48.36798" lon="2.73567">
        <ele>80</ele>
        <time>2022-11-19T15:23:56Z</time>
      </trkpt>
      <trkpt lat="48.36801" lon="2.73572">
        <ele>80.400001525879</ele>
        <time>2022-11-19T15:24:00Z</time>
      </trkpt>
      <trkpt lat="48.36804" lon="2.73576">
        <ele>80.800003051758</ele>
        <time>2022-11-19T15:24:04Z</time>
      </trkpt>
      <trkpt lat="48.36807" lon="2.7358">
        <ele>81.400001525879</ele>
        <time>2022-11-19T15:24:08Z</time>
      </trkpt>
      <trkpt lat="48.3681" lon="2.73584">
        <ele>81.599998474121</ele>
        <time>2022-11-19T15:24:12Z</time>
      </trkpt>
      <trkpt lat="48.36813" lon="2.73588">
        <ele>81.800003051758</ele>
        <time>2022-11-19T15:24:16Z</time>
      </trkpt>
      <trkpt lat="48.36816" lon="2.73591">
        <ele>82.199996948242</ele>
        <time>2022-11-19T15:24:20Z</time>
      </trkpt>
      <trkpt lat="48.3682" lon="2.73596">
        <ele>82.400001525879</ele>
        <time>2022-11-19T15:24:24Z</time>
      </trkpt>
      <trkpt lat="48.36824" lon="2.73601">
        <ele>82.599998474121</ele>
        <time>2022-11-19T15:24:28Z</time>
      </trkpt>
      <trkpt lat="48.36826" lon="2.73605">
        <ele>82.800003051758</ele>
        <time>2022-11-19T15:24:32Z</time>
      </trkpt>
      <trkpt lat="48.36829" lon="2.73609">
        <ele>83</ele>
        <time>2022-11-19T15:24:36Z</time>
      </trkpt>
      <trkpt lat="48.36832" lon="2.73612">
        <ele>83.400001525879</ele>
        <time>2022-11-19T15:24:40Z</time>
      </trkpt>
      <trkpt lat="48.36835" lon="2.73615">
        <ele>83.599998474121</ele>
        <time>2022-11-19T15:24:44Z</time>
      </trkpt>
      <trkpt lat="48.36838" lon="2.7362">
        <ele>83.800003051758</ele>
        <time>2022-11-19T15:24:48Z</time>
      </trkpt>
      <trkpt lat="48.36842" lon="2.73624">
        <ele>84</ele>
        <time>2022-11-19T15:24:52Z</time>
      </trkpt>
      <trkpt lat="48.36845" lon="2.73628">
        <ele>84.199996948242</ele>
        <time>2022-11-19T15:24:56Z</time>
      </trkpt>
      <trkpt lat="48.36848" lon="2.7363">
        <ele>84.400001525879</ele>
        <time>2022-11-19T15:25:00Z</time>
      </trkpt>
      <trkpt lat="48.36851" lon="2.73633">
        <ele>84.599998474121</ele>
        <time>2022-11-19T15:25:04Z</time>
      </trkpt>
      <trkpt lat="48.36856" lon="2.73638">
        <ele>84.800003051758</ele>
        <time>2022-11-19T15:25:08Z</time>
      </trkpt>
      <trkpt lat="48.36861" lon="2.73643">
        <ele>85</ele>
        <time>2022-11-19T15:25:12Z</time>
      </trkpt>
      <trkpt lat="48.36864" lon="2.73648">
        <ele>85.400001525879</ele>
        <time>2022-11-19T15:25:16Z</time>
      </trkpt>
      <trkpt lat="48.36868" lon="2.73651">
        <ele>85.400001525879</ele>
        <time>2022-11-19T15:25:20Z</time>
      </trkpt>
      <trkpt lat="48.36871" lon="2.73655">
        <ele>85.599998474121</ele>
        <time>2022-11-19T15:25:24Z</time>
      </trkpt>
      <trkpt lat="48.36876" lon="2.7366">
        <ele>85.800003051758</ele>
        <time>2022-11-19T15:25:28Z</time>
      </trkpt>
      <trkpt lat="48.36879" lon="2.73664">
        <ele>86.400001525879</ele>
        <time>2022-11-19T15:25:32Z</time>
      </trkpt>
      <trkpt lat="48.36883" lon="2.73669">
        <ele>86.599998474121</ele>
        <time>2022-11-19T15:25:36Z</time>
      </trkpt>
      <trkpt lat="48.36887" lon="2.73675">
        <ele>86.800003051758</ele>
        <time>2022-11-19T15:25:40Z</time>
      </trkpt>
      <trkpt lat="48.36891" lon="2.73679">
        <ele>87.199996948242</ele>
        <time>2022-11-19T15:25:44Z</time>
      </trkpt>
      <trkpt lat="48.36894" lon="2.73681">
        <ele>87.599998474121</ele>
        <time>2022-11-19T15:25:48Z</time>
      </trkpt>
      <trkpt lat="48.36898" lon="2.73685">
        <ele>88.199996948242</ele>
        <time>2022-11-19T15:25:52Z</time>
      </trkpt>
      <trkpt lat="48.369" lon="2.73689">
        <ele>88.599998474121</ele>
        <time>2022-11-19T15:25:56Z</time>
      </trkpt>
      <trkpt lat="48.36903" lon="2.73692">
        <ele>89</ele>
        <time>2022-11-19T15:26:00Z</time>
      </trkpt>
      <trkpt lat="48.36905" lon="2.73695">
        <ele>89.599998474121</ele>
        <time>2022-11-19T15:26:04Z</time>
      </trkpt>
      <trkpt lat="48.36908" lon="2.73698">
        <ele>90</ele>
        <time>2022-11-19T15:26:08Z</time>
      </trkpt>
      <trkpt lat="48.3691" lon="2.73701">
        <ele>90.400001525879</ele>
        <time>2022-11-19T15:26:12Z</time>
      </trkpt>
      <trkpt lat="48.36913" lon="2.73704">
        <ele>91</ele>
        <time>2022-11-19T15:26:16Z</time>
      </trkpt>
      <trkpt lat="48.36916" lon="2.73708">
        <ele>91.400001525879</ele>
        <time>2022-11-19T15:26:20Z</time>
      </trkpt>
      <trkpt lat="48.36919" lon="2.7371">
        <ele>92</ele>
        <time>2022-11-19T15:26:24Z</time>
      </trkpt>
      <trkpt lat="48.3692" lon="2.73712">
        <ele>92.599998474121</ele>
        <time>2022-11-19T15:26:28Z</time>
      </trkpt>
      <trkpt lat="48.36922" lon="2.73714">
        <ele>93.199996948242</ele>
        <time>2022-11-19T15:26:32Z</time>
      </trkpt>
      <trkpt lat="48.36924" lon="2.73717">
        <ele>93.800003051758</ele>
        <time>2022-11-19T15:26:36Z</time>
      </trkpt>
      <trkpt lat="48.36927" lon="2.73719">
        <ele>94.400001525879</ele>
        <time>2022-11-19T15:26:40Z</time>
      </trkpt>
      <trkpt lat="48.3693" lon="2.73721">
        <ele>95</ele>
        <time>2022-11-19T15:26:44Z</time>
      </trkpt>
      <trkpt lat="48.36933" lon="2.73723">
        <ele>95.400001525879</ele>
        <time>2022-11-19T15:26:48Z</time>
      </trkpt>
      <trkpt lat="48.36936" lon="2.73725">
        <ele>96</ele>
        <time>2022-11-19T15:26:52Z</time>
      </trkpt>
      <trkpt lat="48.3694" lon="2.73729">
        <ele>96.800003051758</ele>
        <time>2022-11-19T15:26:56Z</time>
      </trkpt>
      <trkpt lat="48.36943" lon="2.73731">
        <ele>97.400001525879</ele>
        <time>2022-11-19T15:27:00Z</time>
      </trkpt>
      <trkpt lat="48.36945" lon="2.73733">
        <ele>97.800003051758</ele>
        <time>2022-11-19T15:27:04Z</time>
      </trkpt>
      <trkpt lat="48.36948" lon="2.73737">
        <ele>98.400001525879</ele>
        <time>2022-11-19T15:27:08Z</time>
      </trkpt>
      <trkpt lat="48.36949" lon="2.73738">
        <ele>98.800003051758</ele>
        <time>2022-11-19T15:27:12Z</time>
      </trkpt>
      <trkpt lat="48.3695" lon="2.73738">
        <ele>99.400001525879</ele>
        <time>2022-11-19T15:27:16Z</time>
      </trkpt>
      <trkpt lat="48.36951" lon="2.73739">
        <ele>99.599998474121</ele>
        <time>2022-11-19T15:27:20Z</time>
      </trkpt>
      <trkpt lat="48.36952" lon="2.73741">
        <ele>100</ele>
        <time>2022-11-19T15:27:24Z</time>
      </trkpt>
      <trkpt lat="48.36954" lon="2.73741">
        <ele>100.59999847412</ele>
        <time>2022-11-19T15:27:28Z</time>
      </trkpt>
      <trkpt lat="48.36955" lon="2.73741">
        <ele>100.80000305176</ele>
        <time>2022-11-19T15:27:32Z</time>
      </trkpt>
      <trkpt lat="48.36957" lon="2.73741">
        <ele>101</ele>
        <time>2022-11-19T15:27:36Z</time>
      </trkpt>
      <trkpt lat="48.36959" lon="2.7374">
        <ele>101</ele>
        <time>2022-11-19T15:27:40Z</time>
      </trkpt>
      <trkpt lat="48.3696" lon="2.73741">
        <ele>101</ele>
        <time>2022-11-19T15:27:44Z</time>
      </trkpt>
      <trkpt lat="48.36963" lon="2.73749">
        <ele>101.80000305176</ele>
        <time>2022-11-19T15:27:48Z</time>
      </trkpt>
      <trkpt lat="48.36965" lon="2.73754">
        <ele>102.19999694824</ele>
        <time>2022-11-19T15:27:52Z</time>
      </trkpt>
      <trkpt lat="48.36968" lon="2.73758">
        <ele>103</ele>
        <time>2022-11-19T15:27:56Z</time>
      </trkpt>
      <trkpt lat="48.3697" lon="2.7376">
        <ele>103.80000305176</ele>
        <time>2022-11-19T15:28:00Z</time>
      </trkpt>
      <trkpt lat="48.36972" lon="2.73763">
        <ele>104.40000152588</ele>
        <time>2022-11-19T15:28:04Z</time>
      </trkpt>
      <trkpt lat="48.36974" lon="2.73765">
        <ele>104.80000305176</ele>
        <time>2022-11-19T15:28:08Z</time>
      </trkpt>
      <trkpt lat="48.36975" lon="2.73767">
        <ele>105.59999847412</ele>
        <time>2022-11-19T15:28:12Z</time>
      </trkpt>
      <trkpt lat="48.36976" lon="2.73769">
        <ele>106</ele>
        <time>2022-11-19T15:28:16Z</time>
      </trkpt>
      <trkpt lat="48.36977" lon="2.73772">
        <ele>106.80000305176</ele>
        <time>2022-11-19T15:28:20Z</time>
      </trkpt>
      <trkpt lat="48.36978" lon="2.73775">
        <ele>107.40000152588</ele>
        <time>2022-11-19T15:28:24Z</time>
      </trkpt>
      <trkpt lat="48.36978" lon="2.73779">
        <ele>108</ele>
        <time>2022-11-19T15:28:28Z</time>
      </trkpt>
      <trkpt lat="48.36979" lon="2.73783">
        <ele>108.80000305176</ele>
        <time>2022-11-19T15:28:32Z</time>
      </trkpt>
      <trkpt lat="48.3698" lon="2.73787">
        <ele>109.80000305176</ele>
        <time>2022-11-19T15:28:36Z</time>
      </trkpt>
      <trkpt lat="48.3698" lon="2.7379">
        <ele>110.80000305176</ele>
        <time>2022-11-19T15:28:40Z</time>
      </trkpt>
      <trkpt lat="48.3698" lon="2.73795">
        <ele>111.80000305176</ele>
        <time>2022-11-19T15:28:44Z</time>
      </trkpt>
      <trkpt lat="48.36979" lon="2.73799">
        <ele>112.40000152588</ele>
        <time>2022-11-19T15:28:48Z</time>
      </trkpt>
      <trkpt lat="48.36979" lon="2.73804">
        <ele>113</ele>
        <time>2022-11-19T15:28:52Z</time>
      </trkpt>
      <trkpt lat="48.36979" lon="2.73808">
        <ele>113.19999694824</ele>
        <time>2022-11-19T15:28:56Z</time>
      </trkpt>
      <trkpt lat="48.3698" lon="2.73812">
        <ele>113.40000152588</ele>
        <time>2022-11-19T15:29:00Z</time>
      </trkpt>
      <trkpt lat="48.3698" lon="2.73812">
        <ele>113.59999847412</ele>
        <time>2022-11-19T15:29:04Z</time>
      </trkpt>
      <trkpt lat="48.3698" lon="2.73814">
        <ele>113.59999847412</ele>
        <time>2022-11-19T15:29:08Z</time>
      </trkpt>
      <trkpt lat="48.36979" lon="2.73814">
        <ele>113.40000152588</ele>
        <time>2022-11-19T15:29:12Z</time>
      </trkpt>
      <trkpt lat="48.36978" lon="2.73814">
        <ele>113.40000152588</ele>
        <time>2022-11-19T15:29:16Z</time>
      </trkpt>
      <trkpt lat="48.36978" lon="2.73813">
        <ele>113.40000152588</ele>
        <time>2022-11-19T15:29:20Z</time>
      </trkpt>
      <trkpt lat="48.36978" lon="2.73812">
        <ele>113.40000152588</ele>
        <time>2022-11-19T15:29:24Z</time>
      </trkpt>
      <trkpt lat="48.36978" lon="2.73812">
        <ele>113.40000152588</ele>
        <time>2022-11-19T15:29:28Z</time>
      </trkpt>
      <trkpt lat="48.36977" lon="2.73812">
        <ele>113.19999694824</ele>
        <time>2022-11-19T15:29:32Z</time>
      </trkpt>
      <trkpt lat="48.36978" lon="2.73814">
        <ele>113.19999694824</ele>
        <time>2022-11-19T15:29:36Z</time>
      </trkpt>
      <trkpt lat="48.36977" lon="2.73814">
        <ele>113.19999694824</ele>
        <time>2022-11-19T15:29:40Z</time>
      </trkpt>
      <trkpt lat="48.36977" lon="2.73816">
        <ele>113.19999694824</ele>
        <time>2022-11-19T15:29:44Z</time>
      </trkpt>
      <trkpt lat="48.36977" lon="2.73818">
        <ele>113.19999694824</ele>
        <time>2022-11-19T15:29:48Z</time>
      </trkpt>
      <trkpt lat="48.36977" lon="2.73818">
        <ele>113.19999694824</ele>
        <time>2022-11-19T15:29:52Z</time>
      </trkpt>
      <trkpt lat="48.36977" lon="2.73819">
        <ele>113.19999694824</ele>
        <time>2022-11-19T15:29:56Z</time>
      </trkpt>
      <trkpt lat="48.36978" lon="2.73818">
        <ele>113.19999694824</ele>
        <time>2022-11-19T15:30:00Z</time>
      </trkpt>
      <trkpt lat="48.36978" lon="2.73819">
        <ele>113.19999694824</ele>
        <time>2022-11-19T15:30:04Z</time>
      </trkpt>
      <trkpt lat="48.36978" lon="2.73819">
        <ele>113.40000152588</ele>
        <time>2022-11-19T15:30:08Z</time>
      </trkpt>
      <trkpt lat="48.36978" lon="2.73818">
        <ele>113.40000152588</ele>
        <time>2022-11-19T15:30:12Z</time>
      </trkpt>
      <trkpt lat="48.36978" lon="2.73819">
        <ele>113.19999694824</ele>
        <time>2022-11-19T15:30:16Z</time>
      </trkpt>
      <trkpt lat="48.36978" lon="2.73819">
        <ele>113.19999694824</ele>
        <time>2022-11-19T15:30:20Z</time>
      </trkpt>
      <trkpt lat="48.36978" lon="2.73819">
        <ele>113.19999694824</ele>
        <time>2022-11-19T15:30:24Z</time>
      </trkpt>
      <trkpt lat="48.36979" lon="2.7382">
        <ele>113.19999694824</ele>
        <time>2022-11-19T15:30:28Z</time>
      </trkpt>
      <trkpt lat="48.3698" lon="2.73824">
        <ele>113.19999694824</ele>
        <time>2022-11-19T15:30:32Z</time>
      </trkpt>
      <trkpt lat="48.36981" lon="2.73829">
        <ele>113.19999694824</ele>
        <time>2022-11-19T15:30:36Z</time>
      </trkpt>
      <trkpt lat="48.36981" lon="2.73833">
        <ele>113.19999694824</ele>
        <time>2022-11-19T15:30:40Z</time>
      </trkpt>
      <trkpt lat="48.36981" lon="2.73838">
        <ele>113.19999694824</ele>
        <time>2022-11-19T15:30:44Z</time>
      </trkpt>
      <trkpt lat="48.36981" lon="2.73843">
        <ele>113.19999694824</ele>
        <time>2022-11-19T15:30:48Z</time>
      </trkpt>
      <trkpt lat="48.36981" lon="2.73848">
        <ele>113.19999694824</ele>
        <time>2022-11-19T15:30:52Z</time>
      </trkpt>
      <trkpt lat="48.36981" lon="2.73853">
        <ele>113.19999694824</ele>
        <time>2022-11-19T15:30:56Z</time>
      </trkpt>
      <trkpt lat="48.3698" lon="2.73859">
        <ele>113.19999694824</ele>
        <time>2022-11-19T15:31:00Z</time>
      </trkpt>
      <trkpt lat="48.36981" lon="2.73864">
        <ele>113.19999694824</ele>
        <time>2022-11-19T15:31:04Z</time>
      </trkpt>
      <trkpt lat="48.36981" lon="2.7387">
        <ele>113.19999694824</ele>
        <time>2022-11-19T15:31:08Z</time>
      </trkpt>
      <trkpt lat="48.3698" lon="2.73877">
        <ele>113.19999694824</ele>
        <time>2022-11-19T15:31:12Z</time>
      </trkpt>
      <trkpt lat="48.3698" lon="2.73882">
        <ele>113.19999694824</ele>
        <time>2022-11-19T15:31:16Z</time>
      </trkpt>
      <trkpt lat="48.36981" lon="2.73888">
        <ele>113.19999694824</ele>
        <time>2022-11-19T15:31:20Z</time>
      </trkpt>
      <trkpt lat="48.36981" lon="2.73893">
        <ele>113.19999694824</ele>
        <time>2022-11-19T15:31:24Z</time>
      </trkpt>
      <trkpt lat="48.36981" lon="2.739">
        <ele>113.19999694824</ele>
        <time>2022-11-19T15:31:28Z</time>
      </trkpt>
      <trkpt lat="48.3698" lon="2.73905">
        <ele>113.19999694824</ele>
        <time>2022-11-19T15:31:32Z</time>
      </trkpt>
      <trkpt lat="48.36981" lon="2.73911">
        <ele>113.19999694824</ele>
        <time>2022-11-19T15:31:36Z</time>
      </trkpt>
      <trkpt lat="48.36981" lon="2.73917">
        <ele>113.19999694824</ele>
        <time>2022-11-19T15:31:40Z</time>
      </trkpt>
      <trkpt lat="48.36981" lon="2.73924">
        <ele>113.19999694824</ele>
        <time>2022-11-19T15:31:44Z</time>
      </trkpt>
      <trkpt lat="48.36981" lon="2.73931">
        <ele>113.19999694824</ele>
        <time>2022-11-19T15:31:48Z</time>
      </trkpt>
      <trkpt lat="48.36982" lon="2.73937">
        <ele>113.19999694824</ele>
        <time>2022-11-19T15:31:52Z</time>
      </trkpt>
      <trkpt lat="48.36981" lon="2.73944">
        <ele>113.19999694824</ele>
        <time>2022-11-19T15:31:56Z</time>
      </trkpt>
      <trkpt lat="48.36981" lon="2.73949">
        <ele>113.19999694824</ele>
        <time>2022-11-19T15:32:00Z</time>
      </trkpt>
      <trkpt lat="48.36981" lon="2.73955">
        <ele>113.19999694824</ele>
        <time>2022-11-19T15:32:04Z</time>
      </trkpt>
      <trkpt lat="48.36982" lon="2.7396">
        <ele>113.19999694824</ele>
        <time>2022-11-19T15:32:08Z</time>
      </trkpt>
      <trkpt lat="48.36982" lon="2.73963">
        <ele>113.19999694824</ele>
        <time>2022-11-19T15:32:12Z</time>
      </trkpt>
      <trkpt lat="48.36982" lon="2.73969">
        <ele>113.19999694824</ele>
        <time>2022-11-19T15:32:16Z</time>
      </trkpt>
      <trkpt lat="48.36982" lon="2.73976">
        <ele>113.19999694824</ele>
        <time>2022-11-19T15:32:20Z</time>
      </trkpt>
      <trkpt lat="48.36982" lon="2.73984">
        <ele>113.19999694824</ele>
        <time>2022-11-19T15:32:24Z</time>
      </trkpt>
      <trkpt lat="48.36981" lon="2.73992">
        <ele>113.19999694824</ele>
        <time>2022-11-19T15:32:28Z</time>
      </trkpt>
      <trkpt lat="48.36981" lon="2.73999">
        <ele>113.19999694824</ele>
        <time>2022-11-19T15:32:32Z</time>
      </trkpt>
      <trkpt lat="48.36981" lon="2.74005">
        <ele>113.19999694824</ele>
        <time>2022-11-19T15:32:36Z</time>
      </trkpt>
      <trkpt lat="48.36982" lon="2.74011">
        <ele>113.19999694824</ele>
        <time>2022-11-19T15:32:40Z</time>
      </trkpt>
      <trkpt lat="48.36982" lon="2.74015">
        <ele>113.19999694824</ele>
        <time>2022-11-19T15:32:44Z</time>
      </trkpt>
      <trkpt lat="48.36983" lon="2.7402">
        <ele>113.19999694824</ele>
        <time>2022-11-19T15:32:48Z</time>
      </trkpt>
      <trkpt lat="48.36983" lon="2.74023">
        <ele>113.19999694824</ele>
        <time>2022-11-19T15:32:52Z</time>
      </trkpt>
      <trkpt lat="48.36984" lon="2.74032">
        <ele>113.19999694824</ele>
        <time>2022-11-19T15:32:56Z</time>
      </trkpt>
      <trkpt lat="48.36984" lon="2.74039">
        <ele>113.19999694824</ele>
        <time>2022-11-19T15:33:00Z</time>
      </trkpt>
      <trkpt lat="48.36984" lon="2.74046">
        <ele>113.19999694824</ele>
        <time>2022-11-19T15:33:04Z</time>
      </trkpt>
      <trkpt lat="48.36983" lon="2.74051">
        <ele>113.19999694824</ele>
        <time>2022-11-19T15:33:08Z</time>
      </trkpt>
      <trkpt lat="48.36983" lon="2.74056">
        <ele>113.19999694824</ele>
        <time>2022-11-19T15:33:12Z</time>
      </trkpt>
      <trkpt lat="48.36983" lon="2.74062">
        <ele>113.19999694824</ele>
        <time>2022-11-19T15:33:16Z</time>
      </trkpt>
      <trkpt lat="48.36983" lon="2.74065">
        <ele>113.19999694824</ele>
        <time>2022-11-19T15:33:20Z</time>
      </trkpt>
      <trkpt lat="48.36984" lon="2.7407">
        <ele>113.19999694824</ele>
        <time>2022-11-19T15:33:24Z</time>
      </trkpt>
      <trkpt lat="48.36985" lon="2.74081">
        <ele>113.19999694824</ele>
        <time>2022-11-19T15:33:28Z</time>
      </trkpt>
      <trkpt lat="48.36985" lon="2.74086">
        <ele>113.19999694824</ele>
        <time>2022-11-19T15:33:32Z</time>
      </trkpt>
      <trkpt lat="48.36985" lon="2.74094">
        <ele>113.19999694824</ele>
        <time>2022-11-19T15:33:36Z</time>
      </trkpt>
      <trkpt lat="48.36984" lon="2.74102">
        <ele>113.19999694824</ele>
        <time>2022-11-19T15:33:40Z</time>
      </trkpt>
      <trkpt lat="48.36983" lon="2.74111">
        <ele>113.19999694824</ele>
        <time>2022-11-19T15:33:44Z</time>
      </trkpt>
      <trkpt lat="48.36982" lon="2.74117">
        <ele>113.19999694824</ele>
        <time>2022-11-19T15:33:48Z</time>
      </trkpt>
      <trkpt lat="48.36982" lon="2.74124">
        <ele>113.19999694824</ele>
        <time>2022-11-19T15:33:52Z</time>
      </trkpt>
      <trkpt lat="48.36981" lon="2.74131">
        <ele>113.19999694824</ele>
        <time>2022-11-19T15:33:56Z</time>
      </trkpt>
      <trkpt lat="48.3698" lon="2.74137">
        <ele>113.19999694824</ele>
        <time>2022-11-19T15:34:00Z</time>
      </trkpt>
      <trkpt lat="48.36979" lon="2.74143">
        <ele>113.19999694824</ele>
        <time>2022-11-19T15:34:04Z</time>
      </trkpt>
      <trkpt lat="48.36977" lon="2.74148">
        <ele>113.19999694824</ele>
        <time>2022-11-19T15:34:08Z</time>
      </trkpt>
      <trkpt lat="48.36976" lon="2.74152">
        <ele>113.19999694824</ele>
        <time>2022-11-19T15:34:12Z</time>
      </trkpt>
      <trkpt lat="48.36974" lon="2.74156">
        <ele>114</ele>
        <time>2022-11-19T15:34:16Z</time>
      </trkpt>
      <trkpt lat="48.36972" lon="2.74161">
        <ele>114.40000152588</ele>
        <time>2022-11-19T15:34:20Z</time>
      </trkpt>
      <trkpt lat="48.3697" lon="2.74167">
        <ele>114.40000152588</ele>
        <time>2022-11-19T15:34:24Z</time>
      </trkpt>
      <trkpt lat="48.36968" lon="2.74174">
        <ele>114.40000152588</ele>
        <time>2022-11-19T15:34:28Z</time>
      </trkpt>
      <trkpt lat="48.36966" lon="2.74179">
        <ele>114.19999694824</ele>
        <time>2022-11-19T15:34:32Z</time>
      </trkpt>
      <trkpt lat="48.36965" lon="2.74183">
        <ele>114.40000152588</ele>
        <time>2022-11-19T15:34:36Z</time>
      </trkpt>
      <trkpt lat="48.36964" lon="2.7419">
        <ele>114.40000152588</ele>
        <time>2022-11-19T15:34:40Z</time>
      </trkpt>
      <trkpt lat="48.36962" lon="2.74196">
        <ele>114.19999694824</ele>
        <time>2022-11-19T15:34:44Z</time>
      </trkpt>
      <trkpt lat="48.3696" lon="2.74202">
        <ele>114.19999694824</ele>
        <time>2022-11-19T15:34:48Z</time>
      </trkpt>
      <trkpt lat="48.36958" lon="2.74208">
        <ele>114.19999694824</ele>
        <time>2022-11-19T15:34:52Z</time>
      </trkpt>
      <trkpt lat="48.36957" lon="2.74214">
        <ele>114.19999694824</ele>
        <time>2022-11-19T15:34:56Z</time>
      </trkpt>
      <trkpt lat="48.36957" lon="2.74221">
        <ele>114</ele>
        <time>2022-11-19T15:35:00Z</time>
      </trkpt>
      <trkpt lat="48.36956" lon="2.74228">
        <ele>114</ele>
        <time>2022-11-19T15:35:04Z</time>
      </trkpt>
      <trkpt lat="48.36955" lon="2.74235">
        <ele>114</ele>
        <time>2022-11-19T15:35:08Z</time>
      </trkpt>
      <trkpt lat="48.36955" lon="2.74242">
        <ele>114</ele>
        <time>2022-11-19T15:35:12Z</time>
      </trkpt>
      <trkpt lat="48.36955" lon="2.74249">
        <ele>114</ele>
        <time>2022-11-19T15:35:16Z</time>
      </trkpt>
      <trkpt lat="48.36954" lon="2.74255">
        <ele>114.19999694824</ele>
        <time>2022-11-19T15:35:20Z</time>
      </trkpt>
      <trkpt lat="48.36954" lon="2.74262">
        <ele>114.19999694824</ele>
        <time>2022-11-19T15:35:24Z</time>
      </trkpt>
      <trkpt lat="48.36953" lon="2.74268">
        <ele>114.19999694824</ele>
        <time>2022-11-19T15:35:28Z</time>
      </trkpt>
      <trkpt lat="48.36953" lon="2.74275">
        <ele>114.19999694824</ele>
        <time>2022-11-19T15:35:32Z</time>
      </trkpt>
      <trkpt lat="48.36954" lon="2.7428">
        <ele>114</ele>
        <time>2022-11-19T15:35:36Z</time>
      </trkpt>
      <trkpt lat="48.36954" lon="2.74286">
        <ele>113.80000305176</ele>
        <time>2022-11-19T15:35:40Z</time>
      </trkpt>
      <trkpt lat="48.36956" lon="2.74293">
        <ele>113.80000305176</ele>
        <time>2022-11-19T15:35:44Z</time>
      </trkpt>
      <trkpt lat="48.36957" lon="2.743">
        <ele>113.59999847412</ele>
        <time>2022-11-19T15:35:48Z</time>
      </trkpt>
      <trkpt lat="48.36958" lon="2.74305">
        <ele>113.59999847412</ele>
        <time>2022-11-19T15:35:52Z</time>
      </trkpt>
      <trkpt lat="48.36958" lon="2.74312">
        <ele>113.59999847412</ele>
        <time>2022-11-19T15:35:56Z</time>
      </trkpt>
      <trkpt lat="48.36959" lon="2.74319">
        <ele>113.40000152588</ele>
        <time>2022-11-19T15:36:00Z</time>
      </trkpt>
      <trkpt lat="48.36958" lon="2.74324">
        <ele>113.19999694824</ele>
        <time>2022-11-19T15:36:04Z</time>
      </trkpt>
      <trkpt lat="48.36959" lon="2.7433">
        <ele>113.19999694824</ele>
        <time>2022-11-19T15:36:08Z</time>
      </trkpt>
      <trkpt lat="48.3696" lon="2.74335">
        <ele>113.19999694824</ele>
        <time>2022-11-19T15:36:12Z</time>
      </trkpt>
      <trkpt lat="48.36962" lon="2.74341">
        <ele>113.19999694824</ele>
        <time>2022-11-19T15:36:16Z</time>
      </trkpt>
      <trkpt lat="48.36962" lon="2.74347">
        <ele>113.19999694824</ele>
        <time>2022-11-19T15:36:20Z</time>
      </trkpt>
      <trkpt lat="48.36962" lon="2.74355">
        <ele>113.19999694824</ele>
        <time>2022-11-19T15:36:24Z</time>
      </trkpt>
      <trkpt lat="48.36963" lon="2.74362">
        <ele>113.19999694824</ele>
        <time>2022-11-19T15:36:28Z</time>
      </trkpt>
      <trkpt lat="48.36963" lon="2.74371">
        <ele>113.19999694824</ele>
        <time>2022-11-19T15:36:32Z</time>
      </trkpt>
      <trkpt lat="48.36963" lon="2.74378">
        <ele>113.19999694824</ele>
        <time>2022-11-19T15:36:36Z</time>
      </trkpt>
      <trkpt lat="48.36962" lon="2.74385">
        <ele>113.19999694824</ele>
        <time>2022-11-19T15:36:40Z</time>
      </trkpt>
      <trkpt lat="48.36962" lon="2.74392">
        <ele>113.19999694824</ele>
        <time>2022-11-19T15:36:44Z</time>
      </trkpt>
      <trkpt lat="48.36963" lon="2.74399">
        <ele>113.40000152588</ele>
        <time>2022-11-19T15:36:48Z</time>
      </trkpt>
      <trkpt lat="48.36965" lon="2.74406">
        <ele>113.19999694824</ele>
        <time>2022-11-19T15:36:52Z</time>
      </trkpt>
      <trkpt lat="48.36966" lon="2.74412">
        <ele>113.19999694824</ele>
        <time>2022-11-19T15:36:56Z</time>
      </trkpt>
      <trkpt lat="48.36967" lon="2.74418">
        <ele>113.19999694824</ele>
        <time>2022-11-19T15:37:00Z</time>
      </trkpt>
      <trkpt lat="48.36967" lon="2.74425">
        <ele>113.19999694824</ele>
        <time>2022-11-19T15:37:04Z</time>
      </trkpt>
      <trkpt lat="48.36968" lon="2.74431">
        <ele>113.19999694824</ele>
        <time>2022-11-19T15:37:08Z</time>
      </trkpt>
      <trkpt lat="48.36968" lon="2.74439">
        <ele>113.19999694824</ele>
        <time>2022-11-19T15:37:12Z</time>
      </trkpt>
      <trkpt lat="48.36968" lon="2.74445">
        <ele>113.19999694824</ele>
        <time>2022-11-19T15:37:16Z</time>
      </trkpt>
      <trkpt lat="48.36968" lon="2.74448">
        <ele>113.19999694824</ele>
        <time>2022-11-19T15:37:20Z</time>
      </trkpt>
      <trkpt lat="48.36969" lon="2.74452">
        <ele>113.19999694824</ele>
        <time>2022-11-19T15:37:24Z</time>
      </trkpt>
      <trkpt lat="48.3697" lon="2.74455">
        <ele>113.19999694824</ele>
        <time>2022-11-19T15:37:28Z</time>
      </trkpt>
      <trkpt lat="48.36973" lon="2.74458">
        <ele>113.19999694824</ele>
        <time>2022-11-19T15:37:32Z</time>
      </trkpt>
      <trkpt lat="48.36976" lon="2.7446">
        <ele>113</ele>
        <time>2022-11-19T15:37:36Z</time>
      </trkpt>
      <trkpt lat="48.36979" lon="2.74461">
        <ele>113</ele>
        <time>2022-11-19T15:37:40Z</time>
      </trkpt>
      <trkpt lat="48.36982" lon="2.74463">
        <ele>113</ele>
        <time>2022-11-19T15:37:44Z</time>
      </trkpt>
      <trkpt lat="48.36986" lon="2.74463">
        <ele>112.59999847412</ele>
        <time>2022-11-19T15:37:48Z</time>
      </trkpt>
      <trkpt lat="48.3699" lon="2.74461">
        <ele>112.40000152588</ele>
        <time>2022-11-19T15:37:52Z</time>
      </trkpt>
      <trkpt lat="48.36994" lon="2.74459">
        <ele>112.19999694824</ele>
        <time>2022-11-19T15:37:56Z</time>
      </trkpt>
      <trkpt lat="48.36995" lon="2.74458">
        <ele>111.80000305176</ele>
        <time>2022-11-19T15:38:00Z</time>
      </trkpt>
      <trkpt lat="48.36996" lon="2.74457">
        <ele>111.80000305176</ele>
        <time>2022-11-19T15:38:04Z</time>
      </trkpt>
      <trkpt lat="48.36997" lon="2.74455">
        <ele>111.40000152588</ele>
        <time>2022-11-19T15:38:08Z</time>
      </trkpt>
      <trkpt lat="48.36999" lon="2.74452">
        <ele>111</ele>
        <time>2022-11-19T15:38:12Z</time>
      </trkpt>
      <trkpt lat="48.36999" lon="2.7445">
        <ele>110.59999847412</ele>
        <time>2022-11-19T15:38:16Z</time>
      </trkpt>
      <trkpt lat="48.37001" lon="2.74448">
        <ele>110.19999694824</ele>
        <time>2022-11-19T15:38:20Z</time>
      </trkpt>
      <trkpt lat="48.37002" lon="2.74446">
        <ele>109.80000305176</ele>
        <time>2022-11-19T15:38:24Z</time>
      </trkpt>
      <trkpt lat="48.37003" lon="2.74444">
        <ele>109.19999694824</ele>
        <time>2022-11-19T15:38:28Z</time>
      </trkpt>
      <trkpt lat="48.37004" lon="2.74441">
        <ele>108.40000152588</ele>
        <time>2022-11-19T15:38:32Z</time>
      </trkpt>
      <trkpt lat="48.37004" lon="2.7444">
        <ele>108</ele>
        <time>2022-11-19T15:38:36Z</time>
      </trkpt>
      <trkpt lat="48.37005" lon="2.74437">
        <ele>107.19999694824</ele>
        <time>2022-11-19T15:38:40Z</time>
      </trkpt>
      <trkpt lat="48.37006" lon="2.74436">
        <ele>106.80000305176</ele>
        <time>2022-11-19T15:38:44Z</time>
      </trkpt>
      <trkpt lat="48.37007" lon="2.74434">
        <ele>106.40000152588</ele>
        <time>2022-11-19T15:38:48Z</time>
      </trkpt>
      <trkpt lat="48.37008" lon="2.74433">
        <ele>105.80000305176</ele>
        <time>2022-11-19T15:38:52Z</time>
      </trkpt>
      <trkpt lat="48.3701" lon="2.74433">
        <ele>105.19999694824</ele>
        <time>2022-11-19T15:38:56Z</time>
      </trkpt>
      <trkpt lat="48.37013" lon="2.74436">
        <ele>104.80000305176</ele>
        <time>2022-11-19T15:39:00Z</time>
      </trkpt>
      <trkpt lat="48.37016" lon="2.74438">
        <ele>104.19999694824</ele>
        <time>2022-11-19T15:39:04Z</time>
      </trkpt>
      <trkpt lat="48.37018" lon="2.7444">
        <ele>103.59999847412</ele>
        <time>2022-11-19T15:39:08Z</time>
      </trkpt>
      <trkpt lat="48.3702" lon="2.7444">
        <ele>103</ele>
        <time>2022-11-19T15:39:12Z</time>
      </trkpt>
      <trkpt lat="48.37021" lon="2.7444">
        <ele>102.40000152588</ele>
        <time>2022-11-19T15:39:16Z</time>
      </trkpt>
      <trkpt lat="48.37023" lon="2.74441">
        <ele>102</ele>
        <time>2022-11-19T15:39:20Z</time>
      </trkpt>
      <trkpt lat="48.37024" lon="2.74442">
        <ele>101.40000152588</ele>
        <time>2022-11-19T15:39:24Z</time>
      </trkpt>
      <trkpt lat="48.37025" lon="2.74444">
        <ele>100.80000305176</ele>
        <time>2022-11-19T15:39:28Z</time>
      </trkpt>
      <trkpt lat="48.37027" lon="2.74445">
        <ele>100.19999694824</ele>
        <time>2022-11-19T15:39:32Z</time>
      </trkpt>
      <trkpt lat="48.37029" lon="2.74446">
        <ele>99.599998474121</ele>
        <time>2022-11-19T15:39:36Z</time>
      </trkpt>
      <trkpt lat="48.37032" lon="2.74446">
        <ele>99</ele>
        <time>2022-11-19T15:39:40Z</time>
      </trkpt>
      <trkpt lat="48.37035" lon="2.74448">
        <ele>98.400001525879</ele>
        <time>2022-11-19T15:39:44Z</time>
      </trkpt>
      <trkpt lat="48.37038" lon="2.74449">
        <ele>97.599998474121</ele>
        <time>2022-11-19T15:39:48Z</time>
      </trkpt>
      <trkpt lat="48.3704" lon="2.7445">
        <ele>97</ele>
        <time>2022-11-19T15:39:52Z</time>
      </trkpt>
      <trkpt lat="48.37042" lon="2.74451">
        <ele>96</ele>
        <time>2022-11-19T15:39:56Z</time>
      </trkpt>
      <trkpt lat="48.37044" lon="2.74451">
        <ele>95.199996948242</ele>
        <time>2022-11-19T15:40:00Z</time>
      </trkpt>
      <trkpt lat="48.37047" lon="2.74451">
        <ele>94.199996948242</ele>
        <time>2022-11-19T15:40:04Z</time>
      </trkpt>
      <trkpt lat="48.37049" lon="2.74451">
        <ele>93.400001525879</ele>
        <time>2022-11-19T15:40:08Z</time>
      </trkpt>
      <trkpt lat="48.37052" lon="2.74452">
        <ele>92.800003051758</ele>
        <time>2022-11-19T15:40:12Z</time>
      </trkpt>
      <trkpt lat="48.37054" lon="2.74453">
        <ele>92.599998474121</ele>
        <time>2022-11-19T15:40:16Z</time>
      </trkpt>
      <trkpt lat="48.37061" lon="2.74455">
        <ele>92.199996948242</ele>
        <time>2022-11-19T15:40:20Z</time>
      </trkpt>
      <trkpt lat="48.37066" lon="2.74455">
        <ele>91.400001525879</ele>
        <time>2022-11-19T15:40:24Z</time>
      </trkpt>
      <trkpt lat="48.3707" lon="2.74451">
        <ele>90.599998474121</ele>
        <time>2022-11-19T15:40:28Z</time>
      </trkpt>
      <trkpt lat="48.37073" lon="2.74448">
        <ele>89.800003051758</ele>
        <time>2022-11-19T15:40:32Z</time>
      </trkpt>
      <trkpt lat="48.37078" lon="2.74449">
        <ele>89</ele>
        <time>2022-11-19T15:40:36Z</time>
      </trkpt>
      <trkpt lat="48.37084" lon="2.74449">
        <ele>88.400001525879</ele>
        <time>2022-11-19T15:40:40Z</time>
      </trkpt>
      <trkpt lat="48.37088" lon="2.74448">
        <ele>88</ele>
        <time>2022-11-19T15:40:44Z</time>
      </trkpt>
      <trkpt lat="48.37091" lon="2.74447">
        <ele>87.599998474121</ele>
        <time>2022-11-19T15:40:48Z</time>
      </trkpt>
      <trkpt lat="48.37097" lon="2.74445">
        <ele>87.599998474121</ele>
        <time>2022-11-19T15:40:52Z</time>
      </trkpt>
      <trkpt lat="48.37101" lon="2.74447">
        <ele>87.199996948242</ele>
        <time>2022-11-19T15:40:56Z</time>
      </trkpt>
      <trkpt lat="48.37106" lon="2.74448">
        <ele>87.199996948242</ele>
        <time>2022-11-19T15:41:00Z</time>
      </trkpt>
      <trkpt lat="48.3711" lon="2.74452">
        <ele>87</ele>
        <time>2022-11-19T15:41:04Z</time>
      </trkpt>
      <trkpt lat="48.37116" lon="2.74454">
        <ele>87</ele>
        <time>2022-11-19T15:41:08Z</time>
      </trkpt>
      <trkpt lat="48.3712" lon="2.74456">
        <ele>87</ele>
        <time>2022-11-19T15:41:12Z</time>
      </trkpt>
      <trkpt lat="48.37125" lon="2.74458">
        <ele>87.199996948242</ele>
        <time>2022-11-19T15:41:16Z</time>
      </trkpt>
      <trkpt lat="48.37128" lon="2.74457">
        <ele>87</ele>
        <time>2022-11-19T15:41:20Z</time>
      </trkpt>
      <trkpt lat="48.37132" lon="2.74456">
        <ele>86.400001525879</ele>
        <time>2022-11-19T15:41:24Z</time>
      </trkpt>
      <trkpt lat="48.37135" lon="2.74456">
        <ele>86</ele>
        <time>2022-11-19T15:41:28Z</time>
      </trkpt>
      <trkpt lat="48.37137" lon="2.74457">
        <ele>85.199996948242</ele>
        <time>2022-11-19T15:41:32Z</time>
      </trkpt>
      <trkpt lat="48.37139" lon="2.74457">
        <ele>84.800003051758</ele>
        <time>2022-11-19T15:41:36Z</time>
      </trkpt>
      <trkpt lat="48.37144" lon="2.74456">
        <ele>84.199996948242</ele>
        <time>2022-11-19T15:41:40Z</time>
      </trkpt>
      <trkpt lat="48.37148" lon="2.74454">
        <ele>83.400001525879</ele>
        <time>2022-11-19T15:41:44Z</time>
      </trkpt>
      <trkpt lat="48.37151" lon="2.7445">
        <ele>82.800003051758</ele>
        <time>2022-11-19T15:41:48Z</time>
      </trkpt>
      <trkpt lat="48.37152" lon="2.74448">
        <ele>82.199996948242</ele>
        <time>2022-11-19T15:41:52Z</time>
      </trkpt>
      <trkpt lat="48.37154" lon="2.74447">
        <ele>81.599998474121</ele>
        <time>2022-11-19T15:41:56Z</time>
      </trkpt>
      <trkpt lat="48.37156" lon="2.74446">
        <ele>81</ele>
        <time>2022-11-19T15:42:00Z</time>
      </trkpt>
      <trkpt lat="48.37161" lon="2.74443">
        <ele>80</ele>
        <time>2022-11-19T15:42:04Z</time>
      </trkpt>
      <trkpt lat="48.37163" lon="2.74442">
        <ele>79.199996948242</ele>
        <time>2022-11-19T15:42:08Z</time>
      </trkpt>
      <trkpt lat="48.37166" lon="2.74442">
        <ele>78.599998474121</ele>
        <time>2022-11-19T15:42:12Z</time>
      </trkpt>
      <trkpt lat="48.37171" lon="2.74444">
        <ele>78.199996948242</ele>
        <time>2022-11-19T15:42:16Z</time>
      </trkpt>
      <trkpt lat="48.37173" lon="2.74446">
        <ele>77.400001525879</ele>
        <time>2022-11-19T15:42:20Z</time>
      </trkpt>
      <trkpt lat="48.37177" lon="2.74449">
        <ele>77</ele>
        <time>2022-11-19T15:42:24Z</time>
      </trkpt>
      <trkpt lat="48.3718" lon="2.74452">
        <ele>76.599998474121</ele>
        <time>2022-11-19T15:42:28Z</time>
      </trkpt>
      <trkpt lat="48.37184" lon="2.74456">
        <ele>76.400001525879</ele>
        <time>2022-11-19T15:42:32Z</time>
      </trkpt>
      <trkpt lat="48.37188" lon="2.74459">
        <ele>76.400001525879</ele>
        <time>2022-11-19T15:42:36Z</time>
      </trkpt>
      <trkpt lat="48.37192" lon="2.74462">
        <ele>76</ele>
        <time>2022-11-19T15:42:40Z</time>
      </trkpt>
      <trkpt lat="48.37196" lon="2.74466">
        <ele>75.800003051758</ele>
        <time>2022-11-19T15:42:44Z</time>
      </trkpt>
      <trkpt lat="48.37199" lon="2.74468">
        <ele>75.599998474121</ele>
        <time>2022-11-19T15:42:48Z</time>
      </trkpt>
      <trkpt lat="48.37202" lon="2.74468">
        <ele>75.199996948242</ele>
        <time>2022-11-19T15:42:52Z</time>
      </trkpt>
      <trkpt lat="48.37205" lon="2.74466">
        <ele>75</ele>
        <time>2022-11-19T15:42:56Z</time>
      </trkpt>
      <trkpt lat="48.37208" lon="2.74464">
        <ele>74.800003051758</ele>
        <time>2022-11-19T15:43:00Z</time>
      </trkpt>
      <trkpt lat="48.37214" lon="2.74461">
        <ele>74.599998474121</ele>
        <time>2022-11-19T15:43:04Z</time>
      </trkpt>
      <trkpt lat="48.37218" lon="2.74457">
        <ele>74.400001525879</ele>
        <time>2022-11-19T15:43:08Z</time>
      </trkpt>
      <trkpt lat="48.3722" lon="2.74452">
        <ele>74.199996948242</ele>
        <time>2022-11-19T15:43:12Z</time>
      </trkpt>
      <trkpt lat="48.37224" lon="2.74447">
        <ele>74.199996948242</ele>
        <time>2022-11-19T15:43:16Z</time>
      </trkpt>
      <trkpt lat="48.37227" lon="2.74442">
        <ele>74</ele>
        <time>2022-11-19T15:43:20Z</time>
      </trkpt>
      <trkpt lat="48.3723" lon="2.74437">
        <ele>73.800003051758</ele>
        <time>2022-11-19T15:43:24Z</time>
      </trkpt>
      <trkpt lat="48.37233" lon="2.74432">
        <ele>73.599998474121</ele>
        <time>2022-11-19T15:43:28Z</time>
      </trkpt>
      <trkpt lat="48.37235" lon="2.74426">
        <ele>73.199996948242</ele>
        <time>2022-11-19T15:43:32Z</time>
      </trkpt>
      <trkpt lat="48.37239" lon="2.74423">
        <ele>73</ele>
        <time>2022-11-19T15:43:36Z</time>
      </trkpt>
      <trkpt lat="48.37242" lon="2.74419">
        <ele>72.800003051758</ele>
        <time>2022-11-19T15:43:40Z</time>
      </trkpt>
      <trkpt lat="48.37245" lon="2.74414">
        <ele>72.400001525879</ele>
        <time>2022-11-19T15:43:44Z</time>
      </trkpt>
      <trkpt lat="48.37248" lon="2.7441">
        <ele>72.199996948242</ele>
        <time>2022-11-19T15:43:48Z</time>
      </trkpt>
      <trkpt lat="48.37252" lon="2.74406">
        <ele>72.199996948242</ele>
        <time>2022-11-19T15:43:52Z</time>
      </trkpt>
      <trkpt lat="48.37256" lon="2.74405">
        <ele>72.199996948242</ele>
        <time>2022-11-19T15:43:56Z</time>
      </trkpt>
      <trkpt lat="48.3726" lon="2.74403">
        <ele>72</ele>
        <time>2022-11-19T15:44:00Z</time>
      </trkpt>
      <trkpt lat="48.37263" lon="2.74402">
        <ele>72</ele>
        <time>2022-11-19T15:44:04Z</time>
      </trkpt>
      <trkpt lat="48.37267" lon="2.74399">
        <ele>71.800003051758</ele>
        <time>2022-11-19T15:44:08Z</time>
      </trkpt>
      <trkpt lat="48.37271" lon="2.74396">
        <ele>71.800003051758</ele>
        <time>2022-11-19T15:44:12Z</time>
      </trkpt>
      <trkpt lat="48.37274" lon="2.74393">
        <ele>71.599998474121</ele>
        <time>2022-11-19T15:44:16Z</time>
      </trkpt>
      <trkpt lat="48.37279" lon="2.7439">
        <ele>71.400001525879</ele>
        <time>2022-11-19T15:44:20Z</time>
      </trkpt>
      <trkpt lat="48.37284" lon="2.74386">
        <ele>71.400001525879</ele>
        <time>2022-11-19T15:44:24Z</time>
      </trkpt>
      <trkpt lat="48.37288" lon="2.74381">
        <ele>71.400001525879</ele>
        <time>2022-11-19T15:44:28Z</time>
      </trkpt>
      <trkpt lat="48.37292" lon="2.74375">
        <ele>71.199996948242</ele>
        <time>2022-11-19T15:44:32Z</time>
      </trkpt>
      <trkpt lat="48.37294" lon="2.7437">
        <ele>71.199996948242</ele>
        <time>2022-11-19T15:44:36Z</time>
      </trkpt>
      <trkpt lat="48.37296" lon="2.74364">
        <ele>71.199996948242</ele>
        <time>2022-11-19T15:44:40Z</time>
      </trkpt>
      <trkpt lat="48.37297" lon="2.74357">
        <ele>71.199996948242</ele>
        <time>2022-11-19T15:44:44Z</time>
      </trkpt>
      <trkpt lat="48.37298" lon="2.7435">
        <ele>71.199996948242</ele>
        <time>2022-11-19T15:44:48Z</time>
      </trkpt>
      <trkpt lat="48.37298" lon="2.74343">
        <ele>71</ele>
        <time>2022-11-19T15:44:52Z</time>
      </trkpt>
      <trkpt lat="48.37299" lon="2.74335">
        <ele>71.199996948242</ele>
        <time>2022-11-19T15:44:56Z</time>
      </trkpt>
      <trkpt lat="48.37299" lon="2.74327">
        <ele>71.199996948242</ele>
        <time>2022-11-19T15:45:00Z</time>
      </trkpt>
      <trkpt lat="48.37301" lon="2.74318">
        <ele>71.199996948242</ele>
        <time>2022-11-19T15:45:04Z</time>
      </trkpt>
      <trkpt lat="48.37302" lon="2.74311">
        <ele>71.199996948242</ele>
        <time>2022-11-19T15:45:08Z</time>
      </trkpt>
      <trkpt lat="48.37303" lon="2.74303">
        <ele>71</ele>
        <time>2022-11-19T15:45:12Z</time>
      </trkpt>
      <trkpt lat="48.37304" lon="2.74297">
        <ele>71</ele>
        <time>2022-11-19T15:45:16Z</time>
      </trkpt>
      <trkpt lat="48.37304" lon="2.74291">
        <ele>71.199996948242</ele>
        <time>2022-11-19T15:45:20Z</time>
      </trkpt>
      <trkpt lat="48.37304" lon="2.74284">
        <ele>71.199996948242</ele>
        <time>2022-11-19T15:45:24Z</time>
      </trkpt>
      <trkpt lat="48.37303" lon="2.74277">
        <ele>71.400001525879</ele>
        <time>2022-11-19T15:45:28Z</time>
      </trkpt>
      <trkpt lat="48.37302" lon="2.7427">
        <ele>71.400001525879</ele>
        <time>2022-11-19T15:45:32Z</time>
      </trkpt>
      <trkpt lat="48.37302" lon="2.74263">
        <ele>71.400001525879</ele>
        <time>2022-11-19T15:45:36Z</time>
      </trkpt>
      <trkpt lat="48.37303" lon="2.74257">
        <ele>71.599998474121</ele>
        <time>2022-11-19T15:45:40Z</time>
      </trkpt>
      <trkpt lat="48.37304" lon="2.74254">
        <ele>71.599998474121</ele>
        <time>2022-11-19T15:45:44Z</time>
      </trkpt>
      <trkpt lat="48.37308" lon="2.74251">
        <ele>71.599998474121</ele>
        <time>2022-11-19T15:45:48Z</time>
      </trkpt>
      <trkpt lat="48.37312" lon="2.74248">
        <ele>71.599998474121</ele>
        <time>2022-11-19T15:45:52Z</time>
      </trkpt>
      <trkpt lat="48.37317" lon="2.74244">
        <ele>71.599998474121</ele>
        <time>2022-11-19T15:45:56Z</time>
      </trkpt>
      <trkpt lat="48.3732" lon="2.74241">
        <ele>71.599998474121</ele>
        <time>2022-11-19T15:46:00Z</time>
      </trkpt>
      <trkpt lat="48.37324" lon="2.74239">
        <ele>71.599998474121</ele>
        <time>2022-11-19T15:46:04Z</time>
      </trkpt>
      <trkpt lat="48.37328" lon="2.74235">
        <ele>71.400001525879</ele>
        <time>2022-11-19T15:46:08Z</time>
      </trkpt>
      <trkpt lat="48.37332" lon="2.74231">
        <ele>71.400001525879</ele>
        <time>2022-11-19T15:46:12Z</time>
      </trkpt>
      <trkpt lat="48.37337" lon="2.7423">
        <ele>71.400001525879</ele>
        <time>2022-11-19T15:46:16Z</time>
      </trkpt>
      <trkpt lat="48.37343" lon="2.74225">
        <ele>71.199996948242</ele>
        <time>2022-11-19T15:46:20Z</time>
      </trkpt>
      <trkpt lat="48.37348" lon="2.74221">
        <ele>71.199996948242</ele>
        <time>2022-11-19T15:46:24Z</time>
      </trkpt>
      <trkpt lat="48.37353" lon="2.74217">
        <ele>71</ele>
        <time>2022-11-19T15:46:28Z</time>
      </trkpt>
      <trkpt lat="48.37356" lon="2.74214">
        <ele>71</ele>
        <time>2022-11-19T15:46:32Z</time>
      </trkpt>
      <trkpt lat="48.3736" lon="2.74211">
        <ele>70.800003051758</ele>
        <time>2022-11-19T15:46:36Z</time>
      </trkpt>
      <trkpt lat="48.37364" lon="2.74208">
        <ele>70.800003051758</ele>
        <time>2022-11-19T15:46:40Z</time>
      </trkpt>
      <trkpt lat="48.37368" lon="2.74205">
        <ele>70.599998474121</ele>
        <time>2022-11-19T15:46:44Z</time>
      </trkpt>
      <trkpt lat="48.37372" lon="2.74201">
        <ele>70.599998474121</ele>
        <time>2022-11-19T15:46:48Z</time>
      </trkpt>
      <trkpt lat="48.37376" lon="2.74197">
        <ele>70.599998474121</ele>
        <time>2022-11-19T15:46:52Z</time>
      </trkpt>
      <trkpt lat="48.3738" lon="2.74193">
        <ele>70.599998474121</ele>
        <time>2022-11-19T15:46:56Z</time>
      </trkpt>
      <trkpt lat="48.37384" lon="2.74189">
        <ele>70.400001525879</ele>
        <time>2022-11-19T15:47:00Z</time>
      </trkpt>
      <trkpt lat="48.37388" lon="2.74185">
        <ele>70.400001525879</ele>
        <time>2022-11-19T15:47:04Z</time>
      </trkpt>
      <trkpt lat="48.37391" lon="2.74183">
        <ele>70.400001525879</ele>
        <time>2022-11-19T15:47:08Z</time>
      </trkpt>
      <trkpt lat="48.37395" lon="2.7418">
        <ele>70.400001525879</ele>
        <time>2022-11-19T15:47:12Z</time>
      </trkpt>
      <trkpt lat="48.374" lon="2.74179">
        <ele>70.199996948242</ele>
        <time>2022-11-19T15:47:16Z</time>
      </trkpt>
      <trkpt lat="48.37403" lon="2.74177">
        <ele>70</ele>
        <time>2022-11-19T15:47:20Z</time>
      </trkpt>
      <trkpt lat="48.37406" lon="2.74174">
        <ele>70</ele>
        <time>2022-11-19T15:47:24Z</time>
      </trkpt>
      <trkpt lat="48.37409" lon="2.7417">
        <ele>69.800003051758</ele>
        <time>2022-11-19T15:47:28Z</time>
      </trkpt>
      <trkpt lat="48.37412" lon="2.74166">
        <ele>69.800003051758</ele>
        <time>2022-11-19T15:47:32Z</time>
      </trkpt>
      <trkpt lat="48.37417" lon="2.74161">
        <ele>69.599998474121</ele>
        <time>2022-11-19T15:47:36Z</time>
      </trkpt>
      <trkpt lat="48.37421" lon="2.74158">
        <ele>69.599998474121</ele>
        <time>2022-11-19T15:47:40Z</time>
      </trkpt>
      <trkpt lat="48.37425" lon="2.74155">
        <ele>69.599998474121</ele>
        <time>2022-11-19T15:47:44Z</time>
      </trkpt>
      <trkpt lat="48.37429" lon="2.74152">
        <ele>69.599998474121</ele>
        <time>2022-11-19T15:47:48Z</time>
      </trkpt>
      <trkpt lat="48.37432" lon="2.74149">
        <ele>69.400001525879</ele>
        <time>2022-11-19T15:47:52Z</time>
      </trkpt>
      <trkpt lat="48.37435" lon="2.74146">
        <ele>69.400001525879</ele>
        <time>2022-11-19T15:47:56Z</time>
      </trkpt>
      <trkpt lat="48.37438" lon="2.74144">
        <ele>69.199996948242</ele>
        <time>2022-11-19T15:48:00Z</time>
      </trkpt>
      <trkpt lat="48.37442" lon="2.74142">
        <ele>69.199996948242</ele>
        <time>2022-11-19T15:48:04Z</time>
      </trkpt>
      <trkpt lat="48.37446" lon="2.74139">
        <ele>69.199996948242</ele>
        <time>2022-11-19T15:48:08Z</time>
      </trkpt>
      <trkpt lat="48.37449" lon="2.74136">
        <ele>69.199996948242</ele>
        <time>2022-11-19T15:48:12Z</time>
      </trkpt>
      <trkpt lat="48.37454" lon="2.74131">
        <ele>68.800003051758</ele>
        <time>2022-11-19T15:48:16Z</time>
      </trkpt>
      <trkpt lat="48.37457" lon="2.74127">
        <ele>68.599998474121</ele>
        <time>2022-11-19T15:48:20Z</time>
      </trkpt>
      <trkpt lat="48.37462" lon="2.74125">
        <ele>68.599998474121</ele>
        <time>2022-11-19T15:48:24Z</time>
      </trkpt>
      <trkpt lat="48.37467" lon="2.74124">
        <ele>68.400001525879</ele>
        <time>2022-11-19T15:48:28Z</time>
      </trkpt>
      <trkpt lat="48.3747" lon="2.74122">
        <ele>68.400001525879</ele>
        <time>2022-11-19T15:48:32Z</time>
      </trkpt>
      <trkpt lat="48.37474" lon="2.74118">
        <ele>68.400001525879</ele>
        <time>2022-11-19T15:48:36Z</time>
      </trkpt>
      <trkpt lat="48.37478" lon="2.74115">
        <ele>68.199996948242</ele>
        <time>2022-11-19T15:48:40Z</time>
      </trkpt>
      <trkpt lat="48.37482" lon="2.74111">
        <ele>68.199996948242</ele>
        <time>2022-11-19T15:48:44Z</time>
      </trkpt>
      <trkpt lat="48.37486" lon="2.74106">
        <ele>68</ele>
        <time>2022-11-19T15:48:48Z</time>
      </trkpt>
      <trkpt lat="48.37489" lon="2.74103">
        <ele>67.800003051758</ele>
        <time>2022-11-19T15:48:52Z</time>
      </trkpt>
      <trkpt lat="48.37492" lon="2.741">
        <ele>67.800003051758</ele>
        <time>2022-11-19T15:48:56Z</time>
      </trkpt>
      <trkpt lat="48.37496" lon="2.74096">
        <ele>67.800003051758</ele>
        <time>2022-11-19T15:49:00Z</time>
      </trkpt>
      <trkpt lat="48.375" lon="2.74093">
        <ele>67.599998474121</ele>
        <time>2022-11-19T15:49:04Z</time>
      </trkpt>
      <trkpt lat="48.37505" lon="2.74091">
        <ele>67.599998474121</ele>
        <time>2022-11-19T15:49:08Z</time>
      </trkpt>
      <trkpt lat="48.37509" lon="2.74087">
        <ele>67.599998474121</ele>
        <time>2022-11-19T15:49:12Z</time>
      </trkpt>
      <trkpt lat="48.37514" lon="2.74083">
        <ele>67.400001525879</ele>
        <time>2022-11-19T15:49:16Z</time>
      </trkpt>
      <trkpt lat="48.37518" lon="2.7408">
        <ele>67.400001525879</ele>
        <time>2022-11-19T15:49:20Z</time>
      </trkpt>
      <trkpt lat="48.37521" lon="2.74078">
        <ele>67.400001525879</ele>
        <time>2022-11-19T15:49:24Z</time>
      </trkpt>
      <trkpt lat="48.37524" lon="2.74077">
        <ele>67.400001525879</ele>
        <time>2022-11-19T15:49:28Z</time>
      </trkpt>
      <trkpt lat="48.37527" lon="2.74072">
        <ele>67.400001525879</ele>
        <time>2022-11-19T15:49:32Z</time>
      </trkpt>
      <trkpt lat="48.37531" lon="2.74068">
        <ele>67.400001525879</ele>
        <time>2022-11-19T15:49:36Z</time>
      </trkpt>
      <trkpt lat="48.37535" lon="2.74064">
        <ele>67.400001525879</ele>
        <time>2022-11-19T15:49:40Z</time>
      </trkpt>
      <trkpt lat="48.3754" lon="2.74061">
        <ele>67.400001525879</ele>
        <time>2022-11-19T15:49:44Z</time>
      </trkpt>
      <trkpt lat="48.37546" lon="2.74057">
        <ele>67.400001525879</ele>
        <time>2022-11-19T15:49:48Z</time>
      </trkpt>
      <trkpt lat="48.37552" lon="2.74053">
        <ele>67.400001525879</ele>
        <time>2022-11-19T15:49:52Z</time>
      </trkpt>
      <trkpt lat="48.37557" lon="2.74049">
        <ele>67.400001525879</ele>
        <time>2022-11-19T15:49:56Z</time>
      </trkpt>
      <trkpt lat="48.3756" lon="2.74048">
        <ele>67.800003051758</ele>
        <time>2022-11-19T15:50:00Z</time>
      </trkpt>
      <trkpt lat="48.37563" lon="2.74046">
        <ele>67.800003051758</ele>
        <time>2022-11-19T15:50:04Z</time>
      </trkpt>
      <trkpt lat="48.37567" lon="2.74042">
        <ele>67.800003051758</ele>
        <time>2022-11-19T15:50:08Z</time>
      </trkpt>
      <trkpt lat="48.3757" lon="2.74039">
        <ele>68</ele>
        <time>2022-11-19T15:50:12Z</time>
      </trkpt>
      <trkpt lat="48.37573" lon="2.74036">
        <ele>68</ele>
        <time>2022-11-19T15:50:16Z</time>
      </trkpt>
      <trkpt lat="48.37576" lon="2.74033">
        <ele>68.199996948242</ele>
        <time>2022-11-19T15:50:20Z</time>
      </trkpt>
      <trkpt lat="48.3758" lon="2.74029">
        <ele>68.199996948242</ele>
        <time>2022-11-19T15:50:24Z</time>
      </trkpt>
      <trkpt lat="48.37584" lon="2.74025">
        <ele>68.199996948242</ele>
        <time>2022-11-19T15:50:28Z</time>
      </trkpt>
      <trkpt lat="48.37589" lon="2.74022">
        <ele>68.199996948242</ele>
        <time>2022-11-19T15:50:32Z</time>
      </trkpt>
      <trkpt lat="48.37592" lon="2.74018">
        <ele>68.199996948242</ele>
        <time>2022-11-19T15:50:36Z</time>
      </trkpt>
      <trkpt lat="48.37596" lon="2.74015">
        <ele>68</ele>
        <time>2022-11-19T15:50:40Z</time>
      </trkpt>
      <trkpt lat="48.37599" lon="2.74011">
        <ele>68.199996948242</ele>
        <time>2022-11-19T15:50:44Z</time>
      </trkpt>
      <trkpt lat="48.37603" lon="2.74009">
        <ele>68.199996948242</ele>
        <time>2022-11-19T15:50:48Z</time>
      </trkpt>
      <trkpt lat="48.37607" lon="2.74005">
        <ele>68.199996948242</ele>
        <time>2022-11-19T15:50:52Z</time>
      </trkpt>
      <trkpt lat="48.3761" lon="2.74002">
        <ele>68.400001525879</ele>
        <time>2022-11-19T15:50:56Z</time>
      </trkpt>
      <trkpt lat="48.37613" lon="2.73999">
        <ele>68.400001525879</ele>
        <time>2022-11-19T15:51:00Z</time>
      </trkpt>
      <trkpt lat="48.37617" lon="2.73997">
        <ele>68.400001525879</ele>
        <time>2022-11-19T15:51:04Z</time>
      </trkpt>
      <trkpt lat="48.3762" lon="2.73995">
        <ele>68.400001525879</ele>
        <time>2022-11-19T15:51:08Z</time>
      </trkpt>
      <trkpt lat="48.37623" lon="2.73992">
        <ele>68.400001525879</ele>
        <time>2022-11-19T15:51:12Z</time>
      </trkpt>
      <trkpt lat="48.37625" lon="2.73991">
        <ele>68.400001525879</ele>
        <time>2022-11-19T15:51:16Z</time>
      </trkpt>
      <trkpt lat="48.37627" lon="2.73988">
        <ele>68.599998474121</ele>
        <time>2022-11-19T15:51:20Z</time>
      </trkpt>
      <trkpt lat="48.37628" lon="2.73986">
        <ele>68.599998474121</ele>
        <time>2022-11-19T15:51:24Z</time>
      </trkpt>
      <trkpt lat="48.37628" lon="2.73984">
        <ele>68.599998474121</ele>
        <time>2022-11-19T15:51:28Z</time>
      </trkpt>
      <trkpt lat="48.3763" lon="2.7398">
        <ele>68.400001525879</ele>
        <time>2022-11-19T15:51:32Z</time>
      </trkpt>
      <trkpt lat="48.3763" lon="2.73977">
        <ele>68.400001525879</ele>
        <time>2022-11-19T15:51:36Z</time>
      </trkpt>
      <trkpt lat="48.37629" lon="2.73975">
        <ele>68.400001525879</ele>
        <time>2022-11-19T15:51:40Z</time>
      </trkpt>
      <trkpt lat="48.37628" lon="2.7397">
        <ele>68.400001525879</ele>
        <time>2022-11-19T15:51:44Z</time>
      </trkpt>
      <trkpt lat="48.37628" lon="2.73969">
        <ele>68.400001525879</ele>
        <time>2022-11-19T15:51:48Z</time>
      </trkpt>
      <trkpt lat="48.37628" lon="2.73969">
        <ele>68.599998474121</ele>
        <time>2022-11-19T15:51:52Z</time>
      </trkpt>
      <trkpt lat="48.37629" lon="2.7397">
        <ele>68.400001525879</ele>
        <time>2022-11-19T15:51:56Z</time>
      </trkpt>
      <trkpt lat="48.37629" lon="2.7397">
        <ele>68.400001525879</ele>
        <time>2022-11-19T15:52:00Z</time>
      </trkpt>
      <trkpt lat="48.37629" lon="2.7397">
        <ele>68.400001525879</ele>
        <time>2022-11-19T15:52:04Z</time>
      </trkpt>
      <trkpt lat="48.37631" lon="2.7397">
        <ele>68.400001525879</ele>
        <time>2022-11-19T15:52:08Z</time>
      </trkpt>
      <trkpt lat="48.37632" lon="2.7397">
        <ele>68.400001525879</ele>
        <time>2022-11-19T15:52:12Z</time>
      </trkpt>
      <trkpt lat="48.37632" lon="2.73971">
        <ele>68.400001525879</ele>
        <time>2022-11-19T15:52:16Z</time>
      </trkpt>
      <trkpt lat="48.37633" lon="2.73972">
        <ele>68.400001525879</ele>
        <time>2022-11-19T15:52:20Z</time>
      </trkpt>
      <trkpt lat="48.37632" lon="2.73975">
        <ele>68.400001525879</ele>
        <time>2022-11-19T15:52:24Z</time>
      </trkpt>
      <trkpt lat="48.37632" lon="2.73976">
        <ele>68.400001525879</ele>
        <time>2022-11-19T15:52:28Z</time>
      </trkpt>
      <trkpt lat="48.37633" lon="2.73976">
        <ele>68.400001525879</ele>
        <time>2022-11-19T15:52:32Z</time>
      </trkpt>
      <trkpt lat="48.37634" lon="2.73975">
        <ele>68.400001525879</ele>
        <time>2022-11-19T15:52:36Z</time>
      </trkpt>
      <trkpt lat="48.37635" lon="2.73974">
        <ele>68.400001525879</ele>
        <time>2022-11-19T15:52:40Z</time>
      </trkpt>
      <trkpt lat="48.37635" lon="2.73973">
        <ele>68.400001525879</ele>
        <time>2022-11-19T15:52:44Z</time>
      </trkpt>
      <trkpt lat="48.37635" lon="2.73971">
        <ele>68.400001525879</ele>
        <time>2022-11-19T15:52:48Z</time>
      </trkpt>
      <trkpt lat="48.37636" lon="2.73972">
        <ele>68.400001525879</ele>
        <time>2022-11-19T15:52:52Z</time>
      </trkpt>
      <trkpt lat="48.37637" lon="2.73973">
        <ele>68.400001525879</ele>
        <time>2022-11-19T15:52:56Z</time>
      </trkpt>
      <trkpt lat="48.37637" lon="2.73974">
        <ele>68.400001525879</ele>
        <time>2022-11-19T15:53:00Z</time>
      </trkpt>
      <trkpt lat="48.37636" lon="2.73973">
        <ele>68.400001525879</ele>
        <time>2022-11-19T15:53:04Z</time>
      </trkpt>
      <trkpt lat="48.37636" lon="2.73973">
        <ele>68.199996948242</ele>
        <time>2022-11-19T15:53:08Z</time>
      </trkpt>
      <trkpt lat="48.37635" lon="2.73973">
        <ele>68.199996948242</ele>
        <time>2022-11-19T15:53:12Z</time>
      </trkpt>
      <trkpt lat="48.37634" lon="2.73972">
        <ele>68.199996948242</ele>
        <time>2022-11-19T15:53:16Z</time>
      </trkpt>
      <trkpt lat="48.37634" lon="2.73971">
        <ele>68.199996948242</ele>
        <time>2022-11-19T15:53:20Z</time>
      </trkpt>
      <trkpt lat="48.37633" lon="2.73971">
        <ele>68.199996948242</ele>
        <time>2022-11-19T15:53:24Z</time>
      </trkpt>
      <trkpt lat="48.37633" lon="2.73971">
        <ele>68.199996948242</ele>
        <time>2022-11-19T15:53:28Z</time>
      </trkpt>
      <trkpt lat="48.37633" lon="2.7397">
        <ele>68.199996948242</ele>
        <time>2022-11-19T15:53:32Z</time>
      </trkpt>
      <trkpt lat="48.37632" lon="2.7397">
        <ele>68.199996948242</ele>
        <time>2022-11-19T15:53:34Z</time>
      </trkpt>
    </trkseg>
  </trk>
</gpx>